<?xml version='1.0' encoding='UTF-8'?><gpx version="1.1" creator="JPX - https://github.com/jenetics/jpx" xmlns="http://www.topografix.com/GPX/1/1"><trk><trkseg><trkpt lat="47.72767656487201" lon="-1.7296304460631027"><ele>54.5</ele><time>2026-03-22T13:46:00Z</time></trkpt><trkpt lat="47.72774771726878" lon="-1.729700862501305"><ele>55.0</ele><time>2026-03-22T13:46:45.999Z</time></trkpt><trkpt lat="47.72781861556673" lon="-1.729749840035473"><ele>55.5</ele><time>2026-03-22T13:46:47.999Z</time></trkpt><trkpt lat="47.727843264672046" lon="-1.7296517019400444"><ele>56.0</ele><time>2026-03-22T13:46:53.999Z</time></trkpt><trkpt lat="47.727976765192935" lon="-1.7296282849482323"><ele>56.5</ele><time>2026-03-22T13:47:01.999Z</time></trkpt><trkpt lat="47.72805218921345" lon="-1.7296381826094387"><ele>57.0</ele><time>2026-03-22T13:47:02.999Z</time></trkpt><trkpt lat="47.72816169742079" lon="-1.7295997262088099"><ele>57.0</ele><time>2026-03-22T13:47:04.999Z</time></trkpt><trkpt lat="47.728256075017434" lon="-1.7295557179645515"><ele>57.0</ele><time>2026-03-22T13:47:06.999Z</time></trkpt><trkpt lat="47.72838666518576" lon="-1.72970648518719"><ele>57.0</ele><time>2026-03-22T13:47:09.999Z</time></trkpt><trkpt lat="47.728427213461174" lon="-1.729878064421448"><ele>57.0</ele><time>2026-03-22T13:47:11.999Z</time></trkpt><trkpt lat="47.7284457386694" lon="-1.72997091269338"><ele>57.0</ele><time>2026-03-22T13:47:13.999Z</time></trkpt><trkpt lat="47.72863847384952" lon="-1.7299075656994225"><ele>57.0</ele><time>2026-03-22T13:47:15.999Z</time></trkpt><trkpt lat="47.72871473169064" lon="-1.7298711186070646"><ele>57.0</ele><time>2026-03-22T13:47:16.999Z</time></trkpt><trkpt lat="47.728803095072536" lon="-1.7298376159504263"><ele>57.0</ele><time>2026-03-22T13:47:17.999Z</time></trkpt><trkpt lat="47.72889882873688" lon="-1.7298234667198533"><ele>57.0</ele><time>2026-03-22T13:47:18.999Z</time></trkpt><trkpt lat="47.729004762382345" lon="-1.7298250405242568"><ele>57.0</ele><time>2026-03-22T13:47:19.999Z</time></trkpt><trkpt lat="47.72912490086428" lon="-1.7298448917922555"><ele>57.0</ele><time>2026-03-22T13:47:20.999Z</time></trkpt><trkpt lat="47.72922745767917" lon="-1.729849243522517"><ele>57.0</ele><time>2026-03-22T13:47:21.999Z</time></trkpt><trkpt lat="47.729331476854256" lon="-1.7298781479326961"><ele>57.0</ele><time>2026-03-22T13:47:22.999Z</time></trkpt><trkpt lat="47.7294451804114" lon="-1.729889809601769"><ele>57.400000000000006</ele><time>2026-03-22T13:47:23.999Z</time></trkpt><trkpt lat="47.72955358151895" lon="-1.7299093798896366"><ele>57.800000000000004</ele><time>2026-03-22T13:47:24.999Z</time></trkpt><trkpt lat="47.72965234085162" lon="-1.729923706104753"><ele>58.2</ele><time>2026-03-22T13:47:25.999Z</time></trkpt><trkpt lat="47.72973662987823" lon="-1.7299123405178136"><ele>58.6</ele><time>2026-03-22T13:47:26.999Z</time></trkpt><trkpt lat="47.72983366104784" lon="-1.7299016553024664"><ele>59.0</ele><time>2026-03-22T13:47:27.999Z</time></trkpt><trkpt lat="47.72993792328857" lon="-1.7298765061614974"><ele>59.0</ele><time>2026-03-22T13:47:28.999Z</time></trkpt><trkpt lat="47.730057071197244" lon="-1.7298533333059818"><ele>59.0</ele><time>2026-03-22T13:47:29.999Z</time></trkpt><trkpt lat="47.73016386369831" lon="-1.729791327400366"><ele>59.0</ele><time>2026-03-22T13:47:30.999Z</time></trkpt><trkpt lat="47.73028300857434" lon="-1.7297292123456391"><ele>59.0</ele><time>2026-03-22T13:47:31.999Z</time></trkpt><trkpt lat="47.73040165035313" lon="-1.729652652529339"><ele>59.25</ele><time>2026-03-22T13:47:32.999Z</time></trkpt><trkpt lat="47.73052025914842" lon="-1.7295799100283413"><ele>59.5</ele><time>2026-03-22T13:47:33.999Z</time></trkpt><trkpt lat="47.73065244234237" lon="-1.7295021152937837"><ele>59.75</ele><time>2026-03-22T13:47:34.999Z</time></trkpt><trkpt lat="47.73077207839971" lon="-1.7294149499602405"><ele>60.0</ele><time>2026-03-22T13:47:35.999Z</time></trkpt><trkpt lat="47.73088158004719" lon="-1.7293234716421961"><ele>60.0</ele><time>2026-03-22T13:47:36.999Z</time></trkpt><trkpt lat="47.73099766940861" lon="-1.7292435251842715"><ele>60.0</ele><time>2026-03-22T13:47:37.999Z</time></trkpt><trkpt lat="47.73112008992153" lon="-1.7291628648683066"><ele>60.0</ele><time>2026-03-22T13:47:38.999Z</time></trkpt><trkpt lat="47.73124138212952" lon="-1.7290784760062494"><ele>60.0</ele><time>2026-03-22T13:47:39.999Z</time></trkpt><trkpt lat="47.7313714777051" lon="-1.7289953154659738"><ele>60.25</ele><time>2026-03-22T13:47:40.999Z</time></trkpt><trkpt lat="47.73149471983511" lon="-1.7289074216905476"><ele>60.5</ele><time>2026-03-22T13:47:41.999Z</time></trkpt><trkpt lat="47.731623160119796" lon="-1.7288136253624136"><ele>60.75</ele><time>2026-03-22T13:47:42.999Z</time></trkpt><trkpt lat="47.73175957857671" lon="-1.728719144165949"><ele>61.0</ele><time>2026-03-22T13:47:43.999Z</time></trkpt><trkpt lat="47.73189679051091" lon="-1.728619568378866"><ele>62.666666666666664</ele><time>2026-03-22T13:47:44.999Z</time></trkpt><trkpt lat="47.73204180379021" lon="-1.7285256911045692"><ele>64.33333333333333</ele><time>2026-03-22T13:47:45.999Z</time></trkpt><trkpt lat="47.73218841201318" lon="-1.7284276505786786"><ele>66.0</ele><time>2026-03-22T13:47:46.998Z</time></trkpt><trkpt lat="47.73233944543809" lon="-1.728324567069613"><ele>66.0</ele><time>2026-03-22T13:47:47.998Z</time></trkpt><trkpt lat="47.732491089730324" lon="-1.728218665675799"><ele>66.0</ele><time>2026-03-22T13:47:48.998Z</time></trkpt><trkpt lat="47.732648185729" lon="-1.7281138107761338"><ele>66.0</ele><time>2026-03-22T13:47:49.998Z</time></trkpt><trkpt lat="47.732816853353306" lon="-1.7280097455252357"><ele>65.66666666666667</ele><time>2026-03-22T13:47:50.998Z</time></trkpt><trkpt lat="47.73297870491434" lon="-1.7279102410896026"><ele>65.33333333333334</ele><time>2026-03-22T13:47:51.998Z</time></trkpt><trkpt lat="47.733135707971655" lon="-1.7278222128733947"><ele>65.0</ele><time>2026-03-22T13:47:52.998Z</time></trkpt><trkpt lat="47.73329898127986" lon="-1.7277420424917282"><ele>65.66666666666667</ele><time>2026-03-22T13:47:53.998Z</time></trkpt><trkpt lat="47.73345710042494" lon="-1.7276656104246357"><ele>66.33333333333333</ele><time>2026-03-22T13:47:54.998Z</time></trkpt><trkpt lat="47.733632912612265" lon="-1.727586094444206"><ele>67.0</ele><time>2026-03-22T13:47:55.998Z</time></trkpt><trkpt lat="47.73380407700803" lon="-1.7274985735127106"><ele>67.0</ele><time>2026-03-22T13:47:56.998Z</time></trkpt><trkpt lat="47.733989904249704" lon="-1.7274161423882928"><ele>67.0</ele><time>2026-03-22T13:47:57.998Z</time></trkpt><trkpt lat="47.73415581949707" lon="-1.7273238481909121"><ele>67.0</ele><time>2026-03-22T13:47:58.998Z</time></trkpt><trkpt lat="47.7343379506843" lon="-1.7272611608627868"><ele>66.33333333333333</ele><time>2026-03-22T13:47:59.998Z</time></trkpt><trkpt lat="47.73451822190794" lon="-1.727162987217301"><ele>65.66666666666667</ele><time>2026-03-22T13:48:00.998Z</time></trkpt><trkpt lat="47.734697036541995" lon="-1.7270749403402117"><ele>65.0</ele><time>2026-03-22T13:48:01.998Z</time></trkpt><trkpt lat="47.73488827759883" lon="-1.7270103377504786"><ele>65.0</ele><time>2026-03-22T13:48:02.998Z</time></trkpt><trkpt lat="47.73508644263669" lon="-1.7269491857563548"><ele>65.0</ele><time>2026-03-22T13:48:03.998Z</time></trkpt><trkpt lat="47.735290924157994" lon="-1.7269048344386873"><ele>65.0</ele><time>2026-03-22T13:48:04.999Z</time></trkpt><trkpt lat="47.73547381062446" lon="-1.7268670355389044"><ele>66.0</ele><time>2026-03-22T13:48:05.999Z</time></trkpt><trkpt lat="47.7356502829835" lon="-1.7268345821998188"><ele>67.0</ele><time>2026-03-22T13:48:06.999Z</time></trkpt><trkpt lat="47.73581802259677" lon="-1.7268029211768616"><ele>68.0</ele><time>2026-03-22T13:48:07.999Z</time></trkpt><trkpt lat="47.735990739918606" lon="-1.7267659760655436"><ele>69.0</ele><time>2026-03-22T13:48:08.999Z</time></trkpt><trkpt lat="47.736168881879784" lon="-1.726728539746824"><ele>70.0</ele><time>2026-03-22T13:48:09.999Z</time></trkpt><trkpt lat="47.73635192919548" lon="-1.7266969044328846"><ele>71.0</ele><time>2026-03-22T13:48:10.999Z</time></trkpt><trkpt lat="47.73653683579551" lon="-1.7266621725341633"><ele>71.0</ele><time>2026-03-22T13:48:11.999Z</time></trkpt><trkpt lat="47.736724347560994" lon="-1.7266257006714911"><ele>71.0</ele><time>2026-03-22T13:48:12.999Z</time></trkpt><trkpt lat="47.736908325904295" lon="-1.7265899222857453"><ele>71.0</ele><time>2026-03-22T13:48:13.999Z</time></trkpt><trkpt lat="47.73708305131978" lon="-1.726529421586423"><ele>71.0</ele><time>2026-03-22T13:48:14.999Z</time></trkpt><trkpt lat="47.737262181739794" lon="-1.726491576456187"><ele>71.0</ele><time>2026-03-22T13:48:15.999Z</time></trkpt><trkpt lat="47.73743665542762" lon="-1.7264788267323445"><ele>71.0</ele><time>2026-03-22T13:48:16.999Z</time></trkpt><trkpt lat="47.737613137435886" lon="-1.7264213002107385"><ele>71.33333333333334</ele><time>2026-03-22T13:48:17.999Z</time></trkpt><trkpt lat="47.73778993240939" lon="-1.7263836397915224"><ele>71.66666666666667</ele><time>2026-03-22T13:48:18.999Z</time></trkpt><trkpt lat="47.73796821767452" lon="-1.7263488823494713"><ele>72.0</ele><time>2026-03-22T13:48:19.999Z</time></trkpt><trkpt lat="47.738147487168185" lon="-1.7263334953549252"><ele>72.0</ele><time>2026-03-22T13:48:20.999Z</time></trkpt><trkpt lat="47.738323992513926" lon="-1.7262952044306938"><ele>72.0</ele><time>2026-03-22T13:48:21.999Z</time></trkpt><trkpt lat="47.738507736270634" lon="-1.726264770713627"><ele>72.0</ele><time>2026-03-22T13:48:22.999Z</time></trkpt><trkpt lat="47.73868602368102" lon="-1.7262058694952982"><ele>72.66666666666667</ele><time>2026-03-22T13:48:23.999Z</time></trkpt><trkpt lat="47.73886923355814" lon="-1.7261656327177561"><ele>73.33333333333334</ele><time>2026-03-22T13:48:24.999Z</time></trkpt><trkpt lat="47.739055680493784" lon="-1.726124685031557"><ele>74.0</ele><time>2026-03-22T13:48:25.999Z</time></trkpt><trkpt lat="47.739242277295475" lon="-1.7260857833669287"><ele>73.66666666666667</ele><time>2026-03-22T13:48:26.999Z</time></trkpt><trkpt lat="47.73943248667303" lon="-1.7260712979296176"><ele>73.33333333333333</ele><time>2026-03-22T13:48:27.999Z</time></trkpt><trkpt lat="47.73962328258192" lon="-1.7260288706832572"><ele>73.0</ele><time>2026-03-22T13:48:28.999Z</time></trkpt><trkpt lat="47.739810653180044" lon="-1.725969659485661"><ele>72.66666666666666</ele><time>2026-03-22T13:48:29.999Z</time></trkpt><trkpt lat="47.73999909633739" lon="-1.7259323330786096"><ele>72.33333333333333</ele><time>2026-03-22T13:48:30.999Z</time></trkpt><trkpt lat="47.740187710739534" lon="-1.7258949727448036"><ele>72.0</ele><time>2026-03-22T13:48:31.999Z</time></trkpt><trkpt lat="47.74037771288466" lon="-1.7258714714681427"><ele>72.0</ele><time>2026-03-22T13:48:32.999Z</time></trkpt><trkpt lat="47.74056591743082" lon="-1.7258326906879615"><ele>72.0</ele><time>2026-03-22T13:48:33.999Z</time></trkpt><trkpt lat="47.74075459590053" lon="-1.7257788274733747"><ele>72.0</ele><time>2026-03-22T13:48:34.999Z</time></trkpt><trkpt lat="47.740939333952504" lon="-1.725740096449282"><ele>72.33333333333333</ele><time>2026-03-22T13:48:35.999Z</time></trkpt><trkpt lat="47.74112156367541" lon="-1.7257008602328745"><ele>72.66666666666666</ele><time>2026-03-22T13:48:36.999Z</time></trkpt><trkpt lat="47.741307941575386" lon="-1.7256766265386179"><ele>73.0</ele><time>2026-03-22T13:48:37.999Z</time></trkpt><trkpt lat="47.741493569765225" lon="-1.7256354371260871"><ele>73.0</ele><time>2026-03-22T13:48:38.999Z</time></trkpt><trkpt lat="47.74167882830824" lon="-1.725590823655644"><ele>73.0</ele><time>2026-03-22T13:48:39.999Z</time></trkpt><trkpt lat="47.74186282822992" lon="-1.7255618501906516"><ele>73.0</ele><time>2026-03-22T13:48:40.999Z</time></trkpt><trkpt lat="47.74203550639037" lon="-1.7255343099030602"><ele>72.33333333333333</ele><time>2026-03-22T13:48:41.999Z</time></trkpt><trkpt lat="47.74221012807026" lon="-1.7254776315600258"><ele>71.66666666666667</ele><time>2026-03-22T13:48:42.999Z</time></trkpt><trkpt lat="47.742388234212086" lon="-1.725464716473718"><ele>71.0</ele><time>2026-03-22T13:48:43.999Z</time></trkpt><trkpt lat="47.74256902198903" lon="-1.7254266989141003"><ele>70.66666666666667</ele><time>2026-03-22T13:48:44.999Z</time></trkpt><trkpt lat="47.74274113040942" lon="-1.725398099991543"><ele>70.33333333333333</ele><time>2026-03-22T13:48:45.999Z</time></trkpt><trkpt lat="47.742914443644736" lon="-1.7253646550933683"><ele>70.0</ele><time>2026-03-22T13:48:46.999Z</time></trkpt><trkpt lat="47.74309016215063" lon="-1.725337315515503"><ele>70.0</ele><time>2026-03-22T13:48:47.999Z</time></trkpt><trkpt lat="47.74326402858082" lon="-1.7253182524899433"><ele>70.0</ele><time>2026-03-22T13:48:48.999Z</time></trkpt><trkpt lat="47.743440008318395" lon="-1.7253131466532396"><ele>70.0</ele><time>2026-03-22T13:48:49.999Z</time></trkpt><trkpt lat="47.74362480025532" lon="-1.725303826244093"><ele>71.0</ele><time>2026-03-22T13:48:50.999Z</time></trkpt><trkpt lat="47.74380099850464" lon="-1.7252917115895505"><ele>72.0</ele><time>2026-03-22T13:48:51.999Z</time></trkpt><trkpt lat="47.74398269763515" lon="-1.7252777915651256"><ele>73.0</ele><time>2026-03-22T13:48:52.999Z</time></trkpt><trkpt lat="47.74417003849537" lon="-1.7252686278258116"><ele>73.0</ele><time>2026-03-22T13:48:53.999Z</time></trkpt><trkpt lat="47.744349385786066" lon="-1.7252462564068674"><ele>73.0</ele><time>2026-03-22T13:48:54.999Z</time></trkpt><trkpt lat="47.74453669935787" lon="-1.7252381577955294"><ele>73.0</ele><time>2026-03-22T13:48:55.999Z</time></trkpt><trkpt lat="47.74472721876261" lon="-1.7252248481985544"><ele>72.0</ele><time>2026-03-22T13:48:56.999Z</time></trkpt><trkpt lat="47.744916027734924" lon="-1.7252140679330314"><ele>71.0</ele><time>2026-03-22T13:48:57.999Z</time></trkpt><trkpt lat="47.74510753724059" lon="-1.7252030048046938"><ele>70.0</ele><time>2026-03-22T13:48:58.999Z</time></trkpt><trkpt lat="47.7452981917562" lon="-1.7251909644699754"><ele>70.0</ele><time>2026-03-22T13:48:59.999Z</time></trkpt><trkpt lat="47.74549756312152" lon="-1.7251810109012773"><ele>70.0</ele><time>2026-03-22T13:49:00.999Z</time></trkpt><trkpt lat="47.7456863979886" lon="-1.725165312160209"><ele>70.0</ele><time>2026-03-22T13:49:01.999Z</time></trkpt><trkpt lat="47.74587406882602" lon="-1.725156519810334"><ele>70.0</ele><time>2026-03-22T13:49:02.999Z</time></trkpt><trkpt lat="47.746058897784394" lon="-1.725144358415235"><ele>70.0</ele><time>2026-03-22T13:49:03.999Z</time></trkpt><trkpt lat="47.74624674307394" lon="-1.7251311003495005"><ele>70.0</ele><time>2026-03-22T13:49:04.999Z</time></trkpt><trkpt lat="47.74643056599536" lon="-1.7251199513260442"><ele>70.0</ele><time>2026-03-22T13:49:05.999Z</time></trkpt><trkpt lat="47.746616363509155" lon="-1.7251161894424998"><ele>70.0</ele><time>2026-03-22T13:49:06.999Z</time></trkpt><trkpt lat="47.74679935771609" lon="-1.7251137361476654"><ele>70.0</ele><time>2026-03-22T13:49:07.999Z</time></trkpt><trkpt lat="47.7469816572789" lon="-1.7250805504110605"><ele>69.66666666666666</ele><time>2026-03-22T13:49:08.999Z</time></trkpt><trkpt lat="47.74716410693446" lon="-1.725086696990616"><ele>69.33333333333333</ele><time>2026-03-22T13:49:09.999Z</time></trkpt><trkpt lat="47.7473477598812" lon="-1.7250755028443652"><ele>69.0</ele><time>2026-03-22T13:49:10.999Z</time></trkpt><trkpt lat="47.747534620765784" lon="-1.7250643307493956"><ele>69.0</ele><time>2026-03-22T13:49:11.999Z</time></trkpt><trkpt lat="47.747717358420104" lon="-1.7250514562448358"><ele>69.0</ele><time>2026-03-22T13:49:12.999Z</time></trkpt><trkpt lat="47.747908974312764" lon="-1.7250437586398053"><ele>69.0</ele><time>2026-03-22T13:49:13.999Z</time></trkpt><trkpt lat="47.74809581347193" lon="-1.7250350783274482"><ele>69.0</ele><time>2026-03-22T13:49:14.999Z</time></trkpt><trkpt lat="47.748280782417744" lon="-1.7250264152462145"><ele>69.0</ele><time>2026-03-22T13:49:15.999Z</time></trkpt><trkpt lat="47.748466952250475" lon="-1.7250167726931764"><ele>69.0</ele><time>2026-03-22T13:49:16.999Z</time></trkpt><trkpt lat="47.748653698965725" lon="-1.7250027962979904"><ele>70.0</ele><time>2026-03-22T13:49:17.999Z</time></trkpt><trkpt lat="47.74883806440282" lon="-1.7249856488009985"><ele>71.0</ele><time>2026-03-22T13:49:18.999Z</time></trkpt><trkpt lat="47.74902079522472" lon="-1.724983910516043"><ele>72.0</ele><time>2026-03-22T13:49:19.999Z</time></trkpt><trkpt lat="47.749202623469" lon="-1.7249730066844238"><ele>73.33333333333333</ele><time>2026-03-22T13:49:20.999Z</time></trkpt><trkpt lat="47.7493850625417" lon="-1.7249545718278902"><ele>74.66666666666666</ele><time>2026-03-22T13:49:21.999Z</time></trkpt><trkpt lat="47.74956284167079" lon="-1.7249383920180192"><ele>76.0</ele><time>2026-03-22T13:49:22.999Z</time></trkpt><trkpt lat="47.749740934876485" lon="-1.724929896792088"><ele>76.0</ele><time>2026-03-22T13:49:23.999Z</time></trkpt><trkpt lat="47.74991691920324" lon="-1.7249281977275603"><ele>76.0</ele><time>2026-03-22T13:49:24.999Z</time></trkpt><trkpt lat="47.75009670355953" lon="-1.7249356903398922"><ele>76.0</ele><time>2026-03-22T13:49:25.999Z</time></trkpt><trkpt lat="47.750266966843554" lon="-1.7249533610412944"><ele>76.33333333333333</ele><time>2026-03-22T13:49:26.999Z</time></trkpt><trkpt lat="47.750453749718936" lon="-1.7249920346230643"><ele>76.66666666666667</ele><time>2026-03-22T13:49:27.999Z</time></trkpt><trkpt lat="47.75065483426764" lon="-1.7250563140855317"><ele>77.0</ele><time>2026-03-22T13:49:28.999Z</time></trkpt><trkpt lat="47.75086237174504" lon="-1.7251308355121755"><ele>77.0</ele><time>2026-03-22T13:49:29.999Z</time></trkpt><trkpt lat="47.7510537706739" lon="-1.725216539389546"><ele>77.0</ele><time>2026-03-22T13:49:30.999Z</time></trkpt><trkpt lat="47.751242314741" lon="-1.7252665639088591"><ele>77.0</ele><time>2026-03-22T13:49:31.999Z</time></trkpt><trkpt lat="47.751420692463725" lon="-1.725338371068665"><ele>77.0</ele><time>2026-03-22T13:49:32.999Z</time></trkpt><trkpt lat="47.751589098031616" lon="-1.7254278572862087"><ele>77.0</ele><time>2026-03-22T13:49:33.999Z</time></trkpt><trkpt lat="47.75175716132363" lon="-1.7254873743610646"><ele>77.0</ele><time>2026-03-22T13:49:34.999Z</time></trkpt><trkpt lat="47.7519214443559" lon="-1.725547122374367"><ele>75.5</ele><time>2026-03-22T13:49:35.999Z</time></trkpt><trkpt lat="47.75205601555134" lon="-1.7255810541717964"><ele>74.0</ele><time>2026-03-22T13:49:36.999Z</time></trkpt><trkpt lat="47.75219047902138" lon="-1.7256525092249688"><ele>72.5</ele><time>2026-03-22T13:49:37.999Z</time></trkpt><trkpt lat="47.75232139150939" lon="-1.7256728036422306"><ele>71.0</ele><time>2026-03-22T13:49:38.999Z</time></trkpt><trkpt lat="47.75246247048605" lon="-1.7257143511904325"><ele>71.0</ele><time>2026-03-22T13:49:39.999Z</time></trkpt><trkpt lat="47.75260829648146" lon="-1.7257427634971456"><ele>71.0</ele><time>2026-03-22T13:49:40.999Z</time></trkpt><trkpt lat="47.75275941688407" lon="-1.7257480070133504"><ele>71.0</ele><time>2026-03-22T13:49:41.999Z</time></trkpt><trkpt lat="47.75291075225283" lon="-1.7257513416184622"><ele>71.66666666666667</ele><time>2026-03-22T13:49:42.999Z</time></trkpt><trkpt lat="47.75306457685459" lon="-1.7257539838492846"><ele>72.33333333333333</ele><time>2026-03-22T13:49:43.999Z</time></trkpt><trkpt lat="47.75321704502561" lon="-1.7257707884807858"><ele>73.0</ele><time>2026-03-22T13:49:44.999Z</time></trkpt><trkpt lat="47.75337001903997" lon="-1.7257678128259673"><ele>73.0</ele><time>2026-03-22T13:49:45.999Z</time></trkpt><trkpt lat="47.753523653591586" lon="-1.7257719582127253"><ele>73.0</ele><time>2026-03-22T13:49:46.999Z</time></trkpt><trkpt lat="47.75367304734944" lon="-1.7257724954216107"><ele>73.0</ele><time>2026-03-22T13:49:47.999Z</time></trkpt><trkpt lat="47.75382337214398" lon="-1.7257778065091993"><ele>72.25</ele><time>2026-03-22T13:49:48.999Z</time></trkpt><trkpt lat="47.75396218786831" lon="-1.7257974132546545"><ele>71.5</ele><time>2026-03-22T13:49:49.999Z</time></trkpt><trkpt lat="47.75408530338004" lon="-1.725852561265232"><ele>70.75</ele><time>2026-03-22T13:49:50.999Z</time></trkpt><trkpt lat="47.754229253822615" lon="-1.7259354481203772"><ele>70.0</ele><time>2026-03-22T13:49:51.999Z</time></trkpt><trkpt lat="47.75437309910919" lon="-1.726038091118985"><ele>67.66666666666666</ele><time>2026-03-22T13:49:52.999Z</time></trkpt><trkpt lat="47.75451015975912" lon="-1.7261414580846528"><ele>65.33333333333333</ele><time>2026-03-22T13:49:53.999Z</time></trkpt><trkpt lat="47.75466344378948" lon="-1.7262733936403194"><ele>63.0</ele><time>2026-03-22T13:49:54.999Z</time></trkpt><trkpt lat="47.75481972618701" lon="-1.7263701758050936"><ele>63.0</ele><time>2026-03-22T13:49:55.999Z</time></trkpt><trkpt lat="47.754978601084105" lon="-1.726491326370598"><ele>63.0</ele><time>2026-03-22T13:49:56.998Z</time></trkpt><trkpt lat="47.75513511470342" lon="-1.7266125568604425"><ele>63.0</ele><time>2026-03-22T13:49:57.998Z</time></trkpt><trkpt lat="47.75530168371919" lon="-1.726733419213845"><ele>60.33333333333333</ele><time>2026-03-22T13:49:58.998Z</time></trkpt><trkpt lat="47.75547054961525" lon="-1.7268275437466305"><ele>57.666666666666664</ele><time>2026-03-22T13:49:59.998Z</time></trkpt><trkpt lat="47.75564547511767" lon="-1.7269159430385725"><ele>55.0</ele><time>2026-03-22T13:50:00.998Z</time></trkpt><trkpt lat="47.755808220781155" lon="-1.7269970099468273"><ele>55.0</ele><time>2026-03-22T13:50:01.998Z</time></trkpt><trkpt lat="47.75597924448393" lon="-1.727075495895732"><ele>55.0</ele><time>2026-03-22T13:50:02.998Z</time></trkpt><trkpt lat="47.75614506874409" lon="-1.7271525798565364"><ele>55.0</ele><time>2026-03-22T13:50:03.998Z</time></trkpt><trkpt lat="47.75631432114971" lon="-1.7272331077162355"><ele>52.33333333333333</ele><time>2026-03-22T13:50:04.998Z</time></trkpt><trkpt lat="47.75648682019823" lon="-1.7273192805132311"><ele>49.666666666666664</ele><time>2026-03-22T13:50:05.998Z</time></trkpt><trkpt lat="47.75665692860796" lon="-1.7274047298569335"><ele>47.0</ele><time>2026-03-22T13:50:06.998Z</time></trkpt><trkpt lat="47.756822970859595" lon="-1.7274834943782083"><ele>45.33333333333333</ele><time>2026-03-22T13:50:07.998Z</time></trkpt><trkpt lat="47.75699219265958" lon="-1.727564189541821"><ele>43.666666666666664</ele><time>2026-03-22T13:50:08.998Z</time></trkpt><trkpt lat="47.75715258542065" lon="-1.72764089478173"><ele>42.0</ele><time>2026-03-22T13:50:09.998Z</time></trkpt><trkpt lat="47.7573163687295" lon="-1.727719221487886"><ele>42.666666666666664</ele><time>2026-03-22T13:50:11Z</time></trkpt><trkpt lat="47.7574834250766" lon="-1.7277972355057707"><ele>43.33333333333333</ele><time>2026-03-22T13:50:12Z</time></trkpt><trkpt lat="47.757659235373474" lon="-1.727879078224431"><ele>44.0</ele><time>2026-03-22T13:50:13Z</time></trkpt><trkpt lat="47.75782688020593" lon="-1.7279560909329281"><ele>41.666666666666664</ele><time>2026-03-22T13:50:14Z</time></trkpt><trkpt lat="47.757993064066014" lon="-1.7280262922193634"><ele>39.333333333333336</ele><time>2026-03-22T13:50:15Z</time></trkpt><trkpt lat="47.75818194824144" lon="-1.7281209142679967"><ele>37.0</ele><time>2026-03-22T13:50:16Z</time></trkpt><trkpt lat="47.75835025201118" lon="-1.7281537607580921"><ele>37.0</ele><time>2026-03-22T13:50:17Z</time></trkpt><trkpt lat="47.75852485527819" lon="-1.728212234869401"><ele>37.0</ele><time>2026-03-22T13:50:18Z</time></trkpt><trkpt lat="47.758693394808226" lon="-1.7282686782359546"><ele>37.0</ele><time>2026-03-22T13:50:19Z</time></trkpt><trkpt lat="47.758864270314334" lon="-1.7283459698290626"><ele>36.0</ele><time>2026-03-22T13:50:20Z</time></trkpt><trkpt lat="47.759028033468574" lon="-1.7284010183133527"><ele>35.0</ele><time>2026-03-22T13:50:21Z</time></trkpt><trkpt lat="47.75919711981897" lon="-1.7284586225785386"><ele>34.0</ele><time>2026-03-22T13:50:22Z</time></trkpt><trkpt lat="47.75936648353565" lon="-1.7285155742930947"><ele>33.0</ele><time>2026-03-22T13:50:23Z</time></trkpt><trkpt lat="47.75953837621353" lon="-1.7285741032826247"><ele>32.0</ele><time>2026-03-22T13:50:24Z</time></trkpt><trkpt lat="47.75970340722724" lon="-1.7286380229732037"><ele>31.0</ele><time>2026-03-22T13:50:25Z</time></trkpt><trkpt lat="47.759868064925975" lon="-1.7286991981904067"><ele>31.0</ele><time>2026-03-22T13:50:26Z</time></trkpt><trkpt lat="47.760030821934485" lon="-1.7287573718294664"><ele>31.0</ele><time>2026-03-22T13:50:27Z</time></trkpt><trkpt lat="47.76019565612803" lon="-1.7287904179319906"><ele>31.0</ele><time>2026-03-22T13:50:28Z</time></trkpt><trkpt lat="47.760349025475605" lon="-1.728842451857896"><ele>30.333333333333336</ele><time>2026-03-22T13:50:29Z</time></trkpt><trkpt lat="47.76051343607323" lon="-1.7288966205542018"><ele>29.666666666666664</ele><time>2026-03-22T13:50:30Z</time></trkpt><trkpt lat="47.76067605381869" lon="-1.7289414961552538"><ele>29.0</ele><time>2026-03-22T13:50:31Z</time></trkpt><trkpt lat="47.76083406688542" lon="-1.7289947233754857"><ele>29.0</ele><time>2026-03-22T13:50:32Z</time></trkpt><trkpt lat="47.760995202120206" lon="-1.7290326127558"><ele>29.0</ele><time>2026-03-22T13:50:33Z</time></trkpt><trkpt lat="47.761150099865255" lon="-1.7291008868984463"><ele>29.0</ele><time>2026-03-22T13:50:34Z</time></trkpt><trkpt lat="47.76131148648143" lon="-1.729136538736668"><ele>29.666666666666664</ele><time>2026-03-22T13:50:35Z</time></trkpt><trkpt lat="47.76147259684167" lon="-1.7291836917394197"><ele>30.333333333333336</ele><time>2026-03-22T13:50:36Z</time></trkpt><trkpt lat="47.76164166983897" lon="-1.7292106285936302"><ele>31.0</ele><time>2026-03-22T13:50:37Z</time></trkpt><trkpt lat="47.761798054686736" lon="-1.7292574447279216"><ele>32.66666666666667</ele><time>2026-03-22T13:50:38Z</time></trkpt><trkpt lat="47.76195200349154" lon="-1.7293184381904512"><ele>34.333333333333336</ele><time>2026-03-22T13:50:39Z</time></trkpt><trkpt lat="47.762096125316745" lon="-1.7293997155104994"><ele>36.0</ele><time>2026-03-22T13:50:40Z</time></trkpt><trkpt lat="47.76223004195162" lon="-1.7294885669775415"><ele>36.0</ele><time>2026-03-22T13:50:41Z</time></trkpt><trkpt lat="47.76234392012437" lon="-1.729584641334137"><ele>36.0</ele><time>2026-03-22T13:50:42Z</time></trkpt><trkpt lat="47.76246743493782" lon="-1.7296861911437533"><ele>36.0</ele><time>2026-03-22T13:50:43Z</time></trkpt><trkpt lat="47.76259144981693" lon="-1.7297840660565094"><ele>36.0</ele><time>2026-03-22T13:50:44Z</time></trkpt><trkpt lat="47.762724765355024" lon="-1.7298878439702228"><ele>37.666666666666664</ele><time>2026-03-22T13:50:45Z</time></trkpt><trkpt lat="47.7628560530693" lon="-1.7299982320047893"><ele>39.33333333333333</ele><time>2026-03-22T13:50:46Z</time></trkpt><trkpt lat="47.76299171417708" lon="-1.7301070000321486"><ele>41.0</ele><time>2026-03-22T13:50:47Z</time></trkpt><trkpt lat="47.76312867729845" lon="-1.7302076244511966"><ele>41.666666666666664</ele><time>2026-03-22T13:50:48Z</time></trkpt><trkpt lat="47.763278051127855" lon="-1.730329745898811"><ele>42.333333333333336</ele><time>2026-03-22T13:50:49Z</time></trkpt><trkpt lat="47.76343101474043" lon="-1.7304171755124849"><ele>43.0</ele><time>2026-03-22T13:50:50Z</time></trkpt><trkpt lat="47.76358298239002" lon="-1.730529332782534"><ele>45.66666666666667</ele><time>2026-03-22T13:50:51Z</time></trkpt><trkpt lat="47.763739096242944" lon="-1.730675484798382"><ele>48.333333333333336</ele><time>2026-03-22T13:50:52Z</time></trkpt><trkpt lat="47.76390454938059" lon="-1.7308050716448056"><ele>51.0</ele><time>2026-03-22T13:50:53Z</time></trkpt><trkpt lat="47.76408190325292" lon="-1.7309158588377522"><ele>51.0</ele><time>2026-03-22T13:50:54Z</time></trkpt><trkpt lat="47.76423462611758" lon="-1.7310316492458575"><ele>51.0</ele><time>2026-03-22T13:50:55Z</time></trkpt><trkpt lat="47.76438056879481" lon="-1.7311428194530558"><ele>51.0</ele><time>2026-03-22T13:50:56Z</time></trkpt><trkpt lat="47.76451263991287" lon="-1.731245200673972"><ele>52.599999999999994</ele><time>2026-03-22T13:50:57Z</time></trkpt><trkpt lat="47.76462906521008" lon="-1.7313354532938685"><ele>54.2</ele><time>2026-03-22T13:50:58Z</time></trkpt><trkpt lat="47.76472759371757" lon="-1.7314118323541727"><ele>55.800000000000004</ele><time>2026-03-22T13:50:59Z</time></trkpt><trkpt lat="47.76481947319821" lon="-1.7314816811955984"><ele>57.400000000000006</ele><time>2026-03-22T13:51:00Z</time></trkpt><trkpt lat="47.76489651604731" lon="-1.731536370394456"><ele>59.0</ele><time>2026-03-22T13:51:01Z</time></trkpt><trkpt lat="47.76495951074673" lon="-1.731577509031771"><ele>59.0</ele><time>2026-03-22T13:51:01.999Z</time></trkpt><trkpt lat="47.76505904898727" lon="-1.7316173663560517"><ele>59.00000000000001</ele><time>2026-03-22T13:51:03.999Z</time></trkpt><trkpt lat="47.765154984698185" lon="-1.7315998829243857"><ele>59.00000000000001</ele><time>2026-03-22T13:51:05.999Z</time></trkpt><trkpt lat="47.765202881146195" lon="-1.7313869191198463"><ele>59.0</ele><time>2026-03-22T13:51:07.999Z</time></trkpt><trkpt lat="47.76523843886725" lon="-1.7312719076464822"><ele>59.0</ele><time>2026-03-22T13:51:08.999Z</time></trkpt><trkpt lat="47.76527566384454" lon="-1.7311633380455032"><ele>59.400000000000006</ele><time>2026-03-22T13:51:09.999Z</time></trkpt><trkpt lat="47.765313542453136" lon="-1.731035916304515"><ele>59.800000000000004</ele><time>2026-03-22T13:51:10.999Z</time></trkpt><trkpt lat="47.76535645653126" lon="-1.7308980285832218"><ele>60.199999999999996</ele><time>2026-03-22T13:51:11.999Z</time></trkpt><trkpt lat="47.76540337229229" lon="-1.7307510170702944"><ele>60.599999999999994</ele><time>2026-03-22T13:51:12.999Z</time></trkpt><trkpt lat="47.765440984800975" lon="-1.7306014687623843"><ele>61.0</ele><time>2026-03-22T13:51:13.999Z</time></trkpt><trkpt lat="47.76546975233478" lon="-1.730443447318384"><ele>60.99999999999999</ele><time>2026-03-22T13:51:14.999Z</time></trkpt><trkpt lat="47.76549232127371" lon="-1.7302938435896513"><ele>61.0</ele><time>2026-03-22T13:51:15.999Z</time></trkpt><trkpt lat="47.76550328385257" lon="-1.7301602416681827"><ele>61.0</ele><time>2026-03-22T13:51:16.999Z</time></trkpt><trkpt lat="47.76552067831555" lon="-1.730028444937578"><ele>61.0</ele><time>2026-03-22T13:51:17.999Z</time></trkpt><trkpt lat="47.765528561098066" lon="-1.7299058192171957"><ele>60.99999999999999</ele><time>2026-03-22T13:51:18.999Z</time></trkpt><trkpt lat="47.765522115599936" lon="-1.7297998413545563"><ele>61.0</ele><time>2026-03-22T13:51:19.999Z</time></trkpt><trkpt lat="47.76551330423687" lon="-1.7296862511877673"><ele>60.199999999999996</ele><time>2026-03-22T13:51:20.999Z</time></trkpt><trkpt lat="47.76550084574598" lon="-1.7295832580117514"><ele>59.39999999999999</ele><time>2026-03-22T13:51:21.999Z</time></trkpt><trkpt lat="47.76547401196644" lon="-1.7294914627435678"><ele>58.6</ele><time>2026-03-22T13:51:22.999Z</time></trkpt><trkpt lat="47.76544530685258" lon="-1.72935212640019"><ele>57.8</ele><time>2026-03-22T13:51:24.999Z</time></trkpt><trkpt lat="47.76543269625485" lon="-1.7292455769934092"><ele>57.0</ele><time>2026-03-22T13:51:27.999Z</time></trkpt><trkpt lat="47.76563716811715" lon="-1.7291713315263444"><ele>56.2</ele><time>2026-03-22T13:51:29.999Z</time></trkpt><trkpt lat="47.76571345412362" lon="-1.7291750852824546"><ele>55.400000000000006</ele><time>2026-03-22T13:51:30.999Z</time></trkpt><trkpt lat="47.765800200568634" lon="-1.7291965152468027"><ele>54.599999999999994</ele><time>2026-03-22T13:51:31.999Z</time></trkpt><trkpt lat="47.76591693376844" lon="-1.729208696864407"><ele>53.8</ele><time>2026-03-22T13:51:32.999Z</time></trkpt><trkpt lat="47.76604638776214" lon="-1.7292487440231799"><ele>53.0</ele><time>2026-03-22T13:51:33.999Z</time></trkpt><trkpt lat="47.76616448515569" lon="-1.7293164731574189"><ele>53.0</ele><time>2026-03-22T13:51:34.999Z</time></trkpt><trkpt lat="47.7663044168761" lon="-1.729374191826858"><ele>53.0</ele><time>2026-03-22T13:51:35.999Z</time></trkpt><trkpt lat="47.76645054761429" lon="-1.729444942946383"><ele>53.0</ele><time>2026-03-22T13:51:36.999Z</time></trkpt><trkpt lat="47.76659754351873" lon="-1.7295180411539668"><ele>54.66666666666667</ele><time>2026-03-22T13:51:37.999Z</time></trkpt><trkpt lat="47.76673506913562" lon="-1.729583068554265"><ele>56.33333333333333</ele><time>2026-03-22T13:51:38.999Z</time></trkpt><trkpt lat="47.76688959148199" lon="-1.7296397792083407"><ele>58.0</ele><time>2026-03-22T13:51:39.999Z</time></trkpt><trkpt lat="47.767061113927085" lon="-1.7296941864318494"><ele>58.0</ele><time>2026-03-22T13:51:40.999Z</time></trkpt><trkpt lat="47.76724205613959" lon="-1.7297210623055534"><ele>58.0</ele><time>2026-03-22T13:51:41.999Z</time></trkpt><trkpt lat="47.767414391735954" lon="-1.7297655360029252"><ele>58.0</ele><time>2026-03-22T13:51:42.999Z</time></trkpt><trkpt lat="47.76760001426123" lon="-1.729811190242225"><ele>57.666666666666664</ele><time>2026-03-22T13:51:43.999Z</time></trkpt><trkpt lat="47.76776160486584" lon="-1.729874491133369"><ele>57.33333333333333</ele><time>2026-03-22T13:51:44.999Z</time></trkpt><trkpt lat="47.767918472760606" lon="-1.7299115266721266"><ele>57.0</ele><time>2026-03-22T13:51:45.999Z</time></trkpt><trkpt lat="47.76804557953664" lon="-1.7299364032165436"><ele>57.0</ele><time>2026-03-22T13:51:46.999Z</time></trkpt><trkpt lat="47.76817524807678" lon="-1.7299475356285736"><ele>57.0</ele><time>2026-03-22T13:51:47.999Z</time></trkpt><trkpt lat="47.76831735644403" lon="-1.7299815447018512"><ele>57.0</ele><time>2026-03-22T13:51:48.999Z</time></trkpt><trkpt lat="47.76846218391404" lon="-1.730023604479386"><ele>57.0</ele><time>2026-03-22T13:51:49.999Z</time></trkpt><trkpt lat="47.7685912855575" lon="-1.7300628512229763"><ele>56.8</ele><time>2026-03-22T13:51:50.999Z</time></trkpt><trkpt lat="47.76871083110488" lon="-1.7300960435108714"><ele>56.6</ele><time>2026-03-22T13:51:51.999Z</time></trkpt><trkpt lat="47.76882567578429" lon="-1.7301279305734678"><ele>56.39999999999999</ele><time>2026-03-22T13:51:52.999Z</time></trkpt><trkpt lat="47.76892798758737" lon="-1.7301726719305541"><ele>56.199999999999996</ele><time>2026-03-22T13:51:53.999Z</time></trkpt><trkpt lat="47.76902470025686" lon="-1.7301903455974739"><ele>56.0</ele><time>2026-03-22T13:51:54.999Z</time></trkpt><trkpt lat="47.769125458398904" lon="-1.7301665731886529"><ele>56.0</ele><time>2026-03-22T13:51:55.999Z</time></trkpt><trkpt lat="47.76921184209935" lon="-1.730157735448908"><ele>55.99999999999999</ele><time>2026-03-22T13:51:56.999Z</time></trkpt><trkpt lat="47.769287277645795" lon="-1.730147785580125"><ele>55.99999999999999</ele><time>2026-03-22T13:51:57.999Z</time></trkpt><trkpt lat="47.76937076413973" lon="-1.730129434056799"><ele>56.0</ele><time>2026-03-22T13:51:58.999Z</time></trkpt><trkpt lat="47.769476761673054" lon="-1.7301331955212247"><ele>56.0</ele><time>2026-03-22T13:51:59.999Z</time></trkpt><trkpt lat="47.76958843060717" lon="-1.7301061752953297"><ele>55.25</ele><time>2026-03-22T13:52:00.999Z</time></trkpt><trkpt lat="47.76970806634076" lon="-1.7300631639417925"><ele>54.5</ele><time>2026-03-22T13:52:01.999Z</time></trkpt><trkpt lat="47.769841042472066" lon="-1.730036097996311"><ele>53.75</ele><time>2026-03-22T13:52:02.999Z</time></trkpt><trkpt lat="47.76998100948496" lon="-1.729998587523081"><ele>53.0</ele><time>2026-03-22T13:52:03.999Z</time></trkpt><trkpt lat="47.7701324139692" lon="-1.7299569497157041"><ele>52.5</ele><time>2026-03-22T13:52:04.999Z</time></trkpt><trkpt lat="47.77026060100343" lon="-1.729921206609026"><ele>52.0</ele><time>2026-03-22T13:52:05.999Z</time></trkpt><trkpt lat="47.770380445771785" lon="-1.7298865113153294"><ele>51.5</ele><time>2026-03-22T13:52:06.999Z</time></trkpt><trkpt lat="47.77047467995721" lon="-1.7298316999979397"><ele>51.0</ele><time>2026-03-22T13:52:07.999Z</time></trkpt><trkpt lat="47.77058385305704" lon="-1.7298107272456518"><ele>51.0</ele><time>2026-03-22T13:52:08.999Z</time></trkpt><trkpt lat="47.770654277882834" lon="-1.7298133283863542"><ele>51.0</ele><time>2026-03-22T13:52:09.999Z</time></trkpt><trkpt lat="47.77075737578679" lon="-1.7298050825618256"><ele>51.0</ele><time>2026-03-22T13:52:11.999Z</time></trkpt><trkpt lat="47.77082573077751" lon="-1.7297895178810778"><ele>51.0</ele><time>2026-03-22T13:52:13.999Z</time></trkpt><trkpt lat="47.770880282335604" lon="-1.7295883807171324"><ele>51.0</ele><time>2026-03-22T13:52:15.999Z</time></trkpt><trkpt lat="47.77088201527181" lon="-1.7294614034239193"><ele>50.5</ele><time>2026-03-22T13:52:17Z</time></trkpt><trkpt lat="47.77091071543695" lon="-1.729319697976931"><ele>50.0</ele><time>2026-03-22T13:52:18Z</time></trkpt><trkpt lat="47.77093153443392" lon="-1.7291730776587633"><ele>49.5</ele><time>2026-03-22T13:52:19Z</time></trkpt><trkpt lat="47.77095097834105" lon="-1.7290529338833729"><ele>49.0</ele><time>2026-03-22T13:52:20Z</time></trkpt><trkpt lat="47.77097478602096" lon="-1.7289421416937605"><ele>48.5</ele><time>2026-03-22T13:52:21Z</time></trkpt><trkpt lat="47.770990156761854" lon="-1.7288452363712687"><ele>48.0</ele><time>2026-03-22T13:52:22Z</time></trkpt><trkpt lat="47.771021782251864" lon="-1.7286617847166366"><ele>46.8</ele><time>2026-03-22T13:52:24Z</time></trkpt><trkpt lat="47.771060155717336" lon="-1.7285436582510474"><ele>45.599999999999994</ele><time>2026-03-22T13:52:25Z</time></trkpt><trkpt lat="47.77109094612643" lon="-1.7283976805658816"><ele>44.400000000000006</ele><time>2026-03-22T13:52:26Z</time></trkpt><trkpt lat="47.77112098508879" lon="-1.7282410266540105"><ele>43.2</ele><time>2026-03-22T13:52:27Z</time></trkpt><trkpt lat="47.7711663098225" lon="-1.7280742408733607"><ele>42.0</ele><time>2026-03-22T13:52:28Z</time></trkpt><trkpt lat="47.771199082430606" lon="-1.7279045085118265"><ele>42.0</ele><time>2026-03-22T13:52:29Z</time></trkpt><trkpt lat="47.77122536129723" lon="-1.7277513136886553"><ele>42.0</ele><time>2026-03-22T13:52:30Z</time></trkpt><trkpt lat="47.771246540635985" lon="-1.7275965229623176"><ele>42.0</ele><time>2026-03-22T13:52:31Z</time></trkpt><trkpt lat="47.77126660883687" lon="-1.7274389508365429"><ele>42.0</ele><time>2026-03-22T13:52:32Z</time></trkpt><trkpt lat="47.77129192299934" lon="-1.7272661586386633"><ele>42.0</ele><time>2026-03-22T13:52:33Z</time></trkpt><trkpt lat="47.77130745714996" lon="-1.7271000312349007"><ele>41.666666666666664</ele><time>2026-03-22T13:52:34Z</time></trkpt><trkpt lat="47.77132240201465" lon="-1.7269507505216055"><ele>41.333333333333336</ele><time>2026-03-22T13:52:35Z</time></trkpt><trkpt lat="47.77133168520434" lon="-1.7268205271774761"><ele>41.0</ele><time>2026-03-22T13:52:36Z</time></trkpt><trkpt lat="47.77134688067414" lon="-1.7266932990358543"><ele>40.66666666666667</ele><time>2026-03-22T13:52:37Z</time></trkpt><trkpt lat="47.771364901606724" lon="-1.7265741607661937"><ele>40.333333333333336</ele><time>2026-03-22T13:52:38Z</time></trkpt><trkpt lat="47.77137811823353" lon="-1.7264795709041247"><ele>40.0</ele><time>2026-03-22T13:52:39Z</time></trkpt><trkpt lat="47.77147983565789" lon="-1.726384454961998"><ele>39.66666666666667</ele><time>2026-03-22T13:52:41Z</time></trkpt><trkpt lat="47.77154360290787" lon="-1.7263818506330249"><ele>39.333333333333336</ele><time>2026-03-22T13:52:42Z</time></trkpt><trkpt lat="47.77162008332353" lon="-1.7263869592907035"><ele>39.0</ele><time>2026-03-22T13:52:43Z</time></trkpt><trkpt lat="47.77171072668737" lon="-1.7263908711786888"><ele>38.666666666666664</ele><time>2026-03-22T13:52:44Z</time></trkpt><trkpt lat="47.77179942656945" lon="-1.7264190602762735"><ele>38.33333333333333</ele><time>2026-03-22T13:52:45Z</time></trkpt><trkpt lat="47.77188547495763" lon="-1.7263959088323462"><ele>38.0</ele><time>2026-03-22T13:52:46Z</time></trkpt><trkpt lat="47.7719791363357" lon="-1.7263932017448311"><ele>37.6</ele><time>2026-03-22T13:52:47Z</time></trkpt><trkpt lat="47.77207849739826" lon="-1.7264008738726544"><ele>37.199999999999996</ele><time>2026-03-22T13:52:48Z</time></trkpt><trkpt lat="47.77218589529963" lon="-1.7264077777704898"><ele>36.8</ele><time>2026-03-22T13:52:49Z</time></trkpt><trkpt lat="47.77228446423374" lon="-1.726409869089115"><ele>36.4</ele><time>2026-03-22T13:52:50Z</time></trkpt><trkpt lat="47.77236436617009" lon="-1.7264150983645519"><ele>36.0</ele><time>2026-03-22T13:52:51Z</time></trkpt><trkpt lat="47.7724398515539" lon="-1.7264280851755112"><ele>36.0</ele><time>2026-03-22T13:52:52Z</time></trkpt><trkpt lat="47.77250809183368" lon="-1.7264450129254578"><ele>36.0</ele><time>2026-03-22T13:52:53Z</time></trkpt><trkpt lat="47.77257762150519" lon="-1.726426781638401"><ele>36.0</ele><time>2026-03-22T13:52:54Z</time></trkpt><trkpt lat="47.772654970304295" lon="-1.7264433334744123"><ele>36.0</ele><time>2026-03-22T13:52:55Z</time></trkpt><trkpt lat="47.77273512813589" lon="-1.7264461660746186"><ele>36.0</ele><time>2026-03-22T13:52:56Z</time></trkpt><trkpt lat="47.772808532247105" lon="-1.7264384275253546"><ele>36.0</ele><time>2026-03-22T13:52:57Z</time></trkpt><trkpt lat="47.77292795053126" lon="-1.7264266571829419"><ele>35.8</ele><time>2026-03-22T13:52:59Z</time></trkpt><trkpt lat="47.77302785430479" lon="-1.7263434685906978"><ele>35.6</ele><time>2026-03-22T13:53:01Z</time></trkpt><trkpt lat="47.77305534128746" lon="-1.726241086131614"><ele>35.4</ele><time>2026-03-22T13:53:02Z</time></trkpt><trkpt lat="47.773097834245306" lon="-1.726128011484693"><ele>35.2</ele><time>2026-03-22T13:53:03Z</time></trkpt><trkpt lat="47.77313458214054" lon="-1.7260478496190406"><ele>35.0</ele><time>2026-03-22T13:53:04Z</time></trkpt><trkpt lat="47.77324480821371" lon="-1.7259491861549834"><ele>34.75</ele><time>2026-03-22T13:53:06Z</time></trkpt><trkpt lat="47.77334146995464" lon="-1.7259655591496046"><ele>34.5</ele><time>2026-03-22T13:53:07Z</time></trkpt><trkpt lat="47.77345334799393" lon="-1.7259379692591166"><ele>34.25</ele><time>2026-03-22T13:53:08Z</time></trkpt><trkpt lat="47.773607672782525" lon="-1.7259135795314995"><ele>34.0</ele><time>2026-03-22T13:53:09Z</time></trkpt><trkpt lat="47.77377410836482" lon="-1.7258813142236908"><ele>35.333333333333336</ele><time>2026-03-22T13:53:10Z</time></trkpt><trkpt lat="47.77393130128058" lon="-1.7258422071686075"><ele>36.666666666666664</ele><time>2026-03-22T13:53:11Z</time></trkpt><trkpt lat="47.77410930937586" lon="-1.7258002660648224"><ele>38.0</ele><time>2026-03-22T13:53:12Z</time></trkpt><trkpt lat="47.77429816265669" lon="-1.7257805945151574"><ele>38.599999999999994</ele><time>2026-03-22T13:53:13Z</time></trkpt><trkpt lat="47.77443244975687" lon="-1.7257547420833015"><ele>39.199999999999996</ele><time>2026-03-22T13:53:14Z</time></trkpt><trkpt lat="47.774533340916626" lon="-1.7257185183032335"><ele>39.8</ele><time>2026-03-22T13:53:15Z</time></trkpt><trkpt lat="47.77460301025605" lon="-1.725696525631959"><ele>40.4</ele><time>2026-03-22T13:53:16Z</time></trkpt><trkpt lat="47.774723261170706" lon="-1.7256367296180042"><ele>41.0</ele><time>2026-03-22T13:53:17.999Z</time></trkpt><trkpt lat="47.77481517190054" lon="-1.7257127233674359"><ele>41.0</ele><time>2026-03-22T13:53:18.999Z</time></trkpt><trkpt lat="47.77491407649471" lon="-1.725732778953194"><ele>41.0</ele><time>2026-03-22T13:53:19.999Z</time></trkpt><trkpt lat="47.7750384681077" lon="-1.7257534599854871"><ele>41.0</ele><time>2026-03-22T13:53:20.999Z</time></trkpt><trkpt lat="47.775172021076514" lon="-1.7257702973983602"><ele>41.0</ele><time>2026-03-22T13:53:21.999Z</time></trkpt><trkpt lat="47.77527119568934" lon="-1.725787893725486"><ele>41.166666666666664</ele><time>2026-03-22T13:53:22.999Z</time></trkpt><trkpt lat="47.7753560253498" lon="-1.7257918031546577"><ele>41.33333333333333</ele><time>2026-03-22T13:53:23.999Z</time></trkpt><trkpt lat="47.775420544519875" lon="-1.7258034975271188"><ele>41.5</ele><time>2026-03-22T13:53:24.999Z</time></trkpt><trkpt lat="47.77548523014964" lon="-1.7258141781460195"><ele>41.666666666666664</ele><time>2026-03-22T13:53:25.999Z</time></trkpt><trkpt lat="47.77558580109853" lon="-1.7258288121351366"><ele>41.833333333333336</ele><time>2026-03-22T13:53:27.999Z</time></trkpt><trkpt lat="47.77566648300934" lon="-1.7258376820481092"><ele>42.0</ele><time>2026-03-22T13:53:29.999Z</time></trkpt><trkpt lat="47.775802776252384" lon="-1.7258570887820457"><ele>42.0</ele><time>2026-03-22T13:53:31.999Z</time></trkpt><trkpt lat="47.77591408448978" lon="-1.725870108480775"><ele>42.0</ele><time>2026-03-22T13:53:32.999Z</time></trkpt><trkpt lat="47.77604844512497" lon="-1.7258884515499007"><ele>42.0</ele><time>2026-03-22T13:53:33.999Z</time></trkpt><trkpt lat="47.77617882166296" lon="-1.7259071480723944"><ele>42.0</ele><time>2026-03-22T13:53:34.999Z</time></trkpt><trkpt lat="47.77632737247316" lon="-1.7259307835765942"><ele>43.0</ele><time>2026-03-22T13:53:35.999Z</time></trkpt><trkpt lat="47.77650150852018" lon="-1.7259464270176166"><ele>44.0</ele><time>2026-03-22T13:53:36.999Z</time></trkpt><trkpt lat="47.776689180435426" lon="-1.7259708861621677"><ele>45.0</ele><time>2026-03-22T13:53:37.999Z</time></trkpt><trkpt lat="47.77686918401864" lon="-1.7259969930509276"><ele>46.66666666666667</ele><time>2026-03-22T13:53:38.999Z</time></trkpt><trkpt lat="47.77707047407025" lon="-1.726023471187942"><ele>48.333333333333336</ele><time>2026-03-22T13:53:39.999Z</time></trkpt><trkpt lat="47.777286178401006" lon="-1.7260545233228792"><ele>50.0</ele><time>2026-03-22T13:53:40.999Z</time></trkpt><trkpt lat="47.777490759949956" lon="-1.7260797154549674"><ele>50.2</ele><time>2026-03-22T13:53:41.999Z</time></trkpt><trkpt lat="47.77764412264234" lon="-1.726104220762382"><ele>50.4</ele><time>2026-03-22T13:53:42.999Z</time></trkpt><trkpt lat="47.77776346820562" lon="-1.726116017741904"><ele>50.599999999999994</ele><time>2026-03-22T13:53:43.999Z</time></trkpt><trkpt lat="47.7778559906803" lon="-1.7261303446083642"><ele>50.8</ele><time>2026-03-22T13:53:44.999Z</time></trkpt><trkpt lat="47.77793731591825" lon="-1.7261440333494305"><ele>51.0</ele><time>2026-03-22T13:53:45.999Z</time></trkpt><trkpt lat="47.77801243458655" lon="-1.7261535223110187"><ele>51.199999999999996</ele><time>2026-03-22T13:53:46.999Z</time></trkpt><trkpt lat="47.77807824449467" lon="-1.726162096846684"><ele>51.4</ele><time>2026-03-22T13:53:47.999Z</time></trkpt><trkpt lat="47.778199872782864" lon="-1.7262046606307127"><ele>51.6</ele><time>2026-03-22T13:53:49.999Z</time></trkpt><trkpt lat="47.778300430385436" lon="-1.726169631832845"><ele>51.8</ele><time>2026-03-22T13:53:50.999Z</time></trkpt><trkpt lat="47.778416281884205" lon="-1.7261764986879202"><ele>52.0</ele><time>2026-03-22T13:53:51.999Z</time></trkpt><trkpt lat="47.77854323889163" lon="-1.7261855120041463"><ele>52.0</ele><time>2026-03-22T13:53:52.999Z</time></trkpt><trkpt lat="47.77868397423693" lon="-1.7261961282407674"><ele>52.0</ele><time>2026-03-22T13:53:53.999Z</time></trkpt><trkpt lat="47.77882981081621" lon="-1.7261994824571596"><ele>52.0</ele><time>2026-03-22T13:53:54.999Z</time></trkpt><trkpt lat="47.77897091993131" lon="-1.7261995149497924"><ele>52.0</ele><time>2026-03-22T13:53:55.999Z</time></trkpt><trkpt lat="47.779096597969" lon="-1.7261986828386484"><ele>52.0</ele><time>2026-03-22T13:53:56.999Z</time></trkpt><trkpt lat="47.77920680894621" lon="-1.7262009999367438"><ele>52.0</ele><time>2026-03-22T13:53:57.999Z</time></trkpt><trkpt lat="47.77930837939967" lon="-1.726206451812987"><ele>52.0</ele><time>2026-03-22T13:53:58.999Z</time></trkpt><trkpt lat="47.77939555749011" lon="-1.726217418077022"><ele>52.0</ele><time>2026-03-22T13:53:59.999Z</time></trkpt><trkpt lat="47.779486234824915" lon="-1.7261847642327057"><ele>52.0</ele><time>2026-03-22T13:54:00.999Z</time></trkpt><trkpt lat="47.77956267178" lon="-1.7261716597141552"><ele>51.0</ele><time>2026-03-22T13:54:01.999Z</time></trkpt><trkpt lat="47.77966978618611" lon="-1.726293314498925"><ele>50.0</ele><time>2026-03-22T13:54:02.999Z</time></trkpt><trkpt lat="47.77975320490346" lon="-1.726383238527542"><ele>49.0</ele><time>2026-03-22T13:54:03.999Z</time></trkpt><trkpt lat="47.779833713164905" lon="-1.7264888823420594"><ele>48.0</ele><time>2026-03-22T13:54:04.999Z</time></trkpt><trkpt lat="47.77993989056794" lon="-1.726561935075695"><ele>48.0</ele><time>2026-03-22T13:54:05.999Z</time></trkpt><trkpt lat="47.78004438726717" lon="-1.7266714728184935"><ele>48.0</ele><time>2026-03-22T13:54:06.999Z</time></trkpt><trkpt lat="47.78017249607138" lon="-1.7267658362138865"><ele>48.0</ele><time>2026-03-22T13:54:07.999Z</time></trkpt><trkpt lat="47.78031563446999" lon="-1.7268508445586361"><ele>48.0</ele><time>2026-03-22T13:54:08.999Z</time></trkpt><trkpt lat="47.78044618608634" lon="-1.7269348203363637"><ele>47.75</ele><time>2026-03-22T13:54:09.999Z</time></trkpt><trkpt lat="47.78056746151469" lon="-1.7270014609095585"><ele>47.5</ele><time>2026-03-22T13:54:10.999Z</time></trkpt><trkpt lat="47.78066271991178" lon="-1.7271021839595915"><ele>47.25</ele><time>2026-03-22T13:54:11.999Z</time></trkpt><trkpt lat="47.78077053033009" lon="-1.7272116781813645"><ele>47.0</ele><time>2026-03-22T13:54:12.999Z</time></trkpt><trkpt lat="47.78087100911014" lon="-1.7273462119754541"><ele>47.0</ele><time>2026-03-22T13:54:13.999Z</time></trkpt><trkpt lat="47.7809767670524" lon="-1.7274879827054992"><ele>47.0</ele><time>2026-03-22T13:54:14.999Z</time></trkpt><trkpt lat="47.78105865951918" lon="-1.7276518082041346"><ele>47.0</ele><time>2026-03-22T13:54:15.999Z</time></trkpt><trkpt lat="47.78114675229744" lon="-1.727792182144688"><ele>47.0</ele><time>2026-03-22T13:54:16.999Z</time></trkpt><trkpt lat="47.781258503877815" lon="-1.7279020917757135"><ele>48.0</ele><time>2026-03-22T13:54:17.999Z</time></trkpt><trkpt lat="47.7813879397271" lon="-1.7279667444313518"><ele>49.0</ele><time>2026-03-22T13:54:18.999Z</time></trkpt><trkpt lat="47.78152535047104" lon="-1.7280332352855734"><ele>50.0</ele><time>2026-03-22T13:54:19.999Z</time></trkpt><trkpt lat="47.781672487878886" lon="-1.7280998723216252"><ele>51.0</ele><time>2026-03-22T13:54:20.999Z</time></trkpt><trkpt lat="47.78182533782597" lon="-1.7281666469338108"><ele>53.0</ele><time>2026-03-22T13:54:21.999Z</time></trkpt><trkpt lat="47.78197785175321" lon="-1.7282327882113024"><ele>55.0</ele><time>2026-03-22T13:54:23Z</time></trkpt><trkpt lat="47.78210472277851" lon="-1.728289561238697"><ele>57.0</ele><time>2026-03-22T13:54:24Z</time></trkpt><trkpt lat="47.78222570710757" lon="-1.72833908537012"><ele>59.0</ele><time>2026-03-22T13:54:25Z</time></trkpt><trkpt lat="47.782342667988665" lon="-1.7283888091349748"><ele>59.0</ele><time>2026-03-22T13:54:26Z</time></trkpt><trkpt lat="47.78243890180023" lon="-1.7284371345393374"><ele>59.00000000000001</ele><time>2026-03-22T13:54:27Z</time></trkpt><trkpt lat="47.78252733351818" lon="-1.7284851305049753"><ele>59.00000000000001</ele><time>2026-03-22T13:54:28Z</time></trkpt><trkpt lat="47.78261651789829" lon="-1.7285405567947558"><ele>59.0</ele><time>2026-03-22T13:54:29Z</time></trkpt><trkpt lat="47.782714647190716" lon="-1.7286250774138474"><ele>59.0</ele><time>2026-03-22T13:54:30Z</time></trkpt><trkpt lat="47.78281431377727" lon="-1.7287206815756966"><ele>60.5</ele><time>2026-03-22T13:54:31Z</time></trkpt><trkpt lat="47.782913747186846" lon="-1.7288428830368485"><ele>62.0</ele><time>2026-03-22T13:54:32Z</time></trkpt><trkpt lat="47.78300759421485" lon="-1.7290120578408834"><ele>63.5</ele><time>2026-03-22T13:54:33Z</time></trkpt><trkpt lat="47.78308855255807" lon="-1.7292238245322853"><ele>65.0</ele><time>2026-03-22T13:54:34Z</time></trkpt><trkpt lat="47.78314639232247" lon="-1.7294998748341504"><ele>65.66666666666667</ele><time>2026-03-22T13:54:35Z</time></trkpt><trkpt lat="47.783189076721634" lon="-1.7297527747743289"><ele>66.33333333333333</ele><time>2026-03-22T13:54:36Z</time></trkpt><trkpt lat="47.78318671797837" lon="-1.7300914680952526"><ele>67.0</ele><time>2026-03-22T13:54:37Z</time></trkpt><trkpt lat="47.783216522738115" lon="-1.730441162521391"><ele>67.66666666666666</ele><time>2026-03-22T13:54:38Z</time></trkpt><trkpt lat="47.78325257611331" lon="-1.7307541102437982"><ele>68.33333333333333</ele><time>2026-03-22T13:54:39Z</time></trkpt><trkpt lat="47.783279540291915" lon="-1.731031705893086"><ele>69.0</ele><time>2026-03-22T13:54:40Z</time></trkpt><trkpt lat="47.7833057856733" lon="-1.7312788982218728"><ele>70.0</ele><time>2026-03-22T13:54:41Z</time></trkpt><trkpt lat="47.783352465016335" lon="-1.7314857114282576"><ele>71.0</ele><time>2026-03-22T13:54:42Z</time></trkpt><trkpt lat="47.7834040720755" lon="-1.7316724326659616"><ele>72.0</ele><time>2026-03-22T13:54:43Z</time></trkpt><trkpt lat="47.78345811237546" lon="-1.7318320247140608"><ele>73.0</ele><time>2026-03-22T13:54:44Z</time></trkpt><trkpt lat="47.78350276286682" lon="-1.7319898792391253"><ele>73.4</ele><time>2026-03-22T13:54:45Z</time></trkpt><trkpt lat="47.78352248103784" lon="-1.7321170059211621"><ele>73.8</ele><time>2026-03-22T13:54:46Z</time></trkpt><trkpt lat="47.783522876364586" lon="-1.7322581314830494"><ele>74.2</ele><time>2026-03-22T13:54:47Z</time></trkpt><trkpt lat="47.78356141887238" lon="-1.732417428759971"><ele>74.6</ele><time>2026-03-22T13:54:48Z</time></trkpt><trkpt lat="47.78355503784422" lon="-1.7325839755993264"><ele>75.0</ele><time>2026-03-22T13:54:49Z</time></trkpt><trkpt lat="47.783533034613384" lon="-1.7327827853484372"><ele>76.25</ele><time>2026-03-22T13:54:50Z</time></trkpt><trkpt lat="47.7835452120185" lon="-1.7329867945782496"><ele>77.5</ele><time>2026-03-22T13:54:51Z</time></trkpt><trkpt lat="47.783534624980746" lon="-1.733187496695341"><ele>78.75</ele><time>2026-03-22T13:54:52Z</time></trkpt><trkpt lat="47.783538553848494" lon="-1.733379421470384"><ele>80.0</ele><time>2026-03-22T13:54:53Z</time></trkpt><trkpt lat="47.78355861277772" lon="-1.7335427031023234"><ele>80.6</ele><time>2026-03-22T13:54:54Z</time></trkpt><trkpt lat="47.78359145595698" lon="-1.733708377317592"><ele>81.2</ele><time>2026-03-22T13:54:55Z</time></trkpt><trkpt lat="47.78362360583018" lon="-1.7338641735573084"><ele>81.80000000000001</ele><time>2026-03-22T13:54:56Z</time></trkpt><trkpt lat="47.78365862906494" lon="-1.7339931140352058"><ele>82.4</ele><time>2026-03-22T13:54:57Z</time></trkpt><trkpt lat="47.78371097625788" lon="-1.7341250530981334"><ele>83.0</ele><time>2026-03-22T13:54:59Z</time></trkpt><trkpt lat="47.78382817268131" lon="-1.7340194437844463"><ele>83.0</ele><time>2026-03-22T13:55:01Z</time></trkpt><trkpt lat="47.783921959340404" lon="-1.7340154209560388"><ele>83.0</ele><time>2026-03-22T13:55:03Z</time></trkpt><trkpt lat="47.78403494049337" lon="-1.7340324232435689"><ele>83.0</ele><time>2026-03-22T13:55:05Z</time></trkpt><trkpt lat="47.78409980207421" lon="-1.733995843731383"><ele>83.0</ele><time>2026-03-22T13:55:06Z</time></trkpt><trkpt lat="47.78418660925009" lon="-1.7339900972461773"><ele>83.0</ele><time>2026-03-22T13:55:07Z</time></trkpt><trkpt lat="47.78429841411705" lon="-1.7339776903258548"><ele>83.5</ele><time>2026-03-22T13:55:08Z</time></trkpt><trkpt lat="47.784430151109476" lon="-1.7339702404924535"><ele>84.0</ele><time>2026-03-22T13:55:09Z</time></trkpt><trkpt lat="47.784554487736536" lon="-1.7339847219171116"><ele>84.5</ele><time>2026-03-22T13:55:10Z</time></trkpt><trkpt lat="47.784685916824635" lon="-1.7340187300844847"><ele>85.0</ele><time>2026-03-22T13:55:11Z</time></trkpt><trkpt lat="47.7848341490778" lon="-1.7340418810530602"><ele>85.0</ele><time>2026-03-22T13:55:12Z</time></trkpt><trkpt lat="47.7850157800536" lon="-1.7340613827933622"><ele>85.0</ele><time>2026-03-22T13:55:13Z</time></trkpt><trkpt lat="47.785195121955866" lon="-1.7340639367900632"><ele>85.0</ele><time>2026-03-22T13:55:14Z</time></trkpt><trkpt lat="47.78536130569466" lon="-1.7340799671402687"><ele>85.0</ele><time>2026-03-22T13:55:15Z</time></trkpt><trkpt lat="47.785538694877445" lon="-1.7340990798927258"><ele>85.0</ele><time>2026-03-22T13:55:16Z</time></trkpt><trkpt lat="47.78573546513973" lon="-1.7341400924513044"><ele>85.0</ele><time>2026-03-22T13:55:17Z</time></trkpt><trkpt lat="47.78594982644259" lon="-1.734171725219932"><ele>84.66666666666666</ele><time>2026-03-22T13:55:18Z</time></trkpt><trkpt lat="47.78617449973998" lon="-1.7342038092011136"><ele>84.33333333333333</ele><time>2026-03-22T13:55:19Z</time></trkpt><trkpt lat="47.78637337368473" lon="-1.7342298389539363"><ele>84.0</ele><time>2026-03-22T13:55:19.999Z</time></trkpt><trkpt lat="47.786539026284295" lon="-1.7342577241001338"><ele>84.0</ele><time>2026-03-22T13:55:20.999Z</time></trkpt><trkpt lat="47.78668867121905" lon="-1.7342767892033815"><ele>84.0</ele><time>2026-03-22T13:55:21.999Z</time></trkpt><trkpt lat="47.78683308523727" lon="-1.7342963217279312"><ele>84.0</ele><time>2026-03-22T13:55:22.999Z</time></trkpt><trkpt lat="47.786970746499684" lon="-1.7343145397989714"><ele>84.0</ele><time>2026-03-22T13:55:23.999Z</time></trkpt><trkpt lat="47.787114241955" lon="-1.7343306211640621"><ele>84.0</ele><time>2026-03-22T13:55:24.999Z</time></trkpt><trkpt lat="47.78724737170905" lon="-1.7343455408992627"><ele>84.0</ele><time>2026-03-22T13:55:25.999Z</time></trkpt><trkpt lat="47.787357457224196" lon="-1.7343590694190294"><ele>84.0</ele><time>2026-03-22T13:55:26.999Z</time></trkpt><trkpt lat="47.78743383627114" lon="-1.7343927843354945"><ele>84.0</ele><time>2026-03-22T13:55:27.999Z</time></trkpt><trkpt lat="47.78750370620043" lon="-1.734382680897053"><ele>84.0</ele><time>2026-03-22T13:55:28.999Z</time></trkpt><trkpt lat="47.787581431632184" lon="-1.734405340454009"><ele>81.75</ele><time>2026-03-22T13:55:29.999Z</time></trkpt><trkpt lat="47.787681896561715" lon="-1.734422417628466"><ele>79.5</ele><time>2026-03-22T13:55:30.999Z</time></trkpt><trkpt lat="47.78780018087886" lon="-1.7344397916325422"><ele>77.25</ele><time>2026-03-22T13:55:31.999Z</time></trkpt><trkpt lat="47.7879425791669" lon="-1.7344615450034218"><ele>75.0</ele><time>2026-03-22T13:55:32.999Z</time></trkpt><trkpt lat="47.788088701920124" lon="-1.7344719076110373"><ele>75.0</ele><time>2026-03-22T13:55:33.999Z</time></trkpt><trkpt lat="47.788245050043905" lon="-1.7344892312835987"><ele>75.0</ele><time>2026-03-22T13:55:34.999Z</time></trkpt><trkpt lat="47.78838916562372" lon="-1.7345014550098183"><ele>75.0</ele><time>2026-03-22T13:55:35.999Z</time></trkpt><trkpt lat="47.78852438594289" lon="-1.7345241392777422"><ele>75.0</ele><time>2026-03-22T13:55:36.999Z</time></trkpt><trkpt lat="47.78865644880489" lon="-1.7345363976361603"><ele>73.25</ele><time>2026-03-22T13:55:37.999Z</time></trkpt><trkpt lat="47.78879724386154" lon="-1.7345370214967932"><ele>71.5</ele><time>2026-03-22T13:55:38.999Z</time></trkpt><trkpt lat="47.78890402224287" lon="-1.734562146547114"><ele>69.75</ele><time>2026-03-22T13:55:39.999Z</time></trkpt><trkpt lat="47.789005086543554" lon="-1.734586113801439"><ele>68.0</ele><time>2026-03-22T13:55:40.999Z</time></trkpt><trkpt lat="47.78911492220018" lon="-1.734621274966703"><ele>68.0</ele><time>2026-03-22T13:55:41.999Z</time></trkpt><trkpt lat="47.78922116537855" lon="-1.7346384643570918"><ele>68.0</ele><time>2026-03-22T13:55:42.999Z</time></trkpt><trkpt lat="47.78932504862525" lon="-1.7346285271942574"><ele>68.0</ele><time>2026-03-22T13:55:43.999Z</time></trkpt><trkpt lat="47.78940831968774" lon="-1.7346395653763045"><ele>68.0</ele><time>2026-03-22T13:55:44.999Z</time></trkpt><trkpt lat="47.789492187808975" lon="-1.7346506827368633"><ele>68.0</ele><time>2026-03-22T13:55:45.999Z</time></trkpt><trkpt lat="47.78957159959769" lon="-1.7346576189788525"><ele>67.25</ele><time>2026-03-22T13:55:46.999Z</time></trkpt><trkpt lat="47.78967354651085" lon="-1.734644153729572"><ele>66.5</ele><time>2026-03-22T13:55:48.999Z</time></trkpt><trkpt lat="47.78971966037507" lon="-1.7343817680237876"><ele>65.75</ele><time>2026-03-22T13:55:51.999Z</time></trkpt><trkpt lat="47.78973183545282" lon="-1.7342534839926962"><ele>65.0</ele><time>2026-03-22T13:55:52.999Z</time></trkpt><trkpt lat="47.7897536639336" lon="-1.734099907094553"><ele>65.0</ele><time>2026-03-22T13:55:53.999Z</time></trkpt><trkpt lat="47.78976712716695" lon="-1.7339134040946524"><ele>65.0</ele><time>2026-03-22T13:55:54.999Z</time></trkpt><trkpt lat="47.789772767897844" lon="-1.733718136283747"><ele>65.0</ele><time>2026-03-22T13:55:55.999Z</time></trkpt><trkpt lat="47.789784975796735" lon="-1.7335371088107103"><ele>65.0</ele><time>2026-03-22T13:55:56.999Z</time></trkpt><trkpt lat="47.789803940533226" lon="-1.733334081972413"><ele>65.33333333333334</ele><time>2026-03-22T13:55:57.999Z</time></trkpt><trkpt lat="47.78982961525924" lon="-1.7331097266165507"><ele>65.66666666666667</ele><time>2026-03-22T13:55:58.999Z</time></trkpt><trkpt lat="47.78985179155757" lon="-1.7328695089534083"><ele>66.0</ele><time>2026-03-22T13:55:59.999Z</time></trkpt><trkpt lat="47.78988119015978" lon="-1.7326160388027427"><ele>66.0</ele><time>2026-03-22T13:56:00.999Z</time></trkpt><trkpt lat="47.78989671807703" lon="-1.7323790888139279"><ele>66.0</ele><time>2026-03-22T13:56:01.999Z</time></trkpt><trkpt lat="47.78992031383049" lon="-1.7321581794687253"><ele>66.0</ele><time>2026-03-22T13:56:02.999Z</time></trkpt><trkpt lat="47.78993564180564" lon="-1.7319559560480167"><ele>66.0</ele><time>2026-03-22T13:56:03.999Z</time></trkpt><trkpt lat="47.7899520414448" lon="-1.731771044441072"><ele>66.0</ele><time>2026-03-22T13:56:04.999Z</time></trkpt><trkpt lat="47.78996701408721" lon="-1.7316013618527764"><ele>66.0</ele><time>2026-03-22T13:56:05.999Z</time></trkpt><trkpt lat="47.78999004790099" lon="-1.731425499408561"><ele>66.0</ele><time>2026-03-22T13:56:06.999Z</time></trkpt><trkpt lat="47.79000454608821" lon="-1.7312563972412445"><ele>66.0</ele><time>2026-03-22T13:56:07.999Z</time></trkpt><trkpt lat="47.790024312426134" lon="-1.7310790425492826"><ele>66.25</ele><time>2026-03-22T13:56:08.999Z</time></trkpt><trkpt lat="47.7900407849894" lon="-1.7308894758029796"><ele>66.5</ele><time>2026-03-22T13:56:09.999Z</time></trkpt><trkpt lat="47.79006093076845" lon="-1.7306836937811014"><ele>66.75</ele><time>2026-03-22T13:56:10.999Z</time></trkpt><trkpt lat="47.79008102435687" lon="-1.7304751175292865"><ele>67.0</ele><time>2026-03-22T13:56:11.999Z</time></trkpt><trkpt lat="47.79009634243662" lon="-1.730280672319818"><ele>66.75</ele><time>2026-03-22T13:56:12.999Z</time></trkpt><trkpt lat="47.79011258581603" lon="-1.7300933124660258"><ele>66.5</ele><time>2026-03-22T13:56:13.999Z</time></trkpt><trkpt lat="47.79013196233359" lon="-1.7298874283203682"><ele>66.25</ele><time>2026-03-22T13:56:14.999Z</time></trkpt><trkpt lat="47.79015311992466" lon="-1.7296739917636363"><ele>66.0</ele><time>2026-03-22T13:56:15.999Z</time></trkpt><trkpt lat="47.79016921868609" lon="-1.7294556449268228"><ele>64.83333333333333</ele><time>2026-03-22T13:56:16.999Z</time></trkpt><trkpt lat="47.79018224380882" lon="-1.729264172153079"><ele>63.66666666666667</ele><time>2026-03-22T13:56:17.999Z</time></trkpt><trkpt lat="47.79019272737402" lon="-1.7291118205030425"><ele>62.5</ele><time>2026-03-22T13:56:18.999Z</time></trkpt><trkpt lat="47.79019662924988" lon="-1.7289941297433902"><ele>61.333333333333336</ele><time>2026-03-22T13:56:19.999Z</time></trkpt><trkpt lat="47.79020160770873" lon="-1.7288919052789435"><ele>60.16666666666667</ele><time>2026-03-22T13:56:20.999Z</time></trkpt><trkpt lat="47.79020801241954" lon="-1.7287968371460671"><ele>59.0</ele><time>2026-03-22T13:56:21.999Z</time></trkpt><trkpt lat="47.7902290079778" lon="-1.7286567214142738"><ele>59.0</ele><time>2026-03-22T13:56:23.999Z</time></trkpt><trkpt lat="47.79025214234725" lon="-1.728555100311037"><ele>59.00000000000001</ele><time>2026-03-22T13:56:25.999Z</time></trkpt><trkpt lat="47.79037998312551" lon="-1.728542218222546"><ele>59.00000000000001</ele><time>2026-03-22T13:56:26.999Z</time></trkpt><trkpt lat="47.79046704699807" lon="-1.7285514144236964"><ele>59.0</ele><time>2026-03-22T13:56:27.999Z</time></trkpt><trkpt lat="47.79055217578227" lon="-1.7285720852476332"><ele>59.0</ele><time>2026-03-22T13:56:29Z</time></trkpt><trkpt lat="47.79065309622602" lon="-1.7285818576825893"><ele>59.0</ele><time>2026-03-22T13:56:30Z</time></trkpt><trkpt lat="47.79077523901175" lon="-1.7285888969122507"><ele>59.0</ele><time>2026-03-22T13:56:31Z</time></trkpt><trkpt lat="47.790897270024445" lon="-1.7285895160807243"><ele>59.0</ele><time>2026-03-22T13:56:32Z</time></trkpt><trkpt lat="47.79100608502421" lon="-1.7285999496223767"><ele>59.0</ele><time>2026-03-22T13:56:33Z</time></trkpt><trkpt lat="47.79113860040817" lon="-1.7286095197751365"><ele>58.0</ele><time>2026-03-22T13:56:34Z</time></trkpt><trkpt lat="47.7912965814701" lon="-1.7286015912752322"><ele>57.0</ele><time>2026-03-22T13:56:35Z</time></trkpt><trkpt lat="47.791457483015655" lon="-1.728610629556784"><ele>56.0</ele><time>2026-03-22T13:56:36Z</time></trkpt><trkpt lat="47.791610713196945" lon="-1.7286215057484444"><ele>56.0</ele><time>2026-03-22T13:56:37Z</time></trkpt><trkpt lat="47.79175446568489" lon="-1.7286293374289106"><ele>56.0</ele><time>2026-03-22T13:56:38Z</time></trkpt><trkpt lat="47.791870345514965" lon="-1.72863713148914"><ele>56.0</ele><time>2026-03-22T13:56:39Z</time></trkpt><trkpt lat="47.791975291039954" lon="-1.7286456756519202"><ele>56.0</ele><time>2026-03-22T13:56:40Z</time></trkpt><trkpt lat="47.79208462726837" lon="-1.7286481234886024"><ele>56.333333333333336</ele><time>2026-03-22T13:56:41Z</time></trkpt><trkpt lat="47.792182047569014" lon="-1.728652536073543"><ele>56.66666666666667</ele><time>2026-03-22T13:56:42Z</time></trkpt><trkpt lat="47.79225880880398" lon="-1.7286638446685008"><ele>57.0</ele><time>2026-03-22T13:56:43Z</time></trkpt><trkpt lat="47.792338567979236" lon="-1.7286675413519907"><ele>57.33333333333333</ele><time>2026-03-22T13:56:44Z</time></trkpt><trkpt lat="47.79242152326797" lon="-1.728675473066133"><ele>57.666666666666664</ele><time>2026-03-22T13:56:45Z</time></trkpt><trkpt lat="47.792519842552664" lon="-1.7286781158230968"><ele>58.0</ele><time>2026-03-22T13:56:46Z</time></trkpt><trkpt lat="47.79262847733992" lon="-1.7286626158450964"><ele>58.0</ele><time>2026-03-22T13:56:47Z</time></trkpt><trkpt lat="47.79273646284241" lon="-1.7286775969042294"><ele>58.0</ele><time>2026-03-22T13:56:48Z</time></trkpt><trkpt lat="47.7928385256006" lon="-1.7286819358550016"><ele>58.0</ele><time>2026-03-22T13:56:49Z</time></trkpt><trkpt lat="47.79295006958385" lon="-1.7286832803101682"><ele>58.0</ele><time>2026-03-22T13:56:50Z</time></trkpt><trkpt lat="47.79306036510991" lon="-1.728684593568268"><ele>58.0</ele><time>2026-03-22T13:56:51Z</time></trkpt><trkpt lat="47.793171680642175" lon="-1.7286915712139947"><ele>58.0</ele><time>2026-03-22T13:56:52Z</time></trkpt><trkpt lat="47.79328363480372" lon="-1.7287012702177913"><ele>58.0</ele><time>2026-03-22T13:56:53Z</time></trkpt><trkpt lat="47.79338546365457" lon="-1.7287179091236584"><ele>58.0</ele><time>2026-03-22T13:56:54Z</time></trkpt><trkpt lat="47.793484441337" lon="-1.7287327523411342"><ele>58.0</ele><time>2026-03-22T13:56:55Z</time></trkpt><trkpt lat="47.793578949153954" lon="-1.7287421991076204"><ele>58.0</ele><time>2026-03-22T13:56:56Z</time></trkpt><trkpt lat="47.79365931671869" lon="-1.7287713337291128"><ele>57.4</ele><time>2026-03-22T13:56:57Z</time></trkpt><trkpt lat="47.79378781013385" lon="-1.7288071099628"><ele>56.8</ele><time>2026-03-22T13:56:59Z</time></trkpt><trkpt lat="47.793890399919604" lon="-1.7288499593069793"><ele>56.2</ele><time>2026-03-22T13:57:01Z</time></trkpt><trkpt lat="47.79397051224638" lon="-1.7288697926578975"><ele>55.6</ele><time>2026-03-22T13:57:04Z</time></trkpt><trkpt lat="47.794056776289224" lon="-1.7289010864943453"><ele>55.0</ele><time>2026-03-22T13:58:20.998Z</time></trkpt><trkpt lat="47.79416967636725" lon="-1.7289119538375881"><ele>54.99999999999999</ele><time>2026-03-22T13:58:22.998Z</time></trkpt><trkpt lat="47.79424193772075" lon="-1.7289307189087901"><ele>55.0</ele><time>2026-03-22T13:58:23.998Z</time></trkpt><trkpt lat="47.794324279723625" lon="-1.7289521017612528"><ele>55.0</ele><time>2026-03-22T13:58:24.998Z</time></trkpt><trkpt lat="47.79440156388568" lon="-1.728995041982563"><ele>55.0</ele><time>2026-03-22T13:58:25.998Z</time></trkpt><trkpt lat="47.79449900474488" lon="-1.7290181271044418"><ele>54.99999999999999</ele><time>2026-03-22T13:58:26.998Z</time></trkpt><trkpt lat="47.79460187679346" lon="-1.7290428089284418"><ele>55.0</ele><time>2026-03-22T13:58:27.998Z</time></trkpt><trkpt lat="47.79471267349406" lon="-1.729070153387288"><ele>54.2</ele><time>2026-03-22T13:58:28.998Z</time></trkpt><trkpt lat="47.794813320944165" lon="-1.729095218452623"><ele>53.4</ele><time>2026-03-22T13:58:29.998Z</time></trkpt><trkpt lat="47.79491595355044" lon="-1.7291083804517233"><ele>52.599999999999994</ele><time>2026-03-22T13:58:30.998Z</time></trkpt><trkpt lat="47.79502354995744" lon="-1.729125727911774"><ele>51.8</ele><time>2026-03-22T13:58:31.998Z</time></trkpt><trkpt lat="47.795135350690906" lon="-1.7291548162071253"><ele>51.0</ele><time>2026-03-22T13:58:32.998Z</time></trkpt><trkpt lat="47.79525733707552" lon="-1.7291922712189862"><ele>50.599999999999994</ele><time>2026-03-22T13:58:33.998Z</time></trkpt><trkpt lat="47.79536877376932" lon="-1.729232908689104"><ele>50.2</ele><time>2026-03-22T13:58:35Z</time></trkpt><trkpt lat="47.79546500942379" lon="-1.7292706142585879"><ele>49.8</ele><time>2026-03-22T13:58:36Z</time></trkpt><trkpt lat="47.79555205307561" lon="-1.7292750581850742"><ele>49.400000000000006</ele><time>2026-03-22T13:58:37Z</time></trkpt><trkpt lat="47.79563714343646" lon="-1.729304910124603"><ele>49.0</ele><time>2026-03-22T13:58:38Z</time></trkpt><trkpt lat="47.79571494861154" lon="-1.7293290448186422"><ele>49.0</ele><time>2026-03-22T13:58:39Z</time></trkpt><trkpt lat="47.795783132616606" lon="-1.7293436942631137"><ele>49.0</ele><time>2026-03-22T13:58:40Z</time></trkpt><trkpt lat="47.79586133531201" lon="-1.7293671274885742"><ele>49.0</ele><time>2026-03-22T13:58:41Z</time></trkpt><trkpt lat="47.795957657809794" lon="-1.7293935676644383"><ele>49.0</ele><time>2026-03-22T13:58:42Z</time></trkpt><trkpt lat="47.79606959017301" lon="-1.7294283368948695"><ele>49.0</ele><time>2026-03-22T13:58:43Z</time></trkpt><trkpt lat="47.79619079271806" lon="-1.7294636287932337"><ele>48.75</ele><time>2026-03-22T13:58:44Z</time></trkpt><trkpt lat="47.79632235002392" lon="-1.729494101458017"><ele>48.5</ele><time>2026-03-22T13:58:45Z</time></trkpt><trkpt lat="47.79644372548467" lon="-1.7295271038394773"><ele>48.25</ele><time>2026-03-22T13:58:46Z</time></trkpt><trkpt lat="47.79654891173812" lon="-1.729555100305839"><ele>48.0</ele><time>2026-03-22T13:58:47Z</time></trkpt><trkpt lat="47.7966500222726" lon="-1.7295673780639995"><ele>48.0</ele><time>2026-03-22T13:58:48Z</time></trkpt><trkpt lat="47.796744969555036" lon="-1.7296012415267383"><ele>48.0</ele><time>2026-03-22T13:58:49Z</time></trkpt><trkpt lat="47.79685198928692" lon="-1.7296309869116901"><ele>48.0</ele><time>2026-03-22T13:58:50Z</time></trkpt><trkpt lat="47.796980443181695" lon="-1.7296646282966333"><ele>48.0</ele><time>2026-03-22T13:58:51Z</time></trkpt><trkpt lat="47.797120637843825" lon="-1.7296977644962466"><ele>48.0</ele><time>2026-03-22T13:58:52Z</time></trkpt><trkpt lat="47.79726875888151" lon="-1.729738744504169"><ele>48.0</ele><time>2026-03-22T13:58:53Z</time></trkpt><trkpt lat="47.79741843592961" lon="-1.729786848235761"><ele>48.0</ele><time>2026-03-22T13:58:54Z</time></trkpt><trkpt lat="47.79757029896535" lon="-1.7298325715429894"><ele>47.75</ele><time>2026-03-22T13:58:55Z</time></trkpt><trkpt lat="47.79771488005942" lon="-1.7298530173840407"><ele>47.5</ele><time>2026-03-22T13:58:56Z</time></trkpt><trkpt lat="47.797839696772904" lon="-1.7298907165620916"><ele>47.25</ele><time>2026-03-22T13:58:57Z</time></trkpt><trkpt lat="47.7979558274043" lon="-1.7299209228599028"><ele>47.0</ele><time>2026-03-22T13:58:58Z</time></trkpt><trkpt lat="47.79806647778442" lon="-1.7299481529280267"><ele>47.0</ele><time>2026-03-22T13:58:59Z</time></trkpt><trkpt lat="47.7981636604549" lon="-1.729974389034854"><ele>47.0</ele><time>2026-03-22T13:59:00Z</time></trkpt><trkpt lat="47.798257446843195" lon="-1.7299988116204112"><ele>47.0</ele><time>2026-03-22T13:59:01Z</time></trkpt><trkpt lat="47.79835591340941" lon="-1.730019267197991"><ele>47.0</ele><time>2026-03-22T13:59:02Z</time></trkpt><trkpt lat="47.79845926593368" lon="-1.7300432969578232"><ele>47.0</ele><time>2026-03-22T13:59:03Z</time></trkpt><trkpt lat="47.798556512881945" lon="-1.730078001179686"><ele>47.400000000000006</ele><time>2026-03-22T13:59:04Z</time></trkpt><trkpt lat="47.79866185909899" lon="-1.7301076819844525"><ele>47.800000000000004</ele><time>2026-03-22T13:59:05Z</time></trkpt><trkpt lat="47.798769979452715" lon="-1.7301324201268564"><ele>48.2</ele><time>2026-03-22T13:59:06Z</time></trkpt><trkpt lat="47.798870012476385" lon="-1.7301548765013814"><ele>48.6</ele><time>2026-03-22T13:59:07Z</time></trkpt><trkpt lat="47.79894993089577" lon="-1.7301519455952554"><ele>49.0</ele><time>2026-03-22T13:59:08Z</time></trkpt><trkpt lat="47.79902660545874" lon="-1.73017356589222"><ele>48.99999999999999</ele><time>2026-03-22T13:59:09Z</time></trkpt><trkpt lat="47.79909408740502" lon="-1.7302019251325516"><ele>49.0</ele><time>2026-03-22T13:59:10Z</time></trkpt><trkpt lat="47.79915616629531" lon="-1.7302201574988414"><ele>49.0</ele><time>2026-03-22T13:59:11Z</time></trkpt><trkpt lat="47.79925236615842" lon="-1.7302466769237421"><ele>49.0</ele><time>2026-03-22T13:59:13Z</time></trkpt><trkpt lat="47.799325638708154" lon="-1.7302423658765185"><ele>48.99999999999999</ele><time>2026-03-22T13:59:16Z</time></trkpt><trkpt lat="47.799414464247114" lon="-1.7302525657242285"><ele>49.0</ele><time>2026-03-22T13:59:41.999Z</time></trkpt><trkpt lat="47.799471871441334" lon="-1.7304272140882595"><ele>48.99999999999999</ele><time>2026-03-22T13:59:43.999Z</time></trkpt><trkpt lat="47.79950437610797" lon="-1.7305364629906612"><ele>49.0</ele><time>2026-03-22T13:59:44.999Z</time></trkpt><trkpt lat="47.79953774594433" lon="-1.730617461359404"><ele>49.0</ele><time>2026-03-22T13:59:45.999Z</time></trkpt><trkpt lat="47.799577353558654" lon="-1.7307255012698644"><ele>49.0</ele><time>2026-03-22T13:59:46.999Z</time></trkpt><trkpt lat="47.79961951667322" lon="-1.730880417011399"><ele>48.99999999999999</ele><time>2026-03-22T13:59:47.999Z</time></trkpt><trkpt lat="47.79966499614896" lon="-1.7310266829999894"><ele>49.0</ele><time>2026-03-22T13:59:48.999Z</time></trkpt><trkpt lat="47.79970193243202" lon="-1.731132716910259"><ele>49.0</ele><time>2026-03-22T13:59:49.999Z</time></trkpt><trkpt lat="47.79975959062401" lon="-1.7311971054328836"><ele>49.0</ele><time>2026-03-22T13:59:51.999Z</time></trkpt><trkpt lat="47.79984774058671" lon="-1.7311362254480203"><ele>49.0</ele><time>2026-03-22T13:59:53.999Z</time></trkpt><trkpt lat="47.7999329982412" lon="-1.7310822091975018"><ele>49.0</ele><time>2026-03-22T13:59:54.999Z</time></trkpt><trkpt lat="47.800025597872576" lon="-1.7310267719823902"><ele>49.0</ele><time>2026-03-22T13:59:55.999Z</time></trkpt><trkpt lat="47.800121326649695" lon="-1.7309813880749116"><ele>48.800000000000004</ele><time>2026-03-22T13:59:56.999Z</time></trkpt><trkpt lat="47.80022203946031" lon="-1.730941310640196"><ele>48.6</ele><time>2026-03-22T13:59:57.999Z</time></trkpt><trkpt lat="47.80032029703036" lon="-1.7308927496573818"><ele>48.4</ele><time>2026-03-22T13:59:58.999Z</time></trkpt><trkpt lat="47.8004016771254" lon="-1.7308384356608557"><ele>48.2</ele><time>2026-03-22T13:59:59.999Z</time></trkpt><trkpt lat="47.80048309875102" lon="-1.730782479897849"><ele>48.0</ele><time>2026-03-22T14:00:00.999Z</time></trkpt><trkpt lat="47.80057824650202" lon="-1.7307304626242088"><ele>48.0</ele><time>2026-03-22T14:00:01.999Z</time></trkpt><trkpt lat="47.80067197741842" lon="-1.730686547611047"><ele>48.0</ele><time>2026-03-22T14:00:02.999Z</time></trkpt><trkpt lat="47.80078107046203" lon="-1.73065482749546"><ele>48.0</ele><time>2026-03-22T14:00:03.999Z</time></trkpt><trkpt lat="47.80088057528026" lon="-1.7306066736014127"><ele>48.0</ele><time>2026-03-22T14:00:04.999Z</time></trkpt><trkpt lat="47.80097387097341" lon="-1.730553526816199"><ele>48.0</ele><time>2026-03-22T14:00:05.999Z</time></trkpt><trkpt lat="47.80107191778255" lon="-1.7305046933401997"><ele>48.0</ele><time>2026-03-22T14:00:06.999Z</time></trkpt><trkpt lat="47.80117697170791" lon="-1.7304647568436768"><ele>48.0</ele><time>2026-03-22T14:00:07.999Z</time></trkpt><trkpt lat="47.801260989651354" lon="-1.7303861102113534"><ele>48.0</ele><time>2026-03-22T14:00:08.999Z</time></trkpt><trkpt lat="47.80135294200734" lon="-1.7303465234917632"><ele>48.0</ele><time>2026-03-22T14:00:09.999Z</time></trkpt><trkpt lat="47.80144121032738" lon="-1.730286779635201"><ele>48.0</ele><time>2026-03-22T14:00:10.999Z</time></trkpt><trkpt lat="47.80152255447969" lon="-1.7302315897866745"><ele>48.0</ele><time>2026-03-22T14:00:11.999Z</time></trkpt><trkpt lat="47.80161197404007" lon="-1.7301655730620973"><ele>48.0</ele><time>2026-03-22T14:00:12.999Z</time></trkpt><trkpt lat="47.80170478558821" lon="-1.730089648918167"><ele>48.0</ele><time>2026-03-22T14:00:13.999Z</time></trkpt><trkpt lat="47.801800902645724" lon="-1.7300156834703642"><ele>48.0</ele><time>2026-03-22T14:00:14.999Z</time></trkpt><trkpt lat="47.80190296225628" lon="-1.7299336134222782"><ele>48.0</ele><time>2026-03-22T14:00:15.999Z</time></trkpt><trkpt lat="47.80200225093466" lon="-1.7298578700558325"><ele>48.2</ele><time>2026-03-22T14:00:16.999Z</time></trkpt><trkpt lat="47.802099927451174" lon="-1.7297726163828606"><ele>48.4</ele><time>2026-03-22T14:00:17.999Z</time></trkpt><trkpt lat="47.802185819082275" lon="-1.7297103380235452"><ele>48.6</ele><time>2026-03-22T14:00:18.999Z</time></trkpt><trkpt lat="47.802281081424" lon="-1.7296415176303201"><ele>48.800000000000004</ele><time>2026-03-22T14:00:19.999Z</time></trkpt><trkpt lat="47.80238866604145" lon="-1.7295738032886658"><ele>49.0</ele><time>2026-03-22T14:00:20.999Z</time></trkpt><trkpt lat="47.80251397018312" lon="-1.7295245077348336"><ele>49.0</ele><time>2026-03-22T14:00:21.999Z</time></trkpt><trkpt lat="47.8026528441207" lon="-1.7294848737355613"><ele>49.0</ele><time>2026-03-22T14:00:22.999Z</time></trkpt><trkpt lat="47.80279352966763" lon="-1.7294593860463596"><ele>49.0</ele><time>2026-03-22T14:00:23.999Z</time></trkpt><trkpt lat="47.802939930939246" lon="-1.7294423528334255"><ele>49.0</ele><time>2026-03-22T14:00:24.999Z</time></trkpt><trkpt lat="47.803090823364485" lon="-1.7293931969215453"><ele>48.33333333333333</ele><time>2026-03-22T14:00:25.999Z</time></trkpt><trkpt lat="47.803245348326556" lon="-1.7293297884477068"><ele>47.666666666666664</ele><time>2026-03-22T14:00:26.999Z</time></trkpt><trkpt lat="47.80340684398755" lon="-1.7292710995333958"><ele>47.0</ele><time>2026-03-22T14:00:27.999Z</time></trkpt><trkpt lat="47.803560331906795" lon="-1.729190458591428"><ele>47.0</ele><time>2026-03-22T14:00:28.999Z</time></trkpt><trkpt lat="47.80371775714024" lon="-1.7291030357274595"><ele>47.0</ele><time>2026-03-22T14:00:29.999Z</time></trkpt><trkpt lat="47.803854196346556" lon="-1.7290198208947583"><ele>47.0</ele><time>2026-03-22T14:00:30.998Z</time></trkpt><trkpt lat="47.803970122690245" lon="-1.7289146009370893"><ele>47.0</ele><time>2026-03-22T14:00:31.998Z</time></trkpt><trkpt lat="47.80410261737912" lon="-1.7288198782205086"><ele>47.0</ele><time>2026-03-22T14:00:32.998Z</time></trkpt><trkpt lat="47.804238403981024" lon="-1.7287279735628023"><ele>47.0</ele><time>2026-03-22T14:00:33.998Z</time></trkpt><trkpt lat="47.80438126773831" lon="-1.7286737383894817"><ele>47.0</ele><time>2026-03-22T14:00:34.998Z</time></trkpt><trkpt lat="47.80450334535102" lon="-1.7286274011293055"><ele>46.5</ele><time>2026-03-22T14:00:35.998Z</time></trkpt><trkpt lat="47.80462927556189" lon="-1.7286108733635697"><ele>46.0</ele><time>2026-03-22T14:00:36.998Z</time></trkpt><trkpt lat="47.804761876350376" lon="-1.7286229470269328"><ele>45.5</ele><time>2026-03-22T14:00:37.998Z</time></trkpt><trkpt lat="47.80488505432043" lon="-1.7286182898043805"><ele>45.0</ele><time>2026-03-22T14:00:38.998Z</time></trkpt><trkpt lat="47.804995929042626" lon="-1.7286375424876446"><ele>45.0</ele><time>2026-03-22T14:00:39.998Z</time></trkpt><trkpt lat="47.80509836900805" lon="-1.7286578860997093"><ele>45.0</ele><time>2026-03-22T14:00:41Z</time></trkpt><trkpt lat="47.80517931336446" lon="-1.7286640061477825"><ele>45.0</ele><time>2026-03-22T14:00:42Z</time></trkpt><trkpt lat="47.80525027599873" lon="-1.728725421407994"><ele>45.0</ele><time>2026-03-22T14:00:44Z</time></trkpt><trkpt lat="47.805322617907834" lon="-1.728534653927531"><ele>45.0</ele><time>2026-03-22T14:00:45Z</time></trkpt><trkpt lat="47.805365964802206" lon="-1.728457926904488"><ele>44.75</ele><time>2026-03-22T14:00:46Z</time></trkpt><trkpt lat="47.805413525808014" lon="-1.7283556560088704"><ele>44.5</ele><time>2026-03-22T14:00:48Z</time></trkpt><trkpt lat="47.80547405023131" lon="-1.7283010174811622"><ele>44.25</ele><time>2026-03-22T14:00:51Z</time></trkpt><trkpt lat="47.8056377420468" lon="-1.7284779981263876"><ele>44.0</ele><time>2026-03-22T14:00:52Z</time></trkpt><trkpt lat="47.8057315794649" lon="-1.7285488644253395"><ele>43.800000000000004</ele><time>2026-03-22T14:00:53Z</time></trkpt><trkpt lat="47.805823111394254" lon="-1.7286222864901175"><ele>43.6</ele><time>2026-03-22T14:00:54Z</time></trkpt><trkpt lat="47.80591933090853" lon="-1.7286987215112344"><ele>43.4</ele><time>2026-03-22T14:00:55Z</time></trkpt><trkpt lat="47.80601434219409" lon="-1.7287759697740959"><ele>43.2</ele><time>2026-03-22T14:00:56Z</time></trkpt><trkpt lat="47.806127551940165" lon="-1.7288618043322121"><ele>43.0</ele><time>2026-03-22T14:00:57Z</time></trkpt><trkpt lat="47.80623687945103" lon="-1.7289521366495868"><ele>43.0</ele><time>2026-03-22T14:00:58Z</time></trkpt><trkpt lat="47.80635910258035" lon="-1.7290477325372222"><ele>43.0</ele><time>2026-03-22T14:00:59Z</time></trkpt><trkpt lat="47.80649024181794" lon="-1.72914717235987"><ele>43.0</ele><time>2026-03-22T14:01:00Z</time></trkpt><trkpt lat="47.80661308760625" lon="-1.7292366198748876"><ele>43.0</ele><time>2026-03-22T14:01:01Z</time></trkpt><trkpt lat="47.80673015809976" lon="-1.7293317244604192"><ele>43.75</ele><time>2026-03-22T14:01:02Z</time></trkpt><trkpt lat="47.80685446159449" lon="-1.729440084061829"><ele>44.5</ele><time>2026-03-22T14:01:03Z</time></trkpt><trkpt lat="47.80698135495118" lon="-1.7295435799318473"><ele>45.25</ele><time>2026-03-22T14:01:04Z</time></trkpt><trkpt lat="47.807110306173065" lon="-1.7296492657158815"><ele>46.0</ele><time>2026-03-22T14:01:05Z</time></trkpt><trkpt lat="47.80723833723164" lon="-1.7297500149310088"><ele>46.0</ele><time>2026-03-22T14:01:06Z</time></trkpt><trkpt lat="47.807361345388536" lon="-1.7298488504248457"><ele>46.0</ele><time>2026-03-22T14:01:07Z</time></trkpt><trkpt lat="47.80748637435343" lon="-1.7299387345155406"><ele>46.0</ele><time>2026-03-22T14:01:08Z</time></trkpt><trkpt lat="47.80759684701192" lon="-1.7300203712554485"><ele>46.0</ele><time>2026-03-22T14:01:09Z</time></trkpt><trkpt lat="47.80769219735276" lon="-1.730092047681623"><ele>45.8</ele><time>2026-03-22T14:01:10Z</time></trkpt><trkpt lat="47.80778384553402" lon="-1.7301546168197954"><ele>45.599999999999994</ele><time>2026-03-22T14:01:11Z</time></trkpt><trkpt lat="47.80788028741176" lon="-1.7302354404391143"><ele>45.4</ele><time>2026-03-22T14:01:12Z</time></trkpt><trkpt lat="47.80798223921325" lon="-1.7303148505463253"><ele>45.2</ele><time>2026-03-22T14:01:13Z</time></trkpt><trkpt lat="47.808086359219594" lon="-1.7303964369651779"><ele>45.0</ele><time>2026-03-22T14:01:14Z</time></trkpt><trkpt lat="47.80819086911821" lon="-1.7304835391421125"><ele>45.5</ele><time>2026-03-22T14:01:15Z</time></trkpt><trkpt lat="47.80829512497956" lon="-1.7305726344258552"><ele>46.0</ele><time>2026-03-22T14:01:16Z</time></trkpt><trkpt lat="47.80840297308266" lon="-1.7306515845518904"><ele>46.5</ele><time>2026-03-22T14:01:17Z</time></trkpt><trkpt lat="47.80851302235229" lon="-1.7307381856890982"><ele>47.0</ele><time>2026-03-22T14:01:18Z</time></trkpt><trkpt lat="47.80862321404365" lon="-1.7308368067474578"><ele>47.0</ele><time>2026-03-22T14:01:19Z</time></trkpt><trkpt lat="47.808735853612696" lon="-1.7309119055686193"><ele>47.0</ele><time>2026-03-22T14:01:20Z</time></trkpt><trkpt lat="47.80885590595789" lon="-1.7310032962703266"><ele>47.0</ele><time>2026-03-22T14:01:21Z</time></trkpt><trkpt lat="47.80898319206358" lon="-1.7311030820456437"><ele>47.0</ele><time>2026-03-22T14:01:22Z</time></trkpt><trkpt lat="47.80910740666243" lon="-1.7312102549389006"><ele>48.0</ele><time>2026-03-22T14:01:23Z</time></trkpt><trkpt lat="47.80922661969178" lon="-1.7313051270175341"><ele>49.0</ele><time>2026-03-22T14:01:24Z</time></trkpt><trkpt lat="47.80934119917917" lon="-1.7313973459702403"><ele>50.0</ele><time>2026-03-22T14:01:25Z</time></trkpt><trkpt lat="47.80945701713707" lon="-1.7314852686518851"><ele>51.0</ele><time>2026-03-22T14:01:26Z</time></trkpt><trkpt lat="47.80956511103064" lon="-1.7315761960889071"><ele>51.0</ele><time>2026-03-22T14:01:26.999Z</time></trkpt><trkpt lat="47.80965034595134" lon="-1.7316525136179775"><ele>51.0</ele><time>2026-03-22T14:01:27.999Z</time></trkpt><trkpt lat="47.80971346012554" lon="-1.7317045559465916"><ele>51.0</ele><time>2026-03-22T14:01:28.999Z</time></trkpt><trkpt lat="47.8097995949797" lon="-1.7317826734876076"><ele>51.0</ele><time>2026-03-22T14:01:30.999Z</time></trkpt><trkpt lat="47.80984637612136" lon="-1.7318464767698492"><ele>51.0</ele><time>2026-03-22T14:01:32.999Z</time></trkpt><trkpt lat="47.80983851614766" lon="-1.7317465030018018"><ele>51.0</ele><time>2026-03-22T14:01:38.999Z</time></trkpt><trkpt lat="47.80974699261969" lon="-1.7316778328587663"><ele>51.0</ele><time>2026-03-22T14:01:40.999Z</time></trkpt><trkpt lat="47.80968319131638" lon="-1.7316413905420154"><ele>51.0</ele><time>2026-03-22T14:01:41.999Z</time></trkpt><trkpt lat="47.80958878864566" lon="-1.7315766758619904"><ele>51.0</ele><time>2026-03-22T14:01:43.999Z</time></trkpt><trkpt lat="47.80952564524102" lon="-1.7315304811603252"><ele>51.0</ele><time>2026-03-22T14:01:44.999Z</time></trkpt><trkpt lat="47.80945639641251" lon="-1.7314749661252005"><ele>51.0</ele><time>2026-03-22T14:01:45.999Z</time></trkpt><trkpt lat="47.809381548600705" lon="-1.7314210164823172"><ele>51.0</ele><time>2026-03-22T14:01:46.999Z</time></trkpt><trkpt lat="47.80930086728452" lon="-1.7313574642706708"><ele>51.166666666666664</ele><time>2026-03-22T14:01:47.999Z</time></trkpt><trkpt lat="47.80921899508553" lon="-1.7312855885929053"><ele>51.33333333333333</ele><time>2026-03-22T14:01:48.999Z</time></trkpt><trkpt lat="47.80913384270573" lon="-1.7312130557117078"><ele>51.5</ele><time>2026-03-22T14:01:49.999Z</time></trkpt><trkpt lat="47.80905631327328" lon="-1.7311521788742605"><ele>51.666666666666664</ele><time>2026-03-22T14:01:50.999Z</time></trkpt><trkpt lat="47.80898360139773" lon="-1.7310995587545452"><ele>51.83333333333333</ele><time>2026-03-22T14:01:51.999Z</time></trkpt><trkpt lat="47.808907447674585" lon="-1.7310457719695342"><ele>52.0</ele><time>2026-03-22T14:01:52.999Z</time></trkpt><trkpt lat="47.80884166814441" lon="-1.7309849467749392"><ele>51.33333333333333</ele><time>2026-03-22T14:01:53.999Z</time></trkpt><trkpt lat="47.80877333370809" lon="-1.7309224083086068"><ele>50.666666666666664</ele><time>2026-03-22T14:01:54.999Z</time></trkpt><trkpt lat="47.808700170520936" lon="-1.7308611367847424"><ele>50.0</ele><time>2026-03-22T14:01:55.999Z</time></trkpt><trkpt lat="47.80864327314283" lon="-1.7308087516423682"><ele>49.33333333333333</ele><time>2026-03-22T14:01:56.999Z</time></trkpt><trkpt lat="47.80856605472769" lon="-1.7307528440590498"><ele>48.666666666666664</ele><time>2026-03-22T14:01:57.999Z</time></trkpt><trkpt lat="47.808493027175295" lon="-1.7306980762621962"><ele>48.0</ele><time>2026-03-22T14:01:58.999Z</time></trkpt><trkpt lat="47.80841834072835" lon="-1.7306409506448188"><ele>48.0</ele><time>2026-03-22T14:01:59.999Z</time></trkpt><trkpt lat="47.8083440374705" lon="-1.730574931981546"><ele>48.0</ele><time>2026-03-22T14:02:00.999Z</time></trkpt><trkpt lat="47.80826206700786" lon="-1.7305094992281167"><ele>48.0</ele><time>2026-03-22T14:02:01.999Z</time></trkpt><trkpt lat="47.80817222109638" lon="-1.730442451386043"><ele>48.0</ele><time>2026-03-22T14:02:02.999Z</time></trkpt><trkpt lat="47.80808405314615" lon="-1.730370234650108"><ele>48.0</ele><time>2026-03-22T14:02:03.999Z</time></trkpt><trkpt lat="47.80800038838382" lon="-1.7302903052806091"><ele>47.599999999999994</ele><time>2026-03-22T14:02:04.999Z</time></trkpt><trkpt lat="47.80790192623664" lon="-1.73021723428922"><ele>47.199999999999996</ele><time>2026-03-22T14:02:05.999Z</time></trkpt><trkpt lat="47.807800650739175" lon="-1.7301444165285553"><ele>46.8</ele><time>2026-03-22T14:02:06.999Z</time></trkpt><trkpt lat="47.80770698780433" lon="-1.730063019100456"><ele>46.4</ele><time>2026-03-22T14:02:07.999Z</time></trkpt><trkpt lat="47.80761724188971" lon="-1.7299915395992636"><ele>46.0</ele><time>2026-03-22T14:02:08.999Z</time></trkpt><trkpt lat="47.80751654982255" lon="-1.729918770263481"><ele>46.0</ele><time>2026-03-22T14:02:09.999Z</time></trkpt><trkpt lat="47.80741583186263" lon="-1.729846595046829"><ele>46.0</ele><time>2026-03-22T14:02:10.999Z</time></trkpt><trkpt lat="47.80730686709009" lon="-1.729769733559324"><ele>46.0</ele><time>2026-03-22T14:02:11.999Z</time></trkpt><trkpt lat="47.807187014578865" lon="-1.7296774140021"><ele>46.0</ele><time>2026-03-22T14:02:12.999Z</time></trkpt><trkpt lat="47.80707758381897" lon="-1.7295859572895074"><ele>46.0</ele><time>2026-03-22T14:02:13.999Z</time></trkpt><trkpt lat="47.80696072462274" lon="-1.7294814657890107"><ele>46.0</ele><time>2026-03-22T14:02:14.999Z</time></trkpt><trkpt lat="47.8068363291911" lon="-1.7293800874480423"><ele>46.0</ele><time>2026-03-22T14:02:15.999Z</time></trkpt><trkpt lat="47.806717186520814" lon="-1.729286013296119"><ele>46.0</ele><time>2026-03-22T14:02:16.999Z</time></trkpt><trkpt lat="47.806588675857824" lon="-1.729179721224812"><ele>45.0</ele><time>2026-03-22T14:02:17.999Z</time></trkpt><trkpt lat="47.80645622379872" lon="-1.729076162467662"><ele>44.0</ele><time>2026-03-22T14:02:18.999Z</time></trkpt><trkpt lat="47.80632542246549" lon="-1.7289772590119916"><ele>43.0</ele><time>2026-03-22T14:02:19.999Z</time></trkpt><trkpt lat="47.806188438383984" lon="-1.7288750655199496"><ele>43.0</ele><time>2026-03-22T14:02:20.999Z</time></trkpt><trkpt lat="47.80604799410689" lon="-1.728766659439918"><ele>43.0</ele><time>2026-03-22T14:02:21.999Z</time></trkpt><trkpt lat="47.805919640345266" lon="-1.7286573642380114"><ele>43.0</ele><time>2026-03-22T14:02:22.999Z</time></trkpt><trkpt lat="47.805816685807436" lon="-1.7285783769915835"><ele>43.0</ele><time>2026-03-22T14:02:23.999Z</time></trkpt><trkpt lat="47.80573805910248" lon="-1.7285182367979484"><ele>43.16666666666667</ele><time>2026-03-22T14:02:24.999Z</time></trkpt><trkpt lat="47.80567022040795" lon="-1.7284711844517737"><ele>43.333333333333336</ele><time>2026-03-22T14:02:25.999Z</time></trkpt><trkpt lat="47.80560876558535" lon="-1.728425886686654"><ele>43.5</ele><time>2026-03-22T14:02:26.999Z</time></trkpt><trkpt lat="47.805532000253606" lon="-1.7283535508031016"><ele>43.666666666666664</ele><time>2026-03-22T14:02:28.999Z</time></trkpt><trkpt lat="47.805495175150995" lon="-1.728250578359084"><ele>43.83333333333333</ele><time>2026-03-22T14:02:34.998Z</time></trkpt><trkpt lat="47.805496791130835" lon="-1.7281529010024694"><ele>44.0</ele><time>2026-03-22T14:02:35.998Z</time></trkpt><trkpt lat="47.80552524775965" lon="-1.7280501594092383"><ele>44.0</ele><time>2026-03-22T14:02:36.998Z</time></trkpt><trkpt lat="47.80555103848754" lon="-1.7278522121903812"><ele>44.0</ele><time>2026-03-22T14:02:38.998Z</time></trkpt><trkpt lat="47.805567669434595" lon="-1.727698567692816"><ele>44.0</ele><time>2026-03-22T14:02:39.998Z</time></trkpt><trkpt lat="47.80559059263314" lon="-1.7275196580986683"><ele>44.0</ele><time>2026-03-22T14:02:40.998Z</time></trkpt><trkpt lat="47.805625860365986" lon="-1.7273312464260935"><ele>44.5</ele><time>2026-03-22T14:02:41.998Z</time></trkpt><trkpt lat="47.80566846446853" lon="-1.7271618521758458"><ele>45.0</ele><time>2026-03-22T14:02:42.998Z</time></trkpt><trkpt lat="47.8057295313262" lon="-1.7269776112483912"><ele>45.5</ele><time>2026-03-22T14:02:43.998Z</time></trkpt><trkpt lat="47.805809665562556" lon="-1.7267752758371335"><ele>46.0</ele><time>2026-03-22T14:02:44.998Z</time></trkpt><trkpt lat="47.80590872114816" lon="-1.7265530323897909"><ele>46.25</ele><time>2026-03-22T14:02:45.998Z</time></trkpt><trkpt lat="47.80596246091818" lon="-1.726363930991518"><ele>46.5</ele><time>2026-03-22T14:02:47Z</time></trkpt><trkpt lat="47.80601082079625" lon="-1.72620091096141"><ele>46.75</ele><time>2026-03-22T14:02:48Z</time></trkpt><trkpt lat="47.80604858488226" lon="-1.7260460977845704"><ele>47.0</ele><time>2026-03-22T14:02:49Z</time></trkpt><trkpt lat="47.80607644673866" lon="-1.7259166663115706"><ele>46.0</ele><time>2026-03-22T14:02:50Z</time></trkpt><trkpt lat="47.80610023732776" lon="-1.7258049404500018"><ele>45.0</ele><time>2026-03-22T14:02:51Z</time></trkpt><trkpt lat="47.806138263661566" lon="-1.7257291108210981"><ele>44.0</ele><time>2026-03-22T14:02:52Z</time></trkpt><trkpt lat="47.80617032043393" lon="-1.7256223885527309"><ele>43.0</ele><time>2026-03-22T14:02:54Z</time></trkpt><trkpt lat="47.8063692929196" lon="-1.725747389302992"><ele>42.0</ele><time>2026-03-22T14:02:56Z</time></trkpt><trkpt lat="47.80646296527341" lon="-1.725797988064599"><ele>42.0</ele><time>2026-03-22T14:02:57Z</time></trkpt><trkpt lat="47.80656938615531" lon="-1.7258848449396453"><ele>42.0</ele><time>2026-03-22T14:02:58Z</time></trkpt><trkpt lat="47.806712770081866" lon="-1.7260020596202048"><ele>42.0</ele><time>2026-03-22T14:02:59Z</time></trkpt><trkpt lat="47.80684502434143" lon="-1.726110227770484"><ele>42.0</ele><time>2026-03-22T14:03:00Z</time></trkpt><trkpt lat="47.80697173683148" lon="-1.7262381721228544"><ele>40.666666666666664</ele><time>2026-03-22T14:03:01Z</time></trkpt><trkpt lat="47.80710889094727" lon="-1.726345321674455"><ele>39.33333333333333</ele><time>2026-03-22T14:03:02Z</time></trkpt><trkpt lat="47.8072604131386" lon="-1.7264702132571692"><ele>38.0</ele><time>2026-03-22T14:03:03Z</time></trkpt><trkpt lat="47.807414703746375" lon="-1.7265926398040212"><ele>38.0</ele><time>2026-03-22T14:03:04Z</time></trkpt><trkpt lat="47.807564588009896" lon="-1.7267265334094724"><ele>38.0</ele><time>2026-03-22T14:03:05Z</time></trkpt><trkpt lat="47.80773200711088" lon="-1.726835638628653"><ele>38.0</ele><time>2026-03-22T14:03:06Z</time></trkpt><trkpt lat="47.807893298458175" lon="-1.726967173728497"><ele>38.33333333333333</ele><time>2026-03-22T14:03:07Z</time></trkpt><trkpt lat="47.80803471515201" lon="-1.727109193710091"><ele>38.666666666666664</ele><time>2026-03-22T14:03:08Z</time></trkpt><trkpt lat="47.80818692791067" lon="-1.7272066322228306"><ele>39.0</ele><time>2026-03-22T14:03:09Z</time></trkpt><trkpt lat="47.808334549560655" lon="-1.7273270194821642"><ele>39.0</ele><time>2026-03-22T14:03:10Z</time></trkpt><trkpt lat="47.80848917826474" lon="-1.727453121095002"><ele>39.0</ele><time>2026-03-22T14:03:11Z</time></trkpt><trkpt lat="47.808637183740956" lon="-1.727600657603114"><ele>39.0</ele><time>2026-03-22T14:03:12Z</time></trkpt><trkpt lat="47.808800391376884" lon="-1.7277249730853232"><ele>38.666666666666664</ele><time>2026-03-22T14:03:13Z</time></trkpt><trkpt lat="47.80896734225103" lon="-1.7278562551135233"><ele>38.33333333333333</ele><time>2026-03-22T14:03:14Z</time></trkpt><trkpt lat="47.80913398413613" lon="-1.727990201630928"><ele>38.0</ele><time>2026-03-22T14:03:15Z</time></trkpt><trkpt lat="47.80930448429256" lon="-1.728140325102905"><ele>37.666666666666664</ele><time>2026-03-22T14:03:16Z</time></trkpt><trkpt lat="47.80948048214696" lon="-1.7282777094141761"><ele>37.333333333333336</ele><time>2026-03-22T14:03:17Z</time></trkpt><trkpt lat="47.809655131578026" lon="-1.7284206726714295"><ele>37.0</ele><time>2026-03-22T14:03:18Z</time></trkpt><trkpt lat="47.80982680290199" lon="-1.7285550572700306"><ele>37.333333333333336</ele><time>2026-03-22T14:03:19Z</time></trkpt><trkpt lat="47.80999001783427" lon="-1.728677277300701"><ele>37.666666666666664</ele><time>2026-03-22T14:03:20Z</time></trkpt><trkpt lat="47.81012880555562" lon="-1.7288013578551662"><ele>38.0</ele><time>2026-03-22T14:03:21Z</time></trkpt><trkpt lat="47.81027621660927" lon="-1.7289144433246442"><ele>36.666666666666664</ele><time>2026-03-22T14:03:22Z</time></trkpt><trkpt lat="47.81041835318305" lon="-1.7290325668277697"><ele>35.333333333333336</ele><time>2026-03-22T14:03:23Z</time></trkpt><trkpt lat="47.81056189027947" lon="-1.7291652071555774"><ele>34.0</ele><time>2026-03-22T14:03:24Z</time></trkpt><trkpt lat="47.810711935918796" lon="-1.7292941064741298"><ele>35.0</ele><time>2026-03-22T14:03:25Z</time></trkpt><trkpt lat="47.810873730367135" lon="-1.7294078027460744"><ele>36.0</ele><time>2026-03-22T14:03:26Z</time></trkpt><trkpt lat="47.81103040002575" lon="-1.7295359062234559"><ele>37.0</ele><time>2026-03-22T14:03:27Z</time></trkpt><trkpt lat="47.81118063111822" lon="-1.7296838234032406"><ele>37.0</ele><time>2026-03-22T14:03:28Z</time></trkpt><trkpt lat="47.81134954740352" lon="-1.7297968622465185"><ele>37.0</ele><time>2026-03-22T14:03:29Z</time></trkpt><trkpt lat="47.811509579512794" lon="-1.729927727446213"><ele>37.0</ele><time>2026-03-22T14:03:29.999Z</time></trkpt><trkpt lat="47.81167090496198" lon="-1.7300865137113366"><ele>37.333333333333336</ele><time>2026-03-22T14:03:30.999Z</time></trkpt><trkpt lat="47.81184073345112" lon="-1.7301985292078923"><ele>37.666666666666664</ele><time>2026-03-22T14:03:31.999Z</time></trkpt><trkpt lat="47.81198411310969" lon="-1.7303387987363055"><ele>38.0</ele><time>2026-03-22T14:03:32.999Z</time></trkpt><trkpt lat="47.812121601625954" lon="-1.7304538392827162"><ele>38.0</ele><time>2026-03-22T14:03:33.999Z</time></trkpt><trkpt lat="47.81225224841197" lon="-1.7305556965127116"><ele>38.0</ele><time>2026-03-22T14:03:34.999Z</time></trkpt><trkpt lat="47.81238509547819" lon="-1.7306678346343538"><ele>38.0</ele><time>2026-03-22T14:03:35.999Z</time></trkpt><trkpt lat="47.81252240178359" lon="-1.7307781979634809"><ele>37.666666666666664</ele><time>2026-03-22T14:03:36.999Z</time></trkpt><trkpt lat="47.81265850675566" lon="-1.7308675667813893"><ele>37.333333333333336</ele><time>2026-03-22T14:03:37.999Z</time></trkpt><trkpt lat="47.812787044579395" lon="-1.7309991238107463"><ele>37.0</ele><time>2026-03-22T14:03:38.999Z</time></trkpt><trkpt lat="47.81292992565766" lon="-1.731090776839012"><ele>38.0</ele><time>2026-03-22T14:03:39.999Z</time></trkpt><trkpt lat="47.81306566008847" lon="-1.7312024025028738"><ele>39.0</ele><time>2026-03-22T14:03:40.999Z</time></trkpt><trkpt lat="47.81320695738414" lon="-1.7313188208851447"><ele>40.0</ele><time>2026-03-22T14:03:41.999Z</time></trkpt><trkpt lat="47.8133435159119" lon="-1.731431794825763"><ele>40.0</ele><time>2026-03-22T14:03:42.999Z</time></trkpt><trkpt lat="47.813462234605076" lon="-1.7315298241445236"><ele>40.0</ele><time>2026-03-22T14:03:43.999Z</time></trkpt><trkpt lat="47.81357159499945" lon="-1.731619792806409"><ele>40.0</ele><time>2026-03-22T14:03:44.999Z</time></trkpt><trkpt lat="47.81367488286886" lon="-1.7317047655433024"><ele>40.0</ele><time>2026-03-22T14:03:45.999Z</time></trkpt><trkpt lat="47.813768042151885" lon="-1.7317814057824508"><ele>39.8</ele><time>2026-03-22T14:03:46.999Z</time></trkpt><trkpt lat="47.81385580296046" lon="-1.7318536048634114"><ele>39.6</ele><time>2026-03-22T14:03:47.999Z</time></trkpt><trkpt lat="47.81393797294106" lon="-1.7319212043500434"><ele>39.4</ele><time>2026-03-22T14:03:48.999Z</time></trkpt><trkpt lat="47.81402182366609" lon="-1.732000123468965"><ele>39.2</ele><time>2026-03-22T14:03:49.999Z</time></trkpt><trkpt lat="47.814095275141945" lon="-1.7320622675536448"><ele>39.0</ele><time>2026-03-22T14:03:50.999Z</time></trkpt><trkpt lat="47.81416184945395" lon="-1.7321226150786233"><ele>38.8</ele><time>2026-03-22T14:03:51.999Z</time></trkpt><trkpt lat="47.814240666076735" lon="-1.7321870098186027"><ele>38.599999999999994</ele><time>2026-03-22T14:03:52.999Z</time></trkpt><trkpt lat="47.814314736656975" lon="-1.7322420093271405"><ele>38.4</ele><time>2026-03-22T14:03:53.999Z</time></trkpt><trkpt lat="47.81439834950621" lon="-1.7323133553793466"><ele>38.199999999999996</ele><time>2026-03-22T14:03:54.999Z</time></trkpt><trkpt lat="47.81450945632146" lon="-1.7324132255866123"><ele>38.0</ele><time>2026-03-22T14:03:55.999Z</time></trkpt><trkpt lat="47.81462736422577" lon="-1.7325088594556506"><ele>38.0</ele><time>2026-03-22T14:03:56.999Z</time></trkpt><trkpt lat="47.81473194443006" lon="-1.7325779257250413"><ele>38.0</ele><time>2026-03-22T14:03:57.999Z</time></trkpt><trkpt lat="47.814823669122575" lon="-1.732656127607985"><ele>38.0</ele><time>2026-03-22T14:03:58.999Z</time></trkpt><trkpt lat="47.81490901162571" lon="-1.7327310988721585"><ele>38.0</ele><time>2026-03-22T14:03:59.999Z</time></trkpt><trkpt lat="47.81499134234215" lon="-1.7328006429989469"><ele>38.0</ele><time>2026-03-22T14:04:00.999Z</time></trkpt><trkpt lat="47.81506488624044" lon="-1.7328586745718983"><ele>37.83333333333333</ele><time>2026-03-22T14:04:01.999Z</time></trkpt><trkpt lat="47.81512540608442" lon="-1.7329165368890453"><ele>37.666666666666664</ele><time>2026-03-22T14:04:02.999Z</time></trkpt><trkpt lat="47.81518796101735" lon="-1.7329528027441623"><ele>37.5</ele><time>2026-03-22T14:04:03.999Z</time></trkpt><trkpt lat="47.81526408212201" lon="-1.7330240299030284"><ele>37.333333333333336</ele><time>2026-03-22T14:04:05.999Z</time></trkpt><trkpt lat="47.81533265297453" lon="-1.7330832998576857"><ele>37.16666666666667</ele><time>2026-03-22T14:04:07.999Z</time></trkpt><trkpt lat="47.815404100291126" lon="-1.733128190626664"><ele>37.0</ele><time>2026-03-22T14:04:10.999Z</time></trkpt><trkpt lat="47.81547196983251" lon="-1.7330269607404392"><ele>36.5</ele><time>2026-03-22T14:04:13.999Z</time></trkpt><trkpt lat="47.81551471795807" lon="-1.73293552115296"><ele>36.0</ele><time>2026-03-22T14:04:14.999Z</time></trkpt><trkpt lat="47.815562295221085" lon="-1.7328337518983221"><ele>35.5</ele><time>2026-03-22T14:04:15.999Z</time></trkpt><trkpt lat="47.81559846921129" lon="-1.732756374538111"><ele>35.0</ele><time>2026-03-22T14:04:16.999Z</time></trkpt><trkpt lat="47.81567641135877" lon="-1.7326317187991824"><ele>34.5</ele><time>2026-03-22T14:04:18.999Z</time></trkpt><trkpt lat="47.81570052236992" lon="-1.732538079681815"><ele>34.0</ele><time>2026-03-22T14:04:19.999Z</time></trkpt><trkpt lat="47.81574338376278" lon="-1.7324463978758242"><ele>34.0</ele><time>2026-03-22T14:04:20.999Z</time></trkpt><trkpt lat="47.81578407052674" lon="-1.732359366278032"><ele>34.0</ele><time>2026-03-22T14:04:21.999Z</time></trkpt><trkpt lat="47.81584803872584" lon="-1.7322225363201909"><ele>34.0</ele><time>2026-03-22T14:04:23.999Z</time></trkpt><trkpt lat="47.816034102382375" lon="-1.7321549948796555"><ele>34.0</ele><time>2026-03-22T14:04:25.999Z</time></trkpt><trkpt lat="47.81614206036335" lon="-1.73218210141171"><ele>33.5</ele><time>2026-03-22T14:04:26.999Z</time></trkpt><trkpt lat="47.81625021734403" lon="-1.7321956697851162"><ele>33.0</ele><time>2026-03-22T14:04:27.999Z</time></trkpt><trkpt lat="47.816357628815645" lon="-1.732207786185109"><ele>32.5</ele><time>2026-03-22T14:04:28.999Z</time></trkpt><trkpt lat="47.81647493116433" lon="-1.7322201970075561"><ele>32.0</ele><time>2026-03-22T14:04:29.999Z</time></trkpt><trkpt lat="47.81659116595514" lon="-1.732232494890054"><ele>32.0</ele><time>2026-03-22T14:04:30.999Z</time></trkpt><trkpt lat="47.81671517462844" lon="-1.7322464662077603"><ele>32.0</ele><time>2026-03-22T14:04:31.999Z</time></trkpt><trkpt lat="47.81684203522877" lon="-1.7322622459211425"><ele>32.0</ele><time>2026-03-22T14:04:32.999Z</time></trkpt><trkpt lat="47.81697258332243" lon="-1.7322784843141463"><ele>32.0</ele><time>2026-03-22T14:04:33.999Z</time></trkpt><trkpt lat="47.81710318363987" lon="-1.7322943512516387"><ele>32.0</ele><time>2026-03-22T14:04:34.998Z</time></trkpt><trkpt lat="47.817235460493315" lon="-1.732310059909697"><ele>32.0</ele><time>2026-03-22T14:04:35.998Z</time></trkpt><trkpt lat="47.81735455047255" lon="-1.7323242025427332"><ele>32.0</ele><time>2026-03-22T14:04:36.998Z</time></trkpt><trkpt lat="47.81746562183302" lon="-1.732337392918877"><ele>32.0</ele><time>2026-03-22T14:04:37.998Z</time></trkpt><trkpt lat="47.817569878486246" lon="-1.732349846606031"><ele>31.8</ele><time>2026-03-22T14:04:38.998Z</time></trkpt><trkpt lat="47.81767005656019" lon="-1.7323639968390496"><ele>31.6</ele><time>2026-03-22T14:04:39.998Z</time></trkpt><trkpt lat="47.81776531720643" lon="-1.7323784469059824"><ele>31.400000000000002</ele><time>2026-03-22T14:04:40.998Z</time></trkpt><trkpt lat="47.81786690088102" lon="-1.7323934809504051"><ele>31.200000000000003</ele><time>2026-03-22T14:04:41.998Z</time></trkpt><trkpt lat="47.81795819097198" lon="-1.7324130580922223"><ele>31.0</ele><time>2026-03-22T14:04:42.998Z</time></trkpt><trkpt lat="47.818056365286864" lon="-1.73243510510946"><ele>31.0</ele><time>2026-03-22T14:04:43.998Z</time></trkpt><trkpt lat="47.81816540056216" lon="-1.7324638106726538"><ele>31.0</ele><time>2026-03-22T14:04:44.998Z</time></trkpt><trkpt lat="47.81828230973758" lon="-1.7325008471527064"><ele>31.0</ele><time>2026-03-22T14:04:45.998Z</time></trkpt><trkpt lat="47.81840405302412" lon="-1.7325416157590217"><ele>31.0</ele><time>2026-03-22T14:04:46.998Z</time></trkpt><trkpt lat="47.81856355917279" lon="-1.732640108466046"><ele>31.25</ele><time>2026-03-22T14:04:47.998Z</time></trkpt><trkpt lat="47.81866775962465" lon="-1.7327314431933083"><ele>31.5</ele><time>2026-03-22T14:04:48.998Z</time></trkpt><trkpt lat="47.81879313467363" lon="-1.7328369761650806"><ele>31.75</ele><time>2026-03-22T14:04:49.998Z</time></trkpt><trkpt lat="47.81888993381924" lon="-1.732919753350484"><ele>32.0</ele><time>2026-03-22T14:04:50.998Z</time></trkpt><trkpt lat="47.818961661928384" lon="-1.7329811813892007"><ele>32.0</ele><time>2026-03-22T14:04:51.998Z</time></trkpt><trkpt lat="47.81902744482863" lon="-1.7330264185050375"><ele>32.0</ele><time>2026-03-22T14:04:53Z</time></trkpt><trkpt lat="47.81909248895899" lon="-1.7330510066011926"><ele>32.0</ele><time>2026-03-22T14:04:54Z</time></trkpt><trkpt lat="47.81919605165239" lon="-1.733086026933974"><ele>32.0</ele><time>2026-03-22T14:04:55Z</time></trkpt><trkpt lat="47.819295284398144" lon="-1.7332053120901272"><ele>32.0</ele><time>2026-03-22T14:04:56Z</time></trkpt><trkpt lat="47.819361595876224" lon="-1.7333068476821798"><ele>32.0</ele><time>2026-03-22T14:04:57Z</time></trkpt><trkpt lat="47.81940788872254" lon="-1.7334001927009792"><ele>32.0</ele><time>2026-03-22T14:04:58Z</time></trkpt><trkpt lat="47.81943227036186" lon="-1.7335284878179826"><ele>32.0</ele><time>2026-03-22T14:04:59Z</time></trkpt><trkpt lat="47.81947955131224" lon="-1.7336982547233655"><ele>32.0</ele><time>2026-03-22T14:05:01Z</time></trkpt><trkpt lat="47.81973087489951" lon="-1.733741932760482"><ele>32.0</ele><time>2026-03-22T14:05:03Z</time></trkpt><trkpt lat="47.819883396897076" lon="-1.7337461815351936"><ele>32.0</ele><time>2026-03-22T14:05:04Z</time></trkpt><trkpt lat="47.820030279808925" lon="-1.7337549571696511"><ele>32.0</ele><time>2026-03-22T14:05:05Z</time></trkpt><trkpt lat="47.82019430511873" lon="-1.733755432759945"><ele>31.75</ele><time>2026-03-22T14:05:06Z</time></trkpt><trkpt lat="47.82034119707388" lon="-1.7337521438624137"><ele>31.5</ele><time>2026-03-22T14:05:07Z</time></trkpt><trkpt lat="47.82046173699212" lon="-1.7337524620910914"><ele>31.25</ele><time>2026-03-22T14:05:08Z</time></trkpt><trkpt lat="47.82057944835034" lon="-1.733756657205434"><ele>31.0</ele><time>2026-03-22T14:05:09Z</time></trkpt><trkpt lat="47.820721052139945" lon="-1.7337636675005528"><ele>31.0</ele><time>2026-03-22T14:05:10Z</time></trkpt><trkpt lat="47.82090986946521" lon="-1.7337785569864188"><ele>31.0</ele><time>2026-03-22T14:05:11Z</time></trkpt><trkpt lat="47.82113450974225" lon="-1.7337916376102132"><ele>31.0</ele><time>2026-03-22T14:05:12Z</time></trkpt><trkpt lat="47.821351553140616" lon="-1.7338184305331987"><ele>30.8</ele><time>2026-03-22T14:05:13Z</time></trkpt><trkpt lat="47.82151441604835" lon="-1.7338102977854448"><ele>30.6</ele><time>2026-03-22T14:05:14Z</time></trkpt><trkpt lat="47.821627682562465" lon="-1.733810121417326"><ele>30.4</ele><time>2026-03-22T14:05:15Z</time></trkpt><trkpt lat="47.82171828510281" lon="-1.7338017932417271"><ele>30.2</ele><time>2026-03-22T14:05:16Z</time></trkpt><trkpt lat="47.82179926060921" lon="-1.7338100151251488"><ele>30.0</ele><time>2026-03-22T14:05:17Z</time></trkpt><trkpt lat="47.821868937404105" lon="-1.7338617646199659"><ele>29.5</ele><time>2026-03-22T14:05:18Z</time></trkpt><trkpt lat="47.82193077971519" lon="-1.7339347903999225"><ele>29.0</ele><time>2026-03-22T14:05:19Z</time></trkpt><trkpt lat="47.82201437815694" lon="-1.7340255380975427"><ele>28.5</ele><time>2026-03-22T14:05:20Z</time></trkpt><trkpt lat="47.82211153906634" lon="-1.7341405599629174"><ele>28.0</ele><time>2026-03-22T14:05:21Z</time></trkpt><trkpt lat="47.822226625931265" lon="-1.7342741081575375"><ele>28.333333333333336</ele><time>2026-03-22T14:05:22Z</time></trkpt><trkpt lat="47.82236012290038" lon="-1.7344569598758661"><ele>28.666666666666664</ele><time>2026-03-22T14:05:23Z</time></trkpt><trkpt lat="47.82248832913571" lon="-1.7346397461181622"><ele>29.0</ele><time>2026-03-22T14:05:24Z</time></trkpt><trkpt lat="47.822620880462516" lon="-1.7348109168169827"><ele>29.0</ele><time>2026-03-22T14:05:25Z</time></trkpt><trkpt lat="47.82277203355417" lon="-1.735002819767699"><ele>29.0</ele><time>2026-03-22T14:05:26Z</time></trkpt><trkpt lat="47.822918542817504" lon="-1.7351897168145454"><ele>29.0</ele><time>2026-03-22T14:05:27Z</time></trkpt><trkpt lat="47.82302937518816" lon="-1.7353560648891904"><ele>29.0</ele><time>2026-03-22T14:05:28Z</time></trkpt><trkpt lat="47.82313349508294" lon="-1.735478490777029"><ele>29.0</ele><time>2026-03-22T14:05:29Z</time></trkpt><trkpt lat="47.823216751419324" lon="-1.735564208314384"><ele>29.0</ele><time>2026-03-22T14:05:30Z</time></trkpt><trkpt lat="47.823293921881046" lon="-1.7356651105139853"><ele>29.0</ele><time>2026-03-22T14:05:31Z</time></trkpt><trkpt lat="47.82336517990213" lon="-1.7357566122720103"><ele>29.0</ele><time>2026-03-22T14:05:32Z</time></trkpt><trkpt lat="47.8234032258326" lon="-1.735850381028245"><ele>29.0</ele><time>2026-03-22T14:05:33Z</time></trkpt><trkpt lat="47.823434475330764" lon="-1.7359587796191882"><ele>29.0</ele><time>2026-03-22T14:05:33.999Z</time></trkpt><trkpt lat="47.82347565166013" lon="-1.7361173053890049"><ele>29.0</ele><time>2026-03-22T14:05:34.999Z</time></trkpt><trkpt lat="47.823507112611864" lon="-1.7363027869496137"><ele>29.0</ele><time>2026-03-22T14:05:35.999Z</time></trkpt><trkpt lat="47.823506821784875" lon="-1.736510111737629"><ele>28.333333333333332</ele><time>2026-03-22T14:05:36.999Z</time></trkpt><trkpt lat="47.82353928239289" lon="-1.7367655545106426"><ele>27.666666666666664</ele><time>2026-03-22T14:05:37.999Z</time></trkpt><trkpt lat="47.82355899894013" lon="-1.737051307709753"><ele>27.0</ele><time>2026-03-22T14:05:38.999Z</time></trkpt><trkpt lat="47.82357582884175" lon="-1.7373106505058291"><ele>26.666666666666664</ele><time>2026-03-22T14:05:39.999Z</time></trkpt><trkpt lat="47.8236038663184" lon="-1.73760465956181"><ele>26.333333333333332</ele><time>2026-03-22T14:05:40.999Z</time></trkpt><trkpt lat="47.82362483996109" lon="-1.7379483945344258"><ele>26.0</ele><time>2026-03-22T14:05:41.999Z</time></trkpt><trkpt lat="47.823655070424806" lon="-1.738294693853198"><ele>27.0</ele><time>2026-03-22T14:05:42.999Z</time></trkpt><trkpt lat="47.82368785977517" lon="-1.7386264074669964"><ele>28.0</ele><time>2026-03-22T14:05:43.999Z</time></trkpt><trkpt lat="47.823721917284125" lon="-1.7389815199953975"><ele>28.0</ele><time>2026-03-22T14:05:44.999Z</time></trkpt><trkpt lat="47.82376235166012" lon="-1.7393545635145522"><ele>28.0</ele><time>2026-03-22T14:05:45.999Z</time></trkpt><trkpt lat="47.82379427121131" lon="-1.7396850822282799"><ele>28.0</ele><time>2026-03-22T14:05:46.999Z</time></trkpt><trkpt lat="47.823819083215696" lon="-1.7399861126000988"><ele>28.0</ele><time>2026-03-22T14:05:47.999Z</time></trkpt><trkpt lat="47.823845351731876" lon="-1.7402619377173116"><ele>28.0</ele><time>2026-03-22T14:05:48.999Z</time></trkpt><trkpt lat="47.82386678735651" lon="-1.7405233342418442"><ele>28.0</ele><time>2026-03-22T14:05:49.999Z</time></trkpt><trkpt lat="47.82388030075042" lon="-1.740745430582489"><ele>28.0</ele><time>2026-03-22T14:05:50.999Z</time></trkpt><trkpt lat="47.82391164987383" lon="-1.7409597622771273"><ele>28.0</ele><time>2026-03-22T14:05:51.999Z</time></trkpt><trkpt lat="47.823934275416164" lon="-1.741159073223936"><ele>28.0</ele><time>2026-03-22T14:05:52.999Z</time></trkpt><trkpt lat="47.823952201463534" lon="-1.7413419248804243"><ele>28.2</ele><time>2026-03-22T14:05:53.999Z</time></trkpt><trkpt lat="47.82396194854192" lon="-1.7415231714035988"><ele>28.4</ele><time>2026-03-22T14:05:54.999Z</time></trkpt><trkpt lat="47.82397916620916" lon="-1.7416726176331567"><ele>28.599999999999998</ele><time>2026-03-22T14:05:55.999Z</time></trkpt><trkpt lat="47.82398489540742" lon="-1.7417967587427337"><ele>28.799999999999997</ele><time>2026-03-22T14:05:56.999Z</time></trkpt><trkpt lat="47.82398964610493" lon="-1.7419605725405476"><ele>29.0</ele><time>2026-03-22T14:05:58.999Z</time></trkpt><trkpt lat="47.82403563098956" lon="-1.7420572622076842"><ele>29.0</ele><time>2026-03-22T14:06:01.999Z</time></trkpt><trkpt lat="47.824133190473525" lon="-1.7421044591155574"><ele>29.0</ele><time>2026-03-22T14:06:03.999Z</time></trkpt><trkpt lat="47.824219731513146" lon="-1.7421028190736014"><ele>29.0</ele><time>2026-03-22T14:06:04.999Z</time></trkpt><trkpt lat="47.82430591276564" lon="-1.742111634494741"><ele>29.0</ele><time>2026-03-22T14:06:05.999Z</time></trkpt><trkpt lat="47.824395481071306" lon="-1.742127220373471"><ele>29.0</ele><time>2026-03-22T14:06:06.999Z</time></trkpt><trkpt lat="47.82449611946133" lon="-1.7421127497618614"><ele>28.4</ele><time>2026-03-22T14:06:07.999Z</time></trkpt><trkpt lat="47.82460810774763" lon="-1.7421194096142227"><ele>27.799999999999997</ele><time>2026-03-22T14:06:08.999Z</time></trkpt><trkpt lat="47.82471021850042" lon="-1.7421246024302308"><ele>27.200000000000003</ele><time>2026-03-22T14:06:09.999Z</time></trkpt><trkpt lat="47.82479601468647" lon="-1.7421528921305953"><ele>26.6</ele><time>2026-03-22T14:06:10.999Z</time></trkpt><trkpt lat="47.82488221127696" lon="-1.7421366858987841"><ele>26.0</ele><time>2026-03-22T14:06:11.999Z</time></trkpt><trkpt lat="47.82496118707467" lon="-1.7421360569752098"><ele>26.0</ele><time>2026-03-22T14:06:12.999Z</time></trkpt><trkpt lat="47.82504609390157" lon="-1.7421429905204675"><ele>26.0</ele><time>2026-03-22T14:06:13.999Z</time></trkpt><trkpt lat="47.8251456308023" lon="-1.7421686271279844"><ele>26.0</ele><time>2026-03-22T14:06:14.999Z</time></trkpt><trkpt lat="47.8252625289088" lon="-1.742176736038754"><ele>26.0</ele><time>2026-03-22T14:06:15.999Z</time></trkpt><trkpt lat="47.8254077042243" lon="-1.7422000406349485"><ele>26.0</ele><time>2026-03-22T14:06:16.999Z</time></trkpt><trkpt lat="47.82553071933712" lon="-1.7422351774712617"><ele>26.0</ele><time>2026-03-22T14:06:17.999Z</time></trkpt><trkpt lat="47.82564163457536" lon="-1.7422780515031544"><ele>26.0</ele><time>2026-03-22T14:06:18.999Z</time></trkpt><trkpt lat="47.82576928181184" lon="-1.7423245339292779"><ele>26.0</ele><time>2026-03-22T14:06:19.999Z</time></trkpt><trkpt lat="47.82589763367588" lon="-1.7423462589718035"><ele>26.0</ele><time>2026-03-22T14:06:20.999Z</time></trkpt><trkpt lat="47.826011328976456" lon="-1.7423840456943789"><ele>27.0</ele><time>2026-03-22T14:06:21.999Z</time></trkpt><trkpt lat="47.826148073793036" lon="-1.7424242512426702"><ele>28.0</ele><time>2026-03-22T14:06:22.999Z</time></trkpt><trkpt lat="47.82628548363358" lon="-1.742462071222424"><ele>29.0</ele><time>2026-03-22T14:06:23.999Z</time></trkpt><trkpt lat="47.82640988686253" lon="-1.742511086581132"><ele>30.0</ele><time>2026-03-22T14:06:24.999Z</time></trkpt><trkpt lat="47.8265250592367" lon="-1.7425877455066698"><ele>30.0</ele><time>2026-03-22T14:06:25.999Z</time></trkpt><trkpt lat="47.826613486202426" lon="-1.7426427956266377"><ele>30.0</ele><time>2026-03-22T14:06:26.999Z</time></trkpt><trkpt lat="47.82671595274289" lon="-1.7427573455650038"><ele>30.0</ele><time>2026-03-22T14:06:27.999Z</time></trkpt><trkpt lat="47.82679501497817" lon="-1.7428630076077052"><ele>30.0</ele><time>2026-03-22T14:06:28.999Z</time></trkpt><trkpt lat="47.826874315338216" lon="-1.7429732604057175"><ele>30.0</ele><time>2026-03-22T14:06:29.999Z</time></trkpt><trkpt lat="47.82698174749511" lon="-1.7430708429979116"><ele>28.666666666666664</ele><time>2026-03-22T14:06:30.999Z</time></trkpt><trkpt lat="47.82710480441664" lon="-1.7431780556411598"><ele>27.333333333333332</ele><time>2026-03-22T14:06:31.999Z</time></trkpt><trkpt lat="47.82725009706926" lon="-1.7432613459629653"><ele>26.0</ele><time>2026-03-22T14:06:32.999Z</time></trkpt><trkpt lat="47.82739346279758" lon="-1.7433350934463934"><ele>26.0</ele><time>2026-03-22T14:06:33.999Z</time></trkpt><trkpt lat="47.82755171388166" lon="-1.7434180162189725"><ele>26.0</ele><time>2026-03-22T14:06:34.999Z</time></trkpt><trkpt lat="47.827726929442875" lon="-1.7434602081743678"><ele>26.0</ele><time>2026-03-22T14:06:35.999Z</time></trkpt><trkpt lat="47.827862444098756" lon="-1.7435340954769118"><ele>27.0</ele><time>2026-03-22T14:06:36.999Z</time></trkpt><trkpt lat="47.82797845207555" lon="-1.743591041945806"><ele>28.0</ele><time>2026-03-22T14:06:37.999Z</time></trkpt><trkpt lat="47.82805919531651" lon="-1.743630816970508"><ele>29.0</ele><time>2026-03-22T14:06:38.998Z</time></trkpt><trkpt lat="47.82813138802715" lon="-1.7436663798430547"><ele>30.0</ele><time>2026-03-22T14:06:39.998Z</time></trkpt><trkpt lat="47.82827691671456" lon="-1.7437108442474256"><ele>31.0</ele><time>2026-03-22T14:06:41.998Z</time></trkpt><trkpt lat="47.828341999512695" lon="-1.7437443543739377"><ele>31.0</ele><time>2026-03-22T14:06:42.998Z</time></trkpt><trkpt lat="47.82841159261622" lon="-1.743805432062973"><ele>31.0</ele><time>2026-03-22T14:06:43.998Z</time></trkpt><trkpt lat="47.82856866633465" lon="-1.7438834027508063"><ele>31.0</ele><time>2026-03-22T14:06:45.998Z</time></trkpt><trkpt lat="47.828946583438196" lon="-1.7441116514876387"><ele>30.5</ele><time>2026-03-22T14:06:46.998Z</time></trkpt><trkpt lat="47.82902050513531" lon="-1.7441504350479973"><ele>30.0</ele><time>2026-03-22T14:06:47.998Z</time></trkpt><trkpt lat="47.829085695956515" lon="-1.7441622364797866"><ele>29.5</ele><time>2026-03-22T14:06:48.998Z</time></trkpt><trkpt lat="47.829158574891885" lon="-1.7441977656241505"><ele>29.0</ele><time>2026-03-22T14:06:50.998Z</time></trkpt><trkpt lat="47.82910076716924" lon="-1.7445538103209735"><ele>29.0</ele><time>2026-03-22T14:06:54.998Z</time></trkpt><trkpt lat="47.82905108040924" lon="-1.7447404733174288"><ele>29.0</ele><time>2026-03-22T14:06:56.998Z</time></trkpt><trkpt lat="47.82902609915975" lon="-1.7448536203812846"><ele>29.0</ele><time>2026-03-22T14:06:57.998Z</time></trkpt><trkpt lat="47.828992008722565" lon="-1.7449806919893411"><ele>29.0</ele><time>2026-03-22T14:06:59Z</time></trkpt><trkpt lat="47.82896231144265" lon="-1.7451155047862552"><ele>29.0</ele><time>2026-03-22T14:07:00Z</time></trkpt><trkpt lat="47.828929443581636" lon="-1.7452486284346997"><ele>28.999999999999996</ele><time>2026-03-22T14:07:01Z</time></trkpt><trkpt lat="47.828905226085084" lon="-1.7453714782116594"><ele>29.0</ele><time>2026-03-22T14:07:02Z</time></trkpt><trkpt lat="47.82887203272789" lon="-1.7454755041986054"><ele>29.0</ele><time>2026-03-22T14:07:03Z</time></trkpt><trkpt lat="47.8288337875107" lon="-1.7456266488188321"><ele>29.0</ele><time>2026-03-22T14:07:05Z</time></trkpt><trkpt lat="47.828799524087536" lon="-1.745719314039507"><ele>28.999999999999996</ele><time>2026-03-22T14:07:07Z</time></trkpt><trkpt lat="47.82877185449087" lon="-1.7458069242411798"><ele>29.0</ele><time>2026-03-22T14:07:10Z</time></trkpt><trkpt lat="47.82880148039217" lon="-1.7457096809656056"><ele>29.0</ele><time>2026-03-22T14:07:44.999Z</time></trkpt><trkpt lat="47.82882277222903" lon="-1.745547266781865"><ele>29.0</ele><time>2026-03-22T14:07:46.999Z</time></trkpt><trkpt lat="47.82884720996302" lon="-1.7454280040662562"><ele>29.0</ele><time>2026-03-22T14:07:47.999Z</time></trkpt><trkpt lat="47.82887790564228" lon="-1.7452992489077959"><ele>29.0</ele><time>2026-03-22T14:07:48.999Z</time></trkpt><trkpt lat="47.82891305395249" lon="-1.7451400589052195"><ele>29.0</ele><time>2026-03-22T14:07:49.999Z</time></trkpt><trkpt lat="47.828962182461915" lon="-1.744924756880512"><ele>29.0</ele><time>2026-03-22T14:07:50.999Z</time></trkpt><trkpt lat="47.82900721672489" lon="-1.744733863036137"><ele>29.0</ele><time>2026-03-22T14:07:51.999Z</time></trkpt><trkpt lat="47.82903728975127" lon="-1.7446067014973476"><ele>29.0</ele><time>2026-03-22T14:07:52.999Z</time></trkpt><trkpt lat="47.829059239613784" lon="-1.7445157446147024"><ele>29.0</ele><time>2026-03-22T14:07:53.999Z</time></trkpt><trkpt lat="47.82908170868044" lon="-1.7443662614416915"><ele>29.0</ele><time>2026-03-22T14:07:55.999Z</time></trkpt><trkpt lat="47.829097435747634" lon="-1.744250001234336"><ele>28.833333333333332</ele><time>2026-03-22T14:07:58.999Z</time></trkpt><trkpt lat="47.82911795389592" lon="-1.7441205383156384"><ele>28.666666666666664</ele><time>2026-03-22T14:08:05.999Z</time></trkpt><trkpt lat="47.82914298122268" lon="-1.7440231088599558"><ele>28.5</ele><time>2026-03-22T14:08:06.999Z</time></trkpt><trkpt lat="47.82916783214682" lon="-1.7439070148734874"><ele>28.333333333333336</ele><time>2026-03-22T14:08:07.999Z</time></trkpt><trkpt lat="47.8291852587573" lon="-1.7438101868452698"><ele>28.166666666666668</ele><time>2026-03-22T14:08:08.999Z</time></trkpt><trkpt lat="47.829210819651706" lon="-1.7437230716359984"><ele>28.0</ele><time>2026-03-22T14:08:09.999Z</time></trkpt><trkpt lat="47.82926233755004" lon="-1.743546270941003"><ele>28.0</ele><time>2026-03-22T14:08:11.999Z</time></trkpt><trkpt lat="47.829294969235946" lon="-1.743407315556008"><ele>28.0</ele><time>2026-03-22T14:08:12.999Z</time></trkpt><trkpt lat="47.82932284234323" lon="-1.7432347686150624"><ele>28.0</ele><time>2026-03-22T14:08:13.999Z</time></trkpt><trkpt lat="47.82934921440728" lon="-1.7430498151153837"><ele>28.0</ele><time>2026-03-22T14:08:14.999Z</time></trkpt><trkpt lat="47.829350274288366" lon="-1.7428869392393498"><ele>28.5</ele><time>2026-03-22T14:08:15.999Z</time></trkpt><trkpt lat="47.82934940045626" lon="-1.7426969910665673"><ele>29.0</ele><time>2026-03-22T14:08:16.999Z</time></trkpt><trkpt lat="47.82933801549408" lon="-1.742476809920123"><ele>29.5</ele><time>2026-03-22T14:08:17.999Z</time></trkpt><trkpt lat="47.829329447278596" lon="-1.7422410289667356"><ele>30.0</ele><time>2026-03-22T14:08:18.999Z</time></trkpt><trkpt lat="47.82932346043121" lon="-1.7420394777101615"><ele>30.0</ele><time>2026-03-22T14:08:19.999Z</time></trkpt><trkpt lat="47.82931282301756" lon="-1.7418417932410304"><ele>30.0</ele><time>2026-03-22T14:08:20.999Z</time></trkpt><trkpt lat="47.82930679184577" lon="-1.7416715789799193"><ele>30.0</ele><time>2026-03-22T14:08:21.999Z</time></trkpt><trkpt lat="47.82931063729627" lon="-1.7414914509442758"><ele>30.0</ele><time>2026-03-22T14:08:22.999Z</time></trkpt><trkpt lat="47.82933174642856" lon="-1.741312738854936"><ele>30.0</ele><time>2026-03-22T14:08:23.999Z</time></trkpt><trkpt lat="47.82939472396975" lon="-1.7411318058612104"><ele>30.0</ele><time>2026-03-22T14:08:24.999Z</time></trkpt><trkpt lat="47.829459577218444" lon="-1.7409406229031834"><ele>30.0</ele><time>2026-03-22T14:08:25.999Z</time></trkpt><trkpt lat="47.82953232511386" lon="-1.740743037649242"><ele>30.0</ele><time>2026-03-22T14:08:26.999Z</time></trkpt><trkpt lat="47.82959703984503" lon="-1.74053522658673"><ele>30.0</ele><time>2026-03-22T14:08:27.999Z</time></trkpt><trkpt lat="47.82965584969645" lon="-1.740342029080704"><ele>30.0</ele><time>2026-03-22T14:08:28.999Z</time></trkpt><trkpt lat="47.82970712323256" lon="-1.740171378927303"><ele>30.0</ele><time>2026-03-22T14:08:29.999Z</time></trkpt><trkpt lat="47.8297567741318" lon="-1.7399986754311865"><ele>30.0</ele><time>2026-03-22T14:08:30.999Z</time></trkpt><trkpt lat="47.82979049587958" lon="-1.7398105488905242"><ele>30.0</ele><time>2026-03-22T14:08:31.999Z</time></trkpt><trkpt lat="47.82981759907851" lon="-1.739624907882105"><ele>30.0</ele><time>2026-03-22T14:08:32.999Z</time></trkpt><trkpt lat="47.829844130380486" lon="-1.7394385419276281"><ele>30.0</ele><time>2026-03-22T14:08:33.999Z</time></trkpt><trkpt lat="47.82986845290611" lon="-1.7392390439457195"><ele>30.0</ele><time>2026-03-22T14:08:34.999Z</time></trkpt><trkpt lat="47.82989176493408" lon="-1.7390294819483594"><ele>30.666666666666664</ele><time>2026-03-22T14:08:35.999Z</time></trkpt><trkpt lat="47.829914801529185" lon="-1.7388058870344911"><ele>31.333333333333332</ele><time>2026-03-22T14:08:36.999Z</time></trkpt><trkpt lat="47.829920092407534" lon="-1.7385761068895944"><ele>32.0</ele><time>2026-03-22T14:08:37.999Z</time></trkpt><trkpt lat="47.829929774467786" lon="-1.7383495172624062"><ele>32.33333333333333</ele><time>2026-03-22T14:08:38.999Z</time></trkpt><trkpt lat="47.82994295207976" lon="-1.738111789393057"><ele>32.666666666666664</ele><time>2026-03-22T14:08:39.999Z</time></trkpt><trkpt lat="47.82995993921371" lon="-1.7378888782265876"><ele>33.0</ele><time>2026-03-22T14:08:40.999Z</time></trkpt><trkpt lat="47.829974742887565" lon="-1.7376736188128885"><ele>33.25</ele><time>2026-03-22T14:08:41.999Z</time></trkpt><trkpt lat="47.83002110764459" lon="-1.7374544411182473"><ele>33.5</ele><time>2026-03-22T14:08:42.999Z</time></trkpt><trkpt lat="47.83009013745476" lon="-1.7372778465639371"><ele>33.75</ele><time>2026-03-22T14:08:43.999Z</time></trkpt><trkpt lat="47.83018746787854" lon="-1.7371079201947637"><ele>34.0</ele><time>2026-03-22T14:08:44.999Z</time></trkpt><trkpt lat="47.83027377675827" lon="-1.7369313263680992"><ele>34.75</ele><time>2026-03-22T14:08:45.999Z</time></trkpt><trkpt lat="47.830366567707756" lon="-1.7367658500504088"><ele>35.5</ele><time>2026-03-22T14:08:46.999Z</time></trkpt><trkpt lat="47.83044926286377" lon="-1.736578038812463"><ele>36.25</ele><time>2026-03-22T14:08:47.999Z</time></trkpt><trkpt lat="47.830539611968625" lon="-1.7364412333229873"><ele>37.0</ele><time>2026-03-22T14:08:48.999Z</time></trkpt><trkpt lat="47.830600037646015" lon="-1.7362906569625685"><ele>37.0</ele><time>2026-03-22T14:08:49.999Z</time></trkpt><trkpt lat="47.830666322692714" lon="-1.7361852164316185"><ele>37.0</ele><time>2026-03-22T14:08:50.998Z</time></trkpt><trkpt lat="47.83061626932958" lon="-1.73596941507231"><ele>37.0</ele><time>2026-03-22T14:08:51.998Z</time></trkpt><trkpt lat="47.83064205701236" lon="-1.7357872377112744"><ele>37.0</ele><time>2026-03-22T14:08:52.998Z</time></trkpt><trkpt lat="47.83067372112811" lon="-1.7355986818634475"><ele>37.5</ele><time>2026-03-22T14:08:53.998Z</time></trkpt><trkpt lat="47.83070494530708" lon="-1.7354014245108238"><ele>38.0</ele><time>2026-03-22T14:08:54.998Z</time></trkpt><trkpt lat="47.83074532473619" lon="-1.7351946487997083"><ele>38.5</ele><time>2026-03-22T14:08:55.998Z</time></trkpt><trkpt lat="47.83074147595737" lon="-1.7349964551113803"><ele>39.0</ele><time>2026-03-22T14:08:56.998Z</time></trkpt><trkpt lat="47.83070454783212" lon="-1.734831701143379"><ele>40.0</ele><time>2026-03-22T14:08:57.998Z</time></trkpt><trkpt lat="47.830771916951015" lon="-1.7345936639897164"><ele>41.0</ele><time>2026-03-22T14:08:58.998Z</time></trkpt><trkpt lat="47.83079177378574" lon="-1.7343900031110102"><ele>42.0</ele><time>2026-03-22T14:08:59.998Z</time></trkpt><trkpt lat="47.830822082781516" lon="-1.7341873383923885"><ele>42.333333333333336</ele><time>2026-03-22T14:09:00.998Z</time></trkpt><trkpt lat="47.83082166492784" lon="-1.733969354256446"><ele>42.66666666666667</ele><time>2026-03-22T14:09:01.998Z</time></trkpt><trkpt lat="47.830852149001345" lon="-1.7337504866064901"><ele>43.0</ele><time>2026-03-22T14:09:02.998Z</time></trkpt><trkpt lat="47.83086294975981" lon="-1.733516363172322"><ele>43.333333333333336</ele><time>2026-03-22T14:09:03.998Z</time></trkpt><trkpt lat="47.83087727454721" lon="-1.7332905689722136"><ele>43.666666666666664</ele><time>2026-03-22T14:09:05Z</time></trkpt><trkpt lat="47.83089078374839" lon="-1.733060255414142"><ele>44.0</ele><time>2026-03-22T14:09:06Z</time></trkpt><trkpt lat="47.8309048602698" lon="-1.732822205136103"><ele>45.33333333333333</ele><time>2026-03-22T14:09:07Z</time></trkpt><trkpt lat="47.830920158328894" lon="-1.7325824581142246"><ele>46.666666666666664</ele><time>2026-03-22T14:09:08Z</time></trkpt><trkpt lat="47.83093445525466" lon="-1.7323428237889953"><ele>48.0</ele><time>2026-03-22T14:09:09Z</time></trkpt><trkpt lat="47.83095223989952" lon="-1.7321050582780848"><ele>48.0</ele><time>2026-03-22T14:09:10Z</time></trkpt><trkpt lat="47.83096992019433" lon="-1.7318538680226652"><ele>48.0</ele><time>2026-03-22T14:09:11Z</time></trkpt><trkpt lat="47.830984589579735" lon="-1.731623121170473"><ele>48.0</ele><time>2026-03-22T14:09:12Z</time></trkpt><trkpt lat="47.83099803887997" lon="-1.73141201602745"><ele>48.0</ele><time>2026-03-22T14:09:13Z</time></trkpt><trkpt lat="47.83101046407252" lon="-1.7311957855267286"><ele>48.0</ele><time>2026-03-22T14:09:14Z</time></trkpt><trkpt lat="47.831026831237295" lon="-1.7309461831242365"><ele>48.0</ele><time>2026-03-22T14:09:15Z</time></trkpt><trkpt lat="47.83105077811182" lon="-1.730682888623926"><ele>48.33333333333333</ele><time>2026-03-22T14:09:16Z</time></trkpt><trkpt lat="47.83106228784542" lon="-1.730426565385584"><ele>48.666666666666664</ele><time>2026-03-22T14:09:17Z</time></trkpt><trkpt lat="47.831075600600805" lon="-1.7301937211911091"><ele>49.0</ele><time>2026-03-22T14:09:18Z</time></trkpt><trkpt lat="47.831090383293066" lon="-1.729981585830549"><ele>49.0</ele><time>2026-03-22T14:09:19Z</time></trkpt><trkpt lat="47.83110095683317" lon="-1.7297857077234537"><ele>49.0</ele><time>2026-03-22T14:09:20Z</time></trkpt><trkpt lat="47.831113830289745" lon="-1.7296035036569446"><ele>49.0</ele><time>2026-03-22T14:09:21Z</time></trkpt><trkpt lat="47.83112651365585" lon="-1.729429817650311"><ele>49.0</ele><time>2026-03-22T14:09:22Z</time></trkpt><trkpt lat="47.83114075859132" lon="-1.7292696926120248"><ele>49.0</ele><time>2026-03-22T14:09:23Z</time></trkpt><trkpt lat="47.83115150639989" lon="-1.7291157259587286"><ele>49.0</ele><time>2026-03-22T14:09:24Z</time></trkpt><trkpt lat="47.83116416896452" lon="-1.7289742834982973"><ele>49.0</ele><time>2026-03-22T14:09:25Z</time></trkpt><trkpt lat="47.83117567303319" lon="-1.7288256836238423"><ele>49.0</ele><time>2026-03-22T14:09:26Z</time></trkpt><trkpt lat="47.83118453198799" lon="-1.7286827433884195"><ele>49.0</ele><time>2026-03-22T14:09:27Z</time></trkpt><trkpt lat="47.831192228381916" lon="-1.7285399267663328"><ele>48.400000000000006</ele><time>2026-03-22T14:09:28Z</time></trkpt><trkpt lat="47.83120016837007" lon="-1.7284050699094344"><ele>47.8</ele><time>2026-03-22T14:09:29Z</time></trkpt><trkpt lat="47.83121274559334" lon="-1.7282637024201304"><ele>47.2</ele><time>2026-03-22T14:09:30Z</time></trkpt><trkpt lat="47.83122160257637" lon="-1.7281258685418552"><ele>46.599999999999994</ele><time>2026-03-22T14:09:31Z</time></trkpt><trkpt lat="47.831230124860085" lon="-1.727988371313646"><ele>46.0</ele><time>2026-03-22T14:09:32Z</time></trkpt><trkpt lat="47.831239341313115" lon="-1.7278489687094567"><ele>45.599999999999994</ele><time>2026-03-22T14:09:33Z</time></trkpt><trkpt lat="47.83124381704239" lon="-1.727709158470414"><ele>45.2</ele><time>2026-03-22T14:09:34Z</time></trkpt><trkpt lat="47.83123914068647" lon="-1.7275765646577081"><ele>44.8</ele><time>2026-03-22T14:09:35Z</time></trkpt><trkpt lat="47.8312334501846" lon="-1.7274367398301125"><ele>44.400000000000006</ele><time>2026-03-22T14:09:36Z</time></trkpt><trkpt lat="47.8312148622477" lon="-1.727305069453964"><ele>44.0</ele><time>2026-03-22T14:09:37Z</time></trkpt><trkpt lat="47.83119761373556" lon="-1.7271724647538789"><ele>44.0</ele><time>2026-03-22T14:09:38Z</time></trkpt><trkpt lat="47.831180435986006" lon="-1.7270417295468663"><ele>44.0</ele><time>2026-03-22T14:09:39Z</time></trkpt><trkpt lat="47.831169025356694" lon="-1.7269098744389688"><ele>44.0</ele><time>2026-03-22T14:09:40Z</time></trkpt><trkpt lat="47.83115351414463" lon="-1.7267956422397372"><ele>44.0</ele><time>2026-03-22T14:09:41Z</time></trkpt><trkpt lat="47.83112568531077" lon="-1.7266343721684427"><ele>44.0</ele><time>2026-03-22T14:09:43Z</time></trkpt><trkpt lat="47.831121308126114" lon="-1.7265033599710988"><ele>43.2</ele><time>2026-03-22T14:09:45Z</time></trkpt><trkpt lat="47.83118069777439" lon="-1.7263890153248025"><ele>42.400000000000006</ele><time>2026-03-22T14:09:47Z</time></trkpt><trkpt lat="47.8312432107459" lon="-1.7262864535761997"><ele>41.6</ele><time>2026-03-22T14:09:48Z</time></trkpt><trkpt lat="47.83132285318947" lon="-1.7261783785764027"><ele>40.8</ele><time>2026-03-22T14:09:49Z</time></trkpt><trkpt lat="47.831396006129275" lon="-1.7260749179593484"><ele>40.0</ele><time>2026-03-22T14:09:50Z</time></trkpt><trkpt lat="47.83145477467136" lon="-1.7259913232253095"><ele>39.16666666666667</ele><time>2026-03-22T14:09:51Z</time></trkpt><trkpt lat="47.83150431475945" lon="-1.725900539532528"><ele>38.333333333333336</ele><time>2026-03-22T14:09:52Z</time></trkpt><trkpt lat="47.831559728991984" lon="-1.7258330134621411"><ele>37.5</ele><time>2026-03-22T14:09:52.999Z</time></trkpt><trkpt lat="47.83161356873109" lon="-1.7257770082270079"><ele>36.666666666666664</ele><time>2026-03-22T14:09:53.999Z</time></trkpt><trkpt lat="47.83169039629111" lon="-1.725673123897194"><ele>35.83333333333333</ele><time>2026-03-22T14:09:55.999Z</time></trkpt><trkpt lat="47.831672054750214" lon="-1.7255300345402047"><ele>35.0</ele><time>2026-03-22T14:09:56.999Z</time></trkpt><trkpt lat="47.831638770188455" lon="-1.7254204675819145"><ele>35.0</ele><time>2026-03-22T14:09:57.999Z</time></trkpt><trkpt lat="47.83159426789268" lon="-1.725314724076869"><ele>35.0</ele><time>2026-03-22T14:09:58.999Z</time></trkpt><trkpt lat="47.83154863508203" lon="-1.725189978322178"><ele>35.0</ele><time>2026-03-22T14:09:59.999Z</time></trkpt><trkpt lat="47.83147684266352" lon="-1.7250995548081898"><ele>35.0</ele><time>2026-03-22T14:10:00.999Z</time></trkpt><trkpt lat="47.83142160231578" lon="-1.7250131368648902"><ele>35.0</ele><time>2026-03-22T14:10:01.999Z</time></trkpt><trkpt lat="47.83138504734721" lon="-1.724927968481497"><ele>35.0</ele><time>2026-03-22T14:10:02.999Z</time></trkpt><trkpt lat="47.83132716126957" lon="-1.724867734030744"><ele>35.0</ele><time>2026-03-22T14:10:03.999Z</time></trkpt><trkpt lat="47.83125356495346" lon="-1.7247521579224045"><ele>35.0</ele><time>2026-03-22T14:10:05.999Z</time></trkpt><trkpt lat="47.831201741674256" lon="-1.7246728416857884"><ele>35.0</ele><time>2026-03-22T14:10:07.999Z</time></trkpt><trkpt lat="47.83146449320689" lon="-1.7243008146152703"><ele>35.4</ele><time>2026-03-22T14:10:10.999Z</time></trkpt><trkpt lat="47.831544062399864" lon="-1.7241876997200052"><ele>35.8</ele><time>2026-03-22T14:10:11.999Z</time></trkpt><trkpt lat="47.83162329016025" lon="-1.7240865224158977"><ele>36.2</ele><time>2026-03-22T14:10:12.999Z</time></trkpt><trkpt lat="47.83169568428213" lon="-1.723991531246627"><ele>36.6</ele><time>2026-03-22T14:10:13.999Z</time></trkpt><trkpt lat="47.83177782738371" lon="-1.7238948413032895"><ele>37.0</ele><time>2026-03-22T14:10:14.999Z</time></trkpt><trkpt lat="47.83185668102113" lon="-1.7237807491445452"><ele>37.0</ele><time>2026-03-22T14:10:15.999Z</time></trkpt><trkpt lat="47.831938258704604" lon="-1.7236650170969097"><ele>37.0</ele><time>2026-03-22T14:10:16.999Z</time></trkpt><trkpt lat="47.83202308206481" lon="-1.7235717714265293"><ele>37.0</ele><time>2026-03-22T14:10:17.999Z</time></trkpt><trkpt lat="47.83209626863484" lon="-1.7234733156656952"><ele>37.0</ele><time>2026-03-22T14:10:18.999Z</time></trkpt><trkpt lat="47.83216422324563" lon="-1.7233808252365894"><ele>37.0</ele><time>2026-03-22T14:10:19.999Z</time></trkpt><trkpt lat="47.83223579405795" lon="-1.7232909049483678"><ele>37.0</ele><time>2026-03-22T14:10:20.999Z</time></trkpt><trkpt lat="47.832308100531414" lon="-1.7231881266834417"><ele>37.0</ele><time>2026-03-22T14:10:21.999Z</time></trkpt><trkpt lat="47.83239421404016" lon="-1.7230928078757106"><ele>37.0</ele><time>2026-03-22T14:10:22.999Z</time></trkpt><trkpt lat="47.83248636524938" lon="-1.7229873829094775"><ele>37.0</ele><time>2026-03-22T14:10:23.999Z</time></trkpt><trkpt lat="47.83257354133876" lon="-1.7228780749836858"><ele>37.0</ele><time>2026-03-22T14:10:24.999Z</time></trkpt><trkpt lat="47.83265435572148" lon="-1.72277176894184"><ele>36.800000000000004</ele><time>2026-03-22T14:10:25.999Z</time></trkpt><trkpt lat="47.83273308229813" lon="-1.7226712538794287"><ele>36.6</ele><time>2026-03-22T14:10:26.999Z</time></trkpt><trkpt lat="47.83280216192956" lon="-1.7225745053368748"><ele>36.400000000000006</ele><time>2026-03-22T14:10:27.999Z</time></trkpt><trkpt lat="47.83286742615213" lon="-1.7224963400083786"><ele>36.2</ele><time>2026-03-22T14:10:28.999Z</time></trkpt><trkpt lat="47.83296454524286" lon="-1.7223633271902095"><ele>36.0</ele><time>2026-03-22T14:10:30.999Z</time></trkpt><trkpt lat="47.83302008785097" lon="-1.722286717312755"><ele>36.0</ele><time>2026-03-22T14:10:31.999Z</time></trkpt><trkpt lat="47.83310187627024" lon="-1.722190979739045"><ele>36.0</ele><time>2026-03-22T14:10:32.999Z</time></trkpt><trkpt lat="47.83320640056303" lon="-1.7220578977088825"><ele>36.0</ele><time>2026-03-22T14:10:33.999Z</time></trkpt><trkpt lat="47.83330700944375" lon="-1.7219181723528332"><ele>36.0</ele><time>2026-03-22T14:10:34.999Z</time></trkpt><trkpt lat="47.83342483256046" lon="-1.721757036603285"><ele>36.25</ele><time>2026-03-22T14:10:35.999Z</time></trkpt><trkpt lat="47.83353707993782" lon="-1.7216061696575886"><ele>36.5</ele><time>2026-03-22T14:10:36.999Z</time></trkpt><trkpt lat="47.8336459033131" lon="-1.7214634291054645"><ele>36.75</ele><time>2026-03-22T14:10:37.999Z</time></trkpt><trkpt lat="47.833759043047166" lon="-1.7213148186156113"><ele>37.0</ele><time>2026-03-22T14:10:38.999Z</time></trkpt><trkpt lat="47.83387337017143" lon="-1.7211586946511295"><ele>37.333333333333336</ele><time>2026-03-22T14:10:39.999Z</time></trkpt><trkpt lat="47.83399457831129" lon="-1.7209972025769014"><ele>37.666666666666664</ele><time>2026-03-22T14:10:40.999Z</time></trkpt><trkpt lat="47.834112507809785" lon="-1.7208389383338867"><ele>38.0</ele><time>2026-03-22T14:10:41.999Z</time></trkpt><trkpt lat="47.83423363946767" lon="-1.72067269875539"><ele>38.25</ele><time>2026-03-22T14:10:42.999Z</time></trkpt><trkpt lat="47.83434205570371" lon="-1.72053005369922"><ele>38.5</ele><time>2026-03-22T14:10:43.999Z</time></trkpt><trkpt lat="47.834437179220515" lon="-1.720398258292925"><ele>38.75</ele><time>2026-03-22T14:10:44.999Z</time></trkpt><trkpt lat="47.834525719006145" lon="-1.7202861212975402"><ele>39.0</ele><time>2026-03-22T14:10:45.999Z</time></trkpt><trkpt lat="47.83461645910536" lon="-1.7201670572759766"><ele>39.0</ele><time>2026-03-22T14:10:46.999Z</time></trkpt><trkpt lat="47.8347024894991" lon="-1.7200405535040268"><ele>39.0</ele><time>2026-03-22T14:10:47.999Z</time></trkpt><trkpt lat="47.83479665491127" lon="-1.7199157977544326"><ele>39.0</ele><time>2026-03-22T14:10:48.999Z</time></trkpt><trkpt lat="47.83489558578798" lon="-1.7197857151911213"><ele>39.0</ele><time>2026-03-22T14:10:49.999Z</time></trkpt><trkpt lat="47.834999819163016" lon="-1.7196495823484428"><ele>39.0</ele><time>2026-03-22T14:10:50.999Z</time></trkpt><trkpt lat="47.83510675895364" lon="-1.719500328485492"><ele>39.0</ele><time>2026-03-22T14:10:51.999Z</time></trkpt><trkpt lat="47.83520717721786" lon="-1.719331225205109"><ele>39.0</ele><time>2026-03-22T14:10:52.999Z</time></trkpt><trkpt lat="47.83530935852698" lon="-1.7191394184455422"><ele>39.25</ele><time>2026-03-22T14:10:53.999Z</time></trkpt><trkpt lat="47.83541239355987" lon="-1.7189541631529535"><ele>39.5</ele><time>2026-03-22T14:10:54.999Z</time></trkpt><trkpt lat="47.83550251773191" lon="-1.7187906841657532"><ele>39.75</ele><time>2026-03-22T14:10:55.999Z</time></trkpt><trkpt lat="47.83557497455297" lon="-1.7186573900509508"><ele>40.0</ele><time>2026-03-22T14:10:56.999Z</time></trkpt><trkpt lat="47.83563427181368" lon="-1.7185521756026445"><ele>40.16666666666667</ele><time>2026-03-22T14:10:57.998Z</time></trkpt><trkpt lat="47.83568183254001" lon="-1.7184668930745146"><ele>40.333333333333336</ele><time>2026-03-22T14:10:58.998Z</time></trkpt><trkpt lat="47.83572750019185" lon="-1.718387144353268"><ele>40.5</ele><time>2026-03-22T14:10:59.998Z</time></trkpt><trkpt lat="47.835789982044965" lon="-1.7182794805218118"><ele>40.666666666666664</ele><time>2026-03-22T14:11:01.998Z</time></trkpt><trkpt lat="47.8358294252911" lon="-1.7181912044201915"><ele>40.83333333333333</ele><time>2026-03-22T14:11:05.998Z</time></trkpt><trkpt lat="47.835774825439586" lon="-1.7180929319809815"><ele>41.0</ele><time>2026-03-22T14:11:18Z</time></trkpt><trkpt lat="47.83570805280225" lon="-1.718113448508567"><ele>41.0</ele><time>2026-03-22T14:11:19Z</time></trkpt><trkpt lat="47.835633745022854" lon="-1.7180796801508604"><ele>41.0</ele><time>2026-03-22T14:11:20Z</time></trkpt><trkpt lat="47.835560126536" lon="-1.718043612823877"><ele>41.0</ele><time>2026-03-22T14:11:21Z</time></trkpt><trkpt lat="47.83548368642653" lon="-1.7179982255600281"><ele>41.0</ele><time>2026-03-22T14:11:22Z</time></trkpt><trkpt lat="47.83538456693827" lon="-1.717968943343258"><ele>41.0</ele><time>2026-03-22T14:11:23Z</time></trkpt><trkpt lat="47.83527273498532" lon="-1.7179267198100436"><ele>41.0</ele><time>2026-03-22T14:11:24Z</time></trkpt><trkpt lat="47.835148582334966" lon="-1.717881842099331"><ele>41.0</ele><time>2026-03-22T14:11:25Z</time></trkpt><trkpt lat="47.835016838861144" lon="-1.7178329141644142"><ele>41.0</ele><time>2026-03-22T14:11:26Z</time></trkpt><trkpt lat="47.83489023852612" lon="-1.7177765210960176"><ele>41.0</ele><time>2026-03-22T14:11:27Z</time></trkpt><trkpt lat="47.83474086429102" lon="-1.7177220682879792"><ele>41.25</ele><time>2026-03-22T14:11:28Z</time></trkpt><trkpt lat="47.834588821697075" lon="-1.7176701286461877"><ele>41.5</ele><time>2026-03-22T14:11:29Z</time></trkpt><trkpt lat="47.83445156401242" lon="-1.7176047996160646"><ele>41.75</ele><time>2026-03-22T14:11:30Z</time></trkpt><trkpt lat="47.834311646060904" lon="-1.7175316960694065"><ele>42.0</ele><time>2026-03-22T14:11:31Z</time></trkpt><trkpt lat="47.83412614599606" lon="-1.7174868314746294"><ele>41.5</ele><time>2026-03-22T14:11:32Z</time></trkpt><trkpt lat="47.83397000618966" lon="-1.7174018847306876"><ele>41.0</ele><time>2026-03-22T14:11:33Z</time></trkpt><trkpt lat="47.833831979777216" lon="-1.7173467147412447"><ele>40.5</ele><time>2026-03-22T14:11:34Z</time></trkpt><trkpt lat="47.83372707804641" lon="-1.7173081186817796"><ele>40.0</ele><time>2026-03-22T14:11:35Z</time></trkpt><trkpt lat="47.833653148416914" lon="-1.7172702710625694"><ele>40.0</ele><time>2026-03-22T14:11:36Z</time></trkpt><trkpt lat="47.83355376882461" lon="-1.7171905822607094"><ele>40.0</ele><time>2026-03-22T14:11:38Z</time></trkpt><trkpt lat="47.833482740749595" lon="-1.7170509142665171"><ele>40.0</ele><time>2026-03-22T14:11:40Z</time></trkpt><trkpt lat="47.833469231627745" lon="-1.7169528479572678"><ele>40.0</ele><time>2026-03-22T14:11:41Z</time></trkpt><trkpt lat="47.83345265086405" lon="-1.7168324838817342"><ele>40.0</ele><time>2026-03-22T14:11:42Z</time></trkpt><trkpt lat="47.83343487672529" lon="-1.7167133632101432"><ele>40.4</ele><time>2026-03-22T14:11:43Z</time></trkpt><trkpt lat="47.83341248181955" lon="-1.7165661387626878"><ele>40.8</ele><time>2026-03-22T14:11:44Z</time></trkpt><trkpt lat="47.83338588876008" lon="-1.716391315659507"><ele>41.2</ele><time>2026-03-22T14:11:45Z</time></trkpt><trkpt lat="47.8333617150357" lon="-1.7162323971105231"><ele>41.6</ele><time>2026-03-22T14:11:46Z</time></trkpt><trkpt lat="47.83333666930408" lon="-1.7160677461117275"><ele>42.0</ele><time>2026-03-22T14:11:47Z</time></trkpt><trkpt lat="47.8333064188965" lon="-1.715872480182031"><ele>42.333333333333336</ele><time>2026-03-22T14:11:48Z</time></trkpt><trkpt lat="47.833270645186474" lon="-1.7156433331517933"><ele>42.66666666666667</ele><time>2026-03-22T14:11:49Z</time></trkpt><trkpt lat="47.8332342639714" lon="-1.7154102949225694"><ele>43.0</ele><time>2026-03-22T14:11:50Z</time></trkpt><trkpt lat="47.83319893607838" lon="-1.7151849742798635"><ele>43.333333333333336</ele><time>2026-03-22T14:11:51Z</time></trkpt><trkpt lat="47.83316689250195" lon="-1.7149809051342848"><ele>43.666666666666664</ele><time>2026-03-22T14:11:52Z</time></trkpt><trkpt lat="47.83313092310753" lon="-1.714751834413778"><ele>44.0</ele><time>2026-03-22T14:11:53Z</time></trkpt><trkpt lat="47.83309217318763" lon="-1.7145050560457944"><ele>44.33333333333333</ele><time>2026-03-22T14:11:54Z</time></trkpt><trkpt lat="47.83304984212528" lon="-1.7142354711389416"><ele>44.666666666666664</ele><time>2026-03-22T14:11:54.999Z</time></trkpt><trkpt lat="47.833003870378036" lon="-1.71394270045866"><ele>45.0</ele><time>2026-03-22T14:11:55.999Z</time></trkpt><trkpt lat="47.83295767545698" lon="-1.7136468773957603"><ele>45.666666666666664</ele><time>2026-03-22T14:11:56.999Z</time></trkpt><trkpt lat="47.83291841233514" lon="-1.7133950120422903"><ele>46.33333333333333</ele><time>2026-03-22T14:11:57.999Z</time></trkpt><trkpt lat="47.83288161963892" lon="-1.713158994048924"><ele>47.0</ele><time>2026-03-22T14:11:58.999Z</time></trkpt><trkpt lat="47.83284898359262" lon="-1.7129496401574387"><ele>47.0</ele><time>2026-03-22T14:11:59.999Z</time></trkpt><trkpt lat="47.83282084526743" lon="-1.7127697048922685"><ele>47.0</ele><time>2026-03-22T14:12:00.999Z</time></trkpt><trkpt lat="47.832794344330644" lon="-1.7126077545088765"><ele>47.0</ele><time>2026-03-22T14:12:01.999Z</time></trkpt><trkpt lat="47.832770448851676" lon="-1.7124595977123676"><ele>47.0</ele><time>2026-03-22T14:12:02.999Z</time></trkpt><trkpt lat="47.83274864858969" lon="-1.7123199833003946"><ele>47.0</ele><time>2026-03-22T14:12:03.999Z</time></trkpt><trkpt lat="47.832746119846746" lon="-1.7122023721392534"><ele>47.400000000000006</ele><time>2026-03-22T14:12:04.999Z</time></trkpt><trkpt lat="47.83271772935218" lon="-1.7120880469032822"><ele>47.800000000000004</ele><time>2026-03-22T14:12:05.999Z</time></trkpt><trkpt lat="47.832719503076525" lon="-1.711956115679388"><ele>48.2</ele><time>2026-03-22T14:12:06.999Z</time></trkpt><trkpt lat="47.832721383379564" lon="-1.7118190931167954"><ele>48.6</ele><time>2026-03-22T14:12:07.999Z</time></trkpt><trkpt lat="47.832763475177" lon="-1.7116853933731004"><ele>49.0</ele><time>2026-03-22T14:12:08.999Z</time></trkpt><trkpt lat="47.83283081752879" lon="-1.7115985173680526"><ele>49.6</ele><time>2026-03-22T14:12:09.999Z</time></trkpt><trkpt lat="47.8328773546309" lon="-1.7115266987144566"><ele>50.2</ele><time>2026-03-22T14:12:10.999Z</time></trkpt><trkpt lat="47.83295055912367" lon="-1.7113844497406878"><ele>50.800000000000004</ele><time>2026-03-22T14:12:12.999Z</time></trkpt><trkpt lat="47.833006326420126" lon="-1.7112993756790604"><ele>51.400000000000006</ele><time>2026-03-22T14:12:14.999Z</time></trkpt><trkpt lat="47.83305381074551" lon="-1.7112252502424967"><ele>52.0</ele><time>2026-03-22T14:12:16.999Z</time></trkpt><trkpt lat="47.83323131857927" lon="-1.7112605395595168"><ele>52.0</ele><time>2026-03-22T14:12:18.999Z</time></trkpt><trkpt lat="47.83330755754455" lon="-1.711268897892518"><ele>52.0</ele><time>2026-03-22T14:12:19.999Z</time></trkpt><trkpt lat="47.83339581385823" lon="-1.7112782036704066"><ele>52.0</ele><time>2026-03-22T14:12:20.999Z</time></trkpt><trkpt lat="47.83348186509219" lon="-1.7113109236194282"><ele>52.0</ele><time>2026-03-22T14:12:21.999Z</time></trkpt><trkpt lat="47.833578683818466" lon="-1.711301902094414"><ele>52.0</ele><time>2026-03-22T14:12:22.999Z</time></trkpt><trkpt lat="47.83368031074739" lon="-1.7113263420592042"><ele>51.5</ele><time>2026-03-22T14:12:23.999Z</time></trkpt><trkpt lat="47.8337865435572" lon="-1.7113457843456106"><ele>51.0</ele><time>2026-03-22T14:12:24.999Z</time></trkpt><trkpt lat="47.833910650633975" lon="-1.7113559800387965"><ele>50.5</ele><time>2026-03-22T14:12:25.999Z</time></trkpt><trkpt lat="47.83404399567097" lon="-1.7113606085514494"><ele>50.0</ele><time>2026-03-22T14:12:26.999Z</time></trkpt><trkpt lat="47.834177506827295" lon="-1.7113155194353327"><ele>49.75</ele><time>2026-03-22T14:12:27.999Z</time></trkpt><trkpt lat="47.834305471827186" lon="-1.7112716258129297"><ele>49.5</ele><time>2026-03-22T14:12:28.999Z</time></trkpt><trkpt lat="47.8344550756233" lon="-1.7112253576533867"><ele>49.25</ele><time>2026-03-22T14:12:29.999Z</time></trkpt><trkpt lat="47.8345955205581" lon="-1.711168281717981"><ele>49.0</ele><time>2026-03-22T14:12:30.999Z</time></trkpt><trkpt lat="47.834767169978164" lon="-1.7111282540384414"><ele>49.0</ele><time>2026-03-22T14:12:31.999Z</time></trkpt><trkpt lat="47.83494496708577" lon="-1.7110874895194097"><ele>49.0</ele><time>2026-03-22T14:12:32.999Z</time></trkpt><trkpt lat="47.835131148907685" lon="-1.7111252761354767"><ele>49.0</ele><time>2026-03-22T14:12:33.999Z</time></trkpt><trkpt lat="47.835308284401876" lon="-1.7111442098219474"><ele>49.33333333333333</ele><time>2026-03-22T14:12:34.999Z</time></trkpt><trkpt lat="47.83546576267811" lon="-1.7111580901926553"><ele>49.66666666666667</ele><time>2026-03-22T14:12:35.999Z</time></trkpt><trkpt lat="47.83562217946473" lon="-1.711146469581109"><ele>50.0</ele><time>2026-03-22T14:12:36.999Z</time></trkpt><trkpt lat="47.8357997231876" lon="-1.7111859455475749"><ele>50.0</ele><time>2026-03-22T14:12:37.999Z</time></trkpt><trkpt lat="47.835988588125446" lon="-1.7111901014215216"><ele>50.0</ele><time>2026-03-22T14:12:38.999Z</time></trkpt><trkpt lat="47.83614795773948" lon="-1.711235725742591"><ele>50.0</ele><time>2026-03-22T14:12:39.999Z</time></trkpt><trkpt lat="47.83631715169714" lon="-1.7112394769608263"><ele>50.0</ele><time>2026-03-22T14:12:40.999Z</time></trkpt><trkpt lat="47.83648696801931" lon="-1.7112458506075825"><ele>50.0</ele><time>2026-03-22T14:12:41.999Z</time></trkpt><trkpt lat="47.836608162382774" lon="-1.7112452416134347"><ele>50.0</ele><time>2026-03-22T14:12:42.999Z</time></trkpt><trkpt lat="47.83673955615014" lon="-1.711292706040646"><ele>50.0</ele><time>2026-03-22T14:12:43.999Z</time></trkpt><trkpt lat="47.83688468365849" lon="-1.711308487856731"><ele>49.0</ele><time>2026-03-22T14:12:44.999Z</time></trkpt><trkpt lat="47.83703918488343" lon="-1.7112686804613544"><ele>48.0</ele><time>2026-03-22T14:12:45.999Z</time></trkpt><trkpt lat="47.83718340126462" lon="-1.7112104613117323"><ele>47.0</ele><time>2026-03-22T14:12:46.999Z</time></trkpt><trkpt lat="47.83736849027669" lon="-1.711133354961119"><ele>47.5</ele><time>2026-03-22T14:12:47.999Z</time></trkpt><trkpt lat="47.83753212765223" lon="-1.711044341807064"><ele>48.0</ele><time>2026-03-22T14:12:48.999Z</time></trkpt><trkpt lat="47.83765979269276" lon="-1.7109923791996609"><ele>48.5</ele><time>2026-03-22T14:12:49.999Z</time></trkpt><trkpt lat="47.83775573977384" lon="-1.7109745596043755"><ele>49.0</ele><time>2026-03-22T14:12:50.999Z</time></trkpt><trkpt lat="47.83785300408301" lon="-1.710948384428985"><ele>49.0</ele><time>2026-03-22T14:12:51.999Z</time></trkpt><trkpt lat="47.838243218831295" lon="-1.7109514583196062"><ele>49.0</ele><time>2026-03-22T14:12:52.999Z</time></trkpt><trkpt lat="47.83840069221294" lon="-1.7109642177414637"><ele>50.33333333333333</ele><time>2026-03-22T14:12:53.999Z</time></trkpt><trkpt lat="47.83855671009854" lon="-1.7109879411550517"><ele>51.66666666666667</ele><time>2026-03-22T14:12:54.999Z</time></trkpt><trkpt lat="47.83872419038328" lon="-1.7110356670471851"><ele>53.0</ele><time>2026-03-22T14:12:55.999Z</time></trkpt><trkpt lat="47.83889048025869" lon="-1.7110664913312634"><ele>52.0</ele><time>2026-03-22T14:12:56.999Z</time></trkpt><trkpt lat="47.83906343899138" lon="-1.7111303882016173"><ele>51.0</ele><time>2026-03-22T14:12:57.999Z</time></trkpt><trkpt lat="47.839242037690745" lon="-1.7111702547526937"><ele>50.0</ele><time>2026-03-22T14:12:58.999Z</time></trkpt><trkpt lat="47.839429856590854" lon="-1.7112166668972322"><ele>50.0</ele><time>2026-03-22T14:12:59.998Z</time></trkpt><trkpt lat="47.839625149821174" lon="-1.7112640241518509"><ele>50.0</ele><time>2026-03-22T14:13:00.998Z</time></trkpt><trkpt lat="47.83982544889206" lon="-1.7113248639803798"><ele>50.0</ele><time>2026-03-22T14:13:01.998Z</time></trkpt><trkpt lat="47.8400117939354" lon="-1.7113514855265923"><ele>51.0</ele><time>2026-03-22T14:13:02.998Z</time></trkpt><trkpt lat="47.840193969445004" lon="-1.7113956609634506"><ele>52.0</ele><time>2026-03-22T14:13:03.998Z</time></trkpt><trkpt lat="47.840353293686846" lon="-1.711435270351335"><ele>53.0</ele><time>2026-03-22T14:13:04.998Z</time></trkpt><trkpt lat="47.84051734588881" lon="-1.7114766484017008"><ele>53.0</ele><time>2026-03-22T14:13:05.998Z</time></trkpt><trkpt lat="47.840689001657275" lon="-1.7115194777003748"><ele>53.0</ele><time>2026-03-22T14:13:06.998Z</time></trkpt><trkpt lat="47.840861031459404" lon="-1.7115586058187677"><ele>53.0</ele><time>2026-03-22T14:13:07.998Z</time></trkpt><trkpt lat="47.84103565950757" lon="-1.7115783390825128"><ele>54.0</ele><time>2026-03-22T14:13:08.998Z</time></trkpt><trkpt lat="47.84121857502666" lon="-1.7115771456827655"><ele>55.0</ele><time>2026-03-22T14:13:09.998Z</time></trkpt><trkpt lat="47.84140869454069" lon="-1.71156883992302"><ele>56.0</ele><time>2026-03-22T14:13:10.998Z</time></trkpt><trkpt lat="47.84158777514063" lon="-1.7115568110453927"><ele>56.0</ele><time>2026-03-22T14:13:11.998Z</time></trkpt><trkpt lat="47.841749373730856" lon="-1.7115454312857206"><ele>56.0</ele><time>2026-03-22T14:13:12.998Z</time></trkpt><trkpt lat="47.84189228730381" lon="-1.7115378922483588"><ele>56.0</ele><time>2026-03-22T14:13:13.998Z</time></trkpt><trkpt lat="47.842019749818355" lon="-1.7115312698009555"><ele>56.0</ele><time>2026-03-22T14:13:14.998Z</time></trkpt><trkpt lat="47.842117256257914" lon="-1.711529841299806"><ele>56.199999999999996</ele><time>2026-03-22T14:13:15.998Z</time></trkpt><trkpt lat="47.84220756160266" lon="-1.7115444931357182"><ele>56.39999999999999</ele><time>2026-03-22T14:13:17Z</time></trkpt><trkpt lat="47.84229929585504" lon="-1.7115192645293829"><ele>56.6</ele><time>2026-03-22T14:13:18Z</time></trkpt><trkpt lat="47.84238013543217" lon="-1.7115325385384854"><ele>56.8</ele><time>2026-03-22T14:13:19Z</time></trkpt><trkpt lat="47.84248797931815" lon="-1.711506761614124"><ele>57.0</ele><time>2026-03-22T14:13:21Z</time></trkpt><trkpt lat="47.84251301572956" lon="-1.7113419459521242"><ele>57.0</ele><time>2026-03-22T14:13:25Z</time></trkpt><trkpt lat="47.84248447188156" lon="-1.7111514183229923"><ele>57.0</ele><time>2026-03-22T14:13:27Z</time></trkpt><trkpt lat="47.84246293547505" lon="-1.711031303471063"><ele>57.0</ele><time>2026-03-22T14:13:28Z</time></trkpt><trkpt lat="47.84243947050367" lon="-1.7108959914444146"><ele>57.0</ele><time>2026-03-22T14:13:29Z</time></trkpt><trkpt lat="47.84243056735511" lon="-1.7107017848313535"><ele>57.0</ele><time>2026-03-22T14:13:30Z</time></trkpt><trkpt lat="47.84241684485471" lon="-1.710488519026337"><ele>57.25</ele><time>2026-03-22T14:13:31Z</time></trkpt><trkpt lat="47.84239859478146" lon="-1.7102954022188994"><ele>57.5</ele><time>2026-03-22T14:13:32Z</time></trkpt><trkpt lat="47.84237591464196" lon="-1.710120456835598"><ele>57.75</ele><time>2026-03-22T14:13:33Z</time></trkpt><trkpt lat="47.84237586680175" lon="-1.7099191223661743"><ele>58.0</ele><time>2026-03-22T14:13:34Z</time></trkpt><trkpt lat="47.84234280493203" lon="-1.7096979705827267"><ele>58.33333333333333</ele><time>2026-03-22T14:13:35Z</time></trkpt><trkpt lat="47.842321688767456" lon="-1.7094539061101093"><ele>58.66666666666667</ele><time>2026-03-22T14:13:36Z</time></trkpt><trkpt lat="47.84231481260731" lon="-1.70918511377021"><ele>59.0</ele><time>2026-03-22T14:13:37Z</time></trkpt><trkpt lat="47.84228121432205" lon="-1.7089436385244736"><ele>60.0</ele><time>2026-03-22T14:13:38Z</time></trkpt><trkpt lat="47.84225941620672" lon="-1.708733417553235"><ele>61.0</ele><time>2026-03-22T14:13:39Z</time></trkpt><trkpt lat="47.84223611334521" lon="-1.7085111899272867"><ele>62.0</ele><time>2026-03-22T14:13:40Z</time></trkpt><trkpt lat="47.842194751713244" lon="-1.7082522136552287"><ele>62.66666666666667</ele><time>2026-03-22T14:13:41Z</time></trkpt><trkpt lat="47.84215723387768" lon="-1.7080053017115304"><ele>63.33333333333333</ele><time>2026-03-22T14:13:42Z</time></trkpt><trkpt lat="47.842119370851364" lon="-1.707748696779678"><ele>64.0</ele><time>2026-03-22T14:13:43Z</time></trkpt><trkpt lat="47.842086071587616" lon="-1.7075174281694374"><ele>64.75</ele><time>2026-03-22T14:13:44Z</time></trkpt><trkpt lat="47.84203954029941" lon="-1.7073061035674473"><ele>65.5</ele><time>2026-03-22T14:13:45Z</time></trkpt><trkpt lat="47.84198867786091" lon="-1.7070824196830447"><ele>66.25</ele><time>2026-03-22T14:13:46Z</time></trkpt><trkpt lat="47.84192659007446" lon="-1.7069063143830512"><ele>67.0</ele><time>2026-03-22T14:13:47Z</time></trkpt><trkpt lat="47.84187499080724" lon="-1.706747235790119"><ele>66.6</ele><time>2026-03-22T14:13:48Z</time></trkpt><trkpt lat="47.841825757103756" lon="-1.7066044961154105"><ele>66.2</ele><time>2026-03-22T14:13:49Z</time></trkpt><trkpt lat="47.841778719105186" lon="-1.7064896735643715"><ele>65.8</ele><time>2026-03-22T14:13:50Z</time></trkpt><trkpt lat="47.84174426032124" lon="-1.7063554883997485"><ele>65.4</ele><time>2026-03-22T14:13:51Z</time></trkpt><trkpt lat="47.841697218127266" lon="-1.7062480279108518"><ele>65.0</ele><time>2026-03-22T14:13:52Z</time></trkpt><trkpt lat="47.84164165249882" lon="-1.70615491227946"><ele>65.5</ele><time>2026-03-22T14:13:53Z</time></trkpt><trkpt lat="47.84161399864134" lon="-1.7060440323688468"><ele>66.0</ele><time>2026-03-22T14:13:54Z</time></trkpt><trkpt lat="47.84157477722578" lon="-1.7059556574475367"><ele>66.5</ele><time>2026-03-22T14:13:55Z</time></trkpt><trkpt lat="47.84153991043559" lon="-1.705877313549408"><ele>67.0</ele><time>2026-03-22T14:13:56Z</time></trkpt><trkpt lat="47.841510370091676" lon="-1.705789933812479"><ele>67.5</ele><time>2026-03-22T14:13:57Z</time></trkpt><trkpt lat="47.84146154681755" lon="-1.705658483174047"><ele>68.0</ele><time>2026-03-22T14:13:59Z</time></trkpt><trkpt lat="47.84139615756162" lon="-1.705521944002968"><ele>68.0</ele><time>2026-03-22T14:14:01Z</time></trkpt><trkpt lat="47.841359115793814" lon="-1.7054234819274419"><ele>68.0</ele><time>2026-03-22T14:14:02Z</time></trkpt><trkpt lat="47.84133599134555" lon="-1.7053119070340979"><ele>68.0</ele><time>2026-03-22T14:14:03Z</time></trkpt><trkpt lat="47.84127591967044" lon="-1.7052076117121326"><ele>68.0</ele><time>2026-03-22T14:14:03.999Z</time></trkpt><trkpt lat="47.84122338424993" lon="-1.705076147491965"><ele>68.0</ele><time>2026-03-22T14:14:04.999Z</time></trkpt><trkpt lat="47.841163522824715" lon="-1.7049284607891013"><ele>68.33333333333334</ele><time>2026-03-22T14:14:05.999Z</time></trkpt><trkpt lat="47.84110631956161" lon="-1.7047401410334455"><ele>68.66666666666667</ele><time>2026-03-22T14:14:06.999Z</time></trkpt><trkpt lat="47.84102048692008" lon="-1.7045551356230877"><ele>69.0</ele><time>2026-03-22T14:14:07.999Z</time></trkpt><trkpt lat="47.84093760268602" lon="-1.704341203111033"><ele>69.0</ele><time>2026-03-22T14:14:08.999Z</time></trkpt><trkpt lat="47.84085476919319" lon="-1.7041336909414577"><ele>69.0</ele><time>2026-03-22T14:14:09.999Z</time></trkpt><trkpt lat="47.84076952484912" lon="-1.7039329589852563"><ele>69.0</ele><time>2026-03-22T14:14:10.999Z</time></trkpt><trkpt lat="47.84066957834985" lon="-1.7037248911572067"><ele>69.33333333333333</ele><time>2026-03-22T14:14:11.999Z</time></trkpt><trkpt lat="47.840571179442506" lon="-1.7034883809812469"><ele>69.66666666666666</ele><time>2026-03-22T14:14:12.999Z</time></trkpt><trkpt lat="47.84048869837893" lon="-1.7032856044705622"><ele>70.0</ele><time>2026-03-22T14:14:13.999Z</time></trkpt><trkpt lat="47.84042496432752" lon="-1.7031177399571487"><ele>70.0</ele><time>2026-03-22T14:14:14.999Z</time></trkpt><trkpt lat="47.840378976849756" lon="-1.7029550181175277"><ele>70.0</ele><time>2026-03-22T14:14:15.999Z</time></trkpt><trkpt lat="47.84032383255534" lon="-1.7028421178697417"><ele>70.0</ele><time>2026-03-22T14:14:16.999Z</time></trkpt><trkpt lat="47.84027594267448" lon="-1.7027304879099185"><ele>70.0</ele><time>2026-03-22T14:14:17.999Z</time></trkpt><trkpt lat="47.84024929417976" lon="-1.7026230017480948"><ele>70.0</ele><time>2026-03-22T14:14:18.999Z</time></trkpt><trkpt lat="47.840196787722206" lon="-1.7025268871813166"><ele>69.83333333333333</ele><time>2026-03-22T14:14:20.999Z</time></trkpt><trkpt lat="47.84015125046586" lon="-1.7024398312484614"><ele>69.66666666666666</ele><time>2026-03-22T14:14:29.999Z</time></trkpt><trkpt lat="47.840111761659536" lon="-1.7023477794876944"><ele>69.5</ele><time>2026-03-22T14:14:30.999Z</time></trkpt><trkpt lat="47.84006678471347" lon="-1.7022429347928714"><ele>69.33333333333333</ele><time>2026-03-22T14:14:31.999Z</time></trkpt><trkpt lat="47.84007309511668" lon="-1.7020906923937893"><ele>69.16666666666667</ele><time>2026-03-22T14:14:32.999Z</time></trkpt><trkpt lat="47.84002931760072" lon="-1.7019743726599852"><ele>69.0</ele><time>2026-03-22T14:14:33.999Z</time></trkpt><trkpt lat="47.83997706049378" lon="-1.7018185863069153"><ele>70.0</ele><time>2026-03-22T14:14:34.999Z</time></trkpt><trkpt lat="47.83992698272153" lon="-1.7016742665282165"><ele>71.0</ele><time>2026-03-22T14:14:35.999Z</time></trkpt><trkpt lat="47.839869068200706" lon="-1.7014964482028396"><ele>72.0</ele><time>2026-03-22T14:14:36.999Z</time></trkpt><trkpt lat="47.83980843728163" lon="-1.7013290138853188"><ele>73.0</ele><time>2026-03-22T14:14:37.999Z</time></trkpt><trkpt lat="47.83972989768451" lon="-1.7011554144977914"><ele>73.75</ele><time>2026-03-22T14:14:38.999Z</time></trkpt><trkpt lat="47.83965331239826" lon="-1.7009740793033337"><ele>74.5</ele><time>2026-03-22T14:14:39.999Z</time></trkpt><trkpt lat="47.83959097827927" lon="-1.700811592294979"><ele>75.25</ele><time>2026-03-22T14:14:40.999Z</time></trkpt><trkpt lat="47.839520588731396" lon="-1.7006617109435804"><ele>76.0</ele><time>2026-03-22T14:14:41.999Z</time></trkpt><trkpt lat="47.83945857951813" lon="-1.7005104189920925"><ele>76.0</ele><time>2026-03-22T14:14:42.999Z</time></trkpt><trkpt lat="47.839391059786756" lon="-1.700351248518126"><ele>76.0</ele><time>2026-03-22T14:14:43.999Z</time></trkpt><trkpt lat="47.83932785359236" lon="-1.7001870688218004"><ele>76.0</ele><time>2026-03-22T14:14:44.999Z</time></trkpt><trkpt lat="47.8392428668875" lon="-1.7000387783323843"><ele>76.0</ele><time>2026-03-22T14:14:45.999Z</time></trkpt><trkpt lat="47.839179097742544" lon="-1.699857333102582"><ele>75.75</ele><time>2026-03-22T14:14:46.999Z</time></trkpt><trkpt lat="47.83909929723588" lon="-1.6996880782173023"><ele>75.5</ele><time>2026-03-22T14:14:47.999Z</time></trkpt><trkpt lat="47.83903370921782" lon="-1.6995146050791505"><ele>75.25</ele><time>2026-03-22T14:14:48.999Z</time></trkpt><trkpt lat="47.83895640615836" lon="-1.6993263433014287"><ele>75.0</ele><time>2026-03-22T14:14:49.999Z</time></trkpt><trkpt lat="47.83889432069589" lon="-1.6991544295900303"><ele>75.4</ele><time>2026-03-22T14:14:50.999Z</time></trkpt><trkpt lat="47.838841597724716" lon="-1.6989901959589964"><ele>75.8</ele><time>2026-03-22T14:14:51.999Z</time></trkpt><trkpt lat="47.8388013455428" lon="-1.6988543773699392"><ele>76.2</ele><time>2026-03-22T14:14:52.999Z</time></trkpt><trkpt lat="47.83875561508523" lon="-1.6987407231635263"><ele>76.6</ele><time>2026-03-22T14:14:53.999Z</time></trkpt><trkpt lat="47.8386968535475" lon="-1.698623723724347"><ele>77.0</ele><time>2026-03-22T14:14:54.999Z</time></trkpt><trkpt lat="47.83865818922993" lon="-1.6985220025738414"><ele>77.0</ele><time>2026-03-22T14:14:55.999Z</time></trkpt><trkpt lat="47.83861505767168" lon="-1.6984064650889006"><ele>77.0</ele><time>2026-03-22T14:14:56.999Z</time></trkpt><trkpt lat="47.838576946531404" lon="-1.6983056341484357"><ele>77.0</ele><time>2026-03-22T14:14:57.999Z</time></trkpt><trkpt lat="47.83853465368304" lon="-1.6981942084669206"><ele>77.0</ele><time>2026-03-22T14:14:58.999Z</time></trkpt><trkpt lat="47.83850584300402" lon="-1.698092829926575"><ele>77.0</ele><time>2026-03-22T14:14:59.999Z</time></trkpt><trkpt lat="47.838466471136734" lon="-1.6980077610177835"><ele>77.0</ele><time>2026-03-22T14:15:00.999Z</time></trkpt><trkpt lat="47.83843062170959" lon="-1.6979164787227525"><ele>76.83333333333334</ele><time>2026-03-22T14:15:01.999Z</time></trkpt><trkpt lat="47.8383840345736" lon="-1.6977715009465306"><ele>76.66666666666667</ele><time>2026-03-22T14:15:03.999Z</time></trkpt><trkpt lat="47.83832435292054" lon="-1.6976449934760351"><ele>76.5</ele><time>2026-03-22T14:15:05.999Z</time></trkpt><trkpt lat="47.83828035062277" lon="-1.6975270295992142"><ele>76.33333333333333</ele><time>2026-03-22T14:15:07.999Z</time></trkpt><trkpt lat="47.83825923371352" lon="-1.6974369812528662"><ele>76.16666666666666</ele><time>2026-03-22T14:15:09.999Z</time></trkpt><trkpt lat="47.83821603192705" lon="-1.6973616690909694"><ele>76.0</ele><time>2026-03-22T14:15:18.998Z</time></trkpt><trkpt lat="47.838218348831305" lon="-1.6972679195986087"><ele>76.0</ele><time>2026-03-22T14:15:49Z</time></trkpt><trkpt lat="47.838200262682946" lon="-1.6971529949047388"><ele>76.0</ele><time>2026-03-22T14:15:52Z</time></trkpt><trkpt lat="47.83817490047991" lon="-1.697032653485985"><ele>76.0</ele><time>2026-03-22T14:15:56Z</time></trkpt><trkpt lat="47.83815587036318" lon="-1.6969364668907756"><ele>76.0</ele><time>2026-03-22T14:15:59Z</time></trkpt><trkpt lat="47.838124439848976" lon="-1.6968418082078658"><ele>76.0</ele><time>2026-03-22T14:16:02Z</time></trkpt><trkpt lat="47.83807814595343" lon="-1.6967404599496425"><ele>76.0</ele><time>2026-03-22T14:16:05Z</time></trkpt><trkpt lat="47.838033899229345" lon="-1.696669936744828"><ele>76.0</ele><time>2026-03-22T14:16:07.999Z</time></trkpt><trkpt lat="47.83798635322863" lon="-1.6967718818178017"><ele>76.0</ele><time>2026-03-22T14:16:11.999Z</time></trkpt><trkpt lat="47.838054672088006" lon="-1.6968397700575781"><ele>76.0</ele><time>2026-03-22T14:16:16.999Z</time></trkpt><trkpt lat="47.83811166463342" lon="-1.696909547355395"><ele>76.0</ele><time>2026-03-22T14:16:18.999Z</time></trkpt><trkpt lat="47.8381509746358" lon="-1.6969956413931913"><ele>76.0</ele><time>2026-03-22T14:16:21.999Z</time></trkpt><trkpt lat="47.838174616379234" lon="-1.6970895616200126"><ele>76.0</ele><time>2026-03-22T14:16:24.999Z</time></trkpt><trkpt lat="47.83820134077159" lon="-1.697188928392635"><ele>76.0</ele><time>2026-03-22T14:16:26.999Z</time></trkpt><trkpt lat="47.83823187606664" lon="-1.6973089946936404"><ele>76.0</ele><time>2026-03-22T14:16:28.999Z</time></trkpt><trkpt lat="47.838247497948345" lon="-1.6974455313147296"><ele>76.0</ele><time>2026-03-22T14:16:30.999Z</time></trkpt><trkpt lat="47.83826727488545" lon="-1.6975429669814162"><ele>76.0</ele><time>2026-03-22T14:16:32.999Z</time></trkpt><trkpt lat="47.83835908059455" lon="-1.6975470501610943"><ele>76.0</ele><time>2026-03-22T14:16:39.999Z</time></trkpt><trkpt lat="47.83840891909077" lon="-1.697453563865082"><ele>76.0</ele><time>2026-03-22T14:16:42.999Z</time></trkpt><trkpt lat="47.838390238908424" lon="-1.6973468972044277"><ele>76.0</ele><time>2026-03-22T14:16:44.999Z</time></trkpt><trkpt lat="47.83835504939794" lon="-1.6972516337988532"><ele>76.0</ele><time>2026-03-22T14:16:45.999Z</time></trkpt><trkpt lat="47.83831704323871" lon="-1.6971075988878943"><ele>76.0</ele><time>2026-03-22T14:16:47.999Z</time></trkpt><trkpt lat="47.83822987510065" lon="-1.6969448742591704"><ele>76.0</ele><time>2026-03-22T14:16:49.999Z</time></trkpt><trkpt lat="47.83817412563901" lon="-1.6967834560058637"><ele>76.0</ele><time>2026-03-22T14:16:51.999Z</time></trkpt><trkpt lat="47.83814404496413" lon="-1.6966859638760388"><ele>76.0</ele><time>2026-03-22T14:16:52.999Z</time></trkpt><trkpt lat="47.83809723793672" lon="-1.6965879688979166"><ele>76.2</ele><time>2026-03-22T14:16:53.999Z</time></trkpt><trkpt lat="47.83807256580542" lon="-1.6964689092303562"><ele>76.39999999999999</ele><time>2026-03-22T14:16:54.999Z</time></trkpt><trkpt lat="47.83800893196256" lon="-1.696322948932397"><ele>76.6</ele><time>2026-03-22T14:16:55.999Z</time></trkpt><trkpt lat="47.83797636702063" lon="-1.6961862803448808"><ele>76.8</ele><time>2026-03-22T14:16:56.999Z</time></trkpt><trkpt lat="47.83795401072099" lon="-1.6960558045621785"><ele>77.0</ele><time>2026-03-22T14:16:57.999Z</time></trkpt><trkpt lat="47.837922937531964" lon="-1.6959688709849474"><ele>77.2</ele><time>2026-03-22T14:16:58.999Z</time></trkpt><trkpt lat="47.83790175625718" lon="-1.6958760095197318"><ele>77.4</ele><time>2026-03-22T14:16:59.999Z</time></trkpt><trkpt lat="47.837872471947854" lon="-1.6957762198109254"><ele>77.6</ele><time>2026-03-22T14:17:00.999Z</time></trkpt><trkpt lat="47.83781887762957" lon="-1.695623144578213"><ele>77.8</ele><time>2026-03-22T14:17:02.999Z</time></trkpt><trkpt lat="47.83773125488952" lon="-1.695545675464496"><ele>78.0</ele><time>2026-03-22T14:17:04.999Z</time></trkpt><trkpt lat="47.83773838685272" lon="-1.6952383398535116"><ele>77.8</ele><time>2026-03-22T14:17:05.999Z</time></trkpt><trkpt lat="47.83765170866791" lon="-1.6952016215630397"><ele>77.6</ele><time>2026-03-22T14:17:07.999Z</time></trkpt><trkpt lat="47.837582615347046" lon="-1.6951723524843763"><ele>77.4</ele><time>2026-03-22T14:17:09.999Z</time></trkpt><trkpt lat="47.83748263675732" lon="-1.6951299998827813"><ele>77.2</ele><time>2026-03-22T14:17:11.998Z</time></trkpt><trkpt lat="47.837392732985904" lon="-1.6950901635430005"><ele>77.0</ele><time>2026-03-22T14:17:13.998Z</time></trkpt><trkpt lat="47.83729553570729" lon="-1.6950466353449127"><ele>77.0</ele><time>2026-03-22T14:17:15.998Z</time></trkpt><trkpt lat="47.83721919122268" lon="-1.695012445758655"><ele>77.0</ele><time>2026-03-22T14:17:17.998Z</time></trkpt><trkpt lat="47.837147435079146" lon="-1.69498031112258"><ele>77.0</ele><time>2026-03-22T14:17:19.998Z</time></trkpt><trkpt lat="47.83707791026735" lon="-1.694947970841341"><ele>77.0</ele><time>2026-03-22T14:17:22.998Z</time></trkpt><trkpt lat="47.83699600887495" lon="-1.6948643667966132"><ele>77.0</ele><time>2026-03-22T14:17:27.998Z</time></trkpt><trkpt lat="47.83692886511332" lon="-1.6947703842193393"><ele>77.0</ele><time>2026-03-22T14:17:30Z</time></trkpt><trkpt lat="47.83687146591091" lon="-1.6947241311700496"><ele>76.4</ele><time>2026-03-22T14:17:31Z</time></trkpt><trkpt lat="47.836795124190324" lon="-1.694703142584478"><ele>75.80000000000001</ele><time>2026-03-22T14:17:32Z</time></trkpt><trkpt lat="47.836720921426505" lon="-1.6946681609330632"><ele>75.2</ele><time>2026-03-22T14:17:33Z</time></trkpt><trkpt lat="47.83666153219022" lon="-1.694546697783784"><ele>74.60000000000001</ele><time>2026-03-22T14:17:34Z</time></trkpt><trkpt lat="47.83655180977753" lon="-1.694489610848667"><ele>74.0</ele><time>2026-03-22T14:17:35Z</time></trkpt><trkpt lat="47.83642379331651" lon="-1.6944306282554156"><ele>74.0</ele><time>2026-03-22T14:17:36Z</time></trkpt><trkpt lat="47.83632767715915" lon="-1.6944325941904446"><ele>74.0</ele><time>2026-03-22T14:17:37Z</time></trkpt><trkpt lat="47.836284934288216" lon="-1.6943387607300737"><ele>74.0</ele><time>2026-03-22T14:17:39Z</time></trkpt><trkpt lat="47.83615887476728" lon="-1.6942707007963698"><ele>74.0</ele><time>2026-03-22T14:17:40Z</time></trkpt><trkpt lat="47.835972341666555" lon="-1.6941660806403187"><ele>73.33333333333334</ele><time>2026-03-22T14:17:41Z</time></trkpt><trkpt lat="47.83578692854443" lon="-1.6940626398441863"><ele>72.66666666666667</ele><time>2026-03-22T14:17:42Z</time></trkpt><trkpt lat="47.83562527608356" lon="-1.6939662449265847"><ele>72.0</ele><time>2026-03-22T14:17:43Z</time></trkpt><trkpt lat="47.83547924202276" lon="-1.6938791590117175"><ele>72.0</ele><time>2026-03-22T14:17:44Z</time></trkpt><trkpt lat="47.83541822293167" lon="-1.6938247679799763"><ele>72.0</ele><time>2026-03-22T14:17:46Z</time></trkpt><trkpt lat="47.83573760953647" lon="-1.6926000696502899"><ele>73.0</ele><time>2026-03-22T14:17:48Z</time></trkpt><trkpt lat="47.83575946950928" lon="-1.6924628024005706"><ele>74.0</ele><time>2026-03-22T14:17:49Z</time></trkpt><trkpt lat="47.83581664673453" lon="-1.6922955781502111"><ele>75.0</ele><time>2026-03-22T14:17:50Z</time></trkpt><trkpt lat="47.835883196721" lon="-1.6921357607263952"><ele>76.0</ele><time>2026-03-22T14:17:51Z</time></trkpt><trkpt lat="47.835938445362295" lon="-1.6919472157312812"><ele>77.33333333333333</ele><time>2026-03-22T14:17:52Z</time></trkpt><trkpt lat="47.83605339127712" lon="-1.6917380343799984"><ele>78.66666666666667</ele><time>2026-03-22T14:17:53Z</time></trkpt><trkpt lat="47.836053999340955" lon="-1.6915063380838564"><ele>80.0</ele><time>2026-03-22T14:17:54Z</time></trkpt><trkpt lat="47.836032005709086" lon="-1.6912699957764081"><ele>80.66666666666667</ele><time>2026-03-22T14:17:55Z</time></trkpt><trkpt lat="47.83601312753508" lon="-1.6910396558690617"><ele>81.33333333333333</ele><time>2026-03-22T14:17:56Z</time></trkpt><trkpt lat="47.8359836073097" lon="-1.690824839314518"><ele>82.0</ele><time>2026-03-22T14:17:57Z</time></trkpt><trkpt lat="47.835970395517315" lon="-1.6905974680980742"><ele>80.5</ele><time>2026-03-22T14:17:58Z</time></trkpt><trkpt lat="47.835952873719336" lon="-1.690370548422634"><ele>79.0</ele><time>2026-03-22T14:17:59Z</time></trkpt><trkpt lat="47.83595257285031" lon="-1.6901899496419166"><ele>77.5</ele><time>2026-03-22T14:18:00Z</time></trkpt><trkpt lat="47.835945763731935" lon="-1.690007725956703"><ele>76.0</ele><time>2026-03-22T14:18:01Z</time></trkpt><trkpt lat="47.8359354219779" lon="-1.6898501622718223"><ele>76.0</ele><time>2026-03-22T14:18:02Z</time></trkpt><trkpt lat="47.83591618273431" lon="-1.6897107192074756"><ele>76.0</ele><time>2026-03-22T14:18:03Z</time></trkpt><trkpt lat="47.83589922239338" lon="-1.6895858901317669"><ele>76.0</ele><time>2026-03-22T14:18:04Z</time></trkpt><trkpt lat="47.83586945252676" lon="-1.68949186000557"><ele>76.0</ele><time>2026-03-22T14:18:05Z</time></trkpt><trkpt lat="47.835844498538016" lon="-1.6894024000119032"><ele>76.0</ele><time>2026-03-22T14:18:06Z</time></trkpt><trkpt lat="47.835809711797374" lon="-1.6892397061290838"><ele>76.0</ele><time>2026-03-22T14:18:08Z</time></trkpt><trkpt lat="47.835792802333216" lon="-1.6891454683091953"><ele>76.2</ele><time>2026-03-22T14:18:09Z</time></trkpt><trkpt lat="47.83577306724613" lon="-1.6890442465594453"><ele>76.39999999999999</ele><time>2026-03-22T14:18:10Z</time></trkpt><trkpt lat="47.83574955018062" lon="-1.6889336187978223"><ele>76.6</ele><time>2026-03-22T14:18:11Z</time></trkpt><trkpt lat="47.83572398030314" lon="-1.6888133342729326"><ele>76.8</ele><time>2026-03-22T14:18:12Z</time></trkpt><trkpt lat="47.83570761744334" lon="-1.6886628030701378"><ele>77.0</ele><time>2026-03-22T14:18:13Z</time></trkpt><trkpt lat="47.83566154920492" lon="-1.688478603077879"><ele>77.4</ele><time>2026-03-22T14:18:14Z</time></trkpt><trkpt lat="47.83562008566702" lon="-1.6883111697131736"><ele>77.80000000000001</ele><time>2026-03-22T14:18:15Z</time></trkpt><trkpt lat="47.83560686807145" lon="-1.6881774475020463"><ele>78.2</ele><time>2026-03-22T14:18:16Z</time></trkpt><trkpt lat="47.8355690822079" lon="-1.6880419887663187"><ele>78.60000000000001</ele><time>2026-03-22T14:18:17Z</time></trkpt><trkpt lat="47.835550711701714" lon="-1.687908214165092"><ele>79.0</ele><time>2026-03-22T14:18:17.999Z</time></trkpt><trkpt lat="47.8355349375842" lon="-1.6877648959918066"><ele>78.8</ele><time>2026-03-22T14:18:18.999Z</time></trkpt><trkpt lat="47.83552215637415" lon="-1.687635311843587"><ele>78.60000000000001</ele><time>2026-03-22T14:18:19.999Z</time></trkpt><trkpt lat="47.835526952537364" lon="-1.6875200435970947"><ele>78.4</ele><time>2026-03-22T14:18:20.999Z</time></trkpt><trkpt lat="47.83552942151559" lon="-1.6873867048620783"><ele>78.2</ele><time>2026-03-22T14:18:21.999Z</time></trkpt><trkpt lat="47.83558723589998" lon="-1.6872267862552168"><ele>78.0</ele><time>2026-03-22T14:18:22.999Z</time></trkpt><trkpt lat="47.83564892841652" lon="-1.6870656009936043"><ele>78.2</ele><time>2026-03-22T14:18:23.999Z</time></trkpt><trkpt lat="47.83571398648168" lon="-1.6869241903620802"><ele>78.4</ele><time>2026-03-22T14:18:24.999Z</time></trkpt><trkpt lat="47.83575817031883" lon="-1.6868167200598692"><ele>78.60000000000001</ele><time>2026-03-22T14:18:25.999Z</time></trkpt><trkpt lat="47.835810308978424" lon="-1.6867328337564231"><ele>78.8</ele><time>2026-03-22T14:18:26.999Z</time></trkpt><trkpt lat="47.8359114428151" lon="-1.6865976095861661"><ele>79.0</ele><time>2026-03-22T14:18:28.999Z</time></trkpt><trkpt lat="47.83598350956829" lon="-1.6865333963141593"><ele>79.0</ele><time>2026-03-22T14:18:29.999Z</time></trkpt><trkpt lat="47.83606148353548" lon="-1.6864964011841466"><ele>79.0</ele><time>2026-03-22T14:18:30.999Z</time></trkpt><trkpt lat="47.83613170254714" lon="-1.6864301220758695"><ele>79.0</ele><time>2026-03-22T14:18:31.999Z</time></trkpt><trkpt lat="47.83619120345133" lon="-1.686385172185301"><ele>79.0</ele><time>2026-03-22T14:18:32.999Z</time></trkpt><trkpt lat="47.83630189963459" lon="-1.6863424682773613"><ele>79.0</ele><time>2026-03-22T14:18:34.999Z</time></trkpt><trkpt lat="47.836359442119985" lon="-1.686300434426505"><ele>79.0</ele><time>2026-03-22T14:18:36.999Z</time></trkpt><trkpt lat="47.836421881468716" lon="-1.6864422674446229"><ele>79.0</ele><time>2026-03-22T14:18:43.999Z</time></trkpt><trkpt lat="47.836410796633935" lon="-1.6865579284418648"><ele>79.0</ele><time>2026-03-22T14:18:44.999Z</time></trkpt><trkpt lat="47.83639256722927" lon="-1.6866695869570547"><ele>79.0</ele><time>2026-03-22T14:18:45.999Z</time></trkpt><trkpt lat="47.83638955857406" lon="-1.686791331048782"><ele>79.0</ele><time>2026-03-22T14:18:46.999Z</time></trkpt><trkpt lat="47.836369254764946" lon="-1.686928111802776"><ele>79.0</ele><time>2026-03-22T14:18:47.999Z</time></trkpt><trkpt lat="47.83635968973333" lon="-1.6870357326684704"><ele>79.0</ele><time>2026-03-22T14:18:48.999Z</time></trkpt><trkpt lat="47.83637193050548" lon="-1.687134489913042"><ele>79.0</ele><time>2026-03-22T14:18:49.999Z</time></trkpt><trkpt lat="47.83641465861838" lon="-1.6872051207610295"><ele>79.0</ele><time>2026-03-22T14:18:50.999Z</time></trkpt><trkpt lat="47.836471166354094" lon="-1.6872746139810555"><ele>79.0</ele><time>2026-03-22T14:18:51.999Z</time></trkpt><trkpt lat="47.836623611851266" lon="-1.6871803375066914"><ele>79.0</ele><time>2026-03-22T14:18:53.999Z</time></trkpt><trkpt lat="47.8367512635229" lon="-1.6870946933483872"><ele>79.0</ele><time>2026-03-22T14:18:54.999Z</time></trkpt><trkpt lat="47.836849190297556" lon="-1.6870254255206105"><ele>80.0</ele><time>2026-03-22T14:18:55.999Z</time></trkpt><trkpt lat="47.83695713906172" lon="-1.686983740070181"><ele>81.0</ele><time>2026-03-22T14:18:56.999Z</time></trkpt><trkpt lat="47.8370615311503" lon="-1.6869059322592552"><ele>82.0</ele><time>2026-03-22T14:18:57.999Z</time></trkpt><trkpt lat="47.8371665342201" lon="-1.686827466584025"><ele>83.0</ele><time>2026-03-22T14:18:58.999Z</time></trkpt><trkpt lat="47.83727677201127" lon="-1.6867386843041343"><ele>83.2</ele><time>2026-03-22T14:18:59.999Z</time></trkpt><trkpt lat="47.83738524374339" lon="-1.686651367399704"><ele>83.4</ele><time>2026-03-22T14:19:00.999Z</time></trkpt><trkpt lat="47.83748581798515" lon="-1.6865816151713595"><ele>83.60000000000001</ele><time>2026-03-22T14:19:01.999Z</time></trkpt><trkpt lat="47.83756724212393" lon="-1.6864967759410145"><ele>83.80000000000001</ele><time>2026-03-22T14:19:02.999Z</time></trkpt><trkpt lat="47.83764189459879" lon="-1.6864266970331747"><ele>84.0</ele><time>2026-03-22T14:19:03.999Z</time></trkpt><trkpt lat="47.83771599208897" lon="-1.6863767475765143"><ele>85.75</ele><time>2026-03-22T14:19:04.999Z</time></trkpt><trkpt lat="47.83780079764055" lon="-1.6862824158507497"><ele>87.5</ele><time>2026-03-22T14:19:05.999Z</time></trkpt><trkpt lat="47.83790638315983" lon="-1.6862066122386994"><ele>89.25</ele><time>2026-03-22T14:19:06.999Z</time></trkpt><trkpt lat="47.83803746250432" lon="-1.6861307602626436"><ele>91.0</ele><time>2026-03-22T14:19:07.999Z</time></trkpt><trkpt lat="47.83817888256272" lon="-1.6860231408475765"><ele>91.66666666666666</ele><time>2026-03-22T14:19:08.999Z</time></trkpt><trkpt lat="47.83832882131681" lon="-1.6859070645520173"><ele>92.33333333333333</ele><time>2026-03-22T14:19:09.999Z</time></trkpt><trkpt lat="47.83847605220991" lon="-1.6857938670366226"><ele>93.0</ele><time>2026-03-22T14:19:10.999Z</time></trkpt><trkpt lat="47.83860148447756" lon="-1.6856887236621287"><ele>94.66666666666666</ele><time>2026-03-22T14:19:11.999Z</time></trkpt><trkpt lat="47.83874888440028" lon="-1.6855736765636626"><ele>96.33333333333333</ele><time>2026-03-22T14:19:12.999Z</time></trkpt><trkpt lat="47.8388892347748" lon="-1.685463067444145"><ele>98.0</ele><time>2026-03-22T14:19:13.999Z</time></trkpt><trkpt lat="47.83900538805466" lon="-1.6853720876658251"><ele>98.0</ele><time>2026-03-22T14:19:14.999Z</time></trkpt><trkpt lat="47.839100318721115" lon="-1.6853003795627268"><ele>98.0</ele><time>2026-03-22T14:19:15.999Z</time></trkpt><trkpt lat="47.83918994903459" lon="-1.6852333841027587"><ele>98.0</ele><time>2026-03-22T14:19:16.999Z</time></trkpt><trkpt lat="47.83927715317965" lon="-1.6851775550841022"><ele>98.0</ele><time>2026-03-22T14:19:17.999Z</time></trkpt><trkpt lat="47.839375746187606" lon="-1.6851166036323921"><ele>98.0</ele><time>2026-03-22T14:19:18.999Z</time></trkpt><trkpt lat="47.83947597878236" lon="-1.6850366574749223"><ele>99.25</ele><time>2026-03-22T14:19:19.999Z</time></trkpt><trkpt lat="47.83958491522369" lon="-1.6849582039603739"><ele>100.5</ele><time>2026-03-22T14:19:20.999Z</time></trkpt><trkpt lat="47.839706401129966" lon="-1.6848762308822811"><ele>101.75</ele><time>2026-03-22T14:19:21.999Z</time></trkpt><trkpt lat="47.83983532639301" lon="-1.6847841930880645"><ele>103.0</ele><time>2026-03-22T14:19:22.999Z</time></trkpt><trkpt lat="47.839968902986946" lon="-1.6846760086987018"><ele>103.0</ele><time>2026-03-22T14:19:23.998Z</time></trkpt><trkpt lat="47.84010788599659" lon="-1.6845630425963083"><ele>103.0</ele><time>2026-03-22T14:19:24.998Z</time></trkpt><trkpt lat="47.84024114289307" lon="-1.684463435898733"><ele>103.0</ele><time>2026-03-22T14:19:25.998Z</time></trkpt><trkpt lat="47.84034985086517" lon="-1.6843780363596665"><ele>103.0</ele><time>2026-03-22T14:19:26.998Z</time></trkpt><trkpt lat="47.84044657404756" lon="-1.6843081938894724"><ele>103.80000000000001</ele><time>2026-03-22T14:19:27.998Z</time></trkpt><trkpt lat="47.84051180608073" lon="-1.6842390823861078"><ele>104.6</ele><time>2026-03-22T14:19:28.998Z</time></trkpt><trkpt lat="47.840577305809866" lon="-1.6841882541083155"><ele>105.39999999999999</ele><time>2026-03-22T14:19:29.998Z</time></trkpt><trkpt lat="47.84063825204348" lon="-1.6841426304356244"><ele>106.19999999999999</ele><time>2026-03-22T14:19:30.998Z</time></trkpt><trkpt lat="47.84070408159694" lon="-1.6840079775726517"><ele>107.0</ele><time>2026-03-22T14:19:32.998Z</time></trkpt><trkpt lat="47.84085652846975" lon="-1.6839665497556497"><ele>107.19999999999999</ele><time>2026-03-22T14:19:35Z</time></trkpt><trkpt lat="47.840981823403226" lon="-1.6839232433767275"><ele>107.39999999999999</ele><time>2026-03-22T14:19:37Z</time></trkpt><trkpt lat="47.84107252012378" lon="-1.6838673573039313"><ele>107.60000000000001</ele><time>2026-03-22T14:19:39Z</time></trkpt><trkpt lat="47.84116144045813" lon="-1.683915925335661"><ele>107.80000000000001</ele><time>2026-03-22T14:19:41Z</time></trkpt><trkpt lat="47.84122387312125" lon="-1.6840181155673415"><ele>108.0</ele><time>2026-03-22T14:19:43Z</time></trkpt><trkpt lat="47.84128816626753" lon="-1.6840540877646262"><ele>108.0</ele><time>2026-03-22T14:19:44Z</time></trkpt><trkpt lat="47.841447581597706" lon="-1.684060042294728"><ele>108.00000000000001</ele><time>2026-03-22T14:19:46Z</time></trkpt><trkpt lat="47.84153742512323" lon="-1.684075035505709"><ele>108.00000000000001</ele><time>2026-03-22T14:19:47Z</time></trkpt><trkpt lat="47.841644384945354" lon="-1.6841160153157988"><ele>108.0</ele><time>2026-03-22T14:19:48Z</time></trkpt><trkpt lat="47.84172011300757" lon="-1.6841050287201302"><ele>108.0</ele><time>2026-03-22T14:19:49Z</time></trkpt><trkpt lat="47.84179738037778" lon="-1.6841421444838691"><ele>107.60000000000001</ele><time>2026-03-22T14:19:50Z</time></trkpt><trkpt lat="47.84187281334565" lon="-1.6841546993305827"><ele>107.20000000000002</ele><time>2026-03-22T14:19:51Z</time></trkpt><trkpt lat="47.84196988452287" lon="-1.6841585364544276"><ele>106.8</ele><time>2026-03-22T14:19:52Z</time></trkpt><trkpt lat="47.84206656332245" lon="-1.684160965101534"><ele>106.4</ele><time>2026-03-22T14:19:53Z</time></trkpt><trkpt lat="47.84216867902319" lon="-1.6841775603563265"><ele>106.0</ele><time>2026-03-22T14:19:54Z</time></trkpt><trkpt lat="47.84228130687994" lon="-1.6841958495094567"><ele>106.00000000000001</ele><time>2026-03-22T14:19:55Z</time></trkpt><trkpt lat="47.84237291247814" lon="-1.6842225590891453"><ele>106.0</ele><time>2026-03-22T14:19:56Z</time></trkpt><trkpt lat="47.84245695214674" lon="-1.6842243754244757"><ele>106.0</ele><time>2026-03-22T14:19:57Z</time></trkpt><trkpt lat="47.84252841635119" lon="-1.684235981648293"><ele>106.0</ele><time>2026-03-22T14:19:58Z</time></trkpt><trkpt lat="47.84260014137399" lon="-1.6842387766978864"><ele>106.00000000000001</ele><time>2026-03-22T14:19:59Z</time></trkpt><trkpt lat="47.84267454273615" lon="-1.6842290332738936"><ele>106.0</ele><time>2026-03-22T14:20:00Z</time></trkpt><trkpt lat="47.84273935476135" lon="-1.684252121121039"><ele>106.0</ele><time>2026-03-22T14:20:04Z</time></trkpt><trkpt lat="47.84279916362056" lon="-1.6844038768036083"><ele>106.0</ele><time>2026-03-22T14:20:06Z</time></trkpt><trkpt lat="47.84281696116282" lon="-1.6844939248157311"><ele>106.0</ele><time>2026-03-22T14:20:07Z</time></trkpt><trkpt lat="47.84284267817131" lon="-1.684588989240127"><ele>106.0</ele><time>2026-03-22T14:20:08Z</time></trkpt><trkpt lat="47.84288847174669" lon="-1.6847239374347773"><ele>106.0</ele><time>2026-03-22T14:20:09Z</time></trkpt><trkpt lat="47.84292294362851" lon="-1.6848701776110135"><ele>106.0</ele><time>2026-03-22T14:20:10Z</time></trkpt><trkpt lat="47.842953949149916" lon="-1.6849755727921902"><ele>106.0</ele><time>2026-03-22T14:20:11Z</time></trkpt><trkpt lat="47.842977260817676" lon="-1.6850819994382278"><ele>106.0</ele><time>2026-03-22T14:20:12Z</time></trkpt><trkpt lat="47.84300344033948" lon="-1.6851861026884813"><ele>106.0</ele><time>2026-03-22T14:20:13Z</time></trkpt><trkpt lat="47.84303328028027" lon="-1.6853553215484836"><ele>106.0</ele><time>2026-03-22T14:20:14Z</time></trkpt><trkpt lat="47.84306287372145" lon="-1.6855389567697756"><ele>106.19999999999999</ele><time>2026-03-22T14:20:15Z</time></trkpt><trkpt lat="47.843077864581105" lon="-1.6856962218487992"><ele>106.39999999999999</ele><time>2026-03-22T14:20:16Z</time></trkpt><trkpt lat="47.843087809845755" lon="-1.685861743483933"><ele>106.6</ele><time>2026-03-22T14:20:16.999Z</time></trkpt><trkpt lat="47.84312124367217" lon="-1.6859893814691047"><ele>106.8</ele><time>2026-03-22T14:20:17.999Z</time></trkpt><trkpt lat="47.84312875879245" lon="-1.6861168164390663"><ele>107.0</ele><time>2026-03-22T14:20:18.999Z</time></trkpt><trkpt lat="47.843126615072386" lon="-1.6862796362340082"><ele>107.0</ele><time>2026-03-22T14:20:20.999Z</time></trkpt><trkpt lat="47.843124805220256" lon="-1.68640248199926"><ele>106.99999999999999</ele><time>2026-03-22T14:20:22.999Z</time></trkpt><trkpt lat="47.843140576776115" lon="-1.6865520813465578"><ele>106.99999999999999</ele><time>2026-03-22T14:20:24.999Z</time></trkpt><trkpt lat="47.8431675283055" lon="-1.6867545711828222"><ele>107.0</ele><time>2026-03-22T14:20:26.999Z</time></trkpt><trkpt lat="47.843166512629786" lon="-1.6868902463904667"><ele>107.0</ele><time>2026-03-22T14:20:27.999Z</time></trkpt><trkpt lat="47.84318041066952" lon="-1.6870550656243575"><ele>107.5</ele><time>2026-03-22T14:20:28.999Z</time></trkpt><trkpt lat="47.843205118576876" lon="-1.6872178539998601"><ele>108.0</ele><time>2026-03-22T14:20:29.999Z</time></trkpt><trkpt lat="47.843205281005176" lon="-1.6873669254394197"><ele>108.5</ele><time>2026-03-22T14:20:30.999Z</time></trkpt><trkpt lat="47.84321696684032" lon="-1.6875435024143781"><ele>109.0</ele><time>2026-03-22T14:20:31.999Z</time></trkpt><trkpt lat="47.84322186525064" lon="-1.6877289445268018"><ele>108.80000000000001</ele><time>2026-03-22T14:20:32.999Z</time></trkpt><trkpt lat="47.843236246557595" lon="-1.687905013609368"><ele>108.60000000000001</ele><time>2026-03-22T14:20:33.999Z</time></trkpt><trkpt lat="47.843252421642866" lon="-1.68805317113629"><ele>108.4</ele><time>2026-03-22T14:20:34.999Z</time></trkpt><trkpt lat="47.84327797344994" lon="-1.688173687034405"><ele>108.2</ele><time>2026-03-22T14:20:35.999Z</time></trkpt><trkpt lat="47.843276279754285" lon="-1.6882891515259826"><ele>108.0</ele><time>2026-03-22T14:20:36.999Z</time></trkpt><trkpt lat="47.84330483186135" lon="-1.6883932013172422"><ele>108.0</ele><time>2026-03-22T14:20:37.999Z</time></trkpt><trkpt lat="47.84333730117257" lon="-1.688482050469929"><ele>108.0</ele><time>2026-03-22T14:20:38.999Z</time></trkpt><trkpt lat="47.84336738063909" lon="-1.688569323065754"><ele>108.0</ele><time>2026-03-22T14:20:39.999Z</time></trkpt><trkpt lat="47.843458818595714" lon="-1.688700546087632"><ele>108.0</ele><time>2026-03-22T14:20:41.999Z</time></trkpt><trkpt lat="47.8435218261733" lon="-1.6887551513946704"><ele>108.0</ele><time>2026-03-22T14:20:42.999Z</time></trkpt><trkpt lat="47.84357995640248" lon="-1.6888299150270816"><ele>108.0</ele><time>2026-03-22T14:20:43.999Z</time></trkpt><trkpt lat="47.84368054229231" lon="-1.6888113522935577"><ele>108.0</ele><time>2026-03-22T14:20:44.999Z</time></trkpt><trkpt lat="47.84377369094789" lon="-1.6887596968287588"><ele>108.00000000000001</ele><time>2026-03-22T14:20:45.999Z</time></trkpt><trkpt lat="47.843876640811395" lon="-1.6887106401326302"><ele>108.00000000000001</ele><time>2026-03-22T14:20:46.999Z</time></trkpt><trkpt lat="47.843968071981514" lon="-1.6886510014713128"><ele>108.0</ele><time>2026-03-22T14:20:47.999Z</time></trkpt><trkpt lat="47.844048709829735" lon="-1.6885943457684485"><ele>108.0</ele><time>2026-03-22T14:20:48.999Z</time></trkpt><trkpt lat="47.844128239086736" lon="-1.688532544380299"><ele>108.16666666666667</ele><time>2026-03-22T14:20:49.999Z</time></trkpt><trkpt lat="47.844206978895045" lon="-1.6884705069864259"><ele>108.33333333333334</ele><time>2026-03-22T14:20:50.999Z</time></trkpt><trkpt lat="47.84428473262886" lon="-1.6884095002560275"><ele>108.5</ele><time>2026-03-22T14:20:51.999Z</time></trkpt><trkpt lat="47.844367306583855" lon="-1.6883718912847268"><ele>108.66666666666667</ele><time>2026-03-22T14:20:52.999Z</time></trkpt><trkpt lat="47.84444044254546" lon="-1.6882929441379728"><ele>108.83333333333334</ele><time>2026-03-22T14:20:53.999Z</time></trkpt><trkpt lat="47.844518602881294" lon="-1.6882391267034653"><ele>109.0</ele><time>2026-03-22T14:20:54.999Z</time></trkpt><trkpt lat="47.84459550864355" lon="-1.688179697805359"><ele>108.80000000000001</ele><time>2026-03-22T14:20:55.999Z</time></trkpt><trkpt lat="47.84466635619247" lon="-1.6881087282114229"><ele>108.60000000000001</ele><time>2026-03-22T14:20:56.999Z</time></trkpt><trkpt lat="47.84472757864027" lon="-1.6880614050515916"><ele>108.4</ele><time>2026-03-22T14:20:57.999Z</time></trkpt><trkpt lat="47.844814316501015" lon="-1.6879995713653557"><ele>108.2</ele><time>2026-03-22T14:20:59.999Z</time></trkpt><trkpt lat="47.844823098975894" lon="-1.6877735003738412"><ele>108.0</ele><time>2026-03-22T14:21:02.999Z</time></trkpt><trkpt lat="47.84489137006977" lon="-1.6876188258815639"><ele>108.0</ele><time>2026-03-22T14:21:04.999Z</time></trkpt><trkpt lat="47.844976729800834" lon="-1.6875745672811013"><ele>108.0</ele><time>2026-03-22T14:21:06.999Z</time></trkpt><trkpt lat="47.845089955753835" lon="-1.687571520553899"><ele>108.0</ele><time>2026-03-22T14:24:03Z</time></trkpt><trkpt lat="47.84537245850784" lon="-1.6875681786429257"><ele>107.5</ele><time>2026-03-22T14:24:26Z</time></trkpt><trkpt lat="47.84542828744062" lon="-1.6875107154509121"><ele>107.0</ele><time>2026-03-22T14:24:28Z</time></trkpt><trkpt lat="47.845493404861145" lon="-1.6874497455858117"><ele>106.5</ele><time>2026-03-22T14:24:59.999Z</time></trkpt><trkpt lat="47.845535919891226" lon="-1.6872865329377984"><ele>106.0</ele><time>2026-03-22T14:25:51.998Z</time></trkpt><trkpt lat="47.84555293399965" lon="-1.6871910693889136"><ele>105.5</ele><time>2026-03-22T14:25:54Z</time></trkpt><trkpt lat="47.84559353982676" lon="-1.6871141908215377"><ele>105.0</ele><time>2026-03-22T14:25:55Z</time></trkpt><trkpt lat="47.84568885168154" lon="-1.6870934716529313"><ele>105.0</ele><time>2026-03-22T14:25:56Z</time></trkpt><trkpt lat="47.84578309718475" lon="-1.6870625126485177"><ele>105.0</ele><time>2026-03-22T14:25:57Z</time></trkpt><trkpt lat="47.845882872745214" lon="-1.6870390790668257"><ele>105.0</ele><time>2026-03-22T14:25:58Z</time></trkpt><trkpt lat="47.84596631117138" lon="-1.6869965958015587"><ele>105.0</ele><time>2026-03-22T14:25:59Z</time></trkpt><trkpt lat="47.84606354226253" lon="-1.6869825219937178"><ele>105.0</ele><time>2026-03-22T14:26:00Z</time></trkpt><trkpt lat="47.84613086888011" lon="-1.6869088557190708"><ele>104.6</ele><time>2026-03-22T14:26:01Z</time></trkpt><trkpt lat="47.84620998327127" lon="-1.6868695051243026"><ele>104.2</ele><time>2026-03-22T14:26:02Z</time></trkpt><trkpt lat="47.84628936098592" lon="-1.6868160364734675"><ele>103.80000000000001</ele><time>2026-03-22T14:26:03Z</time></trkpt><trkpt lat="47.84637153263268" lon="-1.6867705209606725"><ele>103.4</ele><time>2026-03-22T14:26:04Z</time></trkpt><trkpt lat="47.84644880037345" lon="-1.6866676130159461"><ele>103.0</ele><time>2026-03-22T14:26:05Z</time></trkpt><trkpt lat="47.84652061569664" lon="-1.6865813385069093"><ele>103.0</ele><time>2026-03-22T14:26:06Z</time></trkpt><trkpt lat="47.84659910517127" lon="-1.6864706684462236"><ele>103.0</ele><time>2026-03-22T14:26:07Z</time></trkpt><trkpt lat="47.846673827836845" lon="-1.6863998143874988"><ele>103.0</ele><time>2026-03-22T14:26:08Z</time></trkpt><trkpt lat="47.8468221786166" lon="-1.6860518821584458"><ele>102.0</ele><time>2026-03-22T14:26:10Z</time></trkpt><trkpt lat="47.8468503868031" lon="-1.6859071350793207"><ele>101.0</ele><time>2026-03-22T14:26:12Z</time></trkpt><trkpt lat="47.846854229375005" lon="-1.685770465114596"><ele>100.0</ele><time>2026-03-22T14:26:14Z</time></trkpt><trkpt lat="47.84690798370514" lon="-1.6856192381825215"><ele>99.0</ele><time>2026-03-22T14:26:16Z</time></trkpt><trkpt lat="47.84693642787898" lon="-1.6855078387214342"><ele>98.0</ele><time>2026-03-22T14:26:17Z</time></trkpt><trkpt lat="47.84694389439948" lon="-1.6853793338292553"><ele>97.80000000000001</ele><time>2026-03-22T14:26:18Z</time></trkpt><trkpt lat="47.846941728458546" lon="-1.6852300327252594"><ele>97.6</ele><time>2026-03-22T14:26:19Z</time></trkpt><trkpt lat="47.84693915656102" lon="-1.685053769366963"><ele>97.4</ele><time>2026-03-22T14:26:20Z</time></trkpt><trkpt lat="47.84691593044489" lon="-1.6848830791525067"><ele>97.19999999999999</ele><time>2026-03-22T14:26:21Z</time></trkpt><trkpt lat="47.846910540954816" lon="-1.6847299815019356"><ele>97.0</ele><time>2026-03-22T14:26:22Z</time></trkpt><trkpt lat="47.84686931258787" lon="-1.6846080263729883"><ele>97.00000000000001</ele><time>2026-03-22T14:26:23Z</time></trkpt><trkpt lat="47.84683851195868" lon="-1.6845061613554386"><ele>97.0</ele><time>2026-03-22T14:26:24Z</time></trkpt><trkpt lat="47.84680638903379" lon="-1.684414330979507"><ele>97.0</ele><time>2026-03-22T14:26:25Z</time></trkpt><trkpt lat="47.84676975516659" lon="-1.6843213797281256"><ele>97.0</ele><time>2026-03-22T14:26:26Z</time></trkpt><trkpt lat="47.846728993364124" lon="-1.684155664906926"><ele>97.00000000000001</ele><time>2026-03-22T14:26:28Z</time></trkpt><trkpt lat="47.84667347280599" lon="-1.6840366289252153"><ele>97.0</ele><time>2026-03-22T14:26:30Z</time></trkpt><trkpt lat="47.84658479185832" lon="-1.6839269247461006"><ele>96.6</ele><time>2026-03-22T14:26:32Z</time></trkpt><trkpt lat="47.846538626922545" lon="-1.6838345113156368"><ele>96.19999999999999</ele><time>2026-03-22T14:26:33Z</time></trkpt><trkpt lat="47.84654025509069" lon="-1.6836070265668452"><ele>95.8</ele><time>2026-03-22T14:26:35Z</time></trkpt><trkpt lat="47.84660129835023" lon="-1.6835043987759757"><ele>95.4</ele><time>2026-03-22T14:26:36Z</time></trkpt><trkpt lat="47.84668090382483" lon="-1.6834416765753992"><ele>95.0</ele><time>2026-03-22T14:26:37Z</time></trkpt><trkpt lat="47.846755670967624" lon="-1.683343670610465"><ele>94.4</ele><time>2026-03-22T14:26:38Z</time></trkpt><trkpt lat="47.84684680879498" lon="-1.68323655352982"><ele>93.8</ele><time>2026-03-22T14:26:39Z</time></trkpt><trkpt lat="47.84689457827479" lon="-1.6831059109847024"><ele>93.19999999999999</ele><time>2026-03-22T14:26:40Z</time></trkpt><trkpt lat="47.846951614919554" lon="-1.6829808534217223"><ele>92.6</ele><time>2026-03-22T14:26:41Z</time></trkpt><trkpt lat="47.847011641092685" lon="-1.6828393650672322"><ele>92.0</ele><time>2026-03-22T14:26:42Z</time></trkpt><trkpt lat="47.847060604517225" lon="-1.6826857653241627"><ele>91.66666666666667</ele><time>2026-03-22T14:26:43Z</time></trkpt><trkpt lat="47.84709932738237" lon="-1.682541171377836"><ele>91.33333333333334</ele><time>2026-03-22T14:26:43.999Z</time></trkpt><trkpt lat="47.847144523244566" lon="-1.6824096733632377"><ele>91.0</ele><time>2026-03-22T14:26:44.999Z</time></trkpt><trkpt lat="47.84716437467858" lon="-1.6822875012129357"><ele>90.66666666666667</ele><time>2026-03-22T14:26:45.999Z</time></trkpt><trkpt lat="47.8471931134471" lon="-1.6821788489911815"><ele>90.33333333333333</ele><time>2026-03-22T14:26:46.999Z</time></trkpt><trkpt lat="47.84722118533825" lon="-1.68208543349361"><ele>90.0</ele><time>2026-03-22T14:26:47.999Z</time></trkpt><trkpt lat="47.847243126127566" lon="-1.6819885053378976"><ele>89.4</ele><time>2026-03-22T14:26:48.999Z</time></trkpt><trkpt lat="47.847219919614496" lon="-1.6818638135560704"><ele>88.8</ele><time>2026-03-22T14:26:50.999Z</time></trkpt><trkpt lat="47.847107091240694" lon="-1.6818876690918758"><ele>88.19999999999999</ele><time>2026-03-22T14:26:51.999Z</time></trkpt><trkpt lat="47.847037572290446" lon="-1.6818826947742418"><ele>87.6</ele><time>2026-03-22T14:26:52.999Z</time></trkpt><trkpt lat="47.84694076415147" lon="-1.681898186948853"><ele>87.0</ele><time>2026-03-22T14:26:53.999Z</time></trkpt><trkpt lat="47.84682457047177" lon="-1.68193171613413"><ele>86.75</ele><time>2026-03-22T14:26:54.999Z</time></trkpt><trkpt lat="47.84670024176461" lon="-1.6819743039293267"><ele>86.5</ele><time>2026-03-22T14:26:55.999Z</time></trkpt><trkpt lat="47.84658563557303" lon="-1.6820144535340635"><ele>86.25</ele><time>2026-03-22T14:26:56.999Z</time></trkpt><trkpt lat="47.84647089431249" lon="-1.682051540897841"><ele>86.0</ele><time>2026-03-22T14:26:57.999Z</time></trkpt><trkpt lat="47.84635679141948" lon="-1.6820990611256519"><ele>86.0</ele><time>2026-03-22T14:26:58.999Z</time></trkpt><trkpt lat="47.84624269332234" lon="-1.6821454591151013"><ele>86.0</ele><time>2026-03-22T14:26:59.999Z</time></trkpt><trkpt lat="47.84614269268154" lon="-1.682180659099556"><ele>86.0</ele><time>2026-03-22T14:27:00.999Z</time></trkpt><trkpt lat="47.846050184912826" lon="-1.6821905925862626"><ele>86.0</ele><time>2026-03-22T14:27:01.999Z</time></trkpt><trkpt lat="47.84596602243995" lon="-1.6821749745227386"><ele>86.0</ele><time>2026-03-22T14:27:02.999Z</time></trkpt><trkpt lat="47.84589016588335" lon="-1.6821247718540846"><ele>86.19999999999999</ele><time>2026-03-22T14:27:03.999Z</time></trkpt><trkpt lat="47.84580291381555" lon="-1.6820640817310535"><ele>86.39999999999999</ele><time>2026-03-22T14:27:04.999Z</time></trkpt><trkpt lat="47.845719993502094" lon="-1.681944037513138"><ele>86.6</ele><time>2026-03-22T14:27:05.999Z</time></trkpt><trkpt lat="47.84565843860972" lon="-1.6818093690601408"><ele>86.8</ele><time>2026-03-22T14:27:06.999Z</time></trkpt><trkpt lat="47.84560413064896" lon="-1.6816430213086127"><ele>87.0</ele><time>2026-03-22T14:27:07.999Z</time></trkpt><trkpt lat="47.84551607443965" lon="-1.6814878353342513"><ele>87.0</ele><time>2026-03-22T14:27:08.999Z</time></trkpt><trkpt lat="47.845454357072676" lon="-1.6813302085590436"><ele>87.0</ele><time>2026-03-22T14:27:09.999Z</time></trkpt><trkpt lat="47.84538714574857" lon="-1.6811727937669099"><ele>87.0</ele><time>2026-03-22T14:27:10.999Z</time></trkpt><trkpt lat="47.84531857502749" lon="-1.6810108110724504"><ele>87.0</ele><time>2026-03-22T14:27:11.999Z</time></trkpt><trkpt lat="47.84524563803993" lon="-1.6808637182764237"><ele>87.0</ele><time>2026-03-22T14:27:12.999Z</time></trkpt><trkpt lat="47.845170568038036" lon="-1.680700578726709"><ele>87.0</ele><time>2026-03-22T14:27:13.999Z</time></trkpt><trkpt lat="47.84510083088291" lon="-1.6805205469737556"><ele>87.0</ele><time>2026-03-22T14:27:14.999Z</time></trkpt><trkpt lat="47.84500674362343" lon="-1.6803390692252016"><ele>87.0</ele><time>2026-03-22T14:27:15.999Z</time></trkpt><trkpt lat="47.844925560988834" lon="-1.6801516058488009"><ele>88.0</ele><time>2026-03-22T14:27:16.999Z</time></trkpt><trkpt lat="47.84486307163344" lon="-1.6799860596820575"><ele>89.0</ele><time>2026-03-22T14:27:17.999Z</time></trkpt><trkpt lat="47.84480651618487" lon="-1.679836157374986"><ele>90.0</ele><time>2026-03-22T14:27:18.999Z</time></trkpt><trkpt lat="47.84474958810669" lon="-1.679701141083661"><ele>91.0</ele><time>2026-03-22T14:27:19.999Z</time></trkpt><trkpt lat="47.8446764129" lon="-1.6795871635452468"><ele>91.0</ele><time>2026-03-22T14:27:20.999Z</time></trkpt><trkpt lat="47.84461936521733" lon="-1.6794842456846295"><ele>91.0</ele><time>2026-03-22T14:27:21.999Z</time></trkpt><trkpt lat="47.844564892733814" lon="-1.679399825876035"><ele>91.0</ele><time>2026-03-22T14:27:22.999Z</time></trkpt><trkpt lat="47.84448931358982" lon="-1.6793319817132004"><ele>91.0</ele><time>2026-03-22T14:27:23.999Z</time></trkpt><trkpt lat="47.84438529852704" lon="-1.6792926746798373"><ele>91.0</ele><time>2026-03-22T14:27:24.999Z</time></trkpt><trkpt lat="47.844274704561634" lon="-1.6792872172404292"><ele>92.0</ele><time>2026-03-22T14:27:25.999Z</time></trkpt><trkpt lat="47.84414713035985" lon="-1.6793357758538556"><ele>93.0</ele><time>2026-03-22T14:27:26.999Z</time></trkpt><trkpt lat="47.84400591476872" lon="-1.6793894099713411"><ele>94.0</ele><time>2026-03-22T14:27:27.999Z</time></trkpt><trkpt lat="47.8438743787458" lon="-1.679436463700601"><ele>95.0</ele><time>2026-03-22T14:27:28.999Z</time></trkpt><trkpt lat="47.843757807328444" lon="-1.6794775442864605"><ele>95.6</ele><time>2026-03-22T14:27:29.999Z</time></trkpt><trkpt lat="47.843652679545585" lon="-1.6795157636381115"><ele>96.2</ele><time>2026-03-22T14:27:30.999Z</time></trkpt><trkpt lat="47.843536091192355" lon="-1.6795715195561929"><ele>96.80000000000001</ele><time>2026-03-22T14:27:31.999Z</time></trkpt><trkpt lat="47.84344348418735" lon="-1.6796191549598471"><ele>97.4</ele><time>2026-03-22T14:27:32.999Z</time></trkpt><trkpt lat="47.843358585054254" lon="-1.6796675900005915"><ele>98.0</ele><time>2026-03-22T14:27:33.999Z</time></trkpt><trkpt lat="47.84329913561516" lon="-1.6797068502289398"><ele>99.4</ele><time>2026-03-22T14:27:34.999Z</time></trkpt><trkpt lat="47.8432380470773" lon="-1.6797448740385181"><ele>100.80000000000001</ele><time>2026-03-22T14:27:35.999Z</time></trkpt><trkpt lat="47.84315146241294" lon="-1.6798007120965"><ele>102.2</ele><time>2026-03-22T14:27:37.999Z</time></trkpt><trkpt lat="47.843048086939135" lon="-1.6798255820259407"><ele>103.6</ele><time>2026-03-22T14:27:39.999Z</time></trkpt><trkpt lat="47.84293879008885" lon="-1.6798703523810616"><ele>105.0</ele><time>2026-03-22T14:27:41.999Z</time></trkpt><trkpt lat="47.842867797072095" lon="-1.6798796620251462"><ele>105.0</ele><time>2026-03-22T14:27:42.999Z</time></trkpt><trkpt lat="47.842788297296266" lon="-1.679890978766837"><ele>105.0</ele><time>2026-03-22T14:27:43.999Z</time></trkpt><trkpt lat="47.842707329673985" lon="-1.679897383239506"><ele>105.0</ele><time>2026-03-22T14:27:44.999Z</time></trkpt><trkpt lat="47.842634686259466" lon="-1.6799224988439212"><ele>105.0</ele><time>2026-03-22T14:27:45.999Z</time></trkpt><trkpt lat="47.842570063496105" lon="-1.6799362458160074"><ele>105.0</ele><time>2026-03-22T14:27:46.999Z</time></trkpt><trkpt lat="47.84245847502367" lon="-1.679957514892481"><ele>105.0</ele><time>2026-03-22T14:27:48.998Z</time></trkpt><trkpt lat="47.842378283701066" lon="-1.679964526765784"><ele>105.0</ele><time>2026-03-22T14:27:50.998Z</time></trkpt><trkpt lat="47.84232852641573" lon="-1.6797417733908742"><ele>105.0</ele><time>2026-03-22T14:27:53.998Z</time></trkpt><trkpt lat="47.84233059377624" lon="-1.6795538592094585"><ele>105.0</ele><time>2026-03-22T14:27:55.998Z</time></trkpt><trkpt lat="47.8423017196675" lon="-1.6793562179981008"><ele>105.0</ele><time>2026-03-22T14:27:57.998Z</time></trkpt><trkpt lat="47.842293975454815" lon="-1.6792521810758925"><ele>104.33333333333333</ele><time>2026-03-22T14:27:59Z</time></trkpt><trkpt lat="47.84228698722253" lon="-1.6791254290853592"><ele>103.66666666666666</ele><time>2026-03-22T14:28:00Z</time></trkpt><trkpt lat="47.84228104479394" lon="-1.679017645670547"><ele>103.0</ele><time>2026-03-22T14:28:01Z</time></trkpt><trkpt lat="47.84227544153961" lon="-1.6789160142415758"><ele>102.33333333333333</ele><time>2026-03-22T14:28:02Z</time></trkpt><trkpt lat="47.84226633002032" lon="-1.6787557848486951"><ele>101.66666666666666</ele><time>2026-03-22T14:28:04Z</time></trkpt><trkpt lat="47.842257463792095" lon="-1.6786103994782893"><ele>101.0</ele><time>2026-03-22T14:28:06Z</time></trkpt><trkpt lat="47.842250664334024" lon="-1.678498905786071"><ele>101.0</ele><time>2026-03-22T14:28:08Z</time></trkpt><trkpt lat="47.84225637250983" lon="-1.6785925051530852"><ele>101.0</ele><time>2026-03-22T14:28:27Z</time></trkpt><trkpt lat="47.84226455006023" lon="-1.678726597297559"><ele>101.0</ele><time>2026-03-22T14:28:32Z</time></trkpt><trkpt lat="47.842283280364285" lon="-1.678835679058875"><ele>101.0</ele><time>2026-03-22T14:28:37Z</time></trkpt><trkpt lat="47.84238880870463" lon="-1.6807659882481267"><ele>102.66666666666666</ele><time>2026-03-22T14:28:42.999Z</time></trkpt><trkpt lat="47.84235833890007" lon="-1.6809532192746017"><ele>104.33333333333334</ele><time>2026-03-22T14:28:44.999Z</time></trkpt><trkpt lat="47.842345356751764" lon="-1.6808422380272194"><ele>106.0</ele><time>2026-03-22T14:28:47.999Z</time></trkpt><trkpt lat="47.842093879651884" lon="-1.6809012036146112"><ele>106.0</ele><time>2026-03-22T14:28:48.999Z</time></trkpt><trkpt lat="47.84198293133804" lon="-1.6809382332493314"><ele>106.0</ele><time>2026-03-22T14:28:50.999Z</time></trkpt><trkpt lat="47.841897225204164" lon="-1.680961778152895"><ele>106.0</ele><time>2026-03-22T14:28:51.999Z</time></trkpt><trkpt lat="47.84180012000599" lon="-1.6809876949243552"><ele>106.0</ele><time>2026-03-22T14:28:52.999Z</time></trkpt><trkpt lat="47.8416439344958" lon="-1.6804297760793427"><ele>104.83333333333334</ele><time>2026-03-22T14:28:53.999Z</time></trkpt><trkpt lat="47.841565961939374" lon="-1.6803834701847236"><ele>103.66666666666667</ele><time>2026-03-22T14:28:54.999Z</time></trkpt><trkpt lat="47.84151663567464" lon="-1.6803024489653438"><ele>102.5</ele><time>2026-03-22T14:28:55.999Z</time></trkpt><trkpt lat="47.84148198380177" lon="-1.6802191903246186"><ele>101.33333333333334</ele><time>2026-03-22T14:28:56.999Z</time></trkpt><trkpt lat="47.84136968021366" lon="-1.6802481300639216"><ele>100.16666666666667</ele><time>2026-03-22T14:28:57.999Z</time></trkpt><trkpt lat="47.84131291047562" lon="-1.6801340474206303"><ele>99.0</ele><time>2026-03-22T14:28:59.999Z</time></trkpt><trkpt lat="47.84124464199607" lon="-1.6801201150457157"><ele>98.6</ele><time>2026-03-22T14:29:01.999Z</time></trkpt><trkpt lat="47.841166344270846" lon="-1.6801039250041356"><ele>98.2</ele><time>2026-03-22T14:29:02.999Z</time></trkpt><trkpt lat="47.84108757938607" lon="-1.6801000388999994"><ele>97.8</ele><time>2026-03-22T14:29:03.999Z</time></trkpt><trkpt lat="47.840987085096216" lon="-1.6801161150563535"><ele>97.39999999999999</ele><time>2026-03-22T14:29:05.999Z</time></trkpt><trkpt lat="47.840944719178545" lon="-1.6799132009660886"><ele>97.0</ele><time>2026-03-22T14:29:07.999Z</time></trkpt><trkpt lat="47.84094471917808" lon="-1.6797990506506995"><ele>96.33333333333334</ele><time>2026-03-22T14:29:08.999Z</time></trkpt><trkpt lat="47.840959407199975" lon="-1.6796644353300383"><ele>95.66666666666667</ele><time>2026-03-22T14:29:09.999Z</time></trkpt><trkpt lat="47.84095236996411" lon="-1.6795281415207919"><ele>95.0</ele><time>2026-03-22T14:29:10.999Z</time></trkpt><trkpt lat="47.840972028911175" lon="-1.6794015102383435"><ele>94.33333333333334</ele><time>2026-03-22T14:29:11.999Z</time></trkpt><trkpt lat="47.840996319170515" lon="-1.6792901194952856"><ele>93.66666666666667</ele><time>2026-03-22T14:29:12.999Z</time></trkpt><trkpt lat="47.84104433480551" lon="-1.679217457892617"><ele>93.0</ele><time>2026-03-22T14:29:13.999Z</time></trkpt><trkpt lat="47.841098455195656" lon="-1.6791242785396197"><ele>93.0</ele><time>2026-03-22T14:29:15.999Z</time></trkpt><trkpt lat="47.84103512849001" lon="-1.6790000869011015"><ele>93.0</ele><time>2026-03-22T14:29:20.999Z</time></trkpt><trkpt lat="47.84099033049794" lon="-1.6789149100198921"><ele>93.0</ele><time>2026-03-22T14:29:21.999Z</time></trkpt><trkpt lat="47.8409384256828" lon="-1.6788162209227868"><ele>93.0</ele><time>2026-03-22T14:29:22.999Z</time></trkpt><trkpt lat="47.840888912379675" lon="-1.6787217077772714"><ele>93.0</ele><time>2026-03-22T14:29:23.999Z</time></trkpt><trkpt lat="47.840840442903676" lon="-1.6786284500084387"><ele>93.0</ele><time>2026-03-22T14:29:24.999Z</time></trkpt><trkpt lat="47.840779990867006" lon="-1.6785131616403905"><ele>90.80000000000001</ele><time>2026-03-22T14:29:25.999Z</time></trkpt><trkpt lat="47.84072749850023" lon="-1.6784131566301441"><ele>88.6</ele><time>2026-03-22T14:29:26.999Z</time></trkpt><trkpt lat="47.84065707580385" lon="-1.6782789919072694"><ele>86.4</ele><time>2026-03-22T14:29:27.999Z</time></trkpt><trkpt lat="47.84059717259013" lon="-1.678164874905971"><ele>84.19999999999999</ele><time>2026-03-22T14:29:28.999Z</time></trkpt><trkpt lat="47.84055075872414" lon="-1.678076465863456"><ele>82.0</ele><time>2026-03-22T14:29:29.999Z</time></trkpt><trkpt lat="47.84050210267552" lon="-1.6779837859384497"><ele>82.0</ele><time>2026-03-22T14:29:30.999Z</time></trkpt><trkpt lat="47.840456981479214" lon="-1.6778978391932378"><ele>82.0</ele><time>2026-03-22T14:29:31.999Z</time></trkpt><trkpt lat="47.84041420101261" lon="-1.6778163510030002"><ele>82.0</ele><time>2026-03-22T14:29:32.999Z</time></trkpt><trkpt lat="47.84037508213959" lon="-1.6777418372233737"><ele>82.0</ele><time>2026-03-22T14:29:33.999Z</time></trkpt><trkpt lat="47.84033113745412" lon="-1.6776647168612553"><ele>82.0</ele><time>2026-03-22T14:29:34.999Z</time></trkpt><trkpt lat="47.84025466285202" lon="-1.6775473717972897"><ele>82.0</ele><time>2026-03-22T14:29:36.999Z</time></trkpt><trkpt lat="47.84020061472709" lon="-1.6774517529081958"><ele>81.0</ele><time>2026-03-22T14:29:38.999Z</time></trkpt><trkpt lat="47.84014694526587" lon="-1.677399740523297"><ele>80.0</ele><time>2026-03-22T14:29:42.999Z</time></trkpt><trkpt lat="47.84000573076045" lon="-1.6774927831307695"><ele>79.0</ele><time>2026-03-22T14:29:46.998Z</time></trkpt><trkpt lat="47.839933135476414" lon="-1.6775922155538618"><ele>78.0</ele><time>2026-03-22T14:29:48.998Z</time></trkpt><trkpt lat="47.83986512827273" lon="-1.6776801746561667"><ele>77.0</ele><time>2026-03-22T14:29:50.998Z</time></trkpt><trkpt lat="47.839785486589776" lon="-1.6777324091386219"><ele>76.8</ele><time>2026-03-22T14:29:52.998Z</time></trkpt><trkpt lat="47.83969205981765" lon="-1.6777919765898222"><ele>76.6</ele><time>2026-03-22T14:29:54.998Z</time></trkpt><trkpt lat="47.83960349720485" lon="-1.6778695425386017"><ele>76.39999999999999</ele><time>2026-03-22T14:29:56.998Z</time></trkpt><trkpt lat="47.83953995096554" lon="-1.6779256032829035"><ele>76.2</ele><time>2026-03-22T14:29:58.998Z</time></trkpt><trkpt lat="47.83947564367563" lon="-1.6779962341835832"><ele>76.0</ele><time>2026-03-22T14:30:00.998Z</time></trkpt><trkpt lat="47.83951495502039" lon="-1.6777674219666687"><ele>76.0</ele><time>2026-03-22T14:30:07Z</time></trkpt><trkpt lat="47.839598681174444" lon="-1.677716673737962"><ele>76.0</ele><time>2026-03-22T14:30:08Z</time></trkpt><trkpt lat="47.83966321783244" lon="-1.677679511246806"><ele>76.0</ele><time>2026-03-22T14:30:09Z</time></trkpt><trkpt lat="47.83978956613652" lon="-1.6776129311325476"><ele>76.0</ele><time>2026-03-22T14:30:11Z</time></trkpt><trkpt lat="47.839879862057764" lon="-1.6775381205363025"><ele>76.0</ele><time>2026-03-22T14:30:12Z</time></trkpt><trkpt lat="47.83995871413623" lon="-1.677439005080047"><ele>76.0</ele><time>2026-03-22T14:30:13Z</time></trkpt><trkpt lat="47.84001276014165" lon="-1.6773629865533448"><ele>76.0</ele><time>2026-03-22T14:30:14Z</time></trkpt><trkpt lat="47.84002911047414" lon="-1.6772406528541899"><ele>76.0</ele><time>2026-03-22T14:30:16Z</time></trkpt><trkpt lat="47.83996779677454" lon="-1.6771207430521822"><ele>76.0</ele><time>2026-03-22T14:30:18Z</time></trkpt><trkpt lat="47.83988605585783" lon="-1.6770913368990654"><ele>76.0</ele><time>2026-03-22T14:30:19Z</time></trkpt><trkpt lat="47.83982107683946" lon="-1.6770147979534782"><ele>76.0</ele><time>2026-03-22T14:30:20Z</time></trkpt><trkpt lat="47.839740232848" lon="-1.676890385986861"><ele>75.39999999999999</ele><time>2026-03-22T14:30:21Z</time></trkpt><trkpt lat="47.83966329562497" lon="-1.6768178227694048"><ele>74.8</ele><time>2026-03-22T14:30:22Z</time></trkpt><trkpt lat="47.83959232011541" lon="-1.6767183864164594"><ele>74.19999999999999</ele><time>2026-03-22T14:30:23Z</time></trkpt><trkpt lat="47.8394979186802" lon="-1.6766185633329416"><ele>73.6</ele><time>2026-03-22T14:30:24Z</time></trkpt><trkpt lat="47.83940658876448" lon="-1.6764954853417564"><ele>73.0</ele><time>2026-03-22T14:30:25Z</time></trkpt><trkpt lat="47.8393386423471" lon="-1.6763760387465099"><ele>73.33333333333333</ele><time>2026-03-22T14:30:26Z</time></trkpt><trkpt lat="47.83924644432176" lon="-1.6762277351884138"><ele>73.66666666666667</ele><time>2026-03-22T14:30:27Z</time></trkpt><trkpt lat="47.83910757464088" lon="-1.676116591501731"><ele>74.0</ele><time>2026-03-22T14:30:28Z</time></trkpt><trkpt lat="47.83911847588413" lon="-1.6758276875067044"><ele>74.83333333333334</ele><time>2026-03-22T14:30:29Z</time></trkpt><trkpt lat="47.8390840813103" lon="-1.6756654960257478"><ele>75.66666666666667</ele><time>2026-03-22T14:30:30Z</time></trkpt><trkpt lat="47.83907855478545" lon="-1.6755194734266896"><ele>76.5</ele><time>2026-03-22T14:30:31Z</time></trkpt><trkpt lat="47.839060214022794" lon="-1.6753994430310284"><ele>77.33333333333333</ele><time>2026-03-22T14:30:32Z</time></trkpt><trkpt lat="47.83901773374692" lon="-1.675320175541643"><ele>78.16666666666666</ele><time>2026-03-22T14:30:33Z</time></trkpt><trkpt lat="47.83895312000675" lon="-1.6752749344617366"><ele>79.0</ele><time>2026-03-22T14:30:34Z</time></trkpt><trkpt lat="47.838882699643456" lon="-1.6752269086048566"><ele>79.0</ele><time>2026-03-22T14:30:35Z</time></trkpt><trkpt lat="47.83879342825884" lon="-1.6751869012604708"><ele>79.0</ele><time>2026-03-22T14:30:36Z</time></trkpt><trkpt lat="47.83870783052238" lon="-1.6751989158681149"><ele>79.0</ele><time>2026-03-22T14:30:37Z</time></trkpt><trkpt lat="47.83861883423831" lon="-1.6751864346949787"><ele>79.0</ele><time>2026-03-22T14:30:38Z</time></trkpt><trkpt lat="47.838528900584905" lon="-1.6751563117163255"><ele>79.0</ele><time>2026-03-22T14:30:39Z</time></trkpt><trkpt lat="47.838389835182944" lon="-1.6751511738525864"><ele>79.0</ele><time>2026-03-22T14:30:41Z</time></trkpt><trkpt lat="47.83828073935026" lon="-1.6751110243272884"><ele>79.0</ele><time>2026-03-22T14:30:43Z</time></trkpt><trkpt lat="47.838177745335436" lon="-1.6751086501012424"><ele>79.0</ele><time>2026-03-22T14:30:44.999Z</time></trkpt><trkpt lat="47.838073035001095" lon="-1.6750876071537404"><ele>79.0</ele><time>2026-03-22T14:30:46.999Z</time></trkpt><trkpt lat="47.83796273545461" lon="-1.6750582084710415"><ele>79.0</ele><time>2026-03-22T14:30:48.999Z</time></trkpt><trkpt lat="47.83783568889122" lon="-1.6750186501104491"><ele>79.0</ele><time>2026-03-22T14:30:50.999Z</time></trkpt><trkpt lat="47.83776153570709" lon="-1.675011221910918"><ele>79.0</ele><time>2026-03-22T14:30:51.999Z</time></trkpt><trkpt lat="47.837683875685094" lon="-1.674979228381993"><ele>79.0</ele><time>2026-03-22T14:30:52.999Z</time></trkpt><trkpt lat="47.83760333093428" lon="-1.6749382964710853"><ele>79.0</ele><time>2026-03-22T14:30:53.999Z</time></trkpt><trkpt lat="47.8375426823435" lon="-1.6748770365451302"><ele>79.0</ele><time>2026-03-22T14:30:54.999Z</time></trkpt><trkpt lat="47.83745826413002" lon="-1.674847073696732"><ele>79.0</ele><time>2026-03-22T14:30:55.999Z</time></trkpt><trkpt lat="47.83738139065535" lon="-1.6747707674371763"><ele>77.8</ele><time>2026-03-22T14:30:56.999Z</time></trkpt><trkpt lat="47.8373100351853" lon="-1.6747330103764493"><ele>76.60000000000001</ele><time>2026-03-22T14:30:57.999Z</time></trkpt><trkpt lat="47.83726094699557" lon="-1.6746650095278404"><ele>75.4</ele><time>2026-03-22T14:30:58.999Z</time></trkpt><trkpt lat="47.83714946932595" lon="-1.6745960109757774"><ele>74.2</ele><time>2026-03-22T14:31:00.999Z</time></trkpt><trkpt lat="47.83704864565919" lon="-1.6744869491148122"><ele>73.0</ele><time>2026-03-22T14:31:02.999Z</time></trkpt><trkpt lat="47.83699028017924" lon="-1.6744385759256424"><ele>73.0</ele><time>2026-03-22T14:31:03.999Z</time></trkpt><trkpt lat="47.83692556988395" lon="-1.6743843834829624"><ele>73.0</ele><time>2026-03-22T14:31:04.999Z</time></trkpt><trkpt lat="47.83685263702061" lon="-1.674331942964491"><ele>73.0</ele><time>2026-03-22T14:31:05.999Z</time></trkpt><trkpt lat="47.83678223230975" lon="-1.674270267132596"><ele>73.0</ele><time>2026-03-22T14:31:06.999Z</time></trkpt><trkpt lat="47.83669919193425" lon="-1.6742072352329573"><ele>73.0</ele><time>2026-03-22T14:31:07.999Z</time></trkpt><trkpt lat="47.83661979099274" lon="-1.6741343741426604"><ele>73.0</ele><time>2026-03-22T14:31:08.999Z</time></trkpt><trkpt lat="47.836529291494365" lon="-1.6740596753941057"><ele>73.0</ele><time>2026-03-22T14:31:09.999Z</time></trkpt><trkpt lat="47.83644688774648" lon="-1.6739787141343196"><ele>73.0</ele><time>2026-03-22T14:31:10.999Z</time></trkpt><trkpt lat="47.836347741337775" lon="-1.673890960362454"><ele>73.0</ele><time>2026-03-22T14:31:11.999Z</time></trkpt><trkpt lat="47.836255957773794" lon="-1.673807841517789"><ele>73.0</ele><time>2026-03-22T14:31:12.999Z</time></trkpt><trkpt lat="47.83617204689542" lon="-1.673759165639688"><ele>73.0</ele><time>2026-03-22T14:31:13.999Z</time></trkpt><trkpt lat="47.83609617223377" lon="-1.6736905538873532"><ele>72.75</ele><time>2026-03-22T14:31:14.999Z</time></trkpt><trkpt lat="47.83599731254463" lon="-1.6735971096939424"><ele>72.5</ele><time>2026-03-22T14:31:15.999Z</time></trkpt><trkpt lat="47.83588355577354" lon="-1.673484901377209"><ele>72.25</ele><time>2026-03-22T14:31:16.999Z</time></trkpt><trkpt lat="47.83577400287818" lon="-1.6733680691008601"><ele>72.0</ele><time>2026-03-22T14:31:17.999Z</time></trkpt><trkpt lat="47.83566217071802" lon="-1.6732539473081522"><ele>72.0</ele><time>2026-03-22T14:31:18.999Z</time></trkpt><trkpt lat="47.83556142132216" lon="-1.673103470350051"><ele>72.0</ele><time>2026-03-22T14:31:19.999Z</time></trkpt><trkpt lat="47.83545511294779" lon="-1.672939673696449"><ele>72.0</ele><time>2026-03-22T14:31:20.999Z</time></trkpt><trkpt lat="47.83534731139169" lon="-1.6727668373167799"><ele>72.5</ele><time>2026-03-22T14:31:21.999Z</time></trkpt><trkpt lat="47.83523962831718" lon="-1.6725985558840704"><ele>73.0</ele><time>2026-03-22T14:31:22.999Z</time></trkpt><trkpt lat="47.835150690162564" lon="-1.6724541492053369"><ele>73.5</ele><time>2026-03-22T14:31:23.999Z</time></trkpt><trkpt lat="47.83505773284305" lon="-1.6722997764899974"><ele>74.0</ele><time>2026-03-22T14:31:24.999Z</time></trkpt><trkpt lat="47.83497243801297" lon="-1.672143612683508"><ele>74.0</ele><time>2026-03-22T14:31:25.999Z</time></trkpt><trkpt lat="47.83488520090021" lon="-1.6720135604538815"><ele>74.0</ele><time>2026-03-22T14:31:26.999Z</time></trkpt><trkpt lat="47.83482545089398" lon="-1.6718682976391888"><ele>74.0</ele><time>2026-03-22T14:31:27.999Z</time></trkpt><trkpt lat="47.83475781315202" lon="-1.6717511475422948"><ele>74.0</ele><time>2026-03-22T14:31:28.999Z</time></trkpt><trkpt lat="47.834678836800855" lon="-1.6716648074987577"><ele>74.0</ele><time>2026-03-22T14:31:29.999Z</time></trkpt><trkpt lat="47.834613614641704" lon="-1.6715522518638286"><ele>74.33333333333334</ele><time>2026-03-22T14:31:30.999Z</time></trkpt><trkpt lat="47.83455584081139" lon="-1.6714599219828354"><ele>74.66666666666667</ele><time>2026-03-22T14:31:31.999Z</time></trkpt><trkpt lat="47.8345024238842" lon="-1.6713691246681575"><ele>75.0</ele><time>2026-03-22T14:31:32.999Z</time></trkpt><trkpt lat="47.83445797844027" lon="-1.671279406250043"><ele>75.33333333333333</ele><time>2026-03-22T14:31:33.999Z</time></trkpt><trkpt lat="47.83438702165636" lon="-1.6711975667827308"><ele>75.66666666666666</ele><time>2026-03-22T14:31:34.999Z</time></trkpt><trkpt lat="47.83432946157169" lon="-1.6710971585811711"><ele>76.0</ele><time>2026-03-22T14:31:35.999Z</time></trkpt><trkpt lat="47.834280571136986" lon="-1.6710120659218486"><ele>76.0</ele><time>2026-03-22T14:31:36.999Z</time></trkpt><trkpt lat="47.83421913323233" lon="-1.6709175648357903"><ele>76.0</ele><time>2026-03-22T14:31:37.999Z</time></trkpt><trkpt lat="47.83416270208848" lon="-1.6708295214295317"><ele>76.0</ele><time>2026-03-22T14:31:38.999Z</time></trkpt><trkpt lat="47.834117617023466" lon="-1.6707596182847186"><ele>76.0</ele><time>2026-03-22T14:31:39.999Z</time></trkpt><trkpt lat="47.834040517609594" lon="-1.670646341540133"><ele>76.0</ele><time>2026-03-22T14:31:41.999Z</time></trkpt><trkpt lat="47.83397370539293" lon="-1.6705172206552525"><ele>76.0</ele><time>2026-03-22T14:31:43.999Z</time></trkpt><trkpt lat="47.833893735041045" lon="-1.6703811199211198"><ele>76.0</ele><time>2026-03-22T14:31:45.999Z</time></trkpt><trkpt lat="47.833838841528014" lon="-1.670325576227953"><ele>76.0</ele><time>2026-03-22T14:31:46.999Z</time></trkpt><trkpt lat="47.83380057195335" lon="-1.6702331066475136"><ele>76.0</ele><time>2026-03-22T14:31:47.999Z</time></trkpt><trkpt lat="47.83373287839295" lon="-1.6701560080831905"><ele>76.0</ele><time>2026-03-22T14:31:48.999Z</time></trkpt><trkpt lat="47.83367465517466" lon="-1.6700582822198435"><ele>76.0</ele><time>2026-03-22T14:31:49.999Z</time></trkpt><trkpt lat="47.833612059907665" lon="-1.6699478097116995"><ele>76.2</ele><time>2026-03-22T14:31:50.999Z</time></trkpt><trkpt lat="47.833546220710005" lon="-1.669822480680884"><ele>76.39999999999999</ele><time>2026-03-22T14:31:51.999Z</time></trkpt><trkpt lat="47.83348420355467" lon="-1.6696813744845864"><ele>76.6</ele><time>2026-03-22T14:31:52.998Z</time></trkpt><trkpt lat="47.833422664096716" lon="-1.6695306908468066"><ele>76.8</ele><time>2026-03-22T14:31:53.998Z</time></trkpt><trkpt lat="47.83334383267275" lon="-1.669419003016309"><ele>77.0</ele><time>2026-03-22T14:31:54.998Z</time></trkpt><trkpt lat="47.8332703441116" lon="-1.6692674976407038"><ele>76.5</ele><time>2026-03-22T14:31:55.998Z</time></trkpt><trkpt lat="47.83319089983613" lon="-1.6691223464354015"><ele>76.0</ele><time>2026-03-22T14:31:56.998Z</time></trkpt><trkpt lat="47.83311667771501" lon="-1.6690059881770318"><ele>75.5</ele><time>2026-03-22T14:31:57.998Z</time></trkpt><trkpt lat="47.8330363752841" lon="-1.668887730411807"><ele>75.0</ele><time>2026-03-22T14:31:58.998Z</time></trkpt><trkpt lat="47.832930087715766" lon="-1.6687791211850305"><ele>75.0</ele><time>2026-03-22T14:31:59.998Z</time></trkpt><trkpt lat="47.83281816883505" lon="-1.6686619124221016"><ele>75.0</ele><time>2026-03-22T14:32:00.998Z</time></trkpt><trkpt lat="47.832710662808225" lon="-1.6685686875718164"><ele>75.0</ele><time>2026-03-22T14:32:01.998Z</time></trkpt><trkpt lat="47.83261136782377" lon="-1.6684844149339546"><ele>75.0</ele><time>2026-03-22T14:32:02.998Z</time></trkpt><trkpt lat="47.832509722031354" lon="-1.6683986618519258"><ele>75.4</ele><time>2026-03-22T14:32:03.998Z</time></trkpt><trkpt lat="47.83240994636806" lon="-1.6683139399930882"><ele>75.8</ele><time>2026-03-22T14:32:04.998Z</time></trkpt><trkpt lat="47.83231343651222" lon="-1.668231991132048"><ele>76.2</ele><time>2026-03-22T14:32:05.998Z</time></trkpt><trkpt lat="47.83221880909289" lon="-1.6681542570245667"><ele>76.6</ele><time>2026-03-22T14:32:06.998Z</time></trkpt><trkpt lat="47.83212361759858" lon="-1.668073607422252"><ele>77.0</ele><time>2026-03-22T14:32:07.998Z</time></trkpt><trkpt lat="47.83204073103112" lon="-1.6680010627226443"><ele>77.0</ele><time>2026-03-22T14:32:08.998Z</time></trkpt><trkpt lat="47.831954606500574" lon="-1.6679243685461345"><ele>77.0</ele><time>2026-03-22T14:32:09.998Z</time></trkpt><trkpt lat="47.83186952355885" lon="-1.6678549438007044"><ele>77.0</ele><time>2026-03-22T14:32:11Z</time></trkpt><trkpt lat="47.831783684528226" lon="-1.6677903975685073"><ele>77.0</ele><time>2026-03-22T14:32:12Z</time></trkpt><trkpt lat="47.83169789733973" lon="-1.667730000648368"><ele>77.0</ele><time>2026-03-22T14:32:13Z</time></trkpt><trkpt lat="47.831614885844765" lon="-1.6676738774090687"><ele>77.4</ele><time>2026-03-22T14:32:14Z</time></trkpt><trkpt lat="47.831529799049186" lon="-1.6676167632637124"><ele>77.80000000000001</ele><time>2026-03-22T14:32:15Z</time></trkpt><trkpt lat="47.83144383872191" lon="-1.6675595200287272"><ele>78.2</ele><time>2026-03-22T14:32:16Z</time></trkpt><trkpt lat="47.83135530404451" lon="-1.66749616931823"><ele>78.60000000000001</ele><time>2026-03-22T14:32:17Z</time></trkpt><trkpt lat="47.83125327509146" lon="-1.6674493051970702"><ele>79.0</ele><time>2026-03-22T14:32:18Z</time></trkpt><trkpt lat="47.83115910696829" lon="-1.6673910115635469"><ele>79.0</ele><time>2026-03-22T14:32:19Z</time></trkpt><trkpt lat="47.83105652447707" lon="-1.6673355843465307"><ele>79.0</ele><time>2026-03-22T14:32:20Z</time></trkpt><trkpt lat="47.83095237324022" lon="-1.667277068046078"><ele>79.0</ele><time>2026-03-22T14:32:21Z</time></trkpt><trkpt lat="47.8308519869833" lon="-1.667220776063447"><ele>79.0</ele><time>2026-03-22T14:32:22Z</time></trkpt><trkpt lat="47.830749726316014" lon="-1.667164376246542"><ele>79.0</ele><time>2026-03-22T14:32:23Z</time></trkpt><trkpt lat="47.83066071376004" lon="-1.667120255314798"><ele>79.0</ele><time>2026-03-22T14:32:24Z</time></trkpt><trkpt lat="47.830579836804006" lon="-1.6670818324066305"><ele>79.0</ele><time>2026-03-22T14:32:25Z</time></trkpt><trkpt lat="47.830500687239734" lon="-1.6670448644860367"><ele>79.0</ele><time>2026-03-22T14:32:26Z</time></trkpt><trkpt lat="47.830420259515705" lon="-1.6670101827612054"><ele>79.0</ele><time>2026-03-22T14:32:27Z</time></trkpt><trkpt lat="47.830349130049804" lon="-1.6669759757700406"><ele>79.0</ele><time>2026-03-22T14:32:28Z</time></trkpt><trkpt lat="47.83026866281912" lon="-1.6669439649412983"><ele>79.0</ele><time>2026-03-22T14:32:29Z</time></trkpt><trkpt lat="47.83017850710696" lon="-1.666905646763138"><ele>79.2</ele><time>2026-03-22T14:32:30Z</time></trkpt><trkpt lat="47.83007663707707" lon="-1.6668700783317973"><ele>79.4</ele><time>2026-03-22T14:32:31Z</time></trkpt><trkpt lat="47.82997720693454" lon="-1.6668266681888342"><ele>79.6</ele><time>2026-03-22T14:32:32Z</time></trkpt><trkpt lat="47.8298719084607" lon="-1.6667911548185428"><ele>79.8</ele><time>2026-03-22T14:32:33Z</time></trkpt><trkpt lat="47.82976965069449" lon="-1.6667544310006321"><ele>80.0</ele><time>2026-03-22T14:32:34Z</time></trkpt><trkpt lat="47.82966035593617" lon="-1.666723139949614"><ele>80.0</ele><time>2026-03-22T14:32:35Z</time></trkpt><trkpt lat="47.82954973838522" lon="-1.6666803284516143"><ele>80.0</ele><time>2026-03-22T14:32:36Z</time></trkpt><trkpt lat="47.82943892473817" lon="-1.6666523308289163"><ele>80.0</ele><time>2026-03-22T14:32:37Z</time></trkpt><trkpt lat="47.829339050241714" lon="-1.6666146448274137"><ele>80.0</ele><time>2026-03-22T14:32:38Z</time></trkpt><trkpt lat="47.82923852176692" lon="-1.6665838861545414"><ele>80.0</ele><time>2026-03-22T14:32:39Z</time></trkpt><trkpt lat="47.82913518667006" lon="-1.6665579429931603"><ele>80.6</ele><time>2026-03-22T14:32:40Z</time></trkpt><trkpt lat="47.829037115976995" lon="-1.666534820270753"><ele>81.2</ele><time>2026-03-22T14:32:41Z</time></trkpt><trkpt lat="47.82894450153371" lon="-1.666509968579788"><ele>81.80000000000001</ele><time>2026-03-22T14:32:42Z</time></trkpt><trkpt lat="47.82885288868335" lon="-1.6664954425308474"><ele>82.4</ele><time>2026-03-22T14:32:43Z</time></trkpt><trkpt lat="47.828762132006645" lon="-1.6664910885630588"><ele>83.0</ele><time>2026-03-22T14:32:44Z</time></trkpt><trkpt lat="47.828686285651614" lon="-1.666490885594773"><ele>83.0</ele><time>2026-03-22T14:32:45Z</time></trkpt><trkpt lat="47.82856921500425" lon="-1.6664756875932325"><ele>83.0</ele><time>2026-03-22T14:32:47Z</time></trkpt><trkpt lat="47.82845307535276" lon="-1.6664852348299852"><ele>83.0</ele><time>2026-03-22T14:32:49Z</time></trkpt><trkpt lat="47.8283522630669" lon="-1.6665058428358621"><ele>83.0</ele><time>2026-03-22T14:32:51Z</time></trkpt><trkpt lat="47.82826878772631" lon="-1.666510637845419"><ele>83.0</ele><time>2026-03-22T14:32:54Z</time></trkpt><trkpt lat="47.828327096352666" lon="-1.6664716592205566"><ele>83.5</ele><time>2026-03-22T14:33:01.999Z</time></trkpt><trkpt lat="47.82835288770137" lon="-1.6661945135009426"><ele>84.0</ele><time>2026-03-22T14:33:02.999Z</time></trkpt><trkpt lat="47.82843076549677" lon="-1.6660200474768498"><ele>84.5</ele><time>2026-03-22T14:33:04.999Z</time></trkpt><trkpt lat="47.828466244510686" lon="-1.6658932093324519"><ele>85.0</ele><time>2026-03-22T14:33:05.999Z</time></trkpt><trkpt lat="47.828513319431806" lon="-1.6657333048322205"><ele>85.0</ele><time>2026-03-22T14:33:06.999Z</time></trkpt><trkpt lat="47.828547262540845" lon="-1.6655839300388577"><ele>85.0</ele><time>2026-03-22T14:33:07.999Z</time></trkpt><trkpt lat="47.82858636544526" lon="-1.6654627155470305"><ele>85.0</ele><time>2026-03-22T14:33:08.999Z</time></trkpt><trkpt lat="47.82863767389082" lon="-1.6653480113008494"><ele>85.0</ele><time>2026-03-22T14:33:09.999Z</time></trkpt><trkpt lat="47.82873128724563" lon="-1.665197892456124"><ele>85.0</ele><time>2026-03-22T14:33:10.999Z</time></trkpt><trkpt lat="47.828808710099175" lon="-1.6650624738764457"><ele>85.5</ele><time>2026-03-22T14:33:11.999Z</time></trkpt><trkpt lat="47.82887355720214" lon="-1.6649281426341633"><ele>86.0</ele><time>2026-03-22T14:33:12.999Z</time></trkpt><trkpt lat="47.82894549427582" lon="-1.664785301115064"><ele>86.5</ele><time>2026-03-22T14:33:13.999Z</time></trkpt><trkpt lat="47.82902544983805" lon="-1.6646460688368978"><ele>87.0</ele><time>2026-03-22T14:33:14.999Z</time></trkpt><trkpt lat="47.82908719752719" lon="-1.6645000708767812"><ele>87.39999999999999</ele><time>2026-03-22T14:33:15.999Z</time></trkpt><trkpt lat="47.82915881161628" lon="-1.6643721997833945"><ele>87.8</ele><time>2026-03-22T14:33:16.999Z</time></trkpt><trkpt lat="47.829222653850614" lon="-1.66423984960989"><ele>88.2</ele><time>2026-03-22T14:33:17.999Z</time></trkpt><trkpt lat="47.829274231107824" lon="-1.6641127677989545"><ele>88.6</ele><time>2026-03-22T14:33:18.999Z</time></trkpt><trkpt lat="47.829346231409495" lon="-1.6639772262396195"><ele>89.0</ele><time>2026-03-22T14:33:19.999Z</time></trkpt><trkpt lat="47.82942451285466" lon="-1.6638332765403323"><ele>89.0</ele><time>2026-03-22T14:33:20.999Z</time></trkpt><trkpt lat="47.82950574563403" lon="-1.6636807726056817"><ele>89.0</ele><time>2026-03-22T14:33:21.999Z</time></trkpt><trkpt lat="47.82957664453426" lon="-1.6635487673586145"><ele>89.0</ele><time>2026-03-22T14:33:22.999Z</time></trkpt><trkpt lat="47.829643440890145" lon="-1.6633805036601388"><ele>89.0</ele><time>2026-03-22T14:33:23.999Z</time></trkpt><trkpt lat="47.82968595315034" lon="-1.6632164977175476"><ele>90.25</ele><time>2026-03-22T14:33:24.999Z</time></trkpt><trkpt lat="47.8297197120478" lon="-1.663039690099544"><ele>91.5</ele><time>2026-03-22T14:33:25.999Z</time></trkpt><trkpt lat="47.82974820413084" lon="-1.6628726521161405"><ele>92.75</ele><time>2026-03-22T14:33:26.999Z</time></trkpt><trkpt lat="47.82977271005513" lon="-1.6627117439589794"><ele>94.0</ele><time>2026-03-22T14:33:27.999Z</time></trkpt><trkpt lat="47.829793243899054" lon="-1.6625599482597004"><ele>95.0</ele><time>2026-03-22T14:33:28.999Z</time></trkpt><trkpt lat="47.82980990439918" lon="-1.6624069354428441"><ele>96.0</ele><time>2026-03-22T14:33:29.999Z</time></trkpt><trkpt lat="47.82982598188454" lon="-1.6622466955377986"><ele>97.0</ele><time>2026-03-22T14:33:30.999Z</time></trkpt><trkpt lat="47.82981267292662" lon="-1.6620366025617055"><ele>98.0</ele><time>2026-03-22T14:33:31.999Z</time></trkpt><trkpt lat="47.82983235193559" lon="-1.6618578375225033"><ele>98.5</ele><time>2026-03-22T14:33:32.999Z</time></trkpt><trkpt lat="47.82984512316954" lon="-1.6616796271701226"><ele>99.0</ele><time>2026-03-22T14:33:33.999Z</time></trkpt><trkpt lat="47.82986171043168" lon="-1.6615105090115316"><ele>99.5</ele><time>2026-03-22T14:33:34.999Z</time></trkpt><trkpt lat="47.82988038313859" lon="-1.6613415796917226"><ele>100.0</ele><time>2026-03-22T14:33:35.999Z</time></trkpt><trkpt lat="47.829897932475255" lon="-1.6611591856399592"><ele>100.75</ele><time>2026-03-22T14:33:36.999Z</time></trkpt><trkpt lat="47.829910631279056" lon="-1.6609766966424957"><ele>101.5</ele><time>2026-03-22T14:33:37.999Z</time></trkpt><trkpt lat="47.829933475341264" lon="-1.660796850897582"><ele>102.25</ele><time>2026-03-22T14:33:38.999Z</time></trkpt><trkpt lat="47.82996553440715" lon="-1.6606156122811981"><ele>103.0</ele><time>2026-03-22T14:33:39.999Z</time></trkpt><trkpt lat="47.829992755960376" lon="-1.6604191695611599"><ele>103.75</ele><time>2026-03-22T14:33:40.999Z</time></trkpt><trkpt lat="47.83000902542814" lon="-1.6602285780602106"><ele>104.5</ele><time>2026-03-22T14:33:41.999Z</time></trkpt><trkpt lat="47.8300258169313" lon="-1.6600282946637033"><ele>105.25</ele><time>2026-03-22T14:33:42.999Z</time></trkpt><trkpt lat="47.83005952266929" lon="-1.6598339816062926"><ele>106.0</ele><time>2026-03-22T14:33:43.999Z</time></trkpt><trkpt lat="47.83008100525391" lon="-1.659631604760478"><ele>106.4</ele><time>2026-03-22T14:33:44.999Z</time></trkpt><trkpt lat="47.8300965158037" lon="-1.6594298746649079"><ele>106.8</ele><time>2026-03-22T14:33:45.999Z</time></trkpt><trkpt lat="47.83010704073763" lon="-1.6592580162266248"><ele>107.20000000000002</ele><time>2026-03-22T14:33:46.999Z</time></trkpt><trkpt lat="47.83011376853614" lon="-1.6590775516413852"><ele>107.60000000000001</ele><time>2026-03-22T14:33:47.999Z</time></trkpt><trkpt lat="47.83013540860266" lon="-1.6589721889016968"><ele>108.0</ele><time>2026-03-22T14:33:48.999Z</time></trkpt><trkpt lat="47.830125305943056" lon="-1.6588490725310365"><ele>108.0</ele><time>2026-03-22T14:33:49.999Z</time></trkpt><trkpt lat="47.830112255811436" lon="-1.6587206136412362"><ele>108.00000000000001</ele><time>2026-03-22T14:33:50.999Z</time></trkpt><trkpt lat="47.830144512952316" lon="-1.6585854002010079"><ele>108.00000000000001</ele><time>2026-03-22T14:33:51.999Z</time></trkpt><trkpt lat="47.830179139218295" lon="-1.6584435860032138"><ele>108.0</ele><time>2026-03-22T14:33:52.999Z</time></trkpt><trkpt lat="47.830220885957544" lon="-1.6582992634411935"><ele>108.0</ele><time>2026-03-22T14:33:53.999Z</time></trkpt><trkpt lat="47.83025994359852" lon="-1.658179456702888"><ele>108.16666666666667</ele><time>2026-03-22T14:33:54.999Z</time></trkpt><trkpt lat="47.830294298508086" lon="-1.6580878268027666"><ele>108.33333333333334</ele><time>2026-03-22T14:33:55.999Z</time></trkpt><trkpt lat="47.83034761310765" lon="-1.6579973582735856"><ele>108.5</ele><time>2026-03-22T14:33:57.999Z</time></trkpt><trkpt lat="47.83031235251058" lon="-1.657863556328897"><ele>108.66666666666667</ele><time>2026-03-22T14:34:07.998Z</time></trkpt><trkpt lat="47.83026385939216" lon="-1.6577845276502512"><ele>108.83333333333334</ele><time>2026-03-22T14:34:09.998Z</time></trkpt><trkpt lat="47.83029743763168" lon="-1.6576637020935507"><ele>109.0</ele><time>2026-03-22T14:34:11.998Z</time></trkpt><trkpt lat="47.83033588389968" lon="-1.6575279914046448"><ele>109.0</ele><time>2026-03-22T14:34:13.998Z</time></trkpt><trkpt lat="47.83035605102363" lon="-1.6573535550281735"><ele>109.0</ele><time>2026-03-22T14:34:15.998Z</time></trkpt><trkpt lat="47.830383784390655" lon="-1.6571824005088038"><ele>109.0</ele><time>2026-03-22T14:34:18Z</time></trkpt><trkpt lat="47.83040497739515" lon="-1.656991995702089"><ele>109.0</ele><time>2026-03-22T14:34:20Z</time></trkpt><trkpt lat="47.830419911653465" lon="-1.6568815417931062"><ele>109.0</ele><time>2026-03-22T14:34:21Z</time></trkpt><trkpt lat="47.83044548937489" lon="-1.6567576347828825"><ele>109.0</ele><time>2026-03-22T14:34:22Z</time></trkpt><trkpt lat="47.830473564231305" lon="-1.6566324972965376"><ele>109.0</ele><time>2026-03-22T14:34:23Z</time></trkpt><trkpt lat="47.83049952557119" lon="-1.656492417367162"><ele>109.0</ele><time>2026-03-22T14:34:24Z</time></trkpt><trkpt lat="47.830538144004706" lon="-1.656337369794441"><ele>109.0</ele><time>2026-03-22T14:34:25Z</time></trkpt><trkpt lat="47.83058291445732" lon="-1.6561738031605846"><ele>109.0</ele><time>2026-03-22T14:34:26Z</time></trkpt><trkpt lat="47.830621769296386" lon="-1.6560238358642305"><ele>109.25</ele><time>2026-03-22T14:34:27Z</time></trkpt><trkpt lat="47.83065692228004" lon="-1.655866442992406"><ele>109.5</ele><time>2026-03-22T14:34:28Z</time></trkpt><trkpt lat="47.8306942146436" lon="-1.6556982288157438"><ele>109.75</ele><time>2026-03-22T14:34:29Z</time></trkpt><trkpt lat="47.83068822751333" lon="-1.6555367670098433"><ele>110.0</ele><time>2026-03-22T14:34:30Z</time></trkpt><trkpt lat="47.83069907850329" lon="-1.6553635752075762"><ele>110.25</ele><time>2026-03-22T14:34:31Z</time></trkpt><trkpt lat="47.83073116986457" lon="-1.6551986442547701"><ele>110.5</ele><time>2026-03-22T14:34:32Z</time></trkpt><trkpt lat="47.8307582035019" lon="-1.655028856994355"><ele>110.75</ele><time>2026-03-22T14:34:33Z</time></trkpt><trkpt lat="47.83077962919065" lon="-1.6548612148061481"><ele>111.0</ele><time>2026-03-22T14:34:34Z</time></trkpt><trkpt lat="47.83079031431969" lon="-1.654704323108151"><ele>111.0</ele><time>2026-03-22T14:34:35Z</time></trkpt><trkpt lat="47.830797696698944" lon="-1.6545173190290239"><ele>111.0</ele><time>2026-03-22T14:34:36Z</time></trkpt><trkpt lat="47.830800097002" lon="-1.6543446030017763"><ele>111.0</ele><time>2026-03-22T14:34:37Z</time></trkpt><trkpt lat="47.83080552502953" lon="-1.6541727731034834"><ele>111.0</ele><time>2026-03-22T14:34:38Z</time></trkpt><trkpt lat="47.830812781119704" lon="-1.6540199542691583"><ele>111.0</ele><time>2026-03-22T14:34:39Z</time></trkpt><trkpt lat="47.830824025644006" lon="-1.6538513032187776"><ele>111.0</ele><time>2026-03-22T14:34:40Z</time></trkpt><trkpt lat="47.83083416161194" lon="-1.6536730819907575"><ele>111.0</ele><time>2026-03-22T14:34:41Z</time></trkpt><trkpt lat="47.83085215281431" lon="-1.653504496000319"><ele>111.0</ele><time>2026-03-22T14:34:42Z</time></trkpt><trkpt lat="47.83088592088696" lon="-1.6533169219892492"><ele>111.0</ele><time>2026-03-22T14:34:43Z</time></trkpt><trkpt lat="47.830884028961094" lon="-1.6531366721871459"><ele>111.0</ele><time>2026-03-22T14:34:44Z</time></trkpt><trkpt lat="47.830897183193606" lon="-1.652944663015297"><ele>111.0</ele><time>2026-03-22T14:34:45Z</time></trkpt><trkpt lat="47.83088998535429" lon="-1.6527562722996445"><ele>111.0</ele><time>2026-03-22T14:34:46Z</time></trkpt><trkpt lat="47.830891868017304" lon="-1.6525766372988198"><ele>110.75</ele><time>2026-03-22T14:34:47Z</time></trkpt><trkpt lat="47.830871920369" lon="-1.652382594326065"><ele>110.5</ele><time>2026-03-22T14:34:48Z</time></trkpt><trkpt lat="47.83085546597639" lon="-1.6521900944134142"><ele>110.25</ele><time>2026-03-22T14:34:49Z</time></trkpt><trkpt lat="47.83084745419144" lon="-1.6519925476020292"><ele>110.0</ele><time>2026-03-22T14:34:50Z</time></trkpt><trkpt lat="47.83081579333949" lon="-1.6517665612150183"><ele>110.25</ele><time>2026-03-22T14:34:51Z</time></trkpt><trkpt lat="47.83085136549557" lon="-1.6515543921204638"><ele>110.5</ele><time>2026-03-22T14:34:52Z</time></trkpt><trkpt lat="47.8308514775727" lon="-1.651347494311147"><ele>110.75</ele><time>2026-03-22T14:34:53Z</time></trkpt><trkpt lat="47.830849154965826" lon="-1.6511404881048457"><ele>111.0</ele><time>2026-03-22T14:34:54Z</time></trkpt><trkpt lat="47.8308433359242" lon="-1.6509409036661378"><ele>111.0</ele><time>2026-03-22T14:34:55Z</time></trkpt><trkpt lat="47.83084792699119" lon="-1.6507553693249455"><ele>111.0</ele><time>2026-03-22T14:34:56Z</time></trkpt><trkpt lat="47.830836967423366" lon="-1.650547106038022"><ele>111.0</ele><time>2026-03-22T14:34:57Z</time></trkpt><trkpt lat="47.830821982336175" lon="-1.6503521336633997"><ele>111.0</ele><time>2026-03-22T14:34:58Z</time></trkpt><trkpt lat="47.83081041119041" lon="-1.6501752174727875"><ele>110.6</ele><time>2026-03-22T14:34:59Z</time></trkpt><trkpt lat="47.83080458538644" lon="-1.6499902111655014"><ele>110.19999999999999</ele><time>2026-03-22T14:35:00Z</time></trkpt><trkpt lat="47.83081378259777" lon="-1.6498266597319253"><ele>109.80000000000001</ele><time>2026-03-22T14:35:01Z</time></trkpt><trkpt lat="47.83079740661909" lon="-1.6496616185800006"><ele>109.4</ele><time>2026-03-22T14:35:02Z</time></trkpt><trkpt lat="47.83077776952756" lon="-1.6495164741040715"><ele>109.0</ele><time>2026-03-22T14:35:03Z</time></trkpt><trkpt lat="47.830752146083256" lon="-1.6493234568205697"><ele>109.0</ele><time>2026-03-22T14:35:04Z</time></trkpt><trkpt lat="47.83073468777748" lon="-1.6491557692841345"><ele>109.0</ele><time>2026-03-22T14:35:05Z</time></trkpt><trkpt lat="47.83070260276767" lon="-1.6489756685679875"><ele>109.0</ele><time>2026-03-22T14:35:06Z</time></trkpt><trkpt lat="47.83067667904457" lon="-1.6487687342390505"><ele>109.0</ele><time>2026-03-22T14:35:06.999Z</time></trkpt><trkpt lat="47.83064850270895" lon="-1.6485667529908141"><ele>109.0</ele><time>2026-03-22T14:35:07.999Z</time></trkpt><trkpt lat="47.83061834175432" lon="-1.6483793234520805"><ele>109.0</ele><time>2026-03-22T14:35:08.999Z</time></trkpt><trkpt lat="47.8305861205548" lon="-1.6481809624964125"><ele>109.0</ele><time>2026-03-22T14:35:09.999Z</time></trkpt><trkpt lat="47.83053347693913" lon="-1.6480133102848433"><ele>109.0</ele><time>2026-03-22T14:35:10.999Z</time></trkpt><trkpt lat="47.83051964487785" lon="-1.6478301623167464"><ele>109.0</ele><time>2026-03-22T14:35:11.999Z</time></trkpt><trkpt lat="47.83048733505524" lon="-1.647636295709142"><ele>109.0</ele><time>2026-03-22T14:35:12.999Z</time></trkpt><trkpt lat="47.83045959460696" lon="-1.6474623807785114"><ele>109.0</ele><time>2026-03-22T14:35:13.999Z</time></trkpt><trkpt lat="47.83043466237934" lon="-1.6473005915021652"><ele>109.0</ele><time>2026-03-22T14:35:14.999Z</time></trkpt><trkpt lat="47.83040464811328" lon="-1.647136991143728"><ele>109.00000000000001</ele><time>2026-03-22T14:35:15.999Z</time></trkpt><trkpt lat="47.830383486565076" lon="-1.646998331288229"><ele>109.0</ele><time>2026-03-22T14:35:16.999Z</time></trkpt><trkpt lat="47.830357818178136" lon="-1.6468695641774809"><ele>109.0</ele><time>2026-03-22T14:35:17.999Z</time></trkpt><trkpt lat="47.83033670370833" lon="-1.6467423153950118"><ele>109.0</ele><time>2026-03-22T14:35:18.999Z</time></trkpt><trkpt lat="47.830307956695414" lon="-1.646632373424687"><ele>109.00000000000001</ele><time>2026-03-22T14:35:19.999Z</time></trkpt><trkpt lat="47.830286735159135" lon="-1.6465329916891376"><ele>109.0</ele><time>2026-03-22T14:35:20.999Z</time></trkpt><trkpt lat="47.83012064282372" lon="-1.646435619713029"><ele>109.0</ele><time>2026-03-22T14:35:22.999Z</time></trkpt><trkpt lat="47.83007661283611" lon="-1.6462197353586836"><ele>109.0</ele><time>2026-03-22T14:35:36.999Z</time></trkpt><trkpt lat="47.830055797144105" lon="-1.6460368555689753"><ele>109.0</ele><time>2026-03-22T14:35:38.999Z</time></trkpt><trkpt lat="47.83002169964655" lon="-1.6459176557445356"><ele>109.0</ele><time>2026-03-22T14:35:39.999Z</time></trkpt><trkpt lat="47.82997629404278" lon="-1.645773639828197"><ele>109.0</ele><time>2026-03-22T14:35:40.999Z</time></trkpt><trkpt lat="47.82992767677577" lon="-1.6456262027351896"><ele>109.0</ele><time>2026-03-22T14:35:41.999Z</time></trkpt><trkpt lat="47.82990701076675" lon="-1.645473425157704"><ele>109.0</ele><time>2026-03-22T14:35:42.999Z</time></trkpt><trkpt lat="47.829865443916106" lon="-1.6452696259205677"><ele>109.0</ele><time>2026-03-22T14:35:43.999Z</time></trkpt><trkpt lat="47.829818537236804" lon="-1.6450384368007616"><ele>109.0</ele><time>2026-03-22T14:35:44.999Z</time></trkpt><trkpt lat="47.82976763511119" lon="-1.6447868025901209"><ele>109.0</ele><time>2026-03-22T14:35:45.999Z</time></trkpt><trkpt lat="47.82972145427703" lon="-1.644558507778013"><ele>109.0</ele><time>2026-03-22T14:35:46.999Z</time></trkpt><trkpt lat="47.82968149270848" lon="-1.6443609593513488"><ele>108.6</ele><time>2026-03-22T14:35:47.999Z</time></trkpt><trkpt lat="47.829644721173125" lon="-1.644179178801595"><ele>108.2</ele><time>2026-03-22T14:35:48.999Z</time></trkpt><trkpt lat="47.82961610464691" lon="-1.6440413171472112"><ele>107.79999999999998</ele><time>2026-03-22T14:35:49.999Z</time></trkpt><trkpt lat="47.82958408846004" lon="-1.6439409953523558"><ele>107.39999999999999</ele><time>2026-03-22T14:35:50.999Z</time></trkpt><trkpt lat="47.829557520053235" lon="-1.6437677692442039"><ele>107.0</ele><time>2026-03-22T14:35:52.999Z</time></trkpt><trkpt lat="47.82953801858909" lon="-1.64367782144388"><ele>107.5</ele><time>2026-03-22T14:35:53.999Z</time></trkpt><trkpt lat="47.82951013067231" lon="-1.6435704291422415"><ele>108.0</ele><time>2026-03-22T14:35:55.999Z</time></trkpt><trkpt lat="47.829095206381766" lon="-1.6436768787275196"><ele>107.25</ele><time>2026-03-22T14:35:56.999Z</time></trkpt><trkpt lat="47.828957849819425" lon="-1.643649979722235"><ele>106.5</ele><time>2026-03-22T14:35:57.999Z</time></trkpt><trkpt lat="47.828823470568494" lon="-1.6436210070428996"><ele>105.75</ele><time>2026-03-22T14:35:58.999Z</time></trkpt><trkpt lat="47.82869576728555" lon="-1.6435968633416769"><ele>105.0</ele><time>2026-03-22T14:35:59.999Z</time></trkpt><trkpt lat="47.828569225303816" lon="-1.6435682604141244"><ele>105.0</ele><time>2026-03-22T14:36:00.999Z</time></trkpt><trkpt lat="47.828434441396084" lon="-1.6435347357123185"><ele>105.0</ele><time>2026-03-22T14:36:01.999Z</time></trkpt><trkpt lat="47.828299140954464" lon="-1.6435019581995178"><ele>105.0</ele><time>2026-03-22T14:36:02.999Z</time></trkpt><trkpt lat="47.82815895178092" lon="-1.6434717652586295"><ele>105.0</ele><time>2026-03-22T14:36:03.999Z</time></trkpt><trkpt lat="47.82801764115271" lon="-1.6434362065480101"><ele>105.0</ele><time>2026-03-22T14:36:04.999Z</time></trkpt><trkpt lat="47.82788112567669" lon="-1.6434068088581122"><ele>105.0</ele><time>2026-03-22T14:36:05.999Z</time></trkpt><trkpt lat="47.82774737376279" lon="-1.6433758828067644"><ele>105.0</ele><time>2026-03-22T14:36:06.999Z</time></trkpt><trkpt lat="47.82761850444151" lon="-1.6433517130366564"><ele>105.0</ele><time>2026-03-22T14:36:07.999Z</time></trkpt><trkpt lat="47.8274776936032" lon="-1.6433232033354819"><ele>105.0</ele><time>2026-03-22T14:36:08.999Z</time></trkpt><trkpt lat="47.82733403881467" lon="-1.6432770581028673"><ele>105.0</ele><time>2026-03-22T14:36:09.999Z</time></trkpt><trkpt lat="47.82718607067602" lon="-1.6432473793844302"><ele>105.0</ele><time>2026-03-22T14:36:10.999Z</time></trkpt><trkpt lat="47.82702800013532" lon="-1.6432132823996846"><ele>105.0</ele><time>2026-03-22T14:36:11.999Z</time></trkpt><trkpt lat="47.826880293676" lon="-1.6431784359995925"><ele>105.0</ele><time>2026-03-22T14:36:12.999Z</time></trkpt><trkpt lat="47.82676010666299" lon="-1.6431431986395302"><ele>105.0</ele><time>2026-03-22T14:36:13.999Z</time></trkpt><trkpt lat="47.82663827043228" lon="-1.6431137445665607"><ele>105.0</ele><time>2026-03-22T14:36:14.999Z</time></trkpt><trkpt lat="47.826532529132116" lon="-1.6430889286604011"><ele>105.0</ele><time>2026-03-22T14:36:15.998Z</time></trkpt><trkpt lat="47.826443069643304" lon="-1.643071997290018"><ele>105.0</ele><time>2026-03-22T14:36:16.998Z</time></trkpt><trkpt lat="47.82636240631889" lon="-1.6430497346289406"><ele>105.0</ele><time>2026-03-22T14:36:17.998Z</time></trkpt><trkpt lat="47.82629792756731" lon="-1.6430266727209464"><ele>105.0</ele><time>2026-03-22T14:36:18.998Z</time></trkpt><trkpt lat="47.82619546840455" lon="-1.6430032842552518"><ele>105.0</ele><time>2026-03-22T14:36:20.998Z</time></trkpt><trkpt lat="47.82612407491066" lon="-1.6429964010163833"><ele>105.0</ele><time>2026-03-22T14:36:23Z</time></trkpt><trkpt lat="47.82620521649387" lon="-1.6430009439508375"><ele>105.0</ele><time>2026-03-22T14:37:11Z</time></trkpt><trkpt lat="47.826339949081216" lon="-1.6430065795230973"><ele>105.0</ele><time>2026-03-22T14:37:13Z</time></trkpt><trkpt lat="47.826430048500725" lon="-1.6430360693052741"><ele>105.0</ele><time>2026-03-22T14:37:14Z</time></trkpt><trkpt lat="47.82651406149374" lon="-1.643054765522123"><ele>105.0</ele><time>2026-03-22T14:37:15Z</time></trkpt><trkpt lat="47.826612217077894" lon="-1.6430709256814873"><ele>105.0</ele><time>2026-03-22T14:37:16Z</time></trkpt><trkpt lat="47.826717286605046" lon="-1.6430978475025575"><ele>105.0</ele><time>2026-03-22T14:37:17Z</time></trkpt><trkpt lat="47.8268354734536" lon="-1.64311913064338"><ele>105.0</ele><time>2026-03-22T14:37:17.999Z</time></trkpt><trkpt lat="47.826955437912524" lon="-1.6431459296569535"><ele>105.0</ele><time>2026-03-22T14:37:18.999Z</time></trkpt><trkpt lat="47.82709257742561" lon="-1.6431696871856671"><ele>105.0</ele><time>2026-03-22T14:37:19.999Z</time></trkpt><trkpt lat="47.82724748126204" lon="-1.6432009086176411"><ele>105.0</ele><time>2026-03-22T14:37:20.999Z</time></trkpt><trkpt lat="47.82741671143291" lon="-1.6432342559835473"><ele>105.0</ele><time>2026-03-22T14:37:21.999Z</time></trkpt><trkpt lat="47.82759238667928" lon="-1.6432800258308833"><ele>105.0</ele><time>2026-03-22T14:37:22.999Z</time></trkpt><trkpt lat="47.82778363621847" lon="-1.643324195946689"><ele>105.0</ele><time>2026-03-22T14:37:23.999Z</time></trkpt><trkpt lat="47.82797393227966" lon="-1.6433760172930245"><ele>105.0</ele><time>2026-03-22T14:37:24.999Z</time></trkpt><trkpt lat="47.82817777472299" lon="-1.643422363397515"><ele>105.0</ele><time>2026-03-22T14:37:25.999Z</time></trkpt><trkpt lat="47.82837053536679" lon="-1.6434642367120418"><ele>104.66666666666666</ele><time>2026-03-22T14:37:26.999Z</time></trkpt><trkpt lat="47.82854469810647" lon="-1.6434983218771602"><ele>104.33333333333333</ele><time>2026-03-22T14:37:27.999Z</time></trkpt><trkpt lat="47.8286894899345" lon="-1.6435158492835944"><ele>104.0</ele><time>2026-03-22T14:37:28.999Z</time></trkpt><trkpt lat="47.8288173069235" lon="-1.643541408076128"><ele>104.0</ele><time>2026-03-22T14:37:29.999Z</time></trkpt><trkpt lat="47.82893791482858" lon="-1.6435808886687895"><ele>104.0</ele><time>2026-03-22T14:37:30.999Z</time></trkpt><trkpt lat="47.82904744039062" lon="-1.6436147153860694"><ele>104.0</ele><time>2026-03-22T14:37:31.999Z</time></trkpt><trkpt lat="47.829148121604774" lon="-1.6436376868378"><ele>104.0</ele><time>2026-03-22T14:37:32.999Z</time></trkpt><trkpt lat="47.82924345251784" lon="-1.6436597945203857"><ele>104.0</ele><time>2026-03-22T14:37:33.999Z</time></trkpt><trkpt lat="47.829327652296286" lon="-1.6436816871667"><ele>104.6</ele><time>2026-03-22T14:37:34.999Z</time></trkpt><trkpt lat="47.82940097569754" lon="-1.6437017850213735"><ele>105.2</ele><time>2026-03-22T14:37:35.999Z</time></trkpt><trkpt lat="47.829506083113124" lon="-1.64372458326076"><ele>105.79999999999998</ele><time>2026-03-22T14:37:37.999Z</time></trkpt><trkpt lat="47.829556020599476" lon="-1.6436310170302337"><ele>106.39999999999999</ele><time>2026-03-22T14:37:39.999Z</time></trkpt><trkpt lat="47.82955685861806" lon="-1.6434698506720815"><ele>107.0</ele><time>2026-03-22T14:37:41.999Z</time></trkpt><trkpt lat="47.829525352991354" lon="-1.6433464324575942"><ele>107.25</ele><time>2026-03-22T14:37:42.999Z</time></trkpt><trkpt lat="47.82949157778102" lon="-1.6431967234930542"><ele>107.5</ele><time>2026-03-22T14:37:43.999Z</time></trkpt><trkpt lat="47.82944733344275" lon="-1.643019843755488"><ele>107.75</ele><time>2026-03-22T14:37:44.999Z</time></trkpt><trkpt lat="47.82939189757374" lon="-1.642859303346232"><ele>108.0</ele><time>2026-03-22T14:37:45.999Z</time></trkpt><trkpt lat="47.82936372751328" lon="-1.6427193360901489"><ele>107.5</ele><time>2026-03-22T14:37:46.999Z</time></trkpt><trkpt lat="47.829334766547355" lon="-1.64257370122028"><ele>107.0</ele><time>2026-03-22T14:37:47.999Z</time></trkpt><trkpt lat="47.82930252781953" lon="-1.6424115837555633"><ele>106.5</ele><time>2026-03-22T14:37:48.999Z</time></trkpt><trkpt lat="47.829268834231236" lon="-1.642242150283041"><ele>106.0</ele><time>2026-03-22T14:37:49.999Z</time></trkpt><trkpt lat="47.829245881402244" lon="-1.6420493438006971"><ele>105.25</ele><time>2026-03-22T14:37:50.999Z</time></trkpt><trkpt lat="47.82919783974325" lon="-1.6418604271900934"><ele>104.5</ele><time>2026-03-22T14:37:51.999Z</time></trkpt><trkpt lat="47.8291576483039" lon="-1.641661805243577"><ele>103.75</ele><time>2026-03-22T14:37:52.999Z</time></trkpt><trkpt lat="47.82911744693294" lon="-1.6414586559437403"><ele>103.0</ele><time>2026-03-22T14:37:53.999Z</time></trkpt><trkpt lat="47.829080167191464" lon="-1.6412747768178562"><ele>102.66666666666667</ele><time>2026-03-22T14:37:54.999Z</time></trkpt><trkpt lat="47.82902737431122" lon="-1.6410504983125551"><ele>102.33333333333334</ele><time>2026-03-22T14:37:55.999Z</time></trkpt><trkpt lat="47.82897679441493" lon="-1.6408359823884202"><ele>102.0</ele><time>2026-03-22T14:37:56.999Z</time></trkpt><trkpt lat="47.82892617804151" lon="-1.640584552029971"><ele>102.0</ele><time>2026-03-22T14:37:57.999Z</time></trkpt><trkpt lat="47.82888308365191" lon="-1.6403356869867827"><ele>102.0</ele><time>2026-03-22T14:37:58.999Z</time></trkpt><trkpt lat="47.828832449757854" lon="-1.6400806549847675"><ele>102.0</ele><time>2026-03-22T14:37:59.999Z</time></trkpt><trkpt lat="47.82878728718611" lon="-1.6398242400706597"><ele>102.0</ele><time>2026-03-22T14:38:00.999Z</time></trkpt><trkpt lat="47.828729084268886" lon="-1.6395938293205432"><ele>102.0</ele><time>2026-03-22T14:38:01.999Z</time></trkpt><trkpt lat="47.82868347945644" lon="-1.6393678247847072"><ele>102.0</ele><time>2026-03-22T14:38:02.999Z</time></trkpt><trkpt lat="47.828642664577195" lon="-1.639165557755602"><ele>101.75</ele><time>2026-03-22T14:38:03.999Z</time></trkpt><trkpt lat="47.8285953542774" lon="-1.6389311013567631"><ele>101.5</ele><time>2026-03-22T14:38:04.999Z</time></trkpt><trkpt lat="47.82857076582255" lon="-1.6388106062166816"><ele>101.25</ele><time>2026-03-22T14:38:05.999Z</time></trkpt><trkpt lat="47.828533092678114" lon="-1.6386281337946482"><ele>101.0</ele><time>2026-03-22T14:38:06.999Z</time></trkpt><trkpt lat="47.82849938540863" lon="-1.6384723898251388"><ele>100.66666666666666</ele><time>2026-03-22T14:38:07.999Z</time></trkpt><trkpt lat="47.82846258021222" lon="-1.638334125247785"><ele>100.33333333333333</ele><time>2026-03-22T14:38:08.999Z</time></trkpt><trkpt lat="47.82842334160934" lon="-1.6382202317374042"><ele>100.0</ele><time>2026-03-22T14:38:09.999Z</time></trkpt><trkpt lat="47.82837200323975" lon="-1.638149947915865"><ele>99.66666666666666</ele><time>2026-03-22T14:38:10.999Z</time></trkpt><trkpt lat="47.82830836514738" lon="-1.638062173843315"><ele>99.33333333333333</ele><time>2026-03-22T14:38:11.999Z</time></trkpt><trkpt lat="47.82822870748454" lon="-1.6380084590516741"><ele>99.0</ele><time>2026-03-22T14:38:12.999Z</time></trkpt><trkpt lat="47.828114608999954" lon="-1.637955481719352"><ele>99.0</ele><time>2026-03-22T14:38:13.999Z</time></trkpt><trkpt lat="47.827987158606554" lon="-1.6379595888634908"><ele>99.0</ele><time>2026-03-22T14:38:14.999Z</time></trkpt><trkpt lat="47.8278461568413" lon="-1.6379565429340242"><ele>99.0</ele><time>2026-03-22T14:38:15.999Z</time></trkpt><trkpt lat="47.82768349722486" lon="-1.637954535894851"><ele>99.0</ele><time>2026-03-22T14:38:16.999Z</time></trkpt><trkpt lat="47.8275231569735" lon="-1.6379525574759934"><ele>99.66666666666666</ele><time>2026-03-22T14:38:17.999Z</time></trkpt><trkpt lat="47.827355452303856" lon="-1.6379502890744462"><ele>100.33333333333333</ele><time>2026-03-22T14:38:18.999Z</time></trkpt><trkpt lat="47.82718379422222" lon="-1.6379228683366538"><ele>101.0</ele><time>2026-03-22T14:38:19.999Z</time></trkpt><trkpt lat="47.827025632631475" lon="-1.6379210425531336"><ele>101.0</ele><time>2026-03-22T14:38:20.999Z</time></trkpt><trkpt lat="47.8268606392583" lon="-1.637913840080327"><ele>101.0</ele><time>2026-03-22T14:38:21.999Z</time></trkpt><trkpt lat="47.82669211074639" lon="-1.6379114564628554"><ele>101.0</ele><time>2026-03-22T14:38:22.999Z</time></trkpt><trkpt lat="47.82651326015183" lon="-1.6379053148477536"><ele>101.66666666666666</ele><time>2026-03-22T14:38:23.999Z</time></trkpt><trkpt lat="47.82633079345219" lon="-1.637897842347563"><ele>102.33333333333334</ele><time>2026-03-22T14:38:24.999Z</time></trkpt><trkpt lat="47.82614442203677" lon="-1.6378948549094359"><ele>103.0</ele><time>2026-03-22T14:38:25.998Z</time></trkpt><trkpt lat="47.82595408969759" lon="-1.6378940856916122"><ele>103.33333333333334</ele><time>2026-03-22T14:38:26.998Z</time></trkpt><trkpt lat="47.82575621948854" lon="-1.637895926932237"><ele>103.66666666666666</ele><time>2026-03-22T14:38:27.998Z</time></trkpt><trkpt lat="47.82557662236142" lon="-1.6378875120377094"><ele>104.0</ele><time>2026-03-22T14:38:29Z</time></trkpt><trkpt lat="47.82541173839697" lon="-1.6378853181007067"><ele>104.0</ele><time>2026-03-22T14:38:30Z</time></trkpt><trkpt lat="47.8252731053295" lon="-1.6378986002989377"><ele>104.0</ele><time>2026-03-22T14:38:31Z</time></trkpt><trkpt lat="47.82514760484105" lon="-1.637877660590652"><ele>104.0</ele><time>2026-03-22T14:38:32Z</time></trkpt><trkpt lat="47.825017062471055" lon="-1.6378821213601937"><ele>104.0</ele><time>2026-03-22T14:38:33Z</time></trkpt><trkpt lat="47.82489156239273" lon="-1.63786832387464"><ele>104.0</ele><time>2026-03-22T14:38:34Z</time></trkpt><trkpt lat="47.824771726506064" lon="-1.637888823083355"><ele>104.0</ele><time>2026-03-22T14:38:35Z</time></trkpt><trkpt lat="47.82467045355657" lon="-1.6378623880422125"><ele>104.0</ele><time>2026-03-22T14:38:36Z</time></trkpt><trkpt lat="47.82456848315707" lon="-1.637878714545739"><ele>104.0</ele><time>2026-03-22T14:38:37Z</time></trkpt><trkpt lat="47.82447683290339" lon="-1.6378567783745923"><ele>104.0</ele><time>2026-03-22T14:38:38Z</time></trkpt><trkpt lat="47.824388695461245" lon="-1.6378034525903775"><ele>104.2</ele><time>2026-03-22T14:38:39Z</time></trkpt><trkpt lat="47.8243151186215" lon="-1.6377552434922926"><ele>104.4</ele><time>2026-03-22T14:38:40Z</time></trkpt><trkpt lat="47.82422755550565" lon="-1.6377232828182258"><ele>104.6</ele><time>2026-03-22T14:38:41Z</time></trkpt><trkpt lat="47.8241314525275" lon="-1.6377136898541111"><ele>104.8</ele><time>2026-03-22T14:38:42Z</time></trkpt><trkpt lat="47.82403142078176" lon="-1.6377083877145677"><ele>105.0</ele><time>2026-03-22T14:38:43Z</time></trkpt><trkpt lat="47.82391275604932" lon="-1.6377043761144603"><ele>104.5</ele><time>2026-03-22T14:38:44Z</time></trkpt><trkpt lat="47.823804133165694" lon="-1.6376930478751"><ele>104.0</ele><time>2026-03-22T14:38:45Z</time></trkpt><trkpt lat="47.82368433701716" lon="-1.6376761121811083"><ele>103.5</ele><time>2026-03-22T14:38:46Z</time></trkpt><trkpt lat="47.82356259848467" lon="-1.6376701041536166"><ele>103.0</ele><time>2026-03-22T14:38:47Z</time></trkpt><trkpt lat="47.8234398725396" lon="-1.6376896778913137"><ele>101.5</ele><time>2026-03-22T14:38:48Z</time></trkpt><trkpt lat="47.82330810524653" lon="-1.637685005698512"><ele>100.0</ele><time>2026-03-22T14:38:49Z</time></trkpt><trkpt lat="47.82317054743199" lon="-1.6376752506546794"><ele>98.5</ele><time>2026-03-22T14:38:50Z</time></trkpt><trkpt lat="47.823045702927494" lon="-1.6376586473099926"><ele>97.0</ele><time>2026-03-22T14:38:51Z</time></trkpt><trkpt lat="47.82292466237499" lon="-1.6376573702766637"><ele>97.0</ele><time>2026-03-22T14:38:52Z</time></trkpt><trkpt lat="47.822804987753734" lon="-1.637656535280166"><ele>97.0</ele><time>2026-03-22T14:38:53Z</time></trkpt><trkpt lat="47.822693238982644" lon="-1.6376524415084386"><ele>97.0</ele><time>2026-03-22T14:38:54Z</time></trkpt><trkpt lat="47.822577084659194" lon="-1.6376488260278563"><ele>97.0</ele><time>2026-03-22T14:38:55Z</time></trkpt><trkpt lat="47.822465451424904" lon="-1.6376461027302995"><ele>95.8</ele><time>2026-03-22T14:38:56Z</time></trkpt><trkpt lat="47.822353312646634" lon="-1.6376395619839668"><ele>94.6</ele><time>2026-03-22T14:38:57Z</time></trkpt><trkpt lat="47.822254813044204" lon="-1.6376273937793344"><ele>93.39999999999999</ele><time>2026-03-22T14:38:58Z</time></trkpt><trkpt lat="47.822147570626136" lon="-1.63761893439893"><ele>92.19999999999999</ele><time>2026-03-22T14:38:59Z</time></trkpt><trkpt lat="47.822048799123856" lon="-1.6376189663101162"><ele>91.0</ele><time>2026-03-22T14:39:00Z</time></trkpt><trkpt lat="47.82194801835394" lon="-1.6376112661374"><ele>91.0</ele><time>2026-03-22T14:39:01Z</time></trkpt><trkpt lat="47.82184599002007" lon="-1.6376086200529625"><ele>91.0</ele><time>2026-03-22T14:39:02Z</time></trkpt><trkpt lat="47.82174243036619" lon="-1.6376073455173585"><ele>91.0</ele><time>2026-03-22T14:39:03Z</time></trkpt><trkpt lat="47.8216346900714" lon="-1.6375978289725017"><ele>91.0</ele><time>2026-03-22T14:39:04Z</time></trkpt><trkpt lat="47.82153103948325" lon="-1.637597129846336"><ele>91.0</ele><time>2026-03-22T14:39:05Z</time></trkpt><trkpt lat="47.82142585552335" lon="-1.6375952526594697"><ele>89.75</ele><time>2026-03-22T14:39:06Z</time></trkpt><trkpt lat="47.82130814327783" lon="-1.6375904185637897"><ele>88.5</ele><time>2026-03-22T14:39:07Z</time></trkpt><trkpt lat="47.821194599947844" lon="-1.6375839244182455"><ele>87.25</ele><time>2026-03-22T14:39:08Z</time></trkpt><trkpt lat="47.82107118466212" lon="-1.6375721914286936"><ele>86.0</ele><time>2026-03-22T14:39:09Z</time></trkpt><trkpt lat="47.82095097208471" lon="-1.6375636261732733"><ele>84.75</ele><time>2026-03-22T14:39:10Z</time></trkpt><trkpt lat="47.82083973510983" lon="-1.6375533863833265"><ele>83.5</ele><time>2026-03-22T14:39:11Z</time></trkpt><trkpt lat="47.820730670647755" lon="-1.637546945508462"><ele>82.25</ele><time>2026-03-22T14:39:12Z</time></trkpt><trkpt lat="47.82061071957052" lon="-1.6375359018231528"><ele>81.0</ele><time>2026-03-22T14:39:13Z</time></trkpt><trkpt lat="47.82049748986955" lon="-1.637531423623504"><ele>81.0</ele><time>2026-03-22T14:39:14Z</time></trkpt><trkpt lat="47.8203863147049" lon="-1.6375513232228556"><ele>81.0</ele><time>2026-03-22T14:39:15Z</time></trkpt><trkpt lat="47.8202736680542" lon="-1.6375518285152388"><ele>81.0</ele><time>2026-03-22T14:39:16Z</time></trkpt><trkpt lat="47.82017384787452" lon="-1.6375450688837256"><ele>81.0</ele><time>2026-03-22T14:39:17Z</time></trkpt><trkpt lat="47.820074902922606" lon="-1.6375256911262728"><ele>81.0</ele><time>2026-03-22T14:39:18Z</time></trkpt><trkpt lat="47.81997202660026" lon="-1.6375144117311513"><ele>80.33333333333333</ele><time>2026-03-22T14:39:19Z</time></trkpt><trkpt lat="47.819881670141214" lon="-1.6375148199293244"><ele>79.66666666666667</ele><time>2026-03-22T14:39:20Z</time></trkpt><trkpt lat="47.81979886546473" lon="-1.6375181957485838"><ele>79.0</ele><time>2026-03-22T14:39:21Z</time></trkpt><trkpt lat="47.81972267325163" lon="-1.637519035075181"><ele>78.33333333333334</ele><time>2026-03-22T14:39:22Z</time></trkpt><trkpt lat="47.81965881151443" lon="-1.6375172552110049"><ele>77.66666666666667</ele><time>2026-03-22T14:39:23Z</time></trkpt><trkpt lat="47.819551074216854" lon="-1.6375142546403352"><ele>77.0</ele><time>2026-03-22T14:39:24.999Z</time></trkpt><trkpt lat="47.819475887669256" lon="-1.6375527159500773"><ele>77.0</ele><time>2026-03-22T14:39:26.999Z</time></trkpt><trkpt lat="47.819454075357434" lon="-1.6377409390722184"><ele>77.0</ele><time>2026-03-22T14:39:29.999Z</time></trkpt><trkpt lat="47.819469558474836" lon="-1.6379112035438603"><ele>77.0</ele><time>2026-03-22T14:39:31.999Z</time></trkpt><trkpt lat="47.819487318751094" lon="-1.6380181426938698"><ele>77.0</ele><time>2026-03-22T14:39:32.999Z</time></trkpt><trkpt lat="47.81950450801259" lon="-1.6381264039150798"><ele>77.0</ele><time>2026-03-22T14:39:33.999Z</time></trkpt><trkpt lat="47.819529229744774" lon="-1.6382402156576847"><ele>76.5</ele><time>2026-03-22T14:39:34.999Z</time></trkpt><trkpt lat="47.81955173408875" lon="-1.638372601983127"><ele>76.0</ele><time>2026-03-22T14:39:35.999Z</time></trkpt><trkpt lat="47.81960548866143" lon="-1.6385132906947222"><ele>75.5</ele><time>2026-03-22T14:39:36.999Z</time></trkpt><trkpt lat="47.819656682558154" lon="-1.6386224884830347"><ele>75.0</ele><time>2026-03-22T14:39:37.999Z</time></trkpt><trkpt lat="47.81971682320159" lon="-1.63867307215623"><ele>74.5</ele><time>2026-03-22T14:39:38.999Z</time></trkpt><trkpt lat="47.819758084135145" lon="-1.6387678390849194"><ele>74.0</ele><time>2026-03-22T14:39:39.999Z</time></trkpt><trkpt lat="47.8198474791864" lon="-1.6388858308390792"><ele>74.0</ele><time>2026-03-22T14:39:41.999Z</time></trkpt><trkpt lat="47.8199330403073" lon="-1.6389921971906058"><ele>74.0</ele><time>2026-03-22T14:39:43.999Z</time></trkpt><trkpt lat="47.82000639142106" lon="-1.6390943820753625"><ele>74.0</ele><time>2026-03-22T14:39:45.999Z</time></trkpt><trkpt lat="47.820072699362704" lon="-1.6391931975169962"><ele>74.0</ele><time>2026-03-22T14:39:47.999Z</time></trkpt><trkpt lat="47.82015757138281" lon="-1.639312639206134"><ele>74.0</ele><time>2026-03-22T14:39:49.999Z</time></trkpt><trkpt lat="47.820208097425954" lon="-1.6393933777446155"><ele>74.0</ele><time>2026-03-22T14:39:50.999Z</time></trkpt><trkpt lat="47.82027716360833" lon="-1.6395018762844962"><ele>74.0</ele><time>2026-03-22T14:39:51.999Z</time></trkpt><trkpt lat="47.82035982665332" lon="-1.6396212028213946"><ele>74.0</ele><time>2026-03-22T14:39:52.999Z</time></trkpt><trkpt lat="47.82043347628722" lon="-1.63974200558781"><ele>74.0</ele><time>2026-03-22T14:39:53.999Z</time></trkpt><trkpt lat="47.82050535417074" lon="-1.6398619646889747"><ele>74.0</ele><time>2026-03-22T14:39:54.999Z</time></trkpt><trkpt lat="47.82059381272242" lon="-1.6399920865555522"><ele>74.0</ele><time>2026-03-22T14:39:55.999Z</time></trkpt><trkpt lat="47.820693161042946" lon="-1.6401351739348502"><ele>74.0</ele><time>2026-03-22T14:39:56.999Z</time></trkpt><trkpt lat="47.82080828635488" lon="-1.6403031631608342"><ele>74.0</ele><time>2026-03-22T14:39:57.999Z</time></trkpt><trkpt lat="47.82092499512549" lon="-1.6404882055752184"><ele>74.33333333333334</ele><time>2026-03-22T14:39:58.999Z</time></trkpt><trkpt lat="47.82102807670076" lon="-1.640646833668143"><ele>74.66666666666667</ele><time>2026-03-22T14:39:59.999Z</time></trkpt><trkpt lat="47.82113403024666" lon="-1.6408189173206265"><ele>75.0</ele><time>2026-03-22T14:40:00.999Z</time></trkpt><trkpt lat="47.82125560740032" lon="-1.641021441972037"><ele>75.33333333333333</ele><time>2026-03-22T14:40:01.999Z</time></trkpt><trkpt lat="47.82139652962724" lon="-1.641221767778193"><ele>75.66666666666666</ele><time>2026-03-22T14:40:02.999Z</time></trkpt><trkpt lat="47.821550439646856" lon="-1.6414472709915884"><ele>76.0</ele><time>2026-03-22T14:40:03.999Z</time></trkpt><trkpt lat="47.82170661172697" lon="-1.6416980136257373"><ele>77.0</ele><time>2026-03-22T14:40:04.999Z</time></trkpt><trkpt lat="47.82184699148034" lon="-1.6419221202827738"><ele>78.0</ele><time>2026-03-22T14:40:05.999Z</time></trkpt><trkpt lat="47.82198931777149" lon="-1.642132825013708"><ele>79.0</ele><time>2026-03-22T14:40:06.999Z</time></trkpt><trkpt lat="47.82212853264837" lon="-1.6423452537274612"><ele>79.66666666666666</ele><time>2026-03-22T14:40:07.999Z</time></trkpt><trkpt lat="47.82228842167209" lon="-1.6425654081479595"><ele>80.33333333333333</ele><time>2026-03-22T14:40:08.999Z</time></trkpt><trkpt lat="47.82245222899797" lon="-1.6427797140801523"><ele>81.0</ele><time>2026-03-22T14:40:09.999Z</time></trkpt><trkpt lat="47.82263428912278" lon="-1.6429910354480244"><ele>83.5</ele><time>2026-03-22T14:40:10.999Z</time></trkpt><trkpt lat="47.82283082243691" lon="-1.643195151151947"><ele>86.0</ele><time>2026-03-22T14:40:11.999Z</time></trkpt><trkpt lat="47.82302430116147" lon="-1.6433765190679768"><ele>86.0</ele><time>2026-03-22T14:40:12.999Z</time></trkpt><trkpt lat="47.8232075704354" lon="-1.6435159034972329"><ele>86.0</ele><time>2026-03-22T14:40:13.999Z</time></trkpt><trkpt lat="47.82339664201725" lon="-1.6436251082367495"><ele>86.0</ele><time>2026-03-22T14:40:14.999Z</time></trkpt><trkpt lat="47.82359797080127" lon="-1.6437177261817773"><ele>92.5</ele><time>2026-03-22T14:40:15.999Z</time></trkpt><trkpt lat="47.82382034500331" lon="-1.643799144993533"><ele>99.0</ele><time>2026-03-22T14:40:16.999Z</time></trkpt><trkpt lat="47.82403842097372" lon="-1.6438628963177995"><ele>99.0</ele><time>2026-03-22T14:40:17.999Z</time></trkpt><trkpt lat="47.82427477802805" lon="-1.6439167713216725"><ele>99.0</ele><time>2026-03-22T14:40:18.999Z</time></trkpt><trkpt lat="47.824503119757075" lon="-1.6439695709680657"><ele>100.66666666666666</ele><time>2026-03-22T14:40:19.999Z</time></trkpt><trkpt lat="47.82470247092544" lon="-1.6440310356959265"><ele>102.33333333333333</ele><time>2026-03-22T14:40:20.999Z</time></trkpt><trkpt lat="47.824868208654664" lon="-1.6440530406234442"><ele>104.0</ele><time>2026-03-22T14:40:21.999Z</time></trkpt><trkpt lat="47.82503813787872" lon="-1.6440849517220109"><ele>105.33333333333333</ele><time>2026-03-22T14:40:22.999Z</time></trkpt><trkpt lat="47.82520166908651" lon="-1.644125005564295"><ele>106.66666666666666</ele><time>2026-03-22T14:40:23.999Z</time></trkpt><trkpt lat="47.82538565575059" lon="-1.6441552768513972"><ele>108.0</ele><time>2026-03-22T14:40:24.999Z</time></trkpt><trkpt lat="47.82558050220354" lon="-1.644187299214831"><ele>108.0</ele><time>2026-03-22T14:40:25.999Z</time></trkpt><trkpt lat="47.825787425560385" lon="-1.6442256537231736"><ele>108.0</ele><time>2026-03-22T14:40:26.999Z</time></trkpt><trkpt lat="47.82597614067172" lon="-1.6442609230377367"><ele>108.0</ele><time>2026-03-22T14:40:27.999Z</time></trkpt><trkpt lat="47.82614680553709" lon="-1.6443028437485812"><ele>108.0</ele><time>2026-03-22T14:40:28.999Z</time></trkpt><trkpt lat="47.82629963864461" lon="-1.6443600431842484"><ele>108.0</ele><time>2026-03-22T14:40:29.998Z</time></trkpt><trkpt lat="47.826459756531996" lon="-1.6444439665945416"><ele>108.0</ele><time>2026-03-22T14:40:30.998Z</time></trkpt><trkpt lat="47.82660529015536" lon="-1.6445686401026867"><ele>108.0</ele><time>2026-03-22T14:40:31.998Z</time></trkpt><trkpt lat="47.82676665491179" lon="-1.6447077294638481"><ele>108.0</ele><time>2026-03-22T14:40:32.998Z</time></trkpt><trkpt lat="47.82693915531962" lon="-1.6448465484115455"><ele>108.0</ele><time>2026-03-22T14:40:33.998Z</time></trkpt><trkpt lat="47.82712235783842" lon="-1.6449868045806553"><ele>107.66666666666666</ele><time>2026-03-22T14:40:35Z</time></trkpt><trkpt lat="47.82731140017902" lon="-1.6451338548315089"><ele>107.33333333333333</ele><time>2026-03-22T14:40:36Z</time></trkpt><trkpt lat="47.82750520511469" lon="-1.6452865068483487"><ele>107.0</ele><time>2026-03-22T14:40:37Z</time></trkpt><trkpt lat="47.82769572146112" lon="-1.6454438583970254"><ele>107.66666666666666</ele><time>2026-03-22T14:40:38Z</time></trkpt><trkpt lat="47.827890470847414" lon="-1.6456020878954727"><ele>108.33333333333334</ele><time>2026-03-22T14:40:39Z</time></trkpt><trkpt lat="47.828067253851934" lon="-1.6457322179092038"><ele>109.0</ele><time>2026-03-22T14:40:40Z</time></trkpt><trkpt lat="47.82821970262182" lon="-1.6458719342349686"><ele>109.0</ele><time>2026-03-22T14:40:41Z</time></trkpt><trkpt lat="47.828382714252946" lon="-1.645990586843028"><ele>109.0</ele><time>2026-03-22T14:40:42Z</time></trkpt><trkpt lat="47.828511790306344" lon="-1.6460905301168869"><ele>109.0</ele><time>2026-03-22T14:40:43Z</time></trkpt><trkpt lat="47.82862524084925" lon="-1.6461994475675836"><ele>109.0</ele><time>2026-03-22T14:40:44Z</time></trkpt><trkpt lat="47.82873537573061" lon="-1.6462991626825745"><ele>109.0</ele><time>2026-03-22T14:40:45Z</time></trkpt><trkpt lat="47.82884123544697" lon="-1.6463856334934683"><ele>109.0</ele><time>2026-03-22T14:40:46Z</time></trkpt><trkpt lat="47.82893989256148" lon="-1.6464641281015557"><ele>109.0</ele><time>2026-03-22T14:40:47Z</time></trkpt><trkpt lat="47.82902891135564" lon="-1.6465394897761816"><ele>109.0</ele><time>2026-03-22T14:40:48Z</time></trkpt><trkpt lat="47.82911001079662" lon="-1.646611225619126"><ele>109.0</ele><time>2026-03-22T14:40:49Z</time></trkpt><trkpt lat="47.829202474091176" lon="-1.6466742106410346"><ele>109.0</ele><time>2026-03-22T14:40:50Z</time></trkpt><trkpt lat="47.82930233191038" lon="-1.6467018789046028"><ele>109.0</ele><time>2026-03-22T14:40:51Z</time></trkpt><trkpt lat="47.82939544500831" lon="-1.6466796041436087"><ele>109.0</ele><time>2026-03-22T14:40:52Z</time></trkpt><trkpt lat="47.82947795609907" lon="-1.6466192780275575"><ele>109.0</ele><time>2026-03-22T14:40:53Z</time></trkpt><trkpt lat="47.82956495620005" lon="-1.6465741299259575"><ele>109.0</ele><time>2026-03-22T14:40:54Z</time></trkpt><trkpt lat="47.82965999564972" lon="-1.6465438818222122"><ele>109.0</ele><time>2026-03-22T14:40:55Z</time></trkpt><trkpt lat="47.8297554784396" lon="-1.646464652067075"><ele>109.0</ele><time>2026-03-22T14:40:56Z</time></trkpt><trkpt lat="47.82984708047426" lon="-1.646406054835231"><ele>109.0</ele><time>2026-03-22T14:40:57Z</time></trkpt><trkpt lat="47.82994543160449" lon="-1.6463514034682452"><ele>109.0</ele><time>2026-03-22T14:40:58Z</time></trkpt><trkpt lat="47.83002732062806" lon="-1.6463084819654037"><ele>109.0</ele><time>2026-03-22T14:40:59Z</time></trkpt><trkpt lat="47.83008940288231" lon="-1.6462623964960688"><ele>109.0</ele><time>2026-03-22T14:41:00Z</time></trkpt><trkpt lat="47.83018588663869" lon="-1.646243089060665"><ele>109.0</ele><time>2026-03-22T14:41:02Z</time></trkpt><trkpt lat="47.83025658640679" lon="-1.6461917631593743"><ele>109.0</ele><time>2026-03-22T14:41:05Z</time></trkpt><trkpt lat="47.83031886969513" lon="-1.6466671409193847"><ele>109.0</ele><time>2026-03-22T14:41:08Z</time></trkpt><trkpt lat="47.830339270669995" lon="-1.6468167093011365"><ele>109.0</ele><time>2026-03-22T14:41:09Z</time></trkpt><trkpt lat="47.830361091145015" lon="-1.646968445311676"><ele>109.0</ele><time>2026-03-22T14:41:10Z</time></trkpt><trkpt lat="47.830392896747966" lon="-1.647124022074882"><ele>109.0</ele><time>2026-03-22T14:41:11Z</time></trkpt><trkpt lat="47.83042770376313" lon="-1.64729891441664"><ele>109.0</ele><time>2026-03-22T14:41:12Z</time></trkpt><trkpt lat="47.83045232438386" lon="-1.6474686579266762"><ele>109.0</ele><time>2026-03-22T14:41:13Z</time></trkpt><trkpt lat="47.83046399089137" lon="-1.6476184325024108"><ele>109.0</ele><time>2026-03-22T14:41:14Z</time></trkpt><trkpt lat="47.83049970904325" lon="-1.6477820463852149"><ele>109.0</ele><time>2026-03-22T14:41:15Z</time></trkpt><trkpt lat="47.830524135288925" lon="-1.6479342347667363"><ele>109.0</ele><time>2026-03-22T14:41:16Z</time></trkpt><trkpt lat="47.83054812250052" lon="-1.6480766261393478"><ele>109.0</ele><time>2026-03-22T14:41:17Z</time></trkpt><trkpt lat="47.83058791873171" lon="-1.6482593164285493"><ele>109.0</ele><time>2026-03-22T14:41:18Z</time></trkpt><trkpt lat="47.83061281260305" lon="-1.6484235784247787"><ele>109.0</ele><time>2026-03-22T14:41:19Z</time></trkpt><trkpt lat="47.83063968691833" lon="-1.648601830581311"><ele>109.0</ele><time>2026-03-22T14:41:20Z</time></trkpt><trkpt lat="47.830660101702705" lon="-1.6487757471382265"><ele>109.0</ele><time>2026-03-22T14:41:21Z</time></trkpt><trkpt lat="47.830680869506274" lon="-1.6489418971247503"><ele>109.0</ele><time>2026-03-22T14:41:22Z</time></trkpt><trkpt lat="47.83070339309744" lon="-1.649127940949725"><ele>109.0</ele><time>2026-03-22T14:41:23Z</time></trkpt><trkpt lat="47.83074257782412" lon="-1.6493335304348702"><ele>109.0</ele><time>2026-03-22T14:41:24Z</time></trkpt><trkpt lat="47.83075543284581" lon="-1.6495369559361917"><ele>109.0</ele><time>2026-03-22T14:41:24.999Z</time></trkpt><trkpt lat="47.8307903624138" lon="-1.649723799165486"><ele>109.0</ele><time>2026-03-22T14:41:25.999Z</time></trkpt><trkpt lat="47.83080513913978" lon="-1.6499235490054673"><ele>109.0</ele><time>2026-03-22T14:41:26.999Z</time></trkpt><trkpt lat="47.83083372578213" lon="-1.6501427063095389"><ele>109.0</ele><time>2026-03-22T14:41:27.999Z</time></trkpt><trkpt lat="47.83082744714039" lon="-1.650329853915374"><ele>109.0</ele><time>2026-03-22T14:41:28.999Z</time></trkpt><trkpt lat="47.830820940338405" lon="-1.6504991761929957"><ele>109.5</ele><time>2026-03-22T14:41:29.999Z</time></trkpt><trkpt lat="47.83084075184382" lon="-1.6506668084098786"><ele>110.0</ele><time>2026-03-22T14:41:30.999Z</time></trkpt><trkpt lat="47.83084479417406" lon="-1.650857284072986"><ele>110.5</ele><time>2026-03-22T14:41:31.999Z</time></trkpt><trkpt lat="47.830843145037726" lon="-1.6510416023063554"><ele>111.0</ele><time>2026-03-22T14:41:32.999Z</time></trkpt><trkpt lat="47.83086399791326" lon="-1.6512941257163667"><ele>111.25</ele><time>2026-03-22T14:41:33.999Z</time></trkpt><trkpt lat="47.83084340446373" lon="-1.651499859634254"><ele>111.5</ele><time>2026-03-22T14:41:34.999Z</time></trkpt><trkpt lat="47.83084033039069" lon="-1.6516796096149642"><ele>111.75</ele><time>2026-03-22T14:41:35.999Z</time></trkpt><trkpt lat="47.830834134279385" lon="-1.6519313754105411"><ele>112.0</ele><time>2026-03-22T14:41:36.999Z</time></trkpt><trkpt lat="47.830837892576795" lon="-1.6521489603171184"><ele>111.75</ele><time>2026-03-22T14:41:37.999Z</time></trkpt><trkpt lat="47.83080840573997" lon="-1.6523412162790216"><ele>111.5</ele><time>2026-03-22T14:41:38.999Z</time></trkpt><trkpt lat="47.83079543597152" lon="-1.6525241947407998"><ele>111.25</ele><time>2026-03-22T14:41:39.999Z</time></trkpt><trkpt lat="47.830800703529825" lon="-1.652708410879255"><ele>111.0</ele><time>2026-03-22T14:41:40.999Z</time></trkpt><trkpt lat="47.83083354561381" lon="-1.6528628007156698"><ele>111.0</ele><time>2026-03-22T14:41:41.999Z</time></trkpt><trkpt lat="47.83084671198367" lon="-1.6530086589561266"><ele>111.0</ele><time>2026-03-22T14:41:42.999Z</time></trkpt><trkpt lat="47.83084599533405" lon="-1.6531595786951725"><ele>111.0</ele><time>2026-03-22T14:41:43.999Z</time></trkpt><trkpt lat="47.83081829321855" lon="-1.6533071193886968"><ele>111.0</ele><time>2026-03-22T14:41:44.999Z</time></trkpt><trkpt lat="47.83081429485177" lon="-1.6534672936007704"><ele>111.0</ele><time>2026-03-22T14:41:45.999Z</time></trkpt><trkpt lat="47.830812450314895" lon="-1.6536350325237101"><ele>111.5</ele><time>2026-03-22T14:41:46.999Z</time></trkpt><trkpt lat="47.83079623211324" lon="-1.6538278701446905"><ele>112.0</ele><time>2026-03-22T14:41:47.999Z</time></trkpt><trkpt lat="47.83078416681111" lon="-1.6540082072302336"><ele>112.5</ele><time>2026-03-22T14:41:48.999Z</time></trkpt><trkpt lat="47.83075783358286" lon="-1.6541970567311257"><ele>113.0</ele><time>2026-03-22T14:41:49.999Z</time></trkpt><trkpt lat="47.83073978701797" lon="-1.654425690516894"><ele>112.33333333333333</ele><time>2026-03-22T14:41:50.999Z</time></trkpt><trkpt lat="47.83070854179199" lon="-1.6546628043810665"><ele>111.66666666666666</ele><time>2026-03-22T14:41:51.999Z</time></trkpt><trkpt lat="47.83064520166914" lon="-1.6548914046207992"><ele>111.0</ele><time>2026-03-22T14:41:52.999Z</time></trkpt><trkpt lat="47.83062382741121" lon="-1.6551268023552455"><ele>110.66666666666666</ele><time>2026-03-22T14:41:53.999Z</time></trkpt><trkpt lat="47.830647570759226" lon="-1.655332962847757"><ele>110.33333333333333</ele><time>2026-03-22T14:41:54.999Z</time></trkpt><trkpt lat="47.83060374095433" lon="-1.6555721578027343"><ele>110.0</ele><time>2026-03-22T14:41:55.999Z</time></trkpt><trkpt lat="47.83059936251903" lon="-1.655839695238403"><ele>110.0</ele><time>2026-03-22T14:41:56.999Z</time></trkpt><trkpt lat="47.83055919571471" lon="-1.6560702230483053"><ele>110.0</ele><time>2026-03-22T14:41:57.999Z</time></trkpt><trkpt lat="47.830523326173754" lon="-1.6563002428578133"><ele>110.0</ele><time>2026-03-22T14:41:58.999Z</time></trkpt><trkpt lat="47.83047473688617" lon="-1.6565463619498055"><ele>109.75</ele><time>2026-03-22T14:41:59.999Z</time></trkpt><trkpt lat="47.83043839444843" lon="-1.6567868343618324"><ele>109.5</ele><time>2026-03-22T14:42:00.999Z</time></trkpt><trkpt lat="47.83040306636305" lon="-1.6569865160463628"><ele>109.25</ele><time>2026-03-22T14:42:01.999Z</time></trkpt><trkpt lat="47.830378472198504" lon="-1.6571820794558076"><ele>109.0</ele><time>2026-03-22T14:42:02.999Z</time></trkpt><trkpt lat="47.830358821022116" lon="-1.6573355840496284"><ele>109.00000000000001</ele><time>2026-03-22T14:42:03.999Z</time></trkpt><trkpt lat="47.83034644544702" lon="-1.6574534215550032"><ele>109.0</ele><time>2026-03-22T14:42:04.999Z</time></trkpt><trkpt lat="47.83032291622754" lon="-1.657568795510199"><ele>109.0</ele><time>2026-03-22T14:42:05.999Z</time></trkpt><trkpt lat="47.83031287464158" lon="-1.6576672607041714"><ele>109.0</ele><time>2026-03-22T14:42:06.999Z</time></trkpt><trkpt lat="47.83027296601782" lon="-1.6578018617619577"><ele>109.00000000000001</ele><time>2026-03-22T14:42:08.999Z</time></trkpt><trkpt lat="47.830257362674715" lon="-1.6579186062040674"><ele>109.0</ele><time>2026-03-22T14:42:11.999Z</time></trkpt><trkpt lat="47.83013962496091" lon="-1.6578565854184022"><ele>109.4</ele><time>2026-03-22T14:42:18.999Z</time></trkpt><trkpt lat="47.83008053197288" lon="-1.6577834811831609"><ele>109.80000000000001</ele><time>2026-03-22T14:42:19.999Z</time></trkpt><trkpt lat="47.830000730494355" lon="-1.6577292986100332"><ele>110.19999999999999</ele><time>2026-03-22T14:42:20.999Z</time></trkpt><trkpt lat="47.829906103725776" lon="-1.6576781231514803"><ele>110.6</ele><time>2026-03-22T14:42:21.999Z</time></trkpt><trkpt lat="47.82979241081293" lon="-1.6577029989080851"><ele>111.0</ele><time>2026-03-22T14:42:22.999Z</time></trkpt><trkpt lat="47.82968112149485" lon="-1.6576488704877634"><ele>111.0</ele><time>2026-03-22T14:42:23.999Z</time></trkpt><trkpt lat="47.8295866702794" lon="-1.6576029317703347"><ele>111.0</ele><time>2026-03-22T14:42:24.999Z</time></trkpt><trkpt lat="47.82949276049096" lon="-1.657536438817462"><ele>111.0</ele><time>2026-03-22T14:42:25.999Z</time></trkpt><trkpt lat="47.82937927348459" lon="-1.6575036065500666"><ele>111.0</ele><time>2026-03-22T14:42:26.999Z</time></trkpt><trkpt lat="47.829252239244674" lon="-1.6574266958670372"><ele>111.25</ele><time>2026-03-22T14:42:27.999Z</time></trkpt><trkpt lat="47.829109907892196" lon="-1.657383783414242"><ele>111.5</ele><time>2026-03-22T14:42:28.999Z</time></trkpt><trkpt lat="47.82898367380004" lon="-1.6573272116867448"><ele>111.75</ele><time>2026-03-22T14:42:29.998Z</time></trkpt><trkpt lat="47.82884757422111" lon="-1.6572573903020065"><ele>112.0</ele><time>2026-03-22T14:42:30.998Z</time></trkpt><trkpt lat="47.82871630011652" lon="-1.6571612880268547"><ele>112.0</ele><time>2026-03-22T14:42:31.998Z</time></trkpt><trkpt lat="47.82858689414916" lon="-1.6570193612796191"><ele>112.0</ele><time>2026-03-22T14:42:32.998Z</time></trkpt><trkpt lat="47.828444238902854" lon="-1.6568383861711646"><ele>112.0</ele><time>2026-03-22T14:42:33.998Z</time></trkpt><trkpt lat="47.828309583521936" lon="-1.6566658467055335"><ele>111.66666666666667</ele><time>2026-03-22T14:42:34.998Z</time></trkpt><trkpt lat="47.828166092342514" lon="-1.6564819850331927"><ele>111.33333333333334</ele><time>2026-03-22T14:42:35.998Z</time></trkpt><trkpt lat="47.82801229064083" lon="-1.6562849119542242"><ele>111.0</ele><time>2026-03-22T14:42:36.998Z</time></trkpt><trkpt lat="47.82786514409544" lon="-1.656096397440534"><ele>110.66666666666666</ele><time>2026-03-22T14:42:37.998Z</time></trkpt><trkpt lat="47.82773663110919" lon="-1.6559318522484945"><ele>110.33333333333333</ele><time>2026-03-22T14:42:38.998Z</time></trkpt><trkpt lat="47.82762330282344" lon="-1.6557867497027383"><ele>110.0</ele><time>2026-03-22T14:42:39.998Z</time></trkpt><trkpt lat="47.82751466967114" lon="-1.6556476583130904"><ele>110.2</ele><time>2026-03-22T14:42:41Z</time></trkpt><trkpt lat="47.82740458400693" lon="-1.6555067070025704"><ele>110.4</ele><time>2026-03-22T14:42:42Z</time></trkpt><trkpt lat="47.82731745567549" lon="-1.6553951500004878"><ele>110.6</ele><time>2026-03-22T14:42:43Z</time></trkpt><trkpt lat="47.827242425250525" lon="-1.655301992227619"><ele>110.8</ele><time>2026-03-22T14:42:44Z</time></trkpt><trkpt lat="47.82717776262611" lon="-1.6552079363398893"><ele>111.0</ele><time>2026-03-22T14:42:45Z</time></trkpt><trkpt lat="47.8270937929236" lon="-1.6551604626937375"><ele>111.0</ele><time>2026-03-22T14:42:46Z</time></trkpt><trkpt lat="47.827023313578614" lon="-1.6550625467896538"><ele>111.0</ele><time>2026-03-22T14:42:48Z</time></trkpt><trkpt lat="47.82686985758839" lon="-1.6552273511090434"><ele>111.0</ele><time>2026-03-22T14:42:49Z</time></trkpt><trkpt lat="47.82678685958595" lon="-1.655328366337437"><ele>111.0</ele><time>2026-03-22T14:42:50Z</time></trkpt><trkpt lat="47.82669491559658" lon="-1.6554339160920255"><ele>111.25</ele><time>2026-03-22T14:42:51Z</time></trkpt><trkpt lat="47.82659768068768" lon="-1.6555383206061929"><ele>111.5</ele><time>2026-03-22T14:42:52Z</time></trkpt><trkpt lat="47.8264883547693" lon="-1.6556453671312428"><ele>111.75</ele><time>2026-03-22T14:42:53Z</time></trkpt><trkpt lat="47.82636314243021" lon="-1.6557620308024"><ele>112.0</ele><time>2026-03-22T14:42:54Z</time></trkpt><trkpt lat="47.82625125525298" lon="-1.6558956794500057"><ele>112.0</ele><time>2026-03-22T14:42:55Z</time></trkpt><trkpt lat="47.82614413652258" lon="-1.6560465744964548"><ele>112.0</ele><time>2026-03-22T14:42:56Z</time></trkpt><trkpt lat="47.82606307750699" lon="-1.6561930892338317"><ele>112.0</ele><time>2026-03-22T14:42:57Z</time></trkpt><trkpt lat="47.8259840189564" lon="-1.656366279821486"><ele>112.0</ele><time>2026-03-22T14:42:58Z</time></trkpt><trkpt lat="47.82590993438478" lon="-1.6565365176233222"><ele>112.0</ele><time>2026-03-22T14:42:59Z</time></trkpt><trkpt lat="47.8258294660157" lon="-1.6567121566165746"><ele>112.0</ele><time>2026-03-22T14:43:00Z</time></trkpt><trkpt lat="47.825747498573044" lon="-1.656880442932704"><ele>112.0</ele><time>2026-03-22T14:43:01Z</time></trkpt><trkpt lat="47.825682435733206" lon="-1.6570532063875412"><ele>112.0</ele><time>2026-03-22T14:43:02Z</time></trkpt><trkpt lat="47.825599014931065" lon="-1.6572244663986737"><ele>111.75</ele><time>2026-03-22T14:43:03Z</time></trkpt><trkpt lat="47.82553025846006" lon="-1.657405261580096"><ele>111.5</ele><time>2026-03-22T14:43:04Z</time></trkpt><trkpt lat="47.82545200298161" lon="-1.6575743495729356"><ele>111.25</ele><time>2026-03-22T14:43:05Z</time></trkpt><trkpt lat="47.82535914756849" lon="-1.6577316300323517"><ele>111.0</ele><time>2026-03-22T14:43:06Z</time></trkpt><trkpt lat="47.82527823746834" lon="-1.6579103657136154"><ele>111.0</ele><time>2026-03-22T14:43:07Z</time></trkpt><trkpt lat="47.825201037860985" lon="-1.6580876221234366"><ele>111.0</ele><time>2026-03-22T14:43:08Z</time></trkpt><trkpt lat="47.82512604040423" lon="-1.65826795699959"><ele>111.0</ele><time>2026-03-22T14:43:09Z</time></trkpt><trkpt lat="47.8250602739854" lon="-1.6584501196094508"><ele>111.0</ele><time>2026-03-22T14:43:10Z</time></trkpt><trkpt lat="47.82498004234766" lon="-1.6586243040874968"><ele>111.5</ele><time>2026-03-22T14:43:11Z</time></trkpt><trkpt lat="47.82489741883837" lon="-1.6587979326852393"><ele>112.0</ele><time>2026-03-22T14:43:12Z</time></trkpt><trkpt lat="47.82481460888778" lon="-1.6589864151143143"><ele>112.5</ele><time>2026-03-22T14:43:13Z</time></trkpt><trkpt lat="47.824729526947614" lon="-1.659179569313903"><ele>113.0</ele><time>2026-03-22T14:43:14Z</time></trkpt><trkpt lat="47.8246443380174" lon="-1.659362582703078"><ele>112.66666666666666</ele><time>2026-03-22T14:43:15Z</time></trkpt><trkpt lat="47.8245590263763" lon="-1.6595578437286556"><ele>112.33333333333334</ele><time>2026-03-22T14:43:16Z</time></trkpt><trkpt lat="47.824462196773915" lon="-1.6597558229678626"><ele>112.0</ele><time>2026-03-22T14:43:17Z</time></trkpt><trkpt lat="47.82436576566542" lon="-1.6599657728425599"><ele>112.0</ele><time>2026-03-22T14:43:18Z</time></trkpt><trkpt lat="47.824266548489874" lon="-1.6601489552813429"><ele>112.0</ele><time>2026-03-22T14:43:19Z</time></trkpt><trkpt lat="47.824171805797256" lon="-1.6603466239322033"><ele>112.0</ele><time>2026-03-22T14:43:20Z</time></trkpt><trkpt lat="47.824080919261675" lon="-1.6605398891100691"><ele>112.0</ele><time>2026-03-22T14:43:21Z</time></trkpt><trkpt lat="47.823928657642455" lon="-1.6608545507170842"><ele>112.0</ele><time>2026-03-22T14:43:22Z</time></trkpt><trkpt lat="47.82380786620927" lon="-1.661071283796095"><ele>111.66666666666667</ele><time>2026-03-22T14:43:23Z</time></trkpt><trkpt lat="47.82368991946813" lon="-1.6612906215619616"><ele>111.33333333333334</ele><time>2026-03-22T14:43:24Z</time></trkpt><trkpt lat="47.82360946248864" lon="-1.661536430090753"><ele>111.0</ele><time>2026-03-22T14:43:25Z</time></trkpt><trkpt lat="47.82350347698924" lon="-1.661744492288688"><ele>111.0</ele><time>2026-03-22T14:43:26Z</time></trkpt><trkpt lat="47.82343220726101" lon="-1.6619336930993878"><ele>111.0</ele><time>2026-03-22T14:43:27Z</time></trkpt><trkpt lat="47.823337480306485" lon="-1.6620994051856885"><ele>111.0</ele><time>2026-03-22T14:43:27.999Z</time></trkpt><trkpt lat="47.823251555032634" lon="-1.662290387139139"><ele>111.0</ele><time>2026-03-22T14:43:28.999Z</time></trkpt><trkpt lat="47.823187871445406" lon="-1.66247115885647"><ele>111.25</ele><time>2026-03-22T14:43:29.999Z</time></trkpt><trkpt lat="47.823109145764775" lon="-1.6626311750860396"><ele>111.5</ele><time>2026-03-22T14:43:30.999Z</time></trkpt><trkpt lat="47.823036682408016" lon="-1.6628073715452374"><ele>111.75</ele><time>2026-03-22T14:43:31.999Z</time></trkpt><trkpt lat="47.822963361772544" lon="-1.6629856521912882"><ele>112.0</ele><time>2026-03-22T14:43:32.999Z</time></trkpt><trkpt lat="47.822882418463074" lon="-1.6631824679101894"><ele>112.0</ele><time>2026-03-22T14:43:33.999Z</time></trkpt><trkpt lat="47.82280316057629" lon="-1.6634144158146698"><ele>112.0</ele><time>2026-03-22T14:43:34.999Z</time></trkpt><trkpt lat="47.822700371171074" lon="-1.663620527980393"><ele>112.0</ele><time>2026-03-22T14:43:35.999Z</time></trkpt><trkpt lat="47.82263132338399" lon="-1.663814615930778"><ele>112.0</ele><time>2026-03-22T14:43:36.999Z</time></trkpt><trkpt lat="47.822561614176166" lon="-1.663991386310292"><ele>112.0</ele><time>2026-03-22T14:43:37.999Z</time></trkpt><trkpt lat="47.8224622071001" lon="-1.6642000188031103"><ele>112.0</ele><time>2026-03-22T14:43:38.999Z</time></trkpt><trkpt lat="47.82237367850982" lon="-1.6644166694722928"><ele>111.66666666666667</ele><time>2026-03-22T14:43:39.999Z</time></trkpt><trkpt lat="47.8222905245321" lon="-1.6646218566831525"><ele>111.33333333333334</ele><time>2026-03-22T14:43:40.999Z</time></trkpt><trkpt lat="47.822193372220326" lon="-1.6648115546410354"><ele>111.0</ele><time>2026-03-22T14:43:41.999Z</time></trkpt><trkpt lat="47.82210686108952" lon="-1.6650138254426214"><ele>111.0</ele><time>2026-03-22T14:43:42.999Z</time></trkpt><trkpt lat="47.822028676135574" lon="-1.6652319937144924"><ele>111.0</ele><time>2026-03-22T14:43:43.999Z</time></trkpt><trkpt lat="47.82190647099148" lon="-1.665410410243386"><ele>111.0</ele><time>2026-03-22T14:43:44.999Z</time></trkpt><trkpt lat="47.82180377897373" lon="-1.6656137665388013"><ele>111.0</ele><time>2026-03-22T14:43:45.999Z</time></trkpt><trkpt lat="47.82168046623354" lon="-1.6658051821728093"><ele>111.0</ele><time>2026-03-22T14:43:46.999Z</time></trkpt><trkpt lat="47.82156291359908" lon="-1.6660024028234153"><ele>111.0</ele><time>2026-03-22T14:43:47.999Z</time></trkpt><trkpt lat="47.82144271523177" lon="-1.6662060963187362"><ele>111.0</ele><time>2026-03-22T14:43:48.999Z</time></trkpt><trkpt lat="47.82132657015183" lon="-1.66641257999516"><ele>111.0</ele><time>2026-03-22T14:43:49.999Z</time></trkpt><trkpt lat="47.821203739780344" lon="-1.66661210072266"><ele>111.0</ele><time>2026-03-22T14:43:50.999Z</time></trkpt><trkpt lat="47.821089491392044" lon="-1.6668171012194828"><ele>110.66666666666666</ele><time>2026-03-22T14:43:51.999Z</time></trkpt><trkpt lat="47.82096460800704" lon="-1.6670282920925243"><ele>110.33333333333333</ele><time>2026-03-22T14:43:52.999Z</time></trkpt><trkpt lat="47.82084342366473" lon="-1.667235311172391"><ele>110.0</ele><time>2026-03-22T14:43:53.999Z</time></trkpt><trkpt lat="47.820725103819235" lon="-1.667436976781211"><ele>110.0</ele><time>2026-03-22T14:43:54.999Z</time></trkpt><trkpt lat="47.820605011761245" lon="-1.6676449067549572"><ele>110.0</ele><time>2026-03-22T14:43:55.999Z</time></trkpt><trkpt lat="47.82047984148639" lon="-1.667825025630506"><ele>110.0</ele><time>2026-03-22T14:43:56.999Z</time></trkpt><trkpt lat="47.820392718863935" lon="-1.6679909998681983"><ele>110.0</ele><time>2026-03-22T14:43:57.999Z</time></trkpt><trkpt lat="47.820290003466276" lon="-1.6681546868008192"><ele>110.0</ele><time>2026-03-22T14:43:58.999Z</time></trkpt><trkpt lat="47.820200173486995" lon="-1.6683204769284437"><ele>110.0</ele><time>2026-03-22T14:43:59.999Z</time></trkpt><trkpt lat="47.82011168445273" lon="-1.668453236868671"><ele>110.0</ele><time>2026-03-22T14:44:00.999Z</time></trkpt><trkpt lat="47.82002723488592" lon="-1.6685978197172355"><ele>110.0</ele><time>2026-03-22T14:44:01.999Z</time></trkpt><trkpt lat="47.81993469081909" lon="-1.6687562604738042"><ele>110.0</ele><time>2026-03-22T14:44:02.999Z</time></trkpt><trkpt lat="47.81984795626166" lon="-1.6689378599269589"><ele>110.0</ele><time>2026-03-22T14:44:03.999Z</time></trkpt><trkpt lat="47.819734159755285" lon="-1.6691223043905503"><ele>110.0</ele><time>2026-03-22T14:44:04.999Z</time></trkpt><trkpt lat="47.81961997170373" lon="-1.669292190014422"><ele>110.0</ele><time>2026-03-22T14:44:05.999Z</time></trkpt><trkpt lat="47.81951098748216" lon="-1.6694761545455217"><ele>110.0</ele><time>2026-03-22T14:44:06.999Z</time></trkpt><trkpt lat="47.819393868430886" lon="-1.6696738506121698"><ele>110.0</ele><time>2026-03-22T14:44:07.999Z</time></trkpt><trkpt lat="47.8192903885544" lon="-1.6698826501001167"><ele>110.0</ele><time>2026-03-22T14:44:08.999Z</time></trkpt><trkpt lat="47.819171717112184" lon="-1.6700777264960562"><ele>110.0</ele><time>2026-03-22T14:44:09.999Z</time></trkpt><trkpt lat="47.81905661398859" lon="-1.6702785896790906"><ele>110.0</ele><time>2026-03-22T14:44:10.999Z</time></trkpt><trkpt lat="47.81893815648743" lon="-1.6704800083025757"><ele>110.0</ele><time>2026-03-22T14:44:11.999Z</time></trkpt><trkpt lat="47.81881240741151" lon="-1.6706891605085676"><ele>110.0</ele><time>2026-03-22T14:44:12.999Z</time></trkpt><trkpt lat="47.81868412277905" lon="-1.6708863443217554"><ele>110.0</ele><time>2026-03-22T14:44:13.999Z</time></trkpt><trkpt lat="47.81856397750245" lon="-1.671094048334229"><ele>110.0</ele><time>2026-03-22T14:44:14.999Z</time></trkpt><trkpt lat="47.818439082406684" lon="-1.6713019734670451"><ele>110.0</ele><time>2026-03-22T14:44:15.999Z</time></trkpt><trkpt lat="47.8183246519411" lon="-1.671496949975671"><ele>109.33333333333333</ele><time>2026-03-22T14:44:16.999Z</time></trkpt><trkpt lat="47.818216900634425" lon="-1.6716665828057868"><ele>108.66666666666666</ele><time>2026-03-22T14:44:17.999Z</time></trkpt><trkpt lat="47.81811402140172" lon="-1.671831491756763"><ele>108.0</ele><time>2026-03-22T14:44:18.999Z</time></trkpt><trkpt lat="47.81802496160523" lon="-1.6719969814258027"><ele>107.80000000000001</ele><time>2026-03-22T14:44:19.999Z</time></trkpt><trkpt lat="47.81793936041438" lon="-1.6721352496557913"><ele>107.60000000000001</ele><time>2026-03-22T14:44:20.999Z</time></trkpt><trkpt lat="47.81786354308682" lon="-1.6722624553353478"><ele>107.39999999999999</ele><time>2026-03-22T14:44:21.999Z</time></trkpt><trkpt lat="47.81780165892524" lon="-1.6723662840056035"><ele>107.19999999999999</ele><time>2026-03-22T14:44:22.999Z</time></trkpt><trkpt lat="47.81774787252127" lon="-1.6724566724738676"><ele>107.0</ele><time>2026-03-22T14:44:23.999Z</time></trkpt><trkpt lat="47.817700050018175" lon="-1.6725388599209765"><ele>107.0</ele><time>2026-03-22T14:44:24.999Z</time></trkpt><trkpt lat="47.81766940274255" lon="-1.6726223807591052"><ele>106.99999999999999</ele><time>2026-03-22T14:44:25.999Z</time></trkpt><trkpt lat="47.81760475639853" lon="-1.6726786844801083"><ele>106.99999999999999</ele><time>2026-03-22T14:44:27.999Z</time></trkpt><trkpt lat="47.81743602509771" lon="-1.672686752466057"><ele>107.0</ele><time>2026-03-22T14:44:31.998Z</time></trkpt><trkpt lat="47.81733136445753" lon="-1.6725679969334544"><ele>107.0</ele><time>2026-03-22T14:44:33.998Z</time></trkpt><trkpt lat="47.81725015528024" lon="-1.672480047275916"><ele>107.25</ele><time>2026-03-22T14:44:34.998Z</time></trkpt><trkpt lat="47.817168730429536" lon="-1.6723955029688298"><ele>107.5</ele><time>2026-03-22T14:44:35.998Z</time></trkpt><trkpt lat="47.817070189285396" lon="-1.6722966789069789"><ele>107.75</ele><time>2026-03-22T14:44:36.998Z</time></trkpt><trkpt lat="47.81696788615028" lon="-1.6722001551600147"><ele>108.0</ele><time>2026-03-22T14:44:37.998Z</time></trkpt><trkpt lat="47.816857474491584" lon="-1.6721051182159898"><ele>107.0</ele><time>2026-03-22T14:44:38.998Z</time></trkpt><trkpt lat="47.81674030341089" lon="-1.6720131772675626"><ele>106.0</ele><time>2026-03-22T14:44:39.998Z</time></trkpt><trkpt lat="47.81661614320518" lon="-1.6719261791845845"><ele>105.0</ele><time>2026-03-22T14:44:40.998Z</time></trkpt><trkpt lat="47.81647871549056" lon="-1.6718391372773584"><ele>104.0</ele><time>2026-03-22T14:44:41.998Z</time></trkpt><trkpt lat="47.81633968473563" lon="-1.6717625777226448"><ele>104.0</ele><time>2026-03-22T14:44:42.998Z</time></trkpt><trkpt lat="47.81619906636021" lon="-1.6716870523627712"><ele>104.0</ele><time>2026-03-22T14:44:43.998Z</time></trkpt><trkpt lat="47.8160513640261" lon="-1.6716091647074487"><ele>104.0</ele><time>2026-03-22T14:44:44.998Z</time></trkpt><trkpt lat="47.81591790315868" lon="-1.6715213429792033"><ele>103.0</ele><time>2026-03-22T14:44:45.998Z</time></trkpt><trkpt lat="47.81577605581425" lon="-1.671469976843624"><ele>102.0</ele><time>2026-03-22T14:44:47Z</time></trkpt><trkpt lat="47.815624332676045" lon="-1.6713988461362903"><ele>101.0</ele><time>2026-03-22T14:44:48Z</time></trkpt><trkpt lat="47.81545194991789" lon="-1.6712930763888911"><ele>101.0</ele><time>2026-03-22T14:44:49Z</time></trkpt><trkpt lat="47.8152691235251" lon="-1.6711966667777174"><ele>101.0</ele><time>2026-03-22T14:44:50Z</time></trkpt><trkpt lat="47.81511479000036" lon="-1.671115282275589"><ele>101.0</ele><time>2026-03-22T14:44:51Z</time></trkpt><trkpt lat="47.814966380961664" lon="-1.6710370219345094"><ele>100.0</ele><time>2026-03-22T14:44:52Z</time></trkpt><trkpt lat="47.8148328331134" lon="-1.6709665983000765"><ele>99.0</ele><time>2026-03-22T14:44:53Z</time></trkpt><trkpt lat="47.814694292620466" lon="-1.6708920158926397"><ele>98.0</ele><time>2026-03-22T14:44:54Z</time></trkpt><trkpt lat="47.81458511916054" lon="-1.6708333073412658"><ele>97.0</ele><time>2026-03-22T14:44:55Z</time></trkpt><trkpt lat="47.81445880653335" lon="-1.6707681437717792"><ele>97.0</ele><time>2026-03-22T14:44:56Z</time></trkpt><trkpt lat="47.81434158095063" lon="-1.6707076680978536"><ele>97.0</ele><time>2026-03-22T14:44:57Z</time></trkpt><trkpt lat="47.814222865352995" lon="-1.6706464237530736"><ele>97.0</ele><time>2026-03-22T14:44:58Z</time></trkpt><trkpt lat="47.81408518382914" lon="-1.6705607082138685"><ele>97.0</ele><time>2026-03-22T14:44:59Z</time></trkpt><trkpt lat="47.81395830529313" lon="-1.670509743370891"><ele>96.66666666666667</ele><time>2026-03-22T14:45:00Z</time></trkpt><trkpt lat="47.813821683396114" lon="-1.6704137218653923"><ele>96.33333333333334</ele><time>2026-03-22T14:45:01Z</time></trkpt><trkpt lat="47.813662539126476" lon="-1.6703322674268213"><ele>96.0</ele><time>2026-03-22T14:45:02Z</time></trkpt><trkpt lat="47.81347294707999" lon="-1.6702550693265044"><ele>93.66666666666667</ele><time>2026-03-22T14:45:03Z</time></trkpt><trkpt lat="47.81327264830553" lon="-1.6701451445495925"><ele>91.33333333333334</ele><time>2026-03-22T14:45:04Z</time></trkpt><trkpt lat="47.813057977273616" lon="-1.67001094357365"><ele>89.0</ele><time>2026-03-22T14:45:05Z</time></trkpt><trkpt lat="47.81282679515006" lon="-1.6698412826677695"><ele>89.0</ele><time>2026-03-22T14:45:06Z</time></trkpt><trkpt lat="47.81291062476122" lon="-1.6699052795922977"><ele>89.0</ele><time>2026-03-22T14:45:07Z</time></trkpt><trkpt lat="47.81279092169401" lon="-1.6698122398868267"><ele>89.0</ele><time>2026-03-22T14:45:08Z</time></trkpt><trkpt lat="47.812684382494" lon="-1.669722611859925"><ele>89.0</ele><time>2026-03-22T14:45:09Z</time></trkpt><trkpt lat="47.81258600931549" lon="-1.6696297958036903"><ele>88.5</ele><time>2026-03-22T14:45:10Z</time></trkpt><trkpt lat="47.81249572913695" lon="-1.6695370737244655"><ele>88.0</ele><time>2026-03-22T14:45:11Z</time></trkpt><trkpt lat="47.812422518758545" lon="-1.6694570177703372"><ele>87.5</ele><time>2026-03-22T14:45:12Z</time></trkpt><trkpt lat="47.81236313468057" lon="-1.6693887404295165"><ele>87.0</ele><time>2026-03-22T14:45:13Z</time></trkpt><trkpt lat="47.812307146857854" lon="-1.6693257093151601"><ele>86.5</ele><time>2026-03-22T14:45:14Z</time></trkpt><trkpt lat="47.812234029339194" lon="-1.6693091572768353"><ele>86.0</ele><time>2026-03-22T14:45:15Z</time></trkpt><trkpt lat="47.81214050204357" lon="-1.669317457418159"><ele>85.75</ele><time>2026-03-22T14:45:16Z</time></trkpt><trkpt lat="47.81202177899214" lon="-1.6693322673681206"><ele>85.5</ele><time>2026-03-22T14:45:17Z</time></trkpt><trkpt lat="47.81189046315284" lon="-1.6693812661020015"><ele>85.25</ele><time>2026-03-22T14:45:18Z</time></trkpt><trkpt lat="47.81175062593771" lon="-1.6694402125894447"><ele>85.0</ele><time>2026-03-22T14:45:19Z</time></trkpt><trkpt lat="47.81162627577002" lon="-1.6695197380277322"><ele>83.66666666666666</ele><time>2026-03-22T14:45:20Z</time></trkpt><trkpt lat="47.81149647975391" lon="-1.6696189924990712"><ele>82.33333333333333</ele><time>2026-03-22T14:45:21Z</time></trkpt><trkpt lat="47.81135847399954" lon="-1.6697411874921186"><ele>81.0</ele><time>2026-03-22T14:45:22Z</time></trkpt><trkpt lat="47.811219211106696" lon="-1.6699035436238565"><ele>81.0</ele><time>2026-03-22T14:45:23Z</time></trkpt><trkpt lat="47.811069285090014" lon="-1.6700803556896886"><ele>81.0</ele><time>2026-03-22T14:45:24Z</time></trkpt><trkpt lat="47.81092699130046" lon="-1.6702359575982795"><ele>81.0</ele><time>2026-03-22T14:45:25Z</time></trkpt><trkpt lat="47.810774624300585" lon="-1.6703586294880521"><ele>80.0</ele><time>2026-03-22T14:45:26Z</time></trkpt><trkpt lat="47.81063287903013" lon="-1.6704746411548983"><ele>79.0</ele><time>2026-03-22T14:45:27Z</time></trkpt><trkpt lat="47.810498808182324" lon="-1.67057606331102"><ele>78.0</ele><time>2026-03-22T14:45:28Z</time></trkpt><trkpt lat="47.81037445655598" lon="-1.6706678785727787"><ele>78.0</ele><time>2026-03-22T14:45:29Z</time></trkpt><trkpt lat="47.81025971471721" lon="-1.670742419957631"><ele>78.0</ele><time>2026-03-22T14:45:29.999Z</time></trkpt><trkpt lat="47.810143975186655" lon="-1.6707769760108278"><ele>78.0</ele><time>2026-03-22T14:45:30.999Z</time></trkpt><trkpt lat="47.81002908821528" lon="-1.6707921014219314"><ele>78.0</ele><time>2026-03-22T14:45:31.999Z</time></trkpt><trkpt lat="47.80991379766751" lon="-1.6708104641182882"><ele>77.25</ele><time>2026-03-22T14:45:32.999Z</time></trkpt><trkpt lat="47.80978692459034" lon="-1.6707974610657959"><ele>76.5</ele><time>2026-03-22T14:45:33.999Z</time></trkpt><trkpt lat="47.80964945637008" lon="-1.6707643713878166"><ele>75.75</ele><time>2026-03-22T14:45:34.999Z</time></trkpt><trkpt lat="47.80950782926936" lon="-1.670715033041293"><ele>75.0</ele><time>2026-03-22T14:45:35.999Z</time></trkpt><trkpt lat="47.809359160802224" lon="-1.6706372883398088"><ele>73.5</ele><time>2026-03-22T14:45:36.999Z</time></trkpt><trkpt lat="47.80922313702722" lon="-1.6705570270154315"><ele>72.0</ele><time>2026-03-22T14:45:37.999Z</time></trkpt><trkpt lat="47.80909450204938" lon="-1.6704656664594348"><ele>70.5</ele><time>2026-03-22T14:45:38.999Z</time></trkpt><trkpt lat="47.80898564343442" lon="-1.6703794913018999"><ele>69.0</ele><time>2026-03-22T14:45:39.999Z</time></trkpt><trkpt lat="47.808879303259964" lon="-1.670305054387535"><ele>68.60000000000001</ele><time>2026-03-22T14:45:40.999Z</time></trkpt><trkpt lat="47.80875342573718" lon="-1.6702513521635955"><ele>68.2</ele><time>2026-03-22T14:45:41.999Z</time></trkpt><trkpt lat="47.808658103786925" lon="-1.670179610730116"><ele>67.80000000000001</ele><time>2026-03-22T14:45:42.999Z</time></trkpt><trkpt lat="47.80856970815855" lon="-1.6701137113568276"><ele>67.4</ele><time>2026-03-22T14:45:43.999Z</time></trkpt><trkpt lat="47.808481507732985" lon="-1.6700596754883574"><ele>67.0</ele><time>2026-03-22T14:45:44.999Z</time></trkpt><trkpt lat="47.80839186026354" lon="-1.670026337559715"><ele>66.57142857142857</ele><time>2026-03-22T14:45:45.999Z</time></trkpt><trkpt lat="47.808309492413024" lon="-1.670011631410164"><ele>66.14285714285714</ele><time>2026-03-22T14:45:46.999Z</time></trkpt><trkpt lat="47.80822743730746" lon="-1.6700069692528432"><ele>65.71428571428571</ele><time>2026-03-22T14:45:47.999Z</time></trkpt><trkpt lat="47.80815171096366" lon="-1.6699910225985626"><ele>65.28571428571428</ele><time>2026-03-22T14:45:48.999Z</time></trkpt><trkpt lat="47.80808800487811" lon="-1.6699574804950625"><ele>64.85714285714285</ele><time>2026-03-22T14:45:49.999Z</time></trkpt><trkpt lat="47.8080267615762" lon="-1.6699269269444634"><ele>64.42857142857143</ele><time>2026-03-22T14:45:50.999Z</time></trkpt><trkpt lat="47.80796593896458" lon="-1.6698979002985905"><ele>64.0</ele><time>2026-03-22T14:45:51.999Z</time></trkpt><trkpt lat="47.80785971053834" lon="-1.6698448912631432"><ele>63.99999999999999</ele><time>2026-03-22T14:45:53.999Z</time></trkpt><trkpt lat="47.80779991471642" lon="-1.6698134682331987"><ele>64.0</ele><time>2026-03-22T14:45:54.999Z</time></trkpt><trkpt lat="47.80771505963096" lon="-1.6697328843004982"><ele>64.0</ele><time>2026-03-22T14:45:56.999Z</time></trkpt><trkpt lat="47.80759933981453" lon="-1.6696731884658154"><ele>64.0</ele><time>2026-03-22T14:45:58.999Z</time></trkpt><trkpt lat="47.80754158390025" lon="-1.669630030754889"><ele>63.99999999999999</ele><time>2026-03-22T14:45:59.999Z</time></trkpt><trkpt lat="47.807457932334465" lon="-1.6696210426034408"><ele>64.0</ele><time>2026-03-22T14:46:00.999Z</time></trkpt><trkpt lat="47.80736008042485" lon="-1.6695554767714076"><ele>63.0</ele><time>2026-03-22T14:46:01.999Z</time></trkpt><trkpt lat="47.807280009354955" lon="-1.669493328279945"><ele>62.0</ele><time>2026-03-22T14:46:02.999Z</time></trkpt><trkpt lat="47.80718164967471" lon="-1.6694040506889611"><ele>61.0</ele><time>2026-03-22T14:46:03.999Z</time></trkpt><trkpt lat="47.80707016960793" lon="-1.6692775897056051"><ele>60.0</ele><time>2026-03-22T14:46:04.999Z</time></trkpt><trkpt lat="47.80697125360303" lon="-1.6691571273961252"><ele>60.0</ele><time>2026-03-22T14:46:05.999Z</time></trkpt><trkpt lat="47.80689176099448" lon="-1.6690227054537903"><ele>60.0</ele><time>2026-03-22T14:46:06.999Z</time></trkpt><trkpt lat="47.806799056507" lon="-1.6689209648895642"><ele>60.0</ele><time>2026-03-22T14:46:07.999Z</time></trkpt><trkpt lat="47.80672145272872" lon="-1.6687942967155538"><ele>60.0</ele><time>2026-03-22T14:46:08.999Z</time></trkpt><trkpt lat="47.80665464159867" lon="-1.668670996992132"><ele>59.5</ele><time>2026-03-22T14:46:09.999Z</time></trkpt><trkpt lat="47.806589762049406" lon="-1.6685556720436456"><ele>59.0</ele><time>2026-03-22T14:46:10.999Z</time></trkpt><trkpt lat="47.80653173421509" lon="-1.6684581662730933"><ele>58.5</ele><time>2026-03-22T14:46:11.999Z</time></trkpt><trkpt lat="47.80647834082105" lon="-1.668362188777759"><ele>58.0</ele><time>2026-03-22T14:46:12.999Z</time></trkpt><trkpt lat="47.80642408670363" lon="-1.668263489267249"><ele>57.5</ele><time>2026-03-22T14:46:13.999Z</time></trkpt><trkpt lat="47.80637696392791" lon="-1.6681822730872273"><ele>57.0</ele><time>2026-03-22T14:46:14.999Z</time></trkpt><trkpt lat="47.80633193779047" lon="-1.6680917289312462"><ele>57.0</ele><time>2026-03-22T14:46:15.999Z</time></trkpt><trkpt lat="47.80628264084952" lon="-1.6680041506172223"><ele>57.0</ele><time>2026-03-22T14:46:16.999Z</time></trkpt><trkpt lat="47.80622229608529" lon="-1.667915844443559"><ele>57.0</ele><time>2026-03-22T14:46:17.999Z</time></trkpt><trkpt lat="47.806135241914696" lon="-1.6678380397440746"><ele>57.0</ele><time>2026-03-22T14:46:18.999Z</time></trkpt><trkpt lat="47.806039247645835" lon="-1.6677282209135111"><ele>57.0</ele><time>2026-03-22T14:46:19.999Z</time></trkpt><trkpt lat="47.80591022145006" lon="-1.6676613514672058"><ele>56.66666666666667</ele><time>2026-03-22T14:46:20.999Z</time></trkpt><trkpt lat="47.805755334805234" lon="-1.667551092080904"><ele>56.333333333333336</ele><time>2026-03-22T14:46:21.999Z</time></trkpt><trkpt lat="47.80561114624594" lon="-1.6674493216635549"><ele>56.0</ele><time>2026-03-22T14:46:22.999Z</time></trkpt><trkpt lat="47.80546153908638" lon="-1.6673437267248188"><ele>56.0</ele><time>2026-03-22T14:46:23.999Z</time></trkpt><trkpt lat="47.805300735202614" lon="-1.6672307664406205"><ele>56.0</ele><time>2026-03-22T14:46:24.999Z</time></trkpt><trkpt lat="47.80512763238974" lon="-1.6671172377733827"><ele>56.0</ele><time>2026-03-22T14:46:25.999Z</time></trkpt><trkpt lat="47.804943133895826" lon="-1.6670055508418093"><ele>56.333333333333336</ele><time>2026-03-22T14:46:26.999Z</time></trkpt><trkpt lat="47.804767673581324" lon="-1.6669092893673976"><ele>56.66666666666667</ele><time>2026-03-22T14:46:27.999Z</time></trkpt><trkpt lat="47.80459944013516" lon="-1.666832494024268"><ele>57.0</ele><time>2026-03-22T14:46:28.999Z</time></trkpt><trkpt lat="47.80441421535021" lon="-1.6668264436589493"><ele>57.66666666666667</ele><time>2026-03-22T14:46:29.999Z</time></trkpt><trkpt lat="47.80421451885222" lon="-1.6668353024220195"><ele>58.333333333333336</ele><time>2026-03-22T14:46:30.999Z</time></trkpt><trkpt lat="47.80399775632046" lon="-1.6668312737516917"><ele>59.0</ele><time>2026-03-22T14:46:31.999Z</time></trkpt><trkpt lat="47.8037662275226" lon="-1.6668443994439521"><ele>59.0</ele><time>2026-03-22T14:46:32.999Z</time></trkpt><trkpt lat="47.80353003048048" lon="-1.6668491563688892"><ele>59.0</ele><time>2026-03-22T14:46:33.999Z</time></trkpt><trkpt lat="47.803315250122395" lon="-1.666862813938514"><ele>59.333333333333336</ele><time>2026-03-22T14:46:34.998Z</time></trkpt><trkpt lat="47.80311062189057" lon="-1.66687677098542"><ele>59.66666666666667</ele><time>2026-03-22T14:46:35.998Z</time></trkpt><trkpt lat="47.802902774698055" lon="-1.6668825605643227"><ele>60.0</ele><time>2026-03-22T14:46:36.998Z</time></trkpt><trkpt lat="47.802686116914266" lon="-1.6668734243753622"><ele>61.0</ele><time>2026-03-22T14:46:37.998Z</time></trkpt><trkpt lat="47.80247171975638" lon="-1.6668452432504257"><ele>62.0</ele><time>2026-03-22T14:46:38.998Z</time></trkpt><trkpt lat="47.802259354062706" lon="-1.6667781135580526"><ele>63.0</ele><time>2026-03-22T14:46:39.998Z</time></trkpt><trkpt lat="47.80204895507675" lon="-1.666693711546051"><ele>63.0</ele><time>2026-03-22T14:46:40.998Z</time></trkpt><trkpt lat="47.80184078099436" lon="-1.6665766794469168"><ele>63.0</ele><time>2026-03-22T14:46:41.998Z</time></trkpt><trkpt lat="47.801635227379066" lon="-1.6664661289952727"><ele>63.0</ele><time>2026-03-22T14:46:42.998Z</time></trkpt><trkpt lat="47.801425387523864" lon="-1.6663629428324598"><ele>63.0</ele><time>2026-03-22T14:46:43.998Z</time></trkpt><trkpt lat="47.8012204650266" lon="-1.6662640256199945"><ele>63.0</ele><time>2026-03-22T14:46:44.998Z</time></trkpt><trkpt lat="47.8010097973953" lon="-1.6661581012315367"><ele>63.0</ele><time>2026-03-22T14:46:45.998Z</time></trkpt><trkpt lat="47.800806787433096" lon="-1.6660150693471363"><ele>64.0</ele><time>2026-03-22T14:46:46.998Z</time></trkpt><trkpt lat="47.80061327450966" lon="-1.6658576145955315"><ele>65.0</ele><time>2026-03-22T14:46:47.998Z</time></trkpt><trkpt lat="47.80041326063515" lon="-1.665704663512839"><ele>66.0</ele><time>2026-03-22T14:46:48.998Z</time></trkpt><trkpt lat="47.80021958431538" lon="-1.6655316137688339"><ele>67.0</ele><time>2026-03-22T14:46:49.998Z</time></trkpt><trkpt lat="47.80003408189078" lon="-1.6653671688658853"><ele>68.0</ele><time>2026-03-22T14:46:50.998Z</time></trkpt><trkpt lat="47.799861540142665" lon="-1.665225201191225"><ele>69.0</ele><time>2026-03-22T14:46:51.998Z</time></trkpt><trkpt lat="47.79971015535905" lon="-1.665108765913049"><ele>70.0</ele><time>2026-03-22T14:46:53Z</time></trkpt><trkpt lat="47.799536448590004" lon="-1.665079905199988"><ele>71.0</ele><time>2026-03-22T14:46:54Z</time></trkpt><trkpt lat="47.79936579689583" lon="-1.6650214189477588"><ele>72.0</ele><time>2026-03-22T14:46:55Z</time></trkpt><trkpt lat="47.7991943645038" lon="-1.664986152176527"><ele>74.66666666666667</ele><time>2026-03-22T14:46:56Z</time></trkpt><trkpt lat="47.79904273565508" lon="-1.6648988776456703"><ele>77.33333333333334</ele><time>2026-03-22T14:46:57Z</time></trkpt><trkpt lat="47.798897803603936" lon="-1.6647620629981565"><ele>80.0</ele><time>2026-03-22T14:46:58Z</time></trkpt><trkpt lat="47.798739220392264" lon="-1.6645981909548913"><ele>80.66666666666667</ele><time>2026-03-22T14:46:59Z</time></trkpt><trkpt lat="47.798563909095925" lon="-1.6644258176652575"><ele>81.33333333333333</ele><time>2026-03-22T14:47:00Z</time></trkpt><trkpt lat="47.79842329271666" lon="-1.6642538045588546"><ele>82.0</ele><time>2026-03-22T14:47:01Z</time></trkpt><trkpt lat="47.79828017439975" lon="-1.6641151906743032"><ele>84.0</ele><time>2026-03-22T14:47:02Z</time></trkpt><trkpt lat="47.798150900144236" lon="-1.663974094208718"><ele>86.0</ele><time>2026-03-22T14:47:03Z</time></trkpt><trkpt lat="47.797994096349036" lon="-1.66385920260101"><ele>88.0</ele><time>2026-03-22T14:47:04Z</time></trkpt><trkpt lat="47.79784842940831" lon="-1.6637157383205887"><ele>88.66666666666666</ele><time>2026-03-22T14:47:05Z</time></trkpt><trkpt lat="47.797703037160055" lon="-1.6635745086767906"><ele>89.33333333333333</ele><time>2026-03-22T14:47:06Z</time></trkpt><trkpt lat="47.79757759669112" lon="-1.6634503903037936"><ele>90.0</ele><time>2026-03-22T14:47:07Z</time></trkpt><trkpt lat="47.79745377616521" lon="-1.6633278747772071"><ele>90.5</ele><time>2026-03-22T14:47:08Z</time></trkpt><trkpt lat="47.79733967335631" lon="-1.6632210165542898"><ele>91.0</ele><time>2026-03-22T14:47:09Z</time></trkpt><trkpt lat="47.79722205153197" lon="-1.6631291748665977"><ele>91.5</ele><time>2026-03-22T14:47:10Z</time></trkpt><trkpt lat="47.79711362408235" lon="-1.6630545610301501"><ele>92.0</ele><time>2026-03-22T14:47:11Z</time></trkpt><trkpt lat="47.79701057714881" lon="-1.6629935731731347"><ele>92.0</ele><time>2026-03-22T14:47:12Z</time></trkpt><trkpt lat="47.7969222262489" lon="-1.662959162792571"><ele>92.0</ele><time>2026-03-22T14:47:13Z</time></trkpt><trkpt lat="47.79685462308233" lon="-1.662915971502203"><ele>92.0</ele><time>2026-03-22T14:47:14Z</time></trkpt><trkpt lat="47.796794838660105" lon="-1.6628777755628836"><ele>92.0</ele><time>2026-03-22T14:47:15Z</time></trkpt><trkpt lat="47.79668071087277" lon="-1.6629649304994958"><ele>92.0</ele><time>2026-03-22T14:47:16Z</time></trkpt><trkpt lat="47.7965968365747" lon="-1.6629590068528595"><ele>92.0</ele><time>2026-03-22T14:47:17Z</time></trkpt><trkpt lat="47.79650979585822" lon="-1.6629827387467961"><ele>91.83333333333334</ele><time>2026-03-22T14:47:18Z</time></trkpt><trkpt lat="47.79642140323071" lon="-1.6630073960196783"><ele>91.66666666666667</ele><time>2026-03-22T14:47:19Z</time></trkpt><trkpt lat="47.79634968172385" lon="-1.6630529433806538"><ele>91.5</ele><time>2026-03-22T14:47:20Z</time></trkpt><trkpt lat="47.79628240633973" lon="-1.6630816298685691"><ele>91.33333333333333</ele><time>2026-03-22T14:47:21Z</time></trkpt><trkpt lat="47.79622073761037" lon="-1.6631150997802275"><ele>91.16666666666666</ele><time>2026-03-22T14:47:22Z</time></trkpt><trkpt lat="47.7961112896317" lon="-1.6631738626822776"><ele>91.0</ele><time>2026-03-22T14:47:24Z</time></trkpt><trkpt lat="47.79602287909358" lon="-1.6632421649672564"><ele>90.66666666666666</ele><time>2026-03-22T14:47:26Z</time></trkpt><trkpt lat="47.7959684225005" lon="-1.6632953870217058"><ele>90.33333333333333</ele><time>2026-03-22T14:47:27Z</time></trkpt><trkpt lat="47.79591582606067" lon="-1.6633490118342074"><ele>90.0</ele><time>2026-03-22T14:47:28Z</time></trkpt><trkpt lat="47.795858652570594" lon="-1.6634383522786451"><ele>89.66666666666667</ele><time>2026-03-22T14:47:29Z</time></trkpt><trkpt lat="47.79579441907283" lon="-1.663569485109311"><ele>89.33333333333334</ele><time>2026-03-22T14:47:30Z</time></trkpt><trkpt lat="47.79575495057602" lon="-1.6636735444558064"><ele>89.0</ele><time>2026-03-22T14:47:31Z</time></trkpt><trkpt lat="47.795746554934894" lon="-1.6637783032661395"><ele>89.0</ele><time>2026-03-22T14:47:32Z</time></trkpt><trkpt lat="47.79573001540213" lon="-1.6638759544518016"><ele>89.0</ele><time>2026-03-22T14:47:33Z</time></trkpt><trkpt lat="47.79571324601199" lon="-1.6639858416506925"><ele>89.0</ele><time>2026-03-22T14:47:34Z</time></trkpt><trkpt lat="47.79571403636701" lon="-1.6641018733843218"><ele>89.0</ele><time>2026-03-22T14:47:35Z</time></trkpt><trkpt lat="47.79568861528512" lon="-1.6642338447274603"><ele>89.0</ele><time>2026-03-22T14:47:36Z</time></trkpt><trkpt lat="47.795661164629514" lon="-1.6643511888290219"><ele>89.0</ele><time>2026-03-22T14:47:37Z</time></trkpt><trkpt lat="47.79563925062418" lon="-1.6644486997507817"><ele>89.0</ele><time>2026-03-22T14:47:37.999Z</time></trkpt><trkpt lat="47.79560932168716" lon="-1.6645537576122822"><ele>89.0</ele><time>2026-03-22T14:47:38.999Z</time></trkpt><trkpt lat="47.79557583438545" lon="-1.664664687981443"><ele>89.0</ele><time>2026-03-22T14:47:39.999Z</time></trkpt><trkpt lat="47.79552559817182" lon="-1.6647917702365553"><ele>89.0</ele><time>2026-03-22T14:47:40.999Z</time></trkpt><trkpt lat="47.79546014087179" lon="-1.664914357933767"><ele>89.0</ele><time>2026-03-22T14:47:41.999Z</time></trkpt><trkpt lat="47.79539475769353" lon="-1.6650279512803323"><ele>89.0</ele><time>2026-03-22T14:47:42.999Z</time></trkpt><trkpt lat="47.795329955279456" lon="-1.6651452181024082"><ele>89.0</ele><time>2026-03-22T14:47:43.999Z</time></trkpt><trkpt lat="47.795244401692806" lon="-1.6652464338943729"><ele>89.0</ele><time>2026-03-22T14:47:44.999Z</time></trkpt><trkpt lat="47.79515384859762" lon="-1.6653617290982738"><ele>89.0</ele><time>2026-03-22T14:47:45.999Z</time></trkpt><trkpt lat="47.795082941541395" lon="-1.6654432234731202"><ele>89.0</ele><time>2026-03-22T14:47:46.999Z</time></trkpt><trkpt lat="47.795017326449866" lon="-1.6655361181460058"><ele>89.4</ele><time>2026-03-22T14:47:47.999Z</time></trkpt><trkpt lat="47.7949568244225" lon="-1.6656277019228936"><ele>89.80000000000001</ele><time>2026-03-22T14:47:48.999Z</time></trkpt><trkpt lat="47.79488053941416" lon="-1.6657147713556522"><ele>90.19999999999999</ele><time>2026-03-22T14:47:49.999Z</time></trkpt><trkpt lat="47.79481026970786" lon="-1.665789752129839"><ele>90.6</ele><time>2026-03-22T14:47:50.999Z</time></trkpt><trkpt lat="47.7947361581694" lon="-1.6658792002022367"><ele>91.0</ele><time>2026-03-22T14:47:51.999Z</time></trkpt><trkpt lat="47.79466533017042" lon="-1.6659728398703504"><ele>91.0</ele><time>2026-03-22T14:47:52.999Z</time></trkpt><trkpt lat="47.79459470169487" lon="-1.6660721539723475"><ele>91.0</ele><time>2026-03-22T14:47:53.999Z</time></trkpt><trkpt lat="47.794517961717276" lon="-1.6661667601463832"><ele>91.0</ele><time>2026-03-22T14:47:54.999Z</time></trkpt><trkpt lat="47.79443694471687" lon="-1.666271197459356"><ele>91.0</ele><time>2026-03-22T14:47:55.999Z</time></trkpt><trkpt lat="47.794342767071576" lon="-1.6663805813576476"><ele>91.0</ele><time>2026-03-22T14:47:56.999Z</time></trkpt><trkpt lat="47.794250228798376" lon="-1.6664963851135335"><ele>91.5</ele><time>2026-03-22T14:47:57.999Z</time></trkpt><trkpt lat="47.7941511217702" lon="-1.666607547349248"><ele>92.0</ele><time>2026-03-22T14:47:58.999Z</time></trkpt><trkpt lat="47.79405278607924" lon="-1.6667288257381572"><ele>92.5</ele><time>2026-03-22T14:47:59.999Z</time></trkpt><trkpt lat="47.79395235820971" lon="-1.6668590561617203"><ele>93.0</ele><time>2026-03-22T14:48:00.999Z</time></trkpt><trkpt lat="47.793842646893715" lon="-1.6669923338831167"><ele>93.0</ele><time>2026-03-22T14:48:01.999Z</time></trkpt><trkpt lat="47.79375141129522" lon="-1.6670983157651473"><ele>93.0</ele><time>2026-03-22T14:48:02.999Z</time></trkpt><trkpt lat="47.79366594871218" lon="-1.6671881528468722"><ele>93.0</ele><time>2026-03-22T14:48:03.999Z</time></trkpt><trkpt lat="47.79357913743426" lon="-1.6672844683974202"><ele>93.0</ele><time>2026-03-22T14:48:04.999Z</time></trkpt><trkpt lat="47.79349169584366" lon="-1.6674061305286678"><ele>93.0</ele><time>2026-03-22T14:48:05.999Z</time></trkpt><trkpt lat="47.79340310051902" lon="-1.6675241212579361"><ele>93.60000000000001</ele><time>2026-03-22T14:48:06.999Z</time></trkpt><trkpt lat="47.79331830155938" lon="-1.667628707377299"><ele>94.2</ele><time>2026-03-22T14:48:07.999Z</time></trkpt><trkpt lat="47.79323826301287" lon="-1.667710630414186"><ele>94.8</ele><time>2026-03-22T14:48:08.999Z</time></trkpt><trkpt lat="47.79316200241419" lon="-1.6677961513308603"><ele>95.4</ele><time>2026-03-22T14:48:09.999Z</time></trkpt><trkpt lat="47.793088315197195" lon="-1.6678938577803473"><ele>96.0</ele><time>2026-03-22T14:48:10.999Z</time></trkpt><trkpt lat="47.793000752177804" lon="-1.6679581462261577"><ele>96.0</ele><time>2026-03-22T14:48:11.999Z</time></trkpt><trkpt lat="47.792924036316045" lon="-1.668028293813569"><ele>96.0</ele><time>2026-03-22T14:48:12.999Z</time></trkpt><trkpt lat="47.79283803692509" lon="-1.6680912275324773"><ele>96.0</ele><time>2026-03-22T14:48:13.999Z</time></trkpt><trkpt lat="47.79274215556184" lon="-1.6681396654154315"><ele>96.0</ele><time>2026-03-22T14:48:14.999Z</time></trkpt><trkpt lat="47.79264444127336" lon="-1.6681953685059046"><ele>96.0</ele><time>2026-03-22T14:48:15.999Z</time></trkpt><trkpt lat="47.79254821361531" lon="-1.6682443922373411"><ele>96.0</ele><time>2026-03-22T14:48:16.999Z</time></trkpt><trkpt lat="47.792448773901945" lon="-1.6682758757998615"><ele>96.0</ele><time>2026-03-22T14:48:17.999Z</time></trkpt><trkpt lat="47.792352235034926" lon="-1.6683390801542834"><ele>96.0</ele><time>2026-03-22T14:48:18.999Z</time></trkpt><trkpt lat="47.792246016175696" lon="-1.6683879245930584"><ele>96.0</ele><time>2026-03-22T14:48:19.999Z</time></trkpt><trkpt lat="47.7921394808221" lon="-1.6684425620518357"><ele>96.0</ele><time>2026-03-22T14:48:20.999Z</time></trkpt><trkpt lat="47.79202614941407" lon="-1.6685023905848437"><ele>96.0</ele><time>2026-03-22T14:48:21.999Z</time></trkpt><trkpt lat="47.79191178893842" lon="-1.6685564142696152"><ele>96.0</ele><time>2026-03-22T14:48:22.999Z</time></trkpt><trkpt lat="47.79178712100436" lon="-1.6685997617732184"><ele>96.0</ele><time>2026-03-22T14:48:23.999Z</time></trkpt><trkpt lat="47.79166200928218" lon="-1.6686512962059081"><ele>96.0</ele><time>2026-03-22T14:48:24.999Z</time></trkpt><trkpt lat="47.79153119996199" lon="-1.6686868317290329"><ele>95.75</ele><time>2026-03-22T14:48:25.999Z</time></trkpt><trkpt lat="47.79137839303259" lon="-1.6687144892603636"><ele>95.5</ele><time>2026-03-22T14:48:26.999Z</time></trkpt><trkpt lat="47.79124123883311" lon="-1.6687271607950669"><ele>95.25</ele><time>2026-03-22T14:48:27.999Z</time></trkpt><trkpt lat="47.79109565040408" lon="-1.6687507363959038"><ele>95.0</ele><time>2026-03-22T14:48:28.999Z</time></trkpt><trkpt lat="47.790957881314725" lon="-1.6687780282745939"><ele>94.75</ele><time>2026-03-22T14:48:29.999Z</time></trkpt><trkpt lat="47.79082663460247" lon="-1.6687831569562857"><ele>94.5</ele><time>2026-03-22T14:48:30.999Z</time></trkpt><trkpt lat="47.790710215570385" lon="-1.6687890994648718"><ele>94.25</ele><time>2026-03-22T14:48:31.999Z</time></trkpt><trkpt lat="47.790591986315356" lon="-1.668793885775196"><ele>94.0</ele><time>2026-03-22T14:48:32.999Z</time></trkpt><trkpt lat="47.79048684287645" lon="-1.6688005132120012"><ele>94.0</ele><time>2026-03-22T14:48:33.999Z</time></trkpt><trkpt lat="47.79036288434124" lon="-1.6688006304826772"><ele>94.0</ele><time>2026-03-22T14:48:34.999Z</time></trkpt><trkpt lat="47.79022770226579" lon="-1.668793404704793"><ele>94.0</ele><time>2026-03-22T14:48:35.999Z</time></trkpt><trkpt lat="47.79008781521643" lon="-1.6687671165914524"><ele>94.0</ele><time>2026-03-22T14:48:36.999Z</time></trkpt><trkpt lat="47.78994476202397" lon="-1.6687678549549065"><ele>93.0</ele><time>2026-03-22T14:48:37.999Z</time></trkpt><trkpt lat="47.78979779920644" lon="-1.6687719045074985"><ele>92.0</ele><time>2026-03-22T14:48:38.999Z</time></trkpt><trkpt lat="47.78962798051851" lon="-1.6687525394736755"><ele>91.0</ele><time>2026-03-22T14:48:39.999Z</time></trkpt><trkpt lat="47.78946618187877" lon="-1.668725481808113"><ele>90.25</ele><time>2026-03-22T14:48:40.999Z</time></trkpt><trkpt lat="47.78930631237268" lon="-1.668716718530808"><ele>89.5</ele><time>2026-03-22T14:48:41.998Z</time></trkpt><trkpt lat="47.78917349992133" lon="-1.6687103859533632"><ele>88.75</ele><time>2026-03-22T14:48:42.998Z</time></trkpt><trkpt lat="47.78903976032663" lon="-1.6687171973582162"><ele>88.0</ele><time>2026-03-22T14:48:43.998Z</time></trkpt><trkpt lat="47.78890262592929" lon="-1.6687507450177714"><ele>88.0</ele><time>2026-03-22T14:48:44.998Z</time></trkpt><trkpt lat="47.78879701470002" lon="-1.668772141467553"><ele>88.0</ele><time>2026-03-22T14:48:45.998Z</time></trkpt><trkpt lat="47.78867722156731" lon="-1.6687765892186013"><ele>88.0</ele><time>2026-03-22T14:48:46.998Z</time></trkpt><trkpt lat="47.788545025179104" lon="-1.668830427003019"><ele>88.0</ele><time>2026-03-22T14:48:47.998Z</time></trkpt><trkpt lat="47.788421011720835" lon="-1.6688700598355217"><ele>87.5</ele><time>2026-03-22T14:48:48.998Z</time></trkpt><trkpt lat="47.78830057865548" lon="-1.6688937188826494"><ele>87.0</ele><time>2026-03-22T14:48:49.998Z</time></trkpt><trkpt lat="47.788177847677076" lon="-1.6689277835787533"><ele>86.5</ele><time>2026-03-22T14:48:50.998Z</time></trkpt><trkpt lat="47.788054876587694" lon="-1.6689769917952044"><ele>86.0</ele><time>2026-03-22T14:48:51.998Z</time></trkpt><trkpt lat="47.78793131175759" lon="-1.669012485668582"><ele>86.0</ele><time>2026-03-22T14:48:52.998Z</time></trkpt><trkpt lat="47.7878134919504" lon="-1.6690406378323317"><ele>86.0</ele><time>2026-03-22T14:48:53.998Z</time></trkpt><trkpt lat="47.78770055999894" lon="-1.669092567938527"><ele>86.0</ele><time>2026-03-22T14:48:54.998Z</time></trkpt><trkpt lat="47.78756822182061" lon="-1.669116360863908"><ele>86.0</ele><time>2026-03-22T14:48:55.998Z</time></trkpt><trkpt lat="47.78743645209819" lon="-1.6691693577590605"><ele>85.75</ele><time>2026-03-22T14:48:56.998Z</time></trkpt><trkpt lat="47.78730455222708" lon="-1.6692201928417927"><ele>85.5</ele><time>2026-03-22T14:48:57.998Z</time></trkpt><trkpt lat="47.78717323066823" lon="-1.6692522754265324"><ele>85.25</ele><time>2026-03-22T14:48:59Z</time></trkpt><trkpt lat="47.78706054343371" lon="-1.6692734098231872"><ele>85.0</ele><time>2026-03-22T14:49:00Z</time></trkpt><trkpt lat="47.786953740461755" lon="-1.6692622495916098"><ele>85.0</ele><time>2026-03-22T14:49:01Z</time></trkpt><trkpt lat="47.786839540599956" lon="-1.6692322311611565"><ele>85.0</ele><time>2026-03-22T14:49:02Z</time></trkpt><trkpt lat="47.78672558479017" lon="-1.6692240628433186"><ele>85.0</ele><time>2026-03-22T14:49:03Z</time></trkpt><trkpt lat="47.78662540151923" lon="-1.6691947415092572"><ele>85.0</ele><time>2026-03-22T14:49:04Z</time></trkpt><trkpt lat="47.786530027320005" lon="-1.6691635909205689"><ele>85.0</ele><time>2026-03-22T14:49:05Z</time></trkpt><trkpt lat="47.78644009059965" lon="-1.6691260909472214"><ele>85.0</ele><time>2026-03-22T14:49:06Z</time></trkpt><trkpt lat="47.78636600445498" lon="-1.669089310435745"><ele>85.0</ele><time>2026-03-22T14:49:07Z</time></trkpt><trkpt lat="47.7863003048323" lon="-1.6690522993456902"><ele>85.0</ele><time>2026-03-22T14:49:08Z</time></trkpt><trkpt lat="47.786237638948776" lon="-1.66902178538055"><ele>85.0</ele><time>2026-03-22T14:49:09Z</time></trkpt><trkpt lat="47.78612079943789" lon="-1.6689474634438537"><ele>85.0</ele><time>2026-03-22T14:49:11Z</time></trkpt><trkpt lat="47.78601769399555" lon="-1.6689084292804677"><ele>85.0</ele><time>2026-03-22T14:49:13Z</time></trkpt><trkpt lat="47.785924940596786" lon="-1.6688850715007915"><ele>84.33333333333333</ele><time>2026-03-22T14:49:15Z</time></trkpt><trkpt lat="47.785846739458776" lon="-1.668851722368146"><ele>83.66666666666666</ele><time>2026-03-22T14:49:17Z</time></trkpt><trkpt lat="47.785764403546374" lon="-1.6688002549069412"><ele>83.0</ele><time>2026-03-22T14:49:19Z</time></trkpt><trkpt lat="47.78565025631433" lon="-1.6687415131826977"><ele>82.33333333333333</ele><time>2026-03-22T14:49:21Z</time></trkpt><trkpt lat="47.78557213631397" lon="-1.6687050344650296"><ele>81.66666666666667</ele><time>2026-03-22T14:49:22Z</time></trkpt><trkpt lat="47.78549731136564" lon="-1.6686837557852965"><ele>81.0</ele><time>2026-03-22T14:49:23Z</time></trkpt><trkpt lat="47.78543696100501" lon="-1.6686482908260696"><ele>81.0</ele><time>2026-03-22T14:49:24Z</time></trkpt><trkpt lat="47.785358294142185" lon="-1.668624307849858"><ele>81.0</ele><time>2026-03-22T14:49:25Z</time></trkpt><trkpt lat="47.785274563987535" lon="-1.6685861291524948"><ele>81.0</ele><time>2026-03-22T14:49:26Z</time></trkpt><trkpt lat="47.78518645935995" lon="-1.6685449326995212"><ele>81.0</ele><time>2026-03-22T14:49:27Z</time></trkpt><trkpt lat="47.78508156141745" lon="-1.6684995750960427"><ele>81.0</ele><time>2026-03-22T14:49:28Z</time></trkpt><trkpt lat="47.78498429123656" lon="-1.6684567579388805"><ele>80.5</ele><time>2026-03-22T14:49:29Z</time></trkpt><trkpt lat="47.78489669880243" lon="-1.6684184113946308"><ele>80.0</ele><time>2026-03-22T14:49:30Z</time></trkpt><trkpt lat="47.784810179901775" lon="-1.6683810779151547"><ele>79.5</ele><time>2026-03-22T14:49:31Z</time></trkpt><trkpt lat="47.78472284357693" lon="-1.6683412363850014"><ele>79.0</ele><time>2026-03-22T14:49:32Z</time></trkpt><trkpt lat="47.78463940035292" lon="-1.668302539847734"><ele>78.5</ele><time>2026-03-22T14:49:33Z</time></trkpt><trkpt lat="47.78456449081502" lon="-1.6682685628746934"><ele>78.0</ele><time>2026-03-22T14:49:34Z</time></trkpt><trkpt lat="47.78449384153516" lon="-1.668238527590754"><ele>78.0</ele><time>2026-03-22T14:49:35Z</time></trkpt><trkpt lat="47.784422801136934" lon="-1.6682083260277434"><ele>78.0</ele><time>2026-03-22T14:49:36Z</time></trkpt><trkpt lat="47.78434032982741" lon="-1.6681740955944206"><ele>78.0</ele><time>2026-03-22T14:49:37Z</time></trkpt><trkpt lat="47.784253200875895" lon="-1.668135308474294"><ele>78.0</ele><time>2026-03-22T14:49:38Z</time></trkpt><trkpt lat="47.78416321443084" lon="-1.6680952494096637"><ele>78.0</ele><time>2026-03-22T14:49:39Z</time></trkpt><trkpt lat="47.78407292025458" lon="-1.6680550533729328"><ele>78.0</ele><time>2026-03-22T14:49:40Z</time></trkpt><trkpt lat="47.78398879500829" lon="-1.6680179695388815"><ele>77.5</ele><time>2026-03-22T14:49:41Z</time></trkpt><trkpt lat="47.78386642758813" lon="-1.667965568265768"><ele>77.0</ele><time>2026-03-22T14:49:43Z</time></trkpt><trkpt lat="47.78376812622018" lon="-1.6679202033631093"><ele>76.5</ele><time>2026-03-22T14:49:45Z</time></trkpt><trkpt lat="47.783704965997075" lon="-1.6679027558473356"><ele>76.0</ele><time>2026-03-22T14:49:48.999Z</time></trkpt><trkpt lat="47.78364121475126" lon="-1.667870768996504"><ele>75.5</ele><time>2026-03-22T14:49:56.999Z</time></trkpt><trkpt lat="47.78356183145267" lon="-1.6678643687466277"><ele>75.0</ele><time>2026-03-22T14:49:58.999Z</time></trkpt><trkpt lat="47.78346448532395" lon="-1.6678188837851255"><ele>74.8</ele><time>2026-03-22T14:50:00.999Z</time></trkpt><trkpt lat="47.78333206932305" lon="-1.667786940605314"><ele>74.6</ele><time>2026-03-22T14:50:02.999Z</time></trkpt><trkpt lat="47.78324100818605" lon="-1.667791273021493"><ele>74.4</ele><time>2026-03-22T14:50:03.999Z</time></trkpt><trkpt lat="47.783160722272214" lon="-1.6677745055604964"><ele>74.2</ele><time>2026-03-22T14:50:04.999Z</time></trkpt><trkpt lat="47.78304391976108" lon="-1.6677524662480936"><ele>74.0</ele><time>2026-03-22T14:50:05.999Z</time></trkpt><trkpt lat="47.782916721184094" lon="-1.6677249073794356"><ele>74.75</ele><time>2026-03-22T14:50:06.999Z</time></trkpt><trkpt lat="47.78276951167696" lon="-1.6676930127420246"><ele>75.5</ele><time>2026-03-22T14:50:07.999Z</time></trkpt><trkpt lat="47.7826313596548" lon="-1.6676727111629885"><ele>76.25</ele><time>2026-03-22T14:50:08.999Z</time></trkpt><trkpt lat="47.782520490212455" lon="-1.6676659397335936"><ele>77.0</ele><time>2026-03-22T14:50:09.999Z</time></trkpt><trkpt lat="47.782413869980026" lon="-1.6676592137525599"><ele>77.0</ele><time>2026-03-22T14:50:10.999Z</time></trkpt><trkpt lat="47.78227952894005" lon="-1.6676639572967698"><ele>77.0</ele><time>2026-03-22T14:50:11.999Z</time></trkpt><trkpt lat="47.78217284664248" lon="-1.6676709702083792"><ele>77.0</ele><time>2026-03-22T14:50:12.999Z</time></trkpt><trkpt lat="47.78206124415555" lon="-1.6676834081883096"><ele>77.0</ele><time>2026-03-22T14:50:13.999Z</time></trkpt><trkpt lat="47.78195559257473" lon="-1.6676950988607073"><ele>76.4</ele><time>2026-03-22T14:50:14.999Z</time></trkpt><trkpt lat="47.78183096486041" lon="-1.6677097149300468"><ele>75.80000000000001</ele><time>2026-03-22T14:50:15.999Z</time></trkpt><trkpt lat="47.78171739531903" lon="-1.6677163906102532"><ele>75.2</ele><time>2026-03-22T14:50:16.999Z</time></trkpt><trkpt lat="47.78165001762146" lon="-1.6677193289139054"><ele>74.60000000000001</ele><time>2026-03-22T14:50:17.999Z</time></trkpt><trkpt lat="47.781513635361726" lon="-1.667712992142198"><ele>74.0</ele><time>2026-03-22T14:50:18.999Z</time></trkpt><trkpt lat="47.78136071365518" lon="-1.6676930910186394"><ele>74.0</ele><time>2026-03-22T14:50:19.999Z</time></trkpt><trkpt lat="47.781203818920545" lon="-1.6676637133561767"><ele>74.0</ele><time>2026-03-22T14:50:20.999Z</time></trkpt><trkpt lat="47.781042458203665" lon="-1.6676257884143688"><ele>74.0</ele><time>2026-03-22T14:50:21.999Z</time></trkpt><trkpt lat="47.78087839785369" lon="-1.6675779483428514"><ele>72.33333333333334</ele><time>2026-03-22T14:50:22.999Z</time></trkpt><trkpt lat="47.78070496196871" lon="-1.6675328413750954"><ele>70.66666666666667</ele><time>2026-03-22T14:50:23.999Z</time></trkpt><trkpt lat="47.78053590732098" lon="-1.6675013705624482"><ele>69.0</ele><time>2026-03-22T14:50:24.999Z</time></trkpt><trkpt lat="47.78036556754376" lon="-1.667454322405672"><ele>69.0</ele><time>2026-03-22T14:50:25.999Z</time></trkpt><trkpt lat="47.78021239003031" lon="-1.6674325478808725"><ele>69.0</ele><time>2026-03-22T14:50:26.999Z</time></trkpt><trkpt lat="47.780041285268716" lon="-1.6673919763835565"><ele>69.0</ele><time>2026-03-22T14:50:27.999Z</time></trkpt><trkpt lat="47.779856648464296" lon="-1.6673482868430092"><ele>68.0</ele><time>2026-03-22T14:50:28.999Z</time></trkpt><trkpt lat="47.77967870515099" lon="-1.6673092201865416"><ele>67.0</ele><time>2026-03-22T14:50:29.999Z</time></trkpt><trkpt lat="47.7794988452609" lon="-1.667278019528359"><ele>66.0</ele><time>2026-03-22T14:50:30.999Z</time></trkpt><trkpt lat="47.77931901876234" lon="-1.6672442342093952"><ele>64.33333333333333</ele><time>2026-03-22T14:50:31.999Z</time></trkpt><trkpt lat="47.77915032814028" lon="-1.6672161365890965"><ele>62.666666666666664</ele><time>2026-03-22T14:50:32.999Z</time></trkpt><trkpt lat="47.778995957085286" lon="-1.66719042385264"><ele>61.0</ele><time>2026-03-22T14:50:33.999Z</time></trkpt><trkpt lat="47.778846924305" lon="-1.6671678744849099"><ele>61.0</ele><time>2026-03-22T14:50:34.999Z</time></trkpt><trkpt lat="47.77871217500587" lon="-1.6671415156637246"><ele>61.0</ele><time>2026-03-22T14:50:35.999Z</time></trkpt><trkpt lat="47.77859039039196" lon="-1.6671264612136427"><ele>61.0</ele><time>2026-03-22T14:50:36.999Z</time></trkpt><trkpt lat="47.778471580148974" lon="-1.6671122648101597"><ele>61.0</ele><time>2026-03-22T14:50:37.999Z</time></trkpt><trkpt lat="47.778354805760436" lon="-1.6670983121504148"><ele>60.5</ele><time>2026-03-22T14:50:38.999Z</time></trkpt><trkpt lat="47.77823640981111" lon="-1.6670645445839603"><ele>60.0</ele><time>2026-03-22T14:50:39.999Z</time></trkpt><trkpt lat="47.77811924463689" lon="-1.6670457052359178"><ele>59.5</ele><time>2026-03-22T14:50:40.999Z</time></trkpt><trkpt lat="47.77799929491806" lon="-1.6670354765053343"><ele>59.0</ele><time>2026-03-22T14:50:41.999Z</time></trkpt><trkpt lat="47.77784036240103" lon="-1.6670259978221857"><ele>57.0</ele><time>2026-03-22T14:50:42.999Z</time></trkpt><trkpt lat="47.77768016927543" lon="-1.6670170496596124"><ele>55.0</ele><time>2026-03-22T14:50:43.999Z</time></trkpt><trkpt lat="47.7775146483969" lon="-1.6670108911742927"><ele>53.0</ele><time>2026-03-22T14:50:44.999Z</time></trkpt><trkpt lat="47.77733534909688" lon="-1.667007302540324"><ele>53.0</ele><time>2026-03-22T14:50:45.999Z</time></trkpt><trkpt lat="47.777157110246264" lon="-1.667003714590349"><ele>53.0</ele><time>2026-03-22T14:50:46.999Z</time></trkpt><trkpt lat="47.77700390429592" lon="-1.6669992898734758"><ele>53.0</ele><time>2026-03-22T14:50:47.999Z</time></trkpt><trkpt lat="47.776836555361506" lon="-1.666994456788952"><ele>52.66666666666667</ele><time>2026-03-22T14:50:48.999Z</time></trkpt><trkpt lat="47.77664702183172" lon="-1.6669901869996604"><ele>52.33333333333333</ele><time>2026-03-22T14:50:49.999Z</time></trkpt><trkpt lat="47.77650522830016" lon="-1.6669878535416598"><ele>52.0</ele><time>2026-03-22T14:50:50.999Z</time></trkpt><trkpt lat="47.776281974714465" lon="-1.666984179522521"><ele>52.0</ele><time>2026-03-22T14:50:51.998Z</time></trkpt><trkpt lat="47.77608283604698" lon="-1.6669796539000987"><ele>52.0</ele><time>2026-03-22T14:50:52.998Z</time></trkpt><trkpt lat="47.77587930151959" lon="-1.666974800148527"><ele>52.0</ele><time>2026-03-22T14:50:53.998Z</time></trkpt><trkpt lat="47.77566653849276" lon="-1.6669674263373877"><ele>51.33333333333333</ele><time>2026-03-22T14:50:54.998Z</time></trkpt><trkpt lat="47.77545881740273" lon="-1.6669393765730585"><ele>50.66666666666667</ele><time>2026-03-22T14:50:55.998Z</time></trkpt><trkpt lat="47.77525366419911" lon="-1.6668805155340096"><ele>50.0</ele><time>2026-03-22T14:50:56.998Z</time></trkpt><trkpt lat="47.775051772595816" lon="-1.6667992635658906"><ele>49.0</ele><time>2026-03-22T14:50:57.998Z</time></trkpt><trkpt lat="47.77484555837465" lon="-1.6667140431061027"><ele>48.0</ele><time>2026-03-22T14:50:58.998Z</time></trkpt><trkpt lat="47.77463294089329" lon="-1.666612475673301"><ele>47.0</ele><time>2026-03-22T14:50:59.998Z</time></trkpt><trkpt lat="47.77443700088482" lon="-1.6664932977358287"><ele>46.0</ele><time>2026-03-22T14:51:00.998Z</time></trkpt><trkpt lat="47.77423329829624" lon="-1.6663584735675672"><ele>45.0</ele><time>2026-03-22T14:51:01.998Z</time></trkpt><trkpt lat="47.77404560105529" lon="-1.6662280768499005"><ele>44.0</ele><time>2026-03-22T14:51:02.998Z</time></trkpt><trkpt lat="47.77385025902029" lon="-1.6660874889991983"><ele>43.5</ele><time>2026-03-22T14:51:03.998Z</time></trkpt><trkpt lat="47.7736456781895" lon="-1.6659529762903509"><ele>43.0</ele><time>2026-03-22T14:51:05Z</time></trkpt><trkpt lat="47.77340896774423" lon="-1.66582753059183"><ele>42.0</ele><time>2026-03-22T14:51:06Z</time></trkpt><trkpt lat="47.77316639063928" lon="-1.6656758346953766"><ele>41.0</ele><time>2026-03-22T14:51:07Z</time></trkpt><trkpt lat="47.77295260216734" lon="-1.6655670522944999"><ele>41.0</ele><time>2026-03-22T14:51:08Z</time></trkpt><trkpt lat="47.77276396333404" lon="-1.6654834494189712"><ele>41.0</ele><time>2026-03-22T14:51:09Z</time></trkpt><trkpt lat="47.77259936077004" lon="-1.6654113620700235"><ele>41.0</ele><time>2026-03-22T14:51:10Z</time></trkpt><trkpt lat="47.77248677237314" lon="-1.665340930826199"><ele>41.199999999999996</ele><time>2026-03-22T14:51:11Z</time></trkpt><trkpt lat="47.77238876467633" lon="-1.665269561113091"><ele>41.4</ele><time>2026-03-22T14:51:12Z</time></trkpt><trkpt lat="47.77228124331558" lon="-1.665246291079834"><ele>41.6</ele><time>2026-03-22T14:51:13Z</time></trkpt><trkpt lat="47.77218638921154" lon="-1.6652048332566152"><ele>41.8</ele><time>2026-03-22T14:51:14Z</time></trkpt><trkpt lat="47.77212431095149" lon="-1.6651775803403608"><ele>42.0</ele><time>2026-03-22T14:51:15Z</time></trkpt><trkpt lat="47.772044591816666" lon="-1.6651932601639743"><ele>42.0</ele><time>2026-03-22T14:51:16Z</time></trkpt><trkpt lat="47.77195827480189" lon="-1.6651695794910177"><ele>42.0</ele><time>2026-03-22T14:51:18Z</time></trkpt><trkpt lat="47.771904815423035" lon="-1.6653951151698279"><ele>42.0</ele><time>2026-03-22T14:51:19Z</time></trkpt><trkpt lat="47.771911277245685" lon="-1.6655858304272548"><ele>42.0</ele><time>2026-03-22T14:51:21Z</time></trkpt><trkpt lat="47.77192486413635" lon="-1.6657301618353215"><ele>42.2</ele><time>2026-03-22T14:51:22Z</time></trkpt><trkpt lat="47.771943080349594" lon="-1.665885819377036"><ele>42.400000000000006</ele><time>2026-03-22T14:51:23Z</time></trkpt><trkpt lat="47.77194876515223" lon="-1.6660446122350023"><ele>42.599999999999994</ele><time>2026-03-22T14:51:24Z</time></trkpt><trkpt lat="47.77194972824629" lon="-1.6661955853098862"><ele>42.8</ele><time>2026-03-22T14:51:25Z</time></trkpt><trkpt lat="47.77195169126476" lon="-1.666383609212863"><ele>43.0</ele><time>2026-03-22T14:51:26Z</time></trkpt><trkpt lat="47.77196175472994" lon="-1.6665855610748401"><ele>43.0</ele><time>2026-03-22T14:51:27Z</time></trkpt><trkpt lat="47.7719792662073" lon="-1.6668087465926005"><ele>43.0</ele><time>2026-03-22T14:51:28Z</time></trkpt><trkpt lat="47.77199771709561" lon="-1.667036991615714"><ele>43.0</ele><time>2026-03-22T14:51:29Z</time></trkpt><trkpt lat="47.77200802740304" lon="-1.6672554037733365"><ele>42.75</ele><time>2026-03-22T14:51:30Z</time></trkpt><trkpt lat="47.77202691675702" lon="-1.6674622351642792"><ele>42.5</ele><time>2026-03-22T14:51:31Z</time></trkpt><trkpt lat="47.77203456285028" lon="-1.667674957300273"><ele>42.25</ele><time>2026-03-22T14:51:32Z</time></trkpt><trkpt lat="47.77202374743012" lon="-1.6679066205923847"><ele>42.0</ele><time>2026-03-22T14:51:33Z</time></trkpt><trkpt lat="47.77198451659093" lon="-1.6681412007665457"><ele>42.0</ele><time>2026-03-22T14:51:34Z</time></trkpt><trkpt lat="47.77196357773308" lon="-1.6684018114236252"><ele>42.0</ele><time>2026-03-22T14:51:35Z</time></trkpt><trkpt lat="47.771926121192216" lon="-1.6686763882844973"><ele>42.0</ele><time>2026-03-22T14:51:36Z</time></trkpt><trkpt lat="47.77188660649198" lon="-1.668944321448663"><ele>42.666666666666664</ele><time>2026-03-22T14:51:37Z</time></trkpt><trkpt lat="47.771828793971764" lon="-1.6692044105291615"><ele>43.33333333333333</ele><time>2026-03-22T14:51:38Z</time></trkpt><trkpt lat="47.7717677919456" lon="-1.669462308309226"><ele>44.0</ele><time>2026-03-22T14:51:39Z</time></trkpt><trkpt lat="47.771674144354655" lon="-1.6697077501817073"><ele>44.33333333333333</ele><time>2026-03-22T14:51:40Z</time></trkpt><trkpt lat="47.771559876257776" lon="-1.6699546212374503"><ele>44.666666666666664</ele><time>2026-03-22T14:51:41Z</time></trkpt><trkpt lat="47.771445092588216" lon="-1.6702286446828392"><ele>45.0</ele><time>2026-03-22T14:51:42Z</time></trkpt><trkpt lat="47.77131720860286" lon="-1.670499382554318"><ele>46.0</ele><time>2026-03-22T14:51:43Z</time></trkpt><trkpt lat="47.7711835636335" lon="-1.670818588480256"><ele>47.0</ele><time>2026-03-22T14:51:44Z</time></trkpt><trkpt lat="47.77106205914529" lon="-1.671107723873877"><ele>47.33333333333333</ele><time>2026-03-22T14:51:45Z</time></trkpt><trkpt lat="47.770946928945456" lon="-1.6713716172153137"><ele>47.666666666666664</ele><time>2026-03-22T14:51:46Z</time></trkpt><trkpt lat="47.77084500977155" lon="-1.671630993784684"><ele>48.0</ele><time>2026-03-22T14:51:47Z</time></trkpt><trkpt lat="47.77074734508742" lon="-1.6718756679627778"><ele>48.0</ele><time>2026-03-22T14:51:48Z</time></trkpt><trkpt lat="47.77065632443319" lon="-1.672085088295701"><ele>48.0</ele><time>2026-03-22T14:51:48.999Z</time></trkpt><trkpt lat="47.77056470147624" lon="-1.6722478510566878"><ele>48.0</ele><time>2026-03-22T14:51:49.999Z</time></trkpt><trkpt lat="47.770481875434704" lon="-1.6724116228788997"><ele>48.0</ele><time>2026-03-22T14:51:50.999Z</time></trkpt><trkpt lat="47.770389940675905" lon="-1.672575445751655"><ele>48.0</ele><time>2026-03-22T14:51:51.999Z</time></trkpt><trkpt lat="47.77028905468849" lon="-1.6727640196147329"><ele>48.0</ele><time>2026-03-22T14:51:52.999Z</time></trkpt><trkpt lat="47.77019149772593" lon="-1.672973296614512"><ele>48.0</ele><time>2026-03-22T14:51:53.999Z</time></trkpt><trkpt lat="47.7700858685565" lon="-1.6731637868827927"><ele>48.0</ele><time>2026-03-22T14:51:54.999Z</time></trkpt><trkpt lat="47.76996846800136" lon="-1.6733297775172422"><ele>48.0</ele><time>2026-03-22T14:51:55.999Z</time></trkpt><trkpt lat="47.769870773932844" lon="-1.6735313988964624"><ele>48.0</ele><time>2026-03-22T14:51:56.999Z</time></trkpt><trkpt lat="47.76976534633626" lon="-1.673710272968732"><ele>48.33333333333333</ele><time>2026-03-22T14:51:57.999Z</time></trkpt><trkpt lat="47.769644050423146" lon="-1.6738866993365924"><ele>48.666666666666664</ele><time>2026-03-22T14:51:58.999Z</time></trkpt><trkpt lat="47.769537280449676" lon="-1.6740841059326197"><ele>49.0</ele><time>2026-03-22T14:51:59.999Z</time></trkpt><trkpt lat="47.76943446998212" lon="-1.6742746653016516"><ele>49.0</ele><time>2026-03-22T14:52:00.999Z</time></trkpt><trkpt lat="47.76932219108937" lon="-1.6744725627855621"><ele>49.0</ele><time>2026-03-22T14:52:01.999Z</time></trkpt><trkpt lat="47.76921100139176" lon="-1.6746470093250976"><ele>49.0</ele><time>2026-03-22T14:52:02.999Z</time></trkpt><trkpt lat="47.769101227485386" lon="-1.6748462683095402"><ele>49.0</ele><time>2026-03-22T14:52:03.999Z</time></trkpt><trkpt lat="47.7689867885987" lon="-1.6750436057276739"><ele>49.0</ele><time>2026-03-22T14:52:04.999Z</time></trkpt><trkpt lat="47.76887693514518" lon="-1.6752443205477456"><ele>49.0</ele><time>2026-03-22T14:52:05.999Z</time></trkpt><trkpt lat="47.76875921808113" lon="-1.6754401215705645"><ele>49.0</ele><time>2026-03-22T14:52:06.999Z</time></trkpt><trkpt lat="47.768632408875995" lon="-1.6756436213111061"><ele>49.0</ele><time>2026-03-22T14:52:07.999Z</time></trkpt><trkpt lat="47.768523292812525" lon="-1.675868056229918"><ele>49.0</ele><time>2026-03-22T14:52:08.999Z</time></trkpt><trkpt lat="47.76839947114793" lon="-1.6760562194243047"><ele>48.666666666666664</ele><time>2026-03-22T14:52:09.999Z</time></trkpt><trkpt lat="47.768287384192085" lon="-1.6762575112396776"><ele>48.33333333333333</ele><time>2026-03-22T14:52:10.999Z</time></trkpt><trkpt lat="47.76817272542284" lon="-1.6764687587636808"><ele>48.0</ele><time>2026-03-22T14:52:11.999Z</time></trkpt><trkpt lat="47.768060120113866" lon="-1.6766787778592482"><ele>48.0</ele><time>2026-03-22T14:52:12.999Z</time></trkpt><trkpt lat="47.76795518173808" lon="-1.6768885077430453"><ele>48.0</ele><time>2026-03-22T14:52:13.999Z</time></trkpt><trkpt lat="47.76783385458177" lon="-1.6770954029364469"><ele>48.0</ele><time>2026-03-22T14:52:14.999Z</time></trkpt><trkpt lat="47.76772640181921" lon="-1.6772906803784695"><ele>47.666666666666664</ele><time>2026-03-22T14:52:15.999Z</time></trkpt><trkpt lat="47.76760317308731" lon="-1.6774864820930526"><ele>47.33333333333333</ele><time>2026-03-22T14:52:16.999Z</time></trkpt><trkpt lat="47.767481515387956" lon="-1.6776949429362753"><ele>47.0</ele><time>2026-03-22T14:52:17.999Z</time></trkpt><trkpt lat="47.76736152407723" lon="-1.67791212376706"><ele>47.0</ele><time>2026-03-22T14:52:18.999Z</time></trkpt><trkpt lat="47.76724858873141" lon="-1.6781173313692854"><ele>47.0</ele><time>2026-03-22T14:52:19.999Z</time></trkpt><trkpt lat="47.76713601657713" lon="-1.6783258286874772"><ele>47.0</ele><time>2026-03-22T14:52:20.999Z</time></trkpt><trkpt lat="47.76702087414276" lon="-1.6785275986875177"><ele>47.33333333333333</ele><time>2026-03-22T14:52:21.999Z</time></trkpt><trkpt lat="47.766895244509286" lon="-1.6787192805366085"><ele>47.666666666666664</ele><time>2026-03-22T14:52:22.999Z</time></trkpt><trkpt lat="47.7667660848123" lon="-1.6789173857194508"><ele>48.0</ele><time>2026-03-22T14:52:23.999Z</time></trkpt><trkpt lat="47.76663893697168" lon="-1.679121750170377"><ele>48.0</ele><time>2026-03-22T14:52:24.999Z</time></trkpt><trkpt lat="47.766524492819975" lon="-1.6793179506075815"><ele>48.0</ele><time>2026-03-22T14:52:25.999Z</time></trkpt><trkpt lat="47.76641344344347" lon="-1.6795173632487885"><ele>48.0</ele><time>2026-03-22T14:52:26.999Z</time></trkpt><trkpt lat="47.76630533425733" lon="-1.6797107304191745"><ele>48.33333333333333</ele><time>2026-03-22T14:52:27.999Z</time></trkpt><trkpt lat="47.76618897418422" lon="-1.679909182078633"><ele>48.666666666666664</ele><time>2026-03-22T14:52:28.999Z</time></trkpt><trkpt lat="47.766080077209374" lon="-1.6801026214682375"><ele>49.0</ele><time>2026-03-22T14:52:29.999Z</time></trkpt><trkpt lat="47.76596778061514" lon="-1.6802999498408209"><ele>50.0</ele><time>2026-03-22T14:52:30.999Z</time></trkpt><trkpt lat="47.76585720620897" lon="-1.6805035546664342"><ele>51.0</ele><time>2026-03-22T14:52:31.999Z</time></trkpt><trkpt lat="47.76573197808145" lon="-1.6806955580356915"><ele>52.0</ele><time>2026-03-22T14:52:32.999Z</time></trkpt><trkpt lat="47.76562197224363" lon="-1.6808918184363666"><ele>52.0</ele><time>2026-03-22T14:52:33.999Z</time></trkpt><trkpt lat="47.765529799636" lon="-1.6810870122104906"><ele>52.0</ele><time>2026-03-22T14:52:34.999Z</time></trkpt><trkpt lat="47.76542345163949" lon="-1.6812797264778254"><ele>52.0</ele><time>2026-03-22T14:52:35.999Z</time></trkpt><trkpt lat="47.765313261559726" lon="-1.681476264819171"><ele>51.666666666666664</ele><time>2026-03-22T14:52:36.999Z</time></trkpt><trkpt lat="47.765196762691694" lon="-1.6816656152609768"><ele>51.33333333333333</ele><time>2026-03-22T14:52:37.999Z</time></trkpt><trkpt lat="47.76508458017912" lon="-1.6818659101701465"><ele>51.0</ele><time>2026-03-22T14:52:38.999Z</time></trkpt><trkpt lat="47.76497311154777" lon="-1.682049083062824"><ele>51.0</ele><time>2026-03-22T14:52:39.999Z</time></trkpt><trkpt lat="47.76485977171429" lon="-1.6822407064066143"><ele>51.0</ele><time>2026-03-22T14:52:40.999Z</time></trkpt><trkpt lat="47.76475412351653" lon="-1.6824550124278357"><ele>51.0</ele><time>2026-03-22T14:52:41.999Z</time></trkpt><trkpt lat="47.764632942282944" lon="-1.6826540086935882"><ele>51.0</ele><time>2026-03-22T14:52:42.999Z</time></trkpt><trkpt lat="47.76451420080139" lon="-1.6828522686174139"><ele>51.0</ele><time>2026-03-22T14:52:43.999Z</time></trkpt><trkpt lat="47.76439394682895" lon="-1.68304324639764"><ele>51.0</ele><time>2026-03-22T14:52:44.999Z</time></trkpt><trkpt lat="47.76425717464195" lon="-1.6832263001091583"><ele>51.33333333333333</ele><time>2026-03-22T14:52:45.999Z</time></trkpt><trkpt lat="47.76413672887268" lon="-1.6834164211857612"><ele>51.666666666666664</ele><time>2026-03-22T14:52:46.999Z</time></trkpt><trkpt lat="47.76402642068673" lon="-1.6836195679392087"><ele>52.0</ele><time>2026-03-22T14:52:47.999Z</time></trkpt><trkpt lat="47.76390740680389" lon="-1.683793940861743"><ele>52.666666666666664</ele><time>2026-03-22T14:52:48.999Z</time></trkpt><trkpt lat="47.763799628144" lon="-1.683960303142254"><ele>53.33333333333333</ele><time>2026-03-22T14:52:49.999Z</time></trkpt><trkpt lat="47.76369249778918" lon="-1.6841263086143239"><ele>54.0</ele><time>2026-03-22T14:52:50.999Z</time></trkpt><trkpt lat="47.763602254346345" lon="-1.6842959669146849"><ele>54.0</ele><time>2026-03-22T14:52:51.998Z</time></trkpt><trkpt lat="47.7635203760985" lon="-1.6844586259103336"><ele>54.0</ele><time>2026-03-22T14:52:52.998Z</time></trkpt><trkpt lat="47.76343640744074" lon="-1.684608343436303"><ele>54.0</ele><time>2026-03-22T14:52:53.998Z</time></trkpt><trkpt lat="47.76335893462091" lon="-1.6847312630811697"><ele>54.0</ele><time>2026-03-22T14:52:54.998Z</time></trkpt><trkpt lat="47.763285135727685" lon="-1.684854086118015"><ele>54.0</ele><time>2026-03-22T14:52:55.998Z</time></trkpt><trkpt lat="47.76321992410988" lon="-1.684967826453835"><ele>54.00000000000001</ele><time>2026-03-22T14:52:56.998Z</time></trkpt><trkpt lat="47.7631384357573" lon="-1.6850751534958326"><ele>54.00000000000001</ele><time>2026-03-22T14:52:57.998Z</time></trkpt><trkpt lat="47.76307021634007" lon="-1.6852135250628335"><ele>54.0</ele><time>2026-03-22T14:52:58.998Z</time></trkpt><trkpt lat="47.76299066821929" lon="-1.6853271704108819"><ele>54.0</ele><time>2026-03-22T14:52:59.998Z</time></trkpt><trkpt lat="47.76291771363154" lon="-1.6854301159155467"><ele>54.0</ele><time>2026-03-22T14:53:00.998Z</time></trkpt><trkpt lat="47.762865162383406" lon="-1.685517654533261"><ele>54.0</ele><time>2026-03-22T14:53:01.998Z</time></trkpt><trkpt lat="47.762807538036995" lon="-1.6856080094953465"><ele>54.0</ele><time>2026-03-22T14:53:02.998Z</time></trkpt><trkpt lat="47.76275436646783" lon="-1.6856872724960512"><ele>54.0</ele><time>2026-03-22T14:53:03.998Z</time></trkpt><trkpt lat="47.76271224672082" lon="-1.6857688110773001"><ele>54.0</ele><time>2026-03-22T14:53:04.998Z</time></trkpt><trkpt lat="47.76266840099684" lon="-1.6858451537298165"><ele>54.0</ele><time>2026-03-22T14:53:05.998Z</time></trkpt><trkpt lat="47.7625802411502" lon="-1.6859668056980253"><ele>54.2</ele><time>2026-03-22T14:53:07.998Z</time></trkpt><trkpt lat="47.76250883922171" lon="-1.6860471760434241"><ele>54.400000000000006</ele><time>2026-03-22T14:53:09.998Z</time></trkpt><trkpt lat="47.76243301368742" lon="-1.6861365688767356"><ele>54.6</ele><time>2026-03-22T14:53:13Z</time></trkpt><trkpt lat="47.76241059491615" lon="-1.686276742568616"><ele>54.8</ele><time>2026-03-22T14:53:15Z</time></trkpt><trkpt lat="47.762466733509235" lon="-1.6863571006290567"><ele>55.0</ele><time>2026-03-22T14:53:16Z</time></trkpt><trkpt lat="47.76251888725339" lon="-1.686469387122676"><ele>55.2</ele><time>2026-03-22T14:53:17Z</time></trkpt><trkpt lat="47.76257102480391" lon="-1.6866276341529571"><ele>55.4</ele><time>2026-03-22T14:53:18Z</time></trkpt><trkpt lat="47.762636200328416" lon="-1.6867690365896975"><ele>55.599999999999994</ele><time>2026-03-22T14:53:19Z</time></trkpt><trkpt lat="47.76269066455492" lon="-1.686890289124749"><ele>55.8</ele><time>2026-03-22T14:53:20Z</time></trkpt><trkpt lat="47.76272680165362" lon="-1.68701723193286"><ele>56.0</ele><time>2026-03-22T14:53:21Z</time></trkpt><trkpt lat="47.76279360930205" lon="-1.6871249071709509"><ele>56.25</ele><time>2026-03-22T14:53:22Z</time></trkpt><trkpt lat="47.76282906436895" lon="-1.6872338595944634"><ele>56.5</ele><time>2026-03-22T14:53:23Z</time></trkpt><trkpt lat="47.762859344172846" lon="-1.6873217093110127"><ele>56.75</ele><time>2026-03-22T14:53:24Z</time></trkpt><trkpt lat="47.762912962635596" lon="-1.6874442332224673"><ele>57.0</ele><time>2026-03-22T14:53:26Z</time></trkpt><trkpt lat="47.76275513758947" lon="-1.6876870754359379"><ele>57.0</ele><time>2026-03-22T14:53:29Z</time></trkpt><trkpt lat="47.76264134209223" lon="-1.6877676649210962"><ele>57.0</ele><time>2026-03-22T14:53:30Z</time></trkpt><trkpt lat="47.762545234992835" lon="-1.6878382218677657"><ele>57.0</ele><time>2026-03-22T14:53:31Z</time></trkpt><trkpt lat="47.762443910385436" lon="-1.687875921202577"><ele>57.0</ele><time>2026-03-22T14:53:32Z</time></trkpt><trkpt lat="47.76233147560866" lon="-1.6879363057625996"><ele>57.0</ele><time>2026-03-22T14:53:33Z</time></trkpt><trkpt lat="47.7622518745418" lon="-1.6879378297865875"><ele>57.0</ele><time>2026-03-22T14:53:34Z</time></trkpt><trkpt lat="47.76217094194477" lon="-1.687955219171189"><ele>57.0</ele><time>2026-03-22T14:53:35Z</time></trkpt><trkpt lat="47.76209179726719" lon="-1.6879788415109191"><ele>57.0</ele><time>2026-03-22T14:53:36Z</time></trkpt><trkpt lat="47.761942736545585" lon="-1.6880575524764916"><ele>57.0</ele><time>2026-03-22T14:53:38Z</time></trkpt><trkpt lat="47.761854947523965" lon="-1.6880771338312013"><ele>57.0</ele><time>2026-03-22T14:53:39Z</time></trkpt><trkpt lat="47.7617631578674" lon="-1.6881053933265684"><ele>57.0</ele><time>2026-03-22T14:53:40Z</time></trkpt><trkpt lat="47.76168407054126" lon="-1.6881289612616102"><ele>57.0</ele><time>2026-03-22T14:53:41Z</time></trkpt><trkpt lat="47.761608354863085" lon="-1.688145433594295"><ele>57.0</ele><time>2026-03-22T14:53:42Z</time></trkpt><trkpt lat="47.76148733403014" lon="-1.6881746030258176"><ele>57.0</ele><time>2026-03-22T14:53:44Z</time></trkpt><trkpt lat="47.76138649337557" lon="-1.6881932274279552"><ele>57.0</ele><time>2026-03-22T14:53:46Z</time></trkpt><trkpt lat="47.76130611279801" lon="-1.6881923501134202"><ele>57.0</ele><time>2026-03-22T14:53:48Z</time></trkpt><trkpt lat="47.76122676337932" lon="-1.6882284833446555"><ele>57.0</ele><time>2026-03-22T14:53:50Z</time></trkpt><trkpt lat="47.76115582809486" lon="-1.6883155145931645"><ele>57.0</ele><time>2026-03-22T14:53:52Z</time></trkpt><trkpt lat="47.761081706302264" lon="-1.68843293816783"><ele>57.0</ele><time>2026-03-22T14:53:54Z</time></trkpt><trkpt lat="47.76102947997511" lon="-1.6885159311402294"><ele>57.0</ele><time>2026-03-22T14:53:54.999Z</time></trkpt><trkpt lat="47.76096475144107" lon="-1.6886196763031651"><ele>57.25</ele><time>2026-03-22T14:53:55.999Z</time></trkpt><trkpt lat="47.760892527529556" lon="-1.688735434991152"><ele>57.5</ele><time>2026-03-22T14:53:56.999Z</time></trkpt><trkpt lat="47.76081731899101" lon="-1.6888559773636342"><ele>57.75</ele><time>2026-03-22T14:53:57.999Z</time></trkpt><trkpt lat="47.76073040694363" lon="-1.6889937779385351"><ele>58.0</ele><time>2026-03-22T14:53:58.999Z</time></trkpt><trkpt lat="47.76062960670018" lon="-1.6891531035993317"><ele>58.0</ele><time>2026-03-22T14:53:59.999Z</time></trkpt><trkpt lat="47.76052279848625" lon="-1.6893246535686552"><ele>58.0</ele><time>2026-03-22T14:54:00.999Z</time></trkpt><trkpt lat="47.76042462743437" lon="-1.6894873529798635"><ele>58.0</ele><time>2026-03-22T14:54:01.999Z</time></trkpt><trkpt lat="47.76033755712156" lon="-1.6896319981983765"><ele>58.0</ele><time>2026-03-22T14:54:02.999Z</time></trkpt><trkpt lat="47.760250577903065" lon="-1.689776493098766"><ele>58.5</ele><time>2026-03-22T14:54:03.999Z</time></trkpt><trkpt lat="47.760150717423045" lon="-1.6899441946866358"><ele>59.0</ele><time>2026-03-22T14:54:04.999Z</time></trkpt><trkpt lat="47.760061368835906" lon="-1.6900946059446806"><ele>59.5</ele><time>2026-03-22T14:54:05.999Z</time></trkpt><trkpt lat="47.75998021095187" lon="-1.6902278893279243"><ele>60.0</ele><time>2026-03-22T14:54:06.999Z</time></trkpt><trkpt lat="47.75991973925605" lon="-1.690325446577336"><ele>60.2</ele><time>2026-03-22T14:54:07.999Z</time></trkpt><trkpt lat="47.75984694488682" lon="-1.6904428836188978"><ele>60.4</ele><time>2026-03-22T14:54:09.999Z</time></trkpt><trkpt lat="47.759802920035135" lon="-1.6905143997265968"><ele>60.599999999999994</ele><time>2026-03-22T14:54:10.999Z</time></trkpt><trkpt lat="47.7597291570788" lon="-1.690635789079577"><ele>60.8</ele><time>2026-03-22T14:54:12.999Z</time></trkpt><trkpt lat="47.75967204627801" lon="-1.6906963177138856"><ele>61.0</ele><time>2026-03-22T14:54:13.999Z</time></trkpt><trkpt lat="47.75960304093496" lon="-1.6908775165891627"><ele>60.99999999999999</ele><time>2026-03-22T14:54:15.999Z</time></trkpt><trkpt lat="47.75954657785904" lon="-1.6909772119249642"><ele>61.0</ele><time>2026-03-22T14:54:16.999Z</time></trkpt><trkpt lat="47.759488512262465" lon="-1.6911002634272723"><ele>61.0</ele><time>2026-03-22T14:54:17.999Z</time></trkpt><trkpt lat="47.75943472599975" lon="-1.6911924407026873"><ele>61.0</ele><time>2026-03-22T14:54:18.999Z</time></trkpt><trkpt lat="47.75938174567915" lon="-1.6913030671087332"><ele>60.99999999999999</ele><time>2026-03-22T14:54:19.999Z</time></trkpt><trkpt lat="47.75932298563457" lon="-1.6913760431584506"><ele>61.0</ele><time>2026-03-22T14:54:20.999Z</time></trkpt><trkpt lat="47.75925603146937" lon="-1.691452273896767"><ele>61.166666666666664</ele><time>2026-03-22T14:54:21.999Z</time></trkpt><trkpt lat="47.75919223239201" lon="-1.6915300299435547"><ele>61.33333333333333</ele><time>2026-03-22T14:54:22.999Z</time></trkpt><trkpt lat="47.75913293706754" lon="-1.6916231969224813"><ele>61.5</ele><time>2026-03-22T14:54:23.999Z</time></trkpt><trkpt lat="47.75907410843658" lon="-1.6917250725109896"><ele>61.66666666666667</ele><time>2026-03-22T14:54:24.999Z</time></trkpt><trkpt lat="47.75901350894743" lon="-1.691832283759698"><ele>61.833333333333336</ele><time>2026-03-22T14:54:25.999Z</time></trkpt><trkpt lat="47.758946441138455" lon="-1.6919347557084639"><ele>62.0</ele><time>2026-03-22T14:54:26.999Z</time></trkpt><trkpt lat="47.758882453956964" lon="-1.692035912626491"><ele>62.2</ele><time>2026-03-22T14:54:27.999Z</time></trkpt><trkpt lat="47.758823686402636" lon="-1.692134931942848"><ele>62.400000000000006</ele><time>2026-03-22T14:54:28.999Z</time></trkpt><trkpt lat="47.7587612876426" lon="-1.6922404322199458"><ele>62.599999999999994</ele><time>2026-03-22T14:54:29.999Z</time></trkpt><trkpt lat="47.75869921047813" lon="-1.692341843075936"><ele>62.8</ele><time>2026-03-22T14:54:30.999Z</time></trkpt><trkpt lat="47.7586328354916" lon="-1.6924367020317803"><ele>63.0</ele><time>2026-03-22T14:54:31.999Z</time></trkpt><trkpt lat="47.758571645179345" lon="-1.6925369314961485"><ele>63.0</ele><time>2026-03-22T14:54:32.999Z</time></trkpt><trkpt lat="47.75850677961296" lon="-1.6926473035624376"><ele>63.0</ele><time>2026-03-22T14:54:33.999Z</time></trkpt><trkpt lat="47.75843798901141" lon="-1.6927534493319973"><ele>63.0</ele><time>2026-03-22T14:54:34.999Z</time></trkpt><trkpt lat="47.758374592674635" lon="-1.6928444334043236"><ele>63.0</ele><time>2026-03-22T14:54:35.999Z</time></trkpt><trkpt lat="47.7583237044467" lon="-1.6929298565525968"><ele>63.0</ele><time>2026-03-22T14:54:36.999Z</time></trkpt><trkpt lat="47.75827856307654" lon="-1.6930113199628285"><ele>63.0</ele><time>2026-03-22T14:54:37.999Z</time></trkpt><trkpt lat="47.758233726573" lon="-1.6931028167239723"><ele>63.166666666666664</ele><time>2026-03-22T14:54:38.999Z</time></trkpt><trkpt lat="47.75817933862874" lon="-1.6931910322019839"><ele>63.33333333333333</ele><time>2026-03-22T14:54:39.999Z</time></trkpt><trkpt lat="47.75812325114142" lon="-1.693281366461802"><ele>63.5</ele><time>2026-03-22T14:54:40.999Z</time></trkpt><trkpt lat="47.75807473843204" lon="-1.6933636237516856"><ele>63.666666666666664</ele><time>2026-03-22T14:54:41.999Z</time></trkpt><trkpt lat="47.75798482173526" lon="-1.693486363684112"><ele>63.83333333333333</ele><time>2026-03-22T14:54:43.999Z</time></trkpt><trkpt lat="47.757943633422855" lon="-1.6935573292715775"><ele>64.0</ele><time>2026-03-22T14:54:44.999Z</time></trkpt><trkpt lat="47.757913228268414" lon="-1.6936701516431671"><ele>63.6</ele><time>2026-03-22T14:54:45.999Z</time></trkpt><trkpt lat="47.757855779258925" lon="-1.6937706023410588"><ele>63.2</ele><time>2026-03-22T14:54:46.999Z</time></trkpt><trkpt lat="47.757791706136345" lon="-1.6938805481243957"><ele>62.800000000000004</ele><time>2026-03-22T14:54:47.999Z</time></trkpt><trkpt lat="47.75771151285833" lon="-1.693997370916301"><ele>62.400000000000006</ele><time>2026-03-22T14:54:48.999Z</time></trkpt><trkpt lat="47.757631286442404" lon="-1.6941259241820725"><ele>62.0</ele><time>2026-03-22T14:54:49.999Z</time></trkpt><trkpt lat="47.75755772920401" lon="-1.6942539848079365"><ele>62.400000000000006</ele><time>2026-03-22T14:54:50.999Z</time></trkpt><trkpt lat="47.75749137344713" lon="-1.6943752456999068"><ele>62.800000000000004</ele><time>2026-03-22T14:54:51.999Z</time></trkpt><trkpt lat="47.75742925707101" lon="-1.6944724477821298"><ele>63.2</ele><time>2026-03-22T14:54:52.999Z</time></trkpt><trkpt lat="47.757348927972345" lon="-1.6945627281326026"><ele>63.6</ele><time>2026-03-22T14:54:53.999Z</time></trkpt><trkpt lat="47.75726812724527" lon="-1.6946604036044257"><ele>64.0</ele><time>2026-03-22T14:54:54.999Z</time></trkpt><trkpt lat="47.75721478932588" lon="-1.6947821119331512"><ele>63.99999999999999</ele><time>2026-03-22T14:54:55.999Z</time></trkpt><trkpt lat="47.75714802610701" lon="-1.6948697203073408"><ele>64.0</ele><time>2026-03-22T14:54:56.999Z</time></trkpt><trkpt lat="47.757096398118605" lon="-1.694956074499733"><ele>64.0</ele><time>2026-03-22T14:54:57.999Z</time></trkpt><trkpt lat="47.757037358547464" lon="-1.6950466676638656"><ele>64.0</ele><time>2026-03-22T14:54:58.998Z</time></trkpt><trkpt lat="47.75697296859638" lon="-1.695148956121218"><ele>63.99999999999999</ele><time>2026-03-22T14:54:59.998Z</time></trkpt><trkpt lat="47.75691087427157" lon="-1.695257714358899"><ele>64.0</ele><time>2026-03-22T14:55:00.998Z</time></trkpt><trkpt lat="47.75685802118152" lon="-1.6953453421460614"><ele>64.2</ele><time>2026-03-22T14:55:01.998Z</time></trkpt><trkpt lat="47.756813623684565" lon="-1.6954324423747738"><ele>64.4</ele><time>2026-03-22T14:55:02.998Z</time></trkpt><trkpt lat="47.75675950266146" lon="-1.6955007518619052"><ele>64.6</ele><time>2026-03-22T14:55:03.998Z</time></trkpt><trkpt lat="47.756659784431875" lon="-1.6956819663900549"><ele>64.8</ele><time>2026-03-22T14:55:05.998Z</time></trkpt><trkpt lat="47.75659877046616" lon="-1.695802337015413"><ele>65.0</ele><time>2026-03-22T14:55:06.998Z</time></trkpt><trkpt lat="47.756502577209005" lon="-1.6959275073210582"><ele>65.0</ele><time>2026-03-22T14:55:07.998Z</time></trkpt><trkpt lat="47.756418839481555" lon="-1.6960587194491892"><ele>65.0</ele><time>2026-03-22T14:55:08.998Z</time></trkpt><trkpt lat="47.75634487820476" lon="-1.6961841313346526"><ele>65.0</ele><time>2026-03-22T14:55:09.998Z</time></trkpt><trkpt lat="47.75626549921706" lon="-1.6963152455158814"><ele>65.0</ele><time>2026-03-22T14:55:10.998Z</time></trkpt><trkpt lat="47.75618184946193" lon="-1.6964361996242807"><ele>65.0</ele><time>2026-03-22T14:55:11.998Z</time></trkpt><trkpt lat="47.75608978672666" lon="-1.6965381358066585"><ele>65.0</ele><time>2026-03-22T14:55:12.998Z</time></trkpt><trkpt lat="47.756004330440355" lon="-1.6966425403561782"><ele>65.0</ele><time>2026-03-22T14:55:13.998Z</time></trkpt><trkpt lat="47.75591188667469" lon="-1.6967514392083176"><ele>65.0</ele><time>2026-03-22T14:55:14.998Z</time></trkpt><trkpt lat="47.75582234036417" lon="-1.696874795500398"><ele>65.25</ele><time>2026-03-22T14:55:15.998Z</time></trkpt><trkpt lat="47.755719720686365" lon="-1.6970013792989216"><ele>65.5</ele><time>2026-03-22T14:55:17Z</time></trkpt><trkpt lat="47.75561024802807" lon="-1.6971281115743941"><ele>65.75</ele><time>2026-03-22T14:55:18Z</time></trkpt><trkpt lat="47.75550242395001" lon="-1.6972694367314554"><ele>66.0</ele><time>2026-03-22T14:55:19Z</time></trkpt><trkpt lat="47.755395536745134" lon="-1.6974135329328026"><ele>66.0</ele><time>2026-03-22T14:55:20Z</time></trkpt><trkpt lat="47.75528855030612" lon="-1.6975646926989814"><ele>66.0</ele><time>2026-03-22T14:55:21Z</time></trkpt><trkpt lat="47.75518063132179" lon="-1.6977168874464446"><ele>66.0</ele><time>2026-03-22T14:55:22Z</time></trkpt><trkpt lat="47.75506332294651" lon="-1.697870123211031"><ele>66.33333333333333</ele><time>2026-03-22T14:55:23Z</time></trkpt><trkpt lat="47.75494416577076" lon="-1.6980235949021012"><ele>66.66666666666666</ele><time>2026-03-22T14:55:24Z</time></trkpt><trkpt lat="47.75483143254048" lon="-1.6981816976192365"><ele>67.0</ele><time>2026-03-22T14:55:25Z</time></trkpt><trkpt lat="47.754714465516514" lon="-1.6983288782335468"><ele>67.0</ele><time>2026-03-22T14:55:26Z</time></trkpt><trkpt lat="47.75460145533317" lon="-1.6984761824967791"><ele>67.0</ele><time>2026-03-22T14:55:27Z</time></trkpt><trkpt lat="47.75448097786983" lon="-1.6986309959536894"><ele>67.0</ele><time>2026-03-22T14:55:28Z</time></trkpt><trkpt lat="47.75436594796426" lon="-1.6987793913312699"><ele>67.5</ele><time>2026-03-22T14:55:29Z</time></trkpt><trkpt lat="47.75425398101409" lon="-1.6989183100132734"><ele>68.0</ele><time>2026-03-22T14:55:30Z</time></trkpt><trkpt lat="47.754167640487616" lon="-1.6990924624524524"><ele>68.5</ele><time>2026-03-22T14:55:31Z</time></trkpt><trkpt lat="47.75408472162972" lon="-1.6992619854155153"><ele>69.0</ele><time>2026-03-22T14:55:32Z</time></trkpt><trkpt lat="47.75399247670224" lon="-1.6994049605278618"><ele>69.0</ele><time>2026-03-22T14:55:33Z</time></trkpt><trkpt lat="47.75389586720961" lon="-1.6995354237641755"><ele>69.0</ele><time>2026-03-22T14:55:34Z</time></trkpt><trkpt lat="47.753793699834574" lon="-1.6996749229270371"><ele>69.0</ele><time>2026-03-22T14:55:35Z</time></trkpt><trkpt lat="47.753689221348516" lon="-1.699817577662751"><ele>69.0</ele><time>2026-03-22T14:55:36Z</time></trkpt><trkpt lat="47.753578211919454" lon="-1.6999691496685239"><ele>69.0</ele><time>2026-03-22T14:55:37Z</time></trkpt><trkpt lat="47.75347020185984" lon="-1.700115774259712"><ele>69.0</ele><time>2026-03-22T14:55:38Z</time></trkpt><trkpt lat="47.75335464476568" lon="-1.700269608479431"><ele>69.0</ele><time>2026-03-22T14:55:39Z</time></trkpt><trkpt lat="47.75322851562703" lon="-1.7004416951593824"><ele>69.0</ele><time>2026-03-22T14:55:40Z</time></trkpt><trkpt lat="47.75310508849356" lon="-1.7006100953379353"><ele>69.0</ele><time>2026-03-22T14:55:41Z</time></trkpt><trkpt lat="47.75298961832189" lon="-1.7007676388798993"><ele>69.0</ele><time>2026-03-22T14:55:42Z</time></trkpt><trkpt lat="47.75285109987607" lon="-1.7009507321862125"><ele>69.0</ele><time>2026-03-22T14:55:43Z</time></trkpt><trkpt lat="47.752718605373055" lon="-1.7011377819703204"><ele>69.0</ele><time>2026-03-22T14:55:44Z</time></trkpt><trkpt lat="47.75258288934101" lon="-1.7013134439703963"><ele>69.0</ele><time>2026-03-22T14:55:45Z</time></trkpt><trkpt lat="47.7524399442974" lon="-1.7015047967359807"><ele>69.33333333333333</ele><time>2026-03-22T14:55:46Z</time></trkpt><trkpt lat="47.7522952289407" lon="-1.7017005777036027"><ele>69.66666666666666</ele><time>2026-03-22T14:55:47Z</time></trkpt><trkpt lat="47.752140405058036" lon="-1.7019100340603224"><ele>70.0</ele><time>2026-03-22T14:55:48Z</time></trkpt><trkpt lat="47.75201656444185" lon="-1.702077574249645"><ele>69.0</ele><time>2026-03-22T14:55:49Z</time></trkpt><trkpt lat="47.751896325989236" lon="-1.702238663011038"><ele>68.0</ele><time>2026-03-22T14:55:50Z</time></trkpt><trkpt lat="47.75176772547719" lon="-1.7024098005494595"><ele>67.0</ele><time>2026-03-22T14:55:51Z</time></trkpt><trkpt lat="47.75163858965177" lon="-1.7025816505918516"><ele>67.0</ele><time>2026-03-22T14:55:52Z</time></trkpt><trkpt lat="47.75151162249219" lon="-1.7027672103378404"><ele>67.0</ele><time>2026-03-22T14:55:53Z</time></trkpt><trkpt lat="47.75134957615534" lon="-1.7029160261270198"><ele>67.0</ele><time>2026-03-22T14:55:54Z</time></trkpt><trkpt lat="47.751180115993186" lon="-1.7030449637260094"><ele>67.0</ele><time>2026-03-22T14:55:55Z</time></trkpt><trkpt lat="47.75105501435527" lon="-1.7032440950964765"><ele>67.0</ele><time>2026-03-22T14:55:56Z</time></trkpt><trkpt lat="47.75090731271347" lon="-1.7034397154543304"><ele>67.0</ele><time>2026-03-22T14:55:57Z</time></trkpt><trkpt lat="47.75076252978229" lon="-1.7036341647177582"><ele>67.33333333333333</ele><time>2026-03-22T14:55:58Z</time></trkpt><trkpt lat="47.75066743827654" lon="-1.7037617281768203"><ele>67.66666666666667</ele><time>2026-03-22T14:56:00Z</time></trkpt><trkpt lat="47.75054187054689" lon="-1.703937975228347"><ele>68.0</ele><time>2026-03-22T14:56:01Z</time></trkpt><trkpt lat="47.75041215495008" lon="-1.7041317721532694"><ele>68.0</ele><time>2026-03-22T14:56:02Z</time></trkpt><trkpt lat="47.750284670504705" lon="-1.7043462065837365"><ele>68.0</ele><time>2026-03-22T14:56:03Z</time></trkpt><trkpt lat="47.750171411477986" lon="-1.7045723145407217"><ele>68.0</ele><time>2026-03-22T14:56:04Z</time></trkpt><trkpt lat="47.750078341339936" lon="-1.704811130793823"><ele>69.33333333333334</ele><time>2026-03-22T14:56:04.999Z</time></trkpt><trkpt lat="47.74999754942798" lon="-1.7050650775863543"><ele>70.66666666666667</ele><time>2026-03-22T14:56:05.999Z</time></trkpt><trkpt lat="47.749930153417935" lon="-1.7053238999730416"><ele>72.0</ele><time>2026-03-22T14:56:06.999Z</time></trkpt><trkpt lat="47.749864998614974" lon="-1.7056059244712516"><ele>72.33333333333333</ele><time>2026-03-22T14:56:07.999Z</time></trkpt><trkpt lat="47.74980490998983" lon="-1.7058792108542626"><ele>72.66666666666666</ele><time>2026-03-22T14:56:08.999Z</time></trkpt><trkpt lat="47.7497509784404" lon="-1.7061244943355323"><ele>73.0</ele><time>2026-03-22T14:56:09.999Z</time></trkpt><trkpt lat="47.749699421615546" lon="-1.7063589716879375"><ele>73.0</ele><time>2026-03-22T14:56:10.999Z</time></trkpt><trkpt lat="47.7496509872688" lon="-1.7065791047568266"><ele>73.0</ele><time>2026-03-22T14:56:11.999Z</time></trkpt><trkpt lat="47.749605843212585" lon="-1.7067842835579632"><ele>73.0</ele><time>2026-03-22T14:56:12.999Z</time></trkpt><trkpt lat="47.74956079836877" lon="-1.706972069117337"><ele>73.0</ele><time>2026-03-22T14:56:13.999Z</time></trkpt><trkpt lat="47.74951266137849" lon="-1.7071602812311575"><ele>72.5</ele><time>2026-03-22T14:56:14.999Z</time></trkpt><trkpt lat="47.74945901975002" lon="-1.7073363469602125"><ele>72.0</ele><time>2026-03-22T14:56:15.999Z</time></trkpt><trkpt lat="47.74940172541697" lon="-1.7075051764305784"><ele>71.5</ele><time>2026-03-22T14:56:16.999Z</time></trkpt><trkpt lat="47.749343005457185" lon="-1.7076652228450286"><ele>71.0</ele><time>2026-03-22T14:56:17.999Z</time></trkpt><trkpt lat="47.74926523686284" lon="-1.707813699182147"><ele>70.5</ele><time>2026-03-22T14:56:18.999Z</time></trkpt><trkpt lat="47.749210525097325" lon="-1.7079855318658979"><ele>70.0</ele><time>2026-03-22T14:56:19.999Z</time></trkpt><trkpt lat="47.74912502952762" lon="-1.7081324625001488"><ele>69.5</ele><time>2026-03-22T14:56:20.999Z</time></trkpt><trkpt lat="47.74906354193972" lon="-1.7083043229211046"><ele>69.0</ele><time>2026-03-22T14:56:21.999Z</time></trkpt><trkpt lat="47.74896885785249" lon="-1.7084821309628302"><ele>69.0</ele><time>2026-03-22T14:56:22.999Z</time></trkpt><trkpt lat="47.748879726688" lon="-1.708662977412662"><ele>69.0</ele><time>2026-03-22T14:56:23.999Z</time></trkpt><trkpt lat="47.74879639340527" lon="-1.7088528775888794"><ele>69.0</ele><time>2026-03-22T14:56:24.999Z</time></trkpt><trkpt lat="47.748702572415795" lon="-1.7090714725964447"><ele>69.0</ele><time>2026-03-22T14:56:25.999Z</time></trkpt><trkpt lat="47.74860884855594" lon="-1.709269079841874"><ele>69.0</ele><time>2026-03-22T14:56:26.999Z</time></trkpt><trkpt lat="47.748500529724154" lon="-1.7094960943057829"><ele>69.0</ele><time>2026-03-22T14:56:27.999Z</time></trkpt><trkpt lat="47.74840479502933" lon="-1.7096944883906153"><ele>68.66666666666667</ele><time>2026-03-22T14:56:28.999Z</time></trkpt><trkpt lat="47.74829321950089" lon="-1.7098915503357466"><ele>68.33333333333334</ele><time>2026-03-22T14:56:29.999Z</time></trkpt><trkpt lat="47.74819941985463" lon="-1.7101053661230268"><ele>68.0</ele><time>2026-03-22T14:56:30.999Z</time></trkpt><trkpt lat="47.748097193717165" lon="-1.7103181132698915"><ele>68.0</ele><time>2026-03-22T14:56:31.999Z</time></trkpt><trkpt lat="47.74799656722319" lon="-1.7105441563206862"><ele>68.0</ele><time>2026-03-22T14:56:32.999Z</time></trkpt><trkpt lat="47.74788882341552" lon="-1.7107610843266248"><ele>68.0</ele><time>2026-03-22T14:56:33.999Z</time></trkpt><trkpt lat="47.74778236433036" lon="-1.7109734813326043"><ele>67.0</ele><time>2026-03-22T14:56:34.999Z</time></trkpt><trkpt lat="47.74768036927629" lon="-1.7111930985584254"><ele>66.0</ele><time>2026-03-22T14:56:35.999Z</time></trkpt><trkpt lat="47.74757376167795" lon="-1.7114187202789575"><ele>65.0</ele><time>2026-03-22T14:56:36.999Z</time></trkpt><trkpt lat="47.74747272472718" lon="-1.711640529330895"><ele>65.0</ele><time>2026-03-22T14:56:37.999Z</time></trkpt><trkpt lat="47.74737764310038" lon="-1.7118559756064693"><ele>65.0</ele><time>2026-03-22T14:56:38.999Z</time></trkpt><trkpt lat="47.747282562277036" lon="-1.712066556796663"><ele>65.0</ele><time>2026-03-22T14:56:39.999Z</time></trkpt><trkpt lat="47.74718669389524" lon="-1.7122743197018317"><ele>64.33333333333334</ele><time>2026-03-22T14:56:40.999Z</time></trkpt><trkpt lat="47.74709354941672" lon="-1.7124684409905628"><ele>63.66666666666667</ele><time>2026-03-22T14:56:41.999Z</time></trkpt><trkpt lat="47.74699954079028" lon="-1.7126836305902384"><ele>63.0</ele><time>2026-03-22T14:56:42.999Z</time></trkpt><trkpt lat="47.746910629278666" lon="-1.712891300889929"><ele>61.33333333333333</ele><time>2026-03-22T14:56:43.999Z</time></trkpt><trkpt lat="47.746826991525545" lon="-1.713098945324744"><ele>59.666666666666664</ele><time>2026-03-22T14:56:44.999Z</time></trkpt><trkpt lat="47.746720745387776" lon="-1.7133092861233004"><ele>58.0</ele><time>2026-03-22T14:56:45.999Z</time></trkpt><trkpt lat="47.746610247130754" lon="-1.713496594670939"><ele>58.0</ele><time>2026-03-22T14:56:46.999Z</time></trkpt><trkpt lat="47.74652110721319" lon="-1.7136872655781576"><ele>58.0</ele><time>2026-03-22T14:56:47.999Z</time></trkpt><trkpt lat="47.7464294551454" lon="-1.7138965422219992"><ele>58.0</ele><time>2026-03-22T14:56:48.999Z</time></trkpt><trkpt lat="47.74634881629501" lon="-1.7140955316605897"><ele>58.0</ele><time>2026-03-22T14:56:49.999Z</time></trkpt><trkpt lat="47.74625459952728" lon="-1.7142908591837183"><ele>58.0</ele><time>2026-03-22T14:56:50.999Z</time></trkpt><trkpt lat="47.74616240453229" lon="-1.7144882576665261"><ele>58.0</ele><time>2026-03-22T14:56:51.999Z</time></trkpt><trkpt lat="47.74607113076127" lon="-1.7146827118163268"><ele>58.0</ele><time>2026-03-22T14:56:52.999Z</time></trkpt><trkpt lat="47.74596752554811" lon="-1.7148853830410025"><ele>58.0</ele><time>2026-03-22T14:56:53.999Z</time></trkpt><trkpt lat="47.74586348564645" lon="-1.7150794048493283"><ele>58.0</ele><time>2026-03-22T14:56:54.999Z</time></trkpt><trkpt lat="47.745775588577835" lon="-1.7152729824999577"><ele>58.0</ele><time>2026-03-22T14:56:55.999Z</time></trkpt><trkpt lat="47.74567928894814" lon="-1.71547123606815"><ele>58.0</ele><time>2026-03-22T14:56:56.999Z</time></trkpt><trkpt lat="47.74559113849533" lon="-1.7156784726544854"><ele>58.0</ele><time>2026-03-22T14:56:57.999Z</time></trkpt><trkpt lat="47.74546255491408" lon="-1.7158473382215023"><ele>58.0</ele><time>2026-03-22T14:56:58.999Z</time></trkpt><trkpt lat="47.745331253796124" lon="-1.7160166124459013"><ele>58.0</ele><time>2026-03-22T14:56:59.999Z</time></trkpt><trkpt lat="47.745191034854166" lon="-1.7161585478620567"><ele>58.0</ele><time>2026-03-22T14:57:00.999Z</time></trkpt><trkpt lat="47.74502901396415" lon="-1.7162793259286464"><ele>58.33333333333333</ele><time>2026-03-22T14:57:01.999Z</time></trkpt><trkpt lat="47.74485628402675" lon="-1.7163278110482107"><ele>58.66666666666667</ele><time>2026-03-22T14:57:02.999Z</time></trkpt><trkpt lat="47.74468148003117" lon="-1.7163761375853859"><ele>59.0</ele><time>2026-03-22T14:57:03.999Z</time></trkpt><trkpt lat="47.74454537943187" lon="-1.7164035432116294"><ele>59.0</ele><time>2026-03-22T14:57:04.999Z</time></trkpt><trkpt lat="47.74440941364879" lon="-1.7164225820369217"><ele>59.00000000000001</ele><time>2026-03-22T14:57:05.999Z</time></trkpt><trkpt lat="47.74434140045464" lon="-1.716445958263372"><ele>59.00000000000001</ele><time>2026-03-22T14:57:06.999Z</time></trkpt><trkpt lat="47.744394059743726" lon="-1.7165118773735442"><ele>59.0</ele><time>2026-03-22T14:57:07.999Z</time></trkpt><trkpt lat="47.744462936364194" lon="-1.7167321527855564"><ele>59.0</ele><time>2026-03-22T14:57:08.998Z</time></trkpt><trkpt lat="47.744478213217825" lon="-1.716867498809239"><ele>59.5</ele><time>2026-03-22T14:57:09.998Z</time></trkpt><trkpt lat="47.74448935924853" lon="-1.7170218134441058"><ele>60.0</ele><time>2026-03-22T14:57:10.998Z</time></trkpt><trkpt lat="47.74455397658802" lon="-1.717197869354082"><ele>60.5</ele><time>2026-03-22T14:57:11.998Z</time></trkpt><trkpt lat="47.74459046747266" lon="-1.7173660270451512"><ele>61.0</ele><time>2026-03-22T14:57:12.998Z</time></trkpt><trkpt lat="47.74467686583973" lon="-1.7175244300541208"><ele>61.0</ele><time>2026-03-22T14:57:13.998Z</time></trkpt><trkpt lat="47.74477989587197" lon="-1.7177267507911809"><ele>61.0</ele><time>2026-03-22T14:57:14.998Z</time></trkpt><trkpt lat="47.74490253688781" lon="-1.7178574548484409"><ele>61.0</ele><time>2026-03-22T14:57:15.998Z</time></trkpt><trkpt lat="47.74498669842594" lon="-1.7179373567990528"><ele>61.0</ele><time>2026-03-22T14:57:16.998Z</time></trkpt><trkpt lat="47.745089457324106" lon="-1.718021388126845"><ele>60.75</ele><time>2026-03-22T14:57:17.998Z</time></trkpt><trkpt lat="47.745246600116765" lon="-1.7181063323228696"><ele>60.5</ele><time>2026-03-22T14:57:18.998Z</time></trkpt><trkpt lat="47.745368898361185" lon="-1.7181407263547956"><ele>60.25</ele><time>2026-03-22T14:57:19.998Z</time></trkpt><trkpt lat="47.74544510320475" lon="-1.7181939001636504"><ele>60.0</ele><time>2026-03-22T14:57:20.998Z</time></trkpt><trkpt lat="47.74550149757851" lon="-1.71826972063958"><ele>60.0</ele><time>2026-03-22T14:57:21.998Z</time></trkpt><trkpt lat="47.74557039596625" lon="-1.7183718811088402"><ele>60.0</ele><time>2026-03-22T14:57:23Z</time></trkpt><trkpt lat="47.74561299834968" lon="-1.718598653534725"><ele>60.0</ele><time>2026-03-22T14:57:24Z</time></trkpt><trkpt lat="47.745631270997166" lon="-1.7188363175824415"><ele>60.0</ele><time>2026-03-22T14:57:25Z</time></trkpt><trkpt lat="47.74565671188562" lon="-1.719010442214952"><ele>60.5</ele><time>2026-03-22T14:57:26Z</time></trkpt><trkpt lat="47.74568577102982" lon="-1.7191651144856368"><ele>61.0</ele><time>2026-03-22T14:57:27Z</time></trkpt><trkpt lat="47.74571036043473" lon="-1.7193162514969649"><ele>61.5</ele><time>2026-03-22T14:57:28Z</time></trkpt><trkpt lat="47.7457266850468" lon="-1.7194875833908998"><ele>62.0</ele><time>2026-03-22T14:57:29Z</time></trkpt><trkpt lat="47.745756823208055" lon="-1.719692373512824"><ele>62.75</ele><time>2026-03-22T14:57:30Z</time></trkpt><trkpt lat="47.745796101369166" lon="-1.719886119574982"><ele>63.5</ele><time>2026-03-22T14:57:31Z</time></trkpt><trkpt lat="47.74583688471749" lon="-1.7200969806286264"><ele>64.25</ele><time>2026-03-22T14:57:32Z</time></trkpt><trkpt lat="47.74587489016288" lon="-1.7203285672787874"><ele>65.0</ele><time>2026-03-22T14:57:33Z</time></trkpt><trkpt lat="47.745903666172175" lon="-1.7205787871444547"><ele>65.2</ele><time>2026-03-22T14:57:34Z</time></trkpt><trkpt lat="47.745936527646045" lon="-1.7207847445234352"><ele>65.4</ele><time>2026-03-22T14:57:35Z</time></trkpt><trkpt lat="47.745969905980864" lon="-1.720932175120444"><ele>65.6</ele><time>2026-03-22T14:57:36Z</time></trkpt><trkpt lat="47.746003913221735" lon="-1.721054080989833"><ele>65.8</ele><time>2026-03-22T14:57:37Z</time></trkpt><trkpt lat="47.74607886710668" lon="-1.7211283058514482"><ele>66.0</ele><time>2026-03-22T14:57:38Z</time></trkpt><trkpt lat="47.746179196592756" lon="-1.7210936444783238"><ele>66.25</ele><time>2026-03-22T14:57:39Z</time></trkpt><trkpt lat="47.74626081549763" lon="-1.7211730687758038"><ele>66.5</ele><time>2026-03-22T14:57:40Z</time></trkpt><trkpt lat="47.7463296870258" lon="-1.721299222569809"><ele>66.75</ele><time>2026-03-22T14:57:41Z</time></trkpt><trkpt lat="47.746316337640465" lon="-1.7215284842809029"><ele>67.0</ele><time>2026-03-22T14:57:42Z</time></trkpt><trkpt lat="47.746297817755384" lon="-1.7217144506346096"><ele>67.25</ele><time>2026-03-22T14:57:43Z</time></trkpt><trkpt lat="47.746292300557826" lon="-1.721910182364644"><ele>67.5</ele><time>2026-03-22T14:57:44Z</time></trkpt><trkpt lat="47.74627676707394" lon="-1.7221096465151244"><ele>67.75</ele><time>2026-03-22T14:57:45Z</time></trkpt><trkpt lat="47.7462428043955" lon="-1.7223207631702142"><ele>68.0</ele><time>2026-03-22T14:57:46Z</time></trkpt><trkpt lat="47.74618375627072" lon="-1.7224975932490734"><ele>68.0</ele><time>2026-03-22T14:57:47Z</time></trkpt><trkpt lat="47.74611402096607" lon="-1.722668586070904"><ele>68.0</ele><time>2026-03-22T14:57:48Z</time></trkpt><trkpt lat="47.745995277420406" lon="-1.7228086746825246"><ele>68.0</ele><time>2026-03-22T14:57:49Z</time></trkpt><trkpt lat="47.74586353244815" lon="-1.7229474730488517"><ele>68.0</ele><time>2026-03-22T14:57:50Z</time></trkpt><trkpt lat="47.74574011576304" lon="-1.723026655307645"><ele>68.25</ele><time>2026-03-22T14:57:51Z</time></trkpt><trkpt lat="47.74562554221408" lon="-1.723087100330479"><ele>68.5</ele><time>2026-03-22T14:57:52Z</time></trkpt><trkpt lat="47.745475060318" lon="-1.7231292847253616"><ele>68.75</ele><time>2026-03-22T14:57:53Z</time></trkpt><trkpt lat="47.745340982958865" lon="-1.723130129587979"><ele>69.0</ele><time>2026-03-22T14:57:54Z</time></trkpt><trkpt lat="47.74520621744478" lon="-1.7231167790547013"><ele>69.0</ele><time>2026-03-22T14:57:55Z</time></trkpt><trkpt lat="47.745099620486926" lon="-1.7231169537895228"><ele>69.0</ele><time>2026-03-22T14:57:56Z</time></trkpt><trkpt lat="47.74499147387761" lon="-1.7231157274807771"><ele>69.0</ele><time>2026-03-22T14:57:57Z</time></trkpt><trkpt lat="47.74487152248524" lon="-1.7231288237654472"><ele>69.0</ele><time>2026-03-22T14:57:58Z</time></trkpt><trkpt lat="47.74473647756821" lon="-1.7231555286791893"><ele>69.0</ele><time>2026-03-22T14:57:59Z</time></trkpt><trkpt lat="47.74458838595868" lon="-1.7232688835499266"><ele>69.0</ele><time>2026-03-22T14:58:00Z</time></trkpt><trkpt lat="47.74441778033635" lon="-1.7233666051661443"><ele>69.0</ele><time>2026-03-22T14:58:01Z</time></trkpt><trkpt lat="47.744231569127784" lon="-1.7234722896557073"><ele>69.33333333333333</ele><time>2026-03-22T14:58:02Z</time></trkpt><trkpt lat="47.74405083349283" lon="-1.7235748665017767"><ele>69.66666666666666</ele><time>2026-03-22T14:58:03Z</time></trkpt><trkpt lat="47.74387957535572" lon="-1.7236720643629952"><ele>70.0</ele><time>2026-03-22T14:58:04Z</time></trkpt><trkpt lat="47.74370871315684" lon="-1.723714740061943"><ele>70.0</ele><time>2026-03-22T14:58:05Z</time></trkpt><trkpt lat="47.74358453998077" lon="-1.7237963214467968"><ele>70.0</ele><time>2026-03-22T14:58:06Z</time></trkpt><trkpt lat="47.74346938625078" lon="-1.723860505607463"><ele>70.0</ele><time>2026-03-22T14:58:07Z</time></trkpt><trkpt lat="47.74339015515425" lon="-1.7239168969881622"><ele>70.0</ele><time>2026-03-22T14:58:08Z</time></trkpt><trkpt lat="47.74333050298133" lon="-1.724005962435776"><ele>70.0</ele><time>2026-03-22T14:58:09Z</time></trkpt><trkpt lat="47.74325687024019" lon="-1.7240629688251523"><ele>70.0</ele><time>2026-03-22T14:58:10.999Z</time></trkpt><trkpt lat="47.74335204756484" lon="-1.7242603087372292"><ele>70.0</ele><time>2026-03-22T14:58:11.999Z</time></trkpt><trkpt lat="47.743383607862654" lon="-1.7243637565678884"><ele>70.0</ele><time>2026-03-22T14:58:12.999Z</time></trkpt><trkpt lat="47.743421184393775" lon="-1.7244860307997636"><ele>70.0</ele><time>2026-03-22T14:58:13.999Z</time></trkpt><trkpt lat="47.74345716854487" lon="-1.7246016984832513"><ele>70.0</ele><time>2026-03-22T14:58:14.999Z</time></trkpt><trkpt lat="47.74350335291858" lon="-1.7247477816740666"><ele>70.0</ele><time>2026-03-22T14:58:15.999Z</time></trkpt><trkpt lat="47.74355416271115" lon="-1.7249086270795757"><ele>70.0</ele><time>2026-03-22T14:58:16.999Z</time></trkpt><trkpt lat="47.74359001489419" lon="-1.7250222574804044"><ele>70.0</ele><time>2026-03-22T14:58:17.999Z</time></trkpt><trkpt lat="47.74362762351232" lon="-1.7251414547568469"><ele>70.0</ele><time>2026-03-22T14:58:19.999Z</time></trkpt><trkpt lat="47.7436543839268" lon="-1.7252262694961658"><ele>70.0</ele><time>2026-03-22T14:58:23.999Z</time></trkpt><trkpt lat="47.743527738925835" lon="-1.7253349154628121"><ele>70.0</ele><time>2026-03-22T14:58:29.999Z</time></trkpt><trkpt lat="47.74343038624111" lon="-1.725319957177957"><ele>70.0</ele><time>2026-03-22T14:58:30.999Z</time></trkpt><trkpt lat="47.74335858149845" lon="-1.7253150441917502"><ele>70.0</ele><time>2026-03-22T14:58:31.999Z</time></trkpt><trkpt lat="47.74328764282787" lon="-1.725324724156145"><ele>70.0</ele><time>2026-03-22T14:58:32.999Z</time></trkpt><trkpt lat="47.743202173291415" lon="-1.7253352206039494"><ele>70.0</ele><time>2026-03-22T14:58:33.999Z</time></trkpt><trkpt lat="47.743104433426744" lon="-1.7253405208751784"><ele>70.0</ele><time>2026-03-22T14:58:34.999Z</time></trkpt><trkpt lat="47.74298600285522" lon="-1.725364034100826"><ele>70.0</ele><time>2026-03-22T14:58:35.999Z</time></trkpt><trkpt lat="47.74287282627688" lon="-1.725374173507105"><ele>70.0</ele><time>2026-03-22T14:58:36.999Z</time></trkpt><trkpt lat="47.74275025894788" lon="-1.7253922203668428"><ele>70.0</ele><time>2026-03-22T14:58:37.999Z</time></trkpt><trkpt lat="47.742601124205954" lon="-1.7254191791138205"><ele>70.0</ele><time>2026-03-22T14:58:38.999Z</time></trkpt><trkpt lat="47.74244348701985" lon="-1.7254517833764225"><ele>70.33333333333333</ele><time>2026-03-22T14:58:39.999Z</time></trkpt><trkpt lat="47.742284953100686" lon="-1.7254856690317233"><ele>70.66666666666667</ele><time>2026-03-22T14:58:40.999Z</time></trkpt><trkpt lat="47.742124223930766" lon="-1.7255286815617241"><ele>71.0</ele><time>2026-03-22T14:58:41.999Z</time></trkpt><trkpt lat="47.741937076800355" lon="-1.7255759536927022"><ele>71.66666666666667</ele><time>2026-03-22T14:58:42.999Z</time></trkpt><trkpt lat="47.74173079528673" lon="-1.7256096753991181"><ele>72.33333333333333</ele><time>2026-03-22T14:58:43.999Z</time></trkpt><trkpt lat="47.74154445423407" lon="-1.7256620597815366"><ele>73.0</ele><time>2026-03-22T14:58:44.999Z</time></trkpt><trkpt lat="47.74135523690689" lon="-1.7257003989194608"><ele>73.0</ele><time>2026-03-22T14:58:45.999Z</time></trkpt><trkpt lat="47.74115115620029" lon="-1.725744339899376"><ele>73.0</ele><time>2026-03-22T14:58:46.999Z</time></trkpt><trkpt lat="47.740910292849705" lon="-1.7257832251612728"><ele>73.0</ele><time>2026-03-22T14:58:47.999Z</time></trkpt><trkpt lat="47.74069264967331" lon="-1.7258346762482868"><ele>72.66666666666666</ele><time>2026-03-22T14:58:48.999Z</time></trkpt><trkpt lat="47.74046739479874" lon="-1.7258907058917552"><ele>72.33333333333333</ele><time>2026-03-22T14:58:49.999Z</time></trkpt><trkpt lat="47.74024972427998" lon="-1.7259319116671175"><ele>72.0</ele><time>2026-03-22T14:58:50.999Z</time></trkpt><trkpt lat="47.74003131148316" lon="-1.7259686184266934"><ele>72.33333333333333</ele><time>2026-03-22T14:58:51.999Z</time></trkpt><trkpt lat="47.73984740803248" lon="-1.7260108750358416"><ele>72.66666666666666</ele><time>2026-03-22T14:58:52.999Z</time></trkpt><trkpt lat="47.739660480963806" lon="-1.7260566819878989"><ele>73.0</ele><time>2026-03-22T14:58:53.999Z</time></trkpt><trkpt lat="47.73948626971033" lon="-1.7261046879350106"><ele>73.33333333333333</ele><time>2026-03-22T14:58:54.999Z</time></trkpt><trkpt lat="47.73930336228857" lon="-1.7261283904714795"><ele>73.66666666666667</ele><time>2026-03-22T14:58:55.999Z</time></trkpt><trkpt lat="47.739130970201536" lon="-1.7261655513088572"><ele>74.0</ele><time>2026-03-22T14:58:56.999Z</time></trkpt><trkpt lat="47.738955286073114" lon="-1.7262045541896918"><ele>74.0</ele><time>2026-03-22T14:58:57.999Z</time></trkpt><trkpt lat="47.73878872556574" lon="-1.7262389574247814"><ele>74.0</ele><time>2026-03-22T14:58:58.999Z</time></trkpt><trkpt lat="47.738619710189504" lon="-1.726280757830343"><ele>74.0</ele><time>2026-03-22T14:58:59.999Z</time></trkpt><trkpt lat="47.738447382970605" lon="-1.7263156756648081"><ele>73.33333333333334</ele><time>2026-03-22T14:59:00.999Z</time></trkpt><trkpt lat="47.73826766793231" lon="-1.7263456254976879"><ele>72.66666666666667</ele><time>2026-03-22T14:59:01.999Z</time></trkpt><trkpt lat="47.73808559939424" lon="-1.7263738874010413"><ele>72.0</ele><time>2026-03-22T14:59:02.999Z</time></trkpt><trkpt lat="47.737906532058425" lon="-1.7264085476705613"><ele>71.66666666666667</ele><time>2026-03-22T14:59:03.999Z</time></trkpt><trkpt lat="47.73771789459654" lon="-1.72644140590583"><ele>71.33333333333334</ele><time>2026-03-22T14:59:04.999Z</time></trkpt><trkpt lat="47.73752754254064" lon="-1.726470579345995"><ele>71.0</ele><time>2026-03-22T14:59:05.999Z</time></trkpt><trkpt lat="47.737338682626465" lon="-1.7265159087768696"><ele>71.0</ele><time>2026-03-22T14:59:06.999Z</time></trkpt><trkpt lat="47.73714426499572" lon="-1.7265545340028827"><ele>71.0</ele><time>2026-03-22T14:59:07.999Z</time></trkpt><trkpt lat="47.736948306859695" lon="-1.726600516101784"><ele>71.0</ele><time>2026-03-22T14:59:08.999Z</time></trkpt><trkpt lat="47.736744427758666" lon="-1.726639205575015"><ele>71.0</ele><time>2026-03-22T14:59:09.999Z</time></trkpt><trkpt lat="47.73652668970913" lon="-1.726684200780412"><ele>71.0</ele><time>2026-03-22T14:59:10.999Z</time></trkpt><trkpt lat="47.73629755634041" lon="-1.7267365513092012"><ele>69.5</ele><time>2026-03-22T14:59:11.999Z</time></trkpt><trkpt lat="47.73604630374392" lon="-1.7267723832798594"><ele>68.0</ele><time>2026-03-22T14:59:12.999Z</time></trkpt><trkpt lat="47.73578990037348" lon="-1.7268440394638498"><ele>67.5</ele><time>2026-03-22T14:59:13.998Z</time></trkpt><trkpt lat="47.735480797501815" lon="-1.726907498534854"><ele>67.0</ele><time>2026-03-22T14:59:14.998Z</time></trkpt><trkpt lat="47.73518133429144" lon="-1.72694298318815"><ele>66.0</ele><time>2026-03-22T14:59:15.998Z</time></trkpt><trkpt lat="47.7348753942002" lon="-1.7270285665621004"><ele>65.0</ele><time>2026-03-22T14:59:16.998Z</time></trkpt><trkpt lat="47.734575835528624" lon="-1.7271755260345771"><ele>66.0</ele><time>2026-03-22T14:59:17.998Z</time></trkpt><trkpt lat="47.73427459339916" lon="-1.7273185176350931"><ele>67.0</ele><time>2026-03-22T14:59:18.998Z</time></trkpt><trkpt lat="47.73400719581496" lon="-1.7274605262029001"><ele>67.0</ele><time>2026-03-22T14:59:19.998Z</time></trkpt><trkpt lat="47.73377504672034" lon="-1.7275913471664925"><ele>67.0</ele><time>2026-03-22T14:59:20.998Z</time></trkpt><trkpt lat="47.733547703820825" lon="-1.7276965483127122"><ele>66.33333333333333</ele><time>2026-03-22T14:59:21.998Z</time></trkpt><trkpt lat="47.7333473299129" lon="-1.7278105893872486"><ele>65.66666666666667</ele><time>2026-03-22T14:59:22.998Z</time></trkpt><trkpt lat="47.73315315735589" lon="-1.7278675120348268"><ele>65.0</ele><time>2026-03-22T14:59:23.998Z</time></trkpt><trkpt lat="47.73297319661865" lon="-1.7279751352570965"><ele>65.0</ele><time>2026-03-22T14:59:24.998Z</time></trkpt><trkpt lat="47.73280678512371" lon="-1.7280819997186951"><ele>65.0</ele><time>2026-03-22T14:59:25.998Z</time></trkpt><trkpt lat="47.732648134863055" lon="-1.7281818290473643"><ele>65.0</ele><time>2026-03-22T14:59:26.998Z</time></trkpt><trkpt lat="47.732484010037325" lon="-1.7282941199315587"><ele>65.0</ele><time>2026-03-22T14:59:27.998Z</time></trkpt><trkpt lat="47.73232291879704" lon="-1.728406115940692"><ele>65.0</ele><time>2026-03-22T14:59:29Z</time></trkpt><trkpt lat="47.73215666984097" lon="-1.7285125183047245"><ele>65.0</ele><time>2026-03-22T14:59:30Z</time></trkpt><trkpt lat="47.731994235068555" lon="-1.7286134418742651"><ele>63.66666666666667</ele><time>2026-03-22T14:59:31Z</time></trkpt><trkpt lat="47.731831515986755" lon="-1.7287357137713855"><ele>62.33333333333333</ele><time>2026-03-22T14:59:32Z</time></trkpt><trkpt lat="47.73165597392945" lon="-1.7288664438275538"><ele>61.0</ele><time>2026-03-22T14:59:33Z</time></trkpt><trkpt lat="47.731463307996485" lon="-1.7289884351966955"><ele>61.0</ele><time>2026-03-22T14:59:34Z</time></trkpt><trkpt lat="47.73125717816997" lon="-1.729123159967026"><ele>61.0</ele><time>2026-03-22T14:59:35Z</time></trkpt><trkpt lat="47.73103763375274" lon="-1.7292649769090125"><ele>59.666666666666664</ele><time>2026-03-22T14:59:36Z</time></trkpt><trkpt lat="47.73083842976248" lon="-1.7294009144934774"><ele>58.33333333333333</ele><time>2026-03-22T14:59:37Z</time></trkpt><trkpt lat="47.73065868617323" lon="-1.7295333930659265"><ele>57.0</ele><time>2026-03-22T14:59:38Z</time></trkpt><trkpt lat="47.73048085852593" lon="-1.7296591176286826"><ele>57.0</ele><time>2026-03-22T14:59:39Z</time></trkpt><trkpt lat="47.730323360828514" lon="-1.7297716740623066"><ele>57.0</ele><time>2026-03-22T14:59:40Z</time></trkpt><trkpt lat="47.73016490602314" lon="-1.7298760198971541"><ele>57.0</ele><time>2026-03-22T14:59:41Z</time></trkpt><trkpt lat="47.730008156921464" lon="-1.729939750126597"><ele>57.66666666666667</ele><time>2026-03-22T14:59:42Z</time></trkpt><trkpt lat="47.7298762851114" lon="-1.7299817351654352"><ele>58.333333333333336</ele><time>2026-03-22T14:59:43Z</time></trkpt><trkpt lat="47.72971750752583" lon="-1.7299889507921526"><ele>59.0</ele><time>2026-03-22T14:59:44Z</time></trkpt><trkpt lat="47.72955146679573" lon="-1.729989967284533"><ele>58.333333333333336</ele><time>2026-03-22T14:59:45Z</time></trkpt><trkpt lat="47.72938276166716" lon="-1.7299627530696702"><ele>57.66666666666667</ele><time>2026-03-22T14:59:46Z</time></trkpt><trkpt lat="47.72920823901452" lon="-1.7299328032037862"><ele>57.0</ele><time>2026-03-22T14:59:47Z</time></trkpt><trkpt lat="47.72904769852567" lon="-1.729907387308202"><ele>57.0</ele><time>2026-03-22T14:59:48Z</time></trkpt><trkpt lat="47.7288996318016" lon="-1.7298941778789247"><ele>57.0</ele><time>2026-03-22T14:59:49Z</time></trkpt><trkpt lat="47.728803474587636" lon="-1.7298843084865894"><ele>57.0</ele><time>2026-03-22T14:59:50Z</time></trkpt><trkpt lat="47.72871378502808" lon="-1.7299166191171869"><ele>57.0</ele><time>2026-03-22T14:59:51Z</time></trkpt><trkpt lat="47.72862910507375" lon="-1.729946045892813"><ele>57.0</ele><time>2026-03-22T14:59:52Z</time></trkpt><trkpt lat="47.728543887722005" lon="-1.7299795627700154"><ele>57.0</ele><time>2026-03-22T14:59:53Z</time></trkpt><trkpt lat="47.728445607355546" lon="-1.7300222813695791"><ele>57.0</ele><time>2026-03-22T14:59:55Z</time></trkpt><trkpt lat="47.728347225826404" lon="-1.7297466756086897"><ele>57.0</ele><time>2026-03-22T14:59:59Z</time></trkpt><trkpt lat="47.72833695432449" lon="-1.7296408783391413"><ele>57.0</ele><time>2026-03-22T15:00:01Z</time></trkpt><trkpt lat="47.728308415855366" lon="-1.7295492943071624"><ele>57.0</ele><time>2026-03-22T15:00:05Z</time></trkpt><trkpt lat="47.72820460153404" lon="-1.72962279484803"><ele>57.0</ele><time>2026-03-22T15:00:06Z</time></trkpt><trkpt lat="47.72812743990848" lon="-1.729646840610637"><ele>57.0</ele><time>2026-03-22T15:00:08Z</time></trkpt><trkpt lat="47.72806226345871" lon="-1.7296639301104428"><ele>57.0</ele><time>2026-03-22T15:00:11.999Z</time></trkpt><trkpt lat="47.72797690061966" lon="-1.7296853003591743"><ele>57.0</ele><time>2026-03-22T15:00:14.999Z</time></trkpt><trkpt lat="47.727914487810686" lon="-1.7296985731131453"><ele>57.0</ele><time>2026-03-22T15:00:16.999Z</time></trkpt><trkpt lat="47.72782523225794" lon="-1.7297129039091461"><ele>57.0</ele><time>2026-03-22T15:00:21.999Z</time></trkpt><trkpt lat="47.72775799267682" lon="-1.7297157244543597"><ele>57.0</ele><time>2026-03-22T15:00:23.999Z</time></trkpt><trkpt lat="47.727691836823226" lon="-1.7296605665592613"><ele>57.0</ele><time>2026-03-22T15:00:28.999Z</time></trkpt><trkpt lat="47.72770718431904" lon="-1.729489082557871"><ele>57.0</ele><time>2026-03-22T15:00:52.999Z</time></trkpt><trkpt lat="47.727714690147664" lon="-1.7293733458261697"><ele>57.0</ele><time>2026-03-22T15:00:59.999Z</time></trkpt><trkpt lat="47.72769749015107" lon="-1.729268802617701"><ele>57.0</ele><time>2026-03-22T15:01:05.999Z</time></trkpt><trkpt lat="47.72769229723738" lon="-1.729150804344642"><ele>56.33333333333333</ele><time>2026-03-22T15:01:10.999Z</time></trkpt><trkpt lat="47.727676692296356" lon="-1.729035761323979"><ele>55.666666666666664</ele><time>2026-03-22T15:01:14.999Z</time></trkpt><trkpt lat="47.72768277583173" lon="-1.7289344500067523"><ele>55.0</ele><time>2026-03-22T15:01:17.998Z</time></trkpt><trkpt lat="47.72769560616818" lon="-1.729448833265339"><ele>55.0</ele><time>2026-03-22T15:01:18.998Z</time></trkpt><trkpt lat="47.727709445502455" lon="-1.7295404630461224"><ele>55.0</ele><time>2026-03-22T15:01:25.998Z</time></trkpt><trkpt lat="47.727193526706785" lon="-1.7293145545215118"><ele>54.0</ele><time>2026-03-22T15:03:21.527Z</time></trkpt><trkpt lat="47.72770747393079" lon="-1.7294823706991536"><ele>54.0</ele><time>2026-03-22T15:03:33.021Z</time></trkpt></trkseg></trk></gpx>